<?xml version="1.0" encoding="UTF-8" standalone="no" ?>
<gpx xmlns="http://www.topografix.com/GPX/1/1" xmlns:xsi="http://www.w3.org/2001/XMLSchema-instance" xsi:schemaLocation="http://www.topografix.com/GPX/1/1 http://www.topografix.com/GPX/1/1/gpx.xsd" version="1.1" creator="VisuGPX - https://www.visugpx.com">
  <metadata>
    <name>Lances de Malissard, versant E par l\'Aulp du Seuil</name>
    <desc><![CDATA[Lances de Malissard, versant E par l\'Aulp du Seuil, sortie du 26 janvier 2013, ski de randonnée.]]></desc>
  </metadata>
  <trk>
    <name><![CDATA[Trk001]]></name>
    <trkseg>
      <trkpt lat="45.35606" lon="5.91905">
        <ele>1066</ele>
        <time>2013-01-26T07:32:46Z</time>
      </trkpt>
      <trkpt lat="45.35601" lon="5.91901">
        <ele>1067</ele>
        <time>2013-01-26T07:32:51Z</time>
      </trkpt>
      <trkpt lat="45.35597" lon="5.91897">
        <ele>1065</ele>
        <time>2013-01-26T07:32:56Z</time>
      </trkpt>
      <trkpt lat="45.35593" lon="5.91891">
        <ele>1063</ele>
        <time>2013-01-26T07:33:01Z</time>
      </trkpt>
      <trkpt lat="45.35591" lon="5.91885">
        <ele>1063</ele>
        <time>2013-01-26T07:33:06Z</time>
      </trkpt>
      <trkpt lat="45.3559" lon="5.91881">
        <ele>1064</ele>
        <time>2013-01-26T07:33:11Z</time>
      </trkpt>
      <trkpt lat="45.35589" lon="5.91876">
        <ele>1065</ele>
        <time>2013-01-26T07:33:16Z</time>
      </trkpt>
      <trkpt lat="45.35589" lon="5.91873">
        <ele>1066</ele>
        <time>2013-01-26T07:33:21Z</time>
      </trkpt>
      <trkpt lat="45.3559" lon="5.91872">
        <ele>1067</ele>
        <time>2013-01-26T07:33:26Z</time>
      </trkpt>
      <trkpt lat="45.35592" lon="5.91869">
        <ele>1067</ele>
        <time>2013-01-26T07:33:31Z</time>
      </trkpt>
      <trkpt lat="45.35597" lon="5.91866">
        <ele>1066</ele>
        <time>2013-01-26T07:33:36Z</time>
      </trkpt>
      <trkpt lat="45.35601" lon="5.91862">
        <ele>1065</ele>
        <time>2013-01-26T07:33:41Z</time>
      </trkpt>
      <trkpt lat="45.35603" lon="5.91858">
        <ele>1066</ele>
        <time>2013-01-26T07:33:46Z</time>
      </trkpt>
      <trkpt lat="45.35601" lon="5.91858">
        <ele>1066</ele>
        <time>2013-01-26T07:33:51Z</time>
      </trkpt>
      <trkpt lat="45.35595" lon="5.91856">
        <ele>1065</ele>
        <time>2013-01-26T07:33:56Z</time>
      </trkpt>
      <trkpt lat="45.35591" lon="5.9185">
        <ele>1067</ele>
        <time>2013-01-26T07:34:01Z</time>
      </trkpt>
      <trkpt lat="45.3559" lon="5.91844">
        <ele>1068</ele>
        <time>2013-01-26T07:34:06Z</time>
      </trkpt>
      <trkpt lat="45.3559" lon="5.91842">
        <ele>1067</ele>
        <time>2013-01-26T07:34:11Z</time>
      </trkpt>
      <trkpt lat="45.35591" lon="5.91839">
        <ele>1065</ele>
        <time>2013-01-26T07:34:16Z</time>
      </trkpt>
      <trkpt lat="45.3559" lon="5.91839">
        <ele>1065</ele>
        <time>2013-01-26T07:34:21Z</time>
      </trkpt>
      <trkpt lat="45.35591" lon="5.91839">
        <ele>1064</ele>
        <time>2013-01-26T07:34:26Z</time>
      </trkpt>
      <trkpt lat="45.35591" lon="5.91838">
        <ele>1063</ele>
        <time>2013-01-26T07:34:31Z</time>
      </trkpt>
      <trkpt lat="45.35591" lon="5.91834">
        <ele>1063</ele>
        <time>2013-01-26T07:34:36Z</time>
      </trkpt>
      <trkpt lat="45.35591" lon="5.91828">
        <ele>1064</ele>
        <time>2013-01-26T07:34:41Z</time>
      </trkpt>
      <trkpt lat="45.35591" lon="5.91822">
        <ele>1065</ele>
        <time>2013-01-26T07:34:46Z</time>
      </trkpt>
      <trkpt lat="45.35591" lon="5.91817">
        <ele>1067</ele>
        <time>2013-01-26T07:34:51Z</time>
      </trkpt>
      <trkpt lat="45.35592" lon="5.91812">
        <ele>1068</ele>
        <time>2013-01-26T07:34:56Z</time>
      </trkpt>
      <trkpt lat="45.35592" lon="5.91807">
        <ele>1071</ele>
        <time>2013-01-26T07:35:01Z</time>
      </trkpt>
      <trkpt lat="45.35592" lon="5.91802">
        <ele>1074</ele>
        <time>2013-01-26T07:35:06Z</time>
      </trkpt>
      <trkpt lat="45.35593" lon="5.91796">
        <ele>1076</ele>
        <time>2013-01-26T07:35:11Z</time>
      </trkpt>
      <trkpt lat="45.35592" lon="5.91791">
        <ele>1078</ele>
        <time>2013-01-26T07:35:16Z</time>
      </trkpt>
      <trkpt lat="45.35591" lon="5.91787">
        <ele>1077</ele>
        <time>2013-01-26T07:35:21Z</time>
      </trkpt>
      <trkpt lat="45.3559" lon="5.91782">
        <ele>1079</ele>
        <time>2013-01-26T07:35:26Z</time>
      </trkpt>
      <trkpt lat="45.3559" lon="5.91778">
        <ele>1081</ele>
        <time>2013-01-26T07:35:31Z</time>
      </trkpt>
      <trkpt lat="45.3559" lon="5.91773">
        <ele>1083</ele>
        <time>2013-01-26T07:35:36Z</time>
      </trkpt>
      <trkpt lat="45.35589" lon="5.91768">
        <ele>1084</ele>
        <time>2013-01-26T07:35:41Z</time>
      </trkpt>
      <trkpt lat="45.35588" lon="5.91762">
        <ele>1083</ele>
        <time>2013-01-26T07:35:46Z</time>
      </trkpt>
      <trkpt lat="45.35587" lon="5.91757">
        <ele>1082</ele>
        <time>2013-01-26T07:35:51Z</time>
      </trkpt>
      <trkpt lat="45.35584" lon="5.91753">
        <ele>1082</ele>
        <time>2013-01-26T07:35:56Z</time>
      </trkpt>
      <trkpt lat="45.35583" lon="5.9175">
        <ele>1083</ele>
        <time>2013-01-26T07:36:01Z</time>
      </trkpt>
      <trkpt lat="45.35583" lon="5.91746">
        <ele>1086</ele>
        <time>2013-01-26T07:36:06Z</time>
      </trkpt>
      <trkpt lat="45.35581" lon="5.91742">
        <ele>1088</ele>
        <time>2013-01-26T07:36:11Z</time>
      </trkpt>
      <trkpt lat="45.35581" lon="5.91739">
        <ele>1090</ele>
        <time>2013-01-26T07:36:16Z</time>
      </trkpt>
      <trkpt lat="45.35579" lon="5.91734">
        <ele>1091</ele>
        <time>2013-01-26T07:36:21Z</time>
      </trkpt>
      <trkpt lat="45.35579" lon="5.91733">
        <ele>1091</ele>
        <time>2013-01-26T07:36:26Z</time>
      </trkpt>
      <trkpt lat="45.35579" lon="5.91728">
        <ele>1091</ele>
        <time>2013-01-26T07:36:31Z</time>
      </trkpt>
      <trkpt lat="45.35579" lon="5.91723">
        <ele>1092</ele>
        <time>2013-01-26T07:36:36Z</time>
      </trkpt>
      <trkpt lat="45.35578" lon="5.91719">
        <ele>1093</ele>
        <time>2013-01-26T07:36:41Z</time>
      </trkpt>
      <trkpt lat="45.35579" lon="5.91716">
        <ele>1094</ele>
        <time>2013-01-26T07:36:46Z</time>
      </trkpt>
      <trkpt lat="45.3558" lon="5.91713">
        <ele>1096</ele>
        <time>2013-01-26T07:36:51Z</time>
      </trkpt>
      <trkpt lat="45.35583" lon="5.91708">
        <ele>1097</ele>
        <time>2013-01-26T07:36:56Z</time>
      </trkpt>
      <trkpt lat="45.35585" lon="5.91705">
        <ele>1097</ele>
        <time>2013-01-26T07:37:01Z</time>
      </trkpt>
      <trkpt lat="45.35588" lon="5.91702">
        <ele>1098</ele>
        <time>2013-01-26T07:37:06Z</time>
      </trkpt>
      <trkpt lat="45.3559" lon="5.917">
        <ele>1098</ele>
        <time>2013-01-26T07:37:11Z</time>
      </trkpt>
      <trkpt lat="45.35592" lon="5.91697">
        <ele>1098</ele>
        <time>2013-01-26T07:37:16Z</time>
      </trkpt>
      <trkpt lat="45.35594" lon="5.91693">
        <ele>1097</ele>
        <time>2013-01-26T07:37:21Z</time>
      </trkpt>
      <trkpt lat="45.35596" lon="5.91688">
        <ele>1096</ele>
        <time>2013-01-26T07:37:26Z</time>
      </trkpt>
      <trkpt lat="45.35597" lon="5.91685">
        <ele>1095</ele>
        <time>2013-01-26T07:37:31Z</time>
      </trkpt>
      <trkpt lat="45.356" lon="5.91681">
        <ele>1094</ele>
        <time>2013-01-26T07:37:36Z</time>
      </trkpt>
      <trkpt lat="45.35602" lon="5.91677">
        <ele>1095</ele>
        <time>2013-01-26T07:37:41Z</time>
      </trkpt>
      <trkpt lat="45.35603" lon="5.91672">
        <ele>1098</ele>
        <time>2013-01-26T07:37:46Z</time>
      </trkpt>
      <trkpt lat="45.35605" lon="5.91668">
        <ele>1099</ele>
        <time>2013-01-26T07:37:51Z</time>
      </trkpt>
      <trkpt lat="45.35608" lon="5.91662">
        <ele>1100</ele>
        <time>2013-01-26T07:37:56Z</time>
      </trkpt>
      <trkpt lat="45.35612" lon="5.91659">
        <ele>1100</ele>
        <time>2013-01-26T07:38:01Z</time>
      </trkpt>
      <trkpt lat="45.35614" lon="5.91653">
        <ele>1101</ele>
        <time>2013-01-26T07:38:06Z</time>
      </trkpt>
      <trkpt lat="45.35616" lon="5.91649">
        <ele>1102</ele>
        <time>2013-01-26T07:38:11Z</time>
      </trkpt>
      <trkpt lat="45.35616" lon="5.91646">
        <ele>1099</ele>
        <time>2013-01-26T07:38:16Z</time>
      </trkpt>
      <trkpt lat="45.35615" lon="5.91645">
        <ele>1096</ele>
        <time>2013-01-26T07:38:21Z</time>
      </trkpt>
      <trkpt lat="45.35614" lon="5.91642">
        <ele>1097</ele>
        <time>2013-01-26T07:38:26Z</time>
      </trkpt>
      <trkpt lat="45.35614" lon="5.9164">
        <ele>1099</ele>
        <time>2013-01-26T07:38:31Z</time>
      </trkpt>
      <trkpt lat="45.35613" lon="5.91635">
        <ele>1100</ele>
        <time>2013-01-26T07:38:36Z</time>
      </trkpt>
      <trkpt lat="45.35611" lon="5.91631">
        <ele>1100</ele>
        <time>2013-01-26T07:38:41Z</time>
      </trkpt>
      <trkpt lat="45.35608" lon="5.91627">
        <ele>1101</ele>
        <time>2013-01-26T07:38:46Z</time>
      </trkpt>
      <trkpt lat="45.35605" lon="5.91623">
        <ele>1102</ele>
        <time>2013-01-26T07:38:51Z</time>
      </trkpt>
      <trkpt lat="45.35605" lon="5.91618">
        <ele>1107</ele>
        <time>2013-01-26T07:38:56Z</time>
      </trkpt>
      <trkpt lat="45.35606" lon="5.91613">
        <ele>1109</ele>
        <time>2013-01-26T07:39:01Z</time>
      </trkpt>
      <trkpt lat="45.35606" lon="5.91607">
        <ele>1111</ele>
        <time>2013-01-26T07:39:06Z</time>
      </trkpt>
      <trkpt lat="45.35605" lon="5.91601">
        <ele>1112</ele>
        <time>2013-01-26T07:39:11Z</time>
      </trkpt>
      <trkpt lat="45.35604" lon="5.91596">
        <ele>1112</ele>
        <time>2013-01-26T07:39:16Z</time>
      </trkpt>
      <trkpt lat="45.35602" lon="5.91591">
        <ele>1110</ele>
        <time>2013-01-26T07:39:21Z</time>
      </trkpt>
      <trkpt lat="45.35602" lon="5.91583">
        <ele>1109</ele>
        <time>2013-01-26T07:39:26Z</time>
      </trkpt>
      <trkpt lat="45.35603" lon="5.91575">
        <ele>1109</ele>
        <time>2013-01-26T07:39:31Z</time>
      </trkpt>
      <trkpt lat="45.35604" lon="5.91568">
        <ele>1108</ele>
        <time>2013-01-26T07:39:36Z</time>
      </trkpt>
      <trkpt lat="45.35605" lon="5.91564">
        <ele>1110</ele>
        <time>2013-01-26T07:39:41Z</time>
      </trkpt>
      <trkpt lat="45.35605" lon="5.91562">
        <ele>1110</ele>
        <time>2013-01-26T07:39:46Z</time>
      </trkpt>
      <trkpt lat="45.35606" lon="5.9156">
        <ele>1108</ele>
        <time>2013-01-26T07:39:51Z</time>
      </trkpt>
      <trkpt lat="45.35607" lon="5.91557">
        <ele>1109</ele>
        <time>2013-01-26T07:39:56Z</time>
      </trkpt>
      <trkpt lat="45.35611" lon="5.91558">
        <ele>1109</ele>
        <time>2013-01-26T07:40:01Z</time>
      </trkpt>
      <trkpt lat="45.35609" lon="5.91564">
        <ele>1110</ele>
        <time>2013-01-26T07:40:06Z</time>
      </trkpt>
      <trkpt lat="45.3561" lon="5.91568">
        <ele>1111</ele>
        <time>2013-01-26T07:40:11Z</time>
      </trkpt>
      <trkpt lat="45.3561" lon="5.91574">
        <ele>1112</ele>
        <time>2013-01-26T07:40:16Z</time>
      </trkpt>
      <trkpt lat="45.35611" lon="5.91578">
        <ele>1113</ele>
        <time>2013-01-26T07:40:21Z</time>
      </trkpt>
      <trkpt lat="45.35615" lon="5.9158">
        <ele>1112</ele>
        <time>2013-01-26T07:40:26Z</time>
      </trkpt>
      <trkpt lat="45.35619" lon="5.9158">
        <ele>1113</ele>
        <time>2013-01-26T07:40:31Z</time>
      </trkpt>
      <trkpt lat="45.35622" lon="5.91577">
        <ele>1114</ele>
        <time>2013-01-26T07:40:36Z</time>
      </trkpt>
      <trkpt lat="45.35624" lon="5.91571">
        <ele>1114</ele>
        <time>2013-01-26T07:40:41Z</time>
      </trkpt>
      <trkpt lat="45.35625" lon="5.91567">
        <ele>1116</ele>
        <time>2013-01-26T07:40:46Z</time>
      </trkpt>
      <trkpt lat="45.35626" lon="5.91561">
        <ele>1117</ele>
        <time>2013-01-26T07:40:51Z</time>
      </trkpt>
      <trkpt lat="45.35627" lon="5.91556">
        <ele>1120</ele>
        <time>2013-01-26T07:40:56Z</time>
      </trkpt>
      <trkpt lat="45.35628" lon="5.9155">
        <ele>1122</ele>
        <time>2013-01-26T07:41:01Z</time>
      </trkpt>
      <trkpt lat="45.35628" lon="5.91545">
        <ele>1124</ele>
        <time>2013-01-26T07:41:06Z</time>
      </trkpt>
      <trkpt lat="45.35628" lon="5.91539">
        <ele>1126</ele>
        <time>2013-01-26T07:41:11Z</time>
      </trkpt>
      <trkpt lat="45.35627" lon="5.91534">
        <ele>1128</ele>
        <time>2013-01-26T07:41:16Z</time>
      </trkpt>
      <trkpt lat="45.35627" lon="5.91528">
        <ele>1129</ele>
        <time>2013-01-26T07:41:21Z</time>
      </trkpt>
      <trkpt lat="45.35627" lon="5.91522">
        <ele>1131</ele>
        <time>2013-01-26T07:41:26Z</time>
      </trkpt>
      <trkpt lat="45.35626" lon="5.91518">
        <ele>1133</ele>
        <time>2013-01-26T07:41:31Z</time>
      </trkpt>
      <trkpt lat="45.35626" lon="5.91513">
        <ele>1133</ele>
        <time>2013-01-26T07:41:36Z</time>
      </trkpt>
      <trkpt lat="45.35627" lon="5.91511">
        <ele>1131</ele>
        <time>2013-01-26T07:41:41Z</time>
      </trkpt>
      <trkpt lat="45.35629" lon="5.91505">
        <ele>1131</ele>
        <time>2013-01-26T07:41:46Z</time>
      </trkpt>
      <trkpt lat="45.3563" lon="5.915">
        <ele>1131</ele>
        <time>2013-01-26T07:41:51Z</time>
      </trkpt>
      <trkpt lat="45.3563" lon="5.91496">
        <ele>1130</ele>
        <time>2013-01-26T07:41:56Z</time>
      </trkpt>
      <trkpt lat="45.35631" lon="5.91494">
        <ele>1130</ele>
        <time>2013-01-26T07:42:01Z</time>
      </trkpt>
      <trkpt lat="45.35633" lon="5.91496">
        <ele>1129</ele>
        <time>2013-01-26T07:42:06Z</time>
      </trkpt>
      <trkpt lat="45.35634" lon="5.915">
        <ele>1129</ele>
        <time>2013-01-26T07:42:11Z</time>
      </trkpt>
      <trkpt lat="45.35634" lon="5.91505">
        <ele>1129</ele>
        <time>2013-01-26T07:42:16Z</time>
      </trkpt>
      <trkpt lat="45.35636" lon="5.9151">
        <ele>1128</ele>
        <time>2013-01-26T07:42:21Z</time>
      </trkpt>
      <trkpt lat="45.35639" lon="5.91513">
        <ele>1129</ele>
        <time>2013-01-26T07:42:26Z</time>
      </trkpt>
      <trkpt lat="45.35643" lon="5.91515">
        <ele>1129</ele>
        <time>2013-01-26T07:42:31Z</time>
      </trkpt>
      <trkpt lat="45.35647" lon="5.91517">
        <ele>1129</ele>
        <time>2013-01-26T07:42:36Z</time>
      </trkpt>
      <trkpt lat="45.3565" lon="5.91518">
        <ele>1130</ele>
        <time>2013-01-26T07:42:41Z</time>
      </trkpt>
      <trkpt lat="45.35654" lon="5.91516">
        <ele>1131</ele>
        <time>2013-01-26T07:42:46Z</time>
      </trkpt>
      <trkpt lat="45.35657" lon="5.91513">
        <ele>1131</ele>
        <time>2013-01-26T07:42:51Z</time>
      </trkpt>
      <trkpt lat="45.35659" lon="5.91509">
        <ele>1132</ele>
        <time>2013-01-26T07:42:56Z</time>
      </trkpt>
      <trkpt lat="45.35661" lon="5.91504">
        <ele>1132</ele>
        <time>2013-01-26T07:43:01Z</time>
      </trkpt>
      <trkpt lat="45.35662" lon="5.915">
        <ele>1134</ele>
        <time>2013-01-26T07:43:06Z</time>
      </trkpt>
      <trkpt lat="45.35663" lon="5.91496">
        <ele>1135</ele>
        <time>2013-01-26T07:43:11Z</time>
      </trkpt>
      <trkpt lat="45.35665" lon="5.9149">
        <ele>1134</ele>
        <time>2013-01-26T07:43:16Z</time>
      </trkpt>
      <trkpt lat="45.35668" lon="5.91486">
        <ele>1132</ele>
        <time>2013-01-26T07:43:21Z</time>
      </trkpt>
      <trkpt lat="45.35669" lon="5.91483">
        <ele>1132</ele>
        <time>2013-01-26T07:43:26Z</time>
      </trkpt>
      <trkpt lat="45.35672" lon="5.9148">
        <ele>1131</ele>
        <time>2013-01-26T07:43:31Z</time>
      </trkpt>
      <trkpt lat="45.35675" lon="5.91479">
        <ele>1132</ele>
        <time>2013-01-26T07:43:36Z</time>
      </trkpt>
      <trkpt lat="45.35679" lon="5.91476">
        <ele>1133</ele>
        <time>2013-01-26T07:43:41Z</time>
      </trkpt>
      <trkpt lat="45.35682" lon="5.91471">
        <ele>1132</ele>
        <time>2013-01-26T07:43:46Z</time>
      </trkpt>
      <trkpt lat="45.35683" lon="5.91467">
        <ele>1133</ele>
        <time>2013-01-26T07:43:51Z</time>
      </trkpt>
      <trkpt lat="45.35684" lon="5.91462">
        <ele>1136</ele>
        <time>2013-01-26T07:43:56Z</time>
      </trkpt>
      <trkpt lat="45.35684" lon="5.91457">
        <ele>1137</ele>
        <time>2013-01-26T07:44:01Z</time>
      </trkpt>
      <trkpt lat="45.35683" lon="5.91454">
        <ele>1139</ele>
        <time>2013-01-26T07:44:06Z</time>
      </trkpt>
      <trkpt lat="45.35682" lon="5.91448">
        <ele>1141</ele>
        <time>2013-01-26T07:44:11Z</time>
      </trkpt>
      <trkpt lat="45.35682" lon="5.91444">
        <ele>1141</ele>
        <time>2013-01-26T07:44:16Z</time>
      </trkpt>
      <trkpt lat="45.35682" lon="5.9144">
        <ele>1142</ele>
        <time>2013-01-26T07:44:21Z</time>
      </trkpt>
      <trkpt lat="45.35685" lon="5.91438">
        <ele>1142</ele>
        <time>2013-01-26T07:44:26Z</time>
      </trkpt>
      <trkpt lat="45.3569" lon="5.91436">
        <ele>1142</ele>
        <time>2013-01-26T07:44:31Z</time>
      </trkpt>
      <trkpt lat="45.35693" lon="5.91435">
        <ele>1143</ele>
        <time>2013-01-26T07:44:36Z</time>
      </trkpt>
      <trkpt lat="45.35696" lon="5.91432">
        <ele>1144</ele>
        <time>2013-01-26T07:44:41Z</time>
      </trkpt>
      <trkpt lat="45.35698" lon="5.91426">
        <ele>1145</ele>
        <time>2013-01-26T07:44:46Z</time>
      </trkpt>
      <trkpt lat="45.357" lon="5.91422">
        <ele>1147</ele>
        <time>2013-01-26T07:44:51Z</time>
      </trkpt>
      <trkpt lat="45.35701" lon="5.91418">
        <ele>1148</ele>
        <time>2013-01-26T07:44:56Z</time>
      </trkpt>
      <trkpt lat="45.35701" lon="5.91414">
        <ele>1150</ele>
        <time>2013-01-26T07:45:01Z</time>
      </trkpt>
      <trkpt lat="45.35702" lon="5.9141">
        <ele>1152</ele>
        <time>2013-01-26T07:45:06Z</time>
      </trkpt>
      <trkpt lat="45.35703" lon="5.91407">
        <ele>1154</ele>
        <time>2013-01-26T07:45:11Z</time>
      </trkpt>
      <trkpt lat="45.35705" lon="5.91404">
        <ele>1156</ele>
        <time>2013-01-26T07:45:16Z</time>
      </trkpt>
      <trkpt lat="45.35705" lon="5.914">
        <ele>1159</ele>
        <time>2013-01-26T07:45:21Z</time>
      </trkpt>
      <trkpt lat="45.35706" lon="5.91396">
        <ele>1162</ele>
        <time>2013-01-26T07:45:26Z</time>
      </trkpt>
      <trkpt lat="45.35708" lon="5.91391">
        <ele>1163</ele>
        <time>2013-01-26T07:45:31Z</time>
      </trkpt>
      <trkpt lat="45.35708" lon="5.91384">
        <ele>1161</ele>
        <time>2013-01-26T07:45:36Z</time>
      </trkpt>
      <trkpt lat="45.35709" lon="5.91378">
        <ele>1160</ele>
        <time>2013-01-26T07:45:41Z</time>
      </trkpt>
      <trkpt lat="45.35709" lon="5.91372">
        <ele>1159</ele>
        <time>2013-01-26T07:45:46Z</time>
      </trkpt>
      <trkpt lat="45.35711" lon="5.91367">
        <ele>1160</ele>
        <time>2013-01-26T07:45:51Z</time>
      </trkpt>
      <trkpt lat="45.35711" lon="5.91362">
        <ele>1160</ele>
        <time>2013-01-26T07:45:56Z</time>
      </trkpt>
      <trkpt lat="45.35711" lon="5.91358">
        <ele>1161</ele>
        <time>2013-01-26T07:46:01Z</time>
      </trkpt>
      <trkpt lat="45.35711" lon="5.91353">
        <ele>1160</ele>
        <time>2013-01-26T07:46:06Z</time>
      </trkpt>
      <trkpt lat="45.35711" lon="5.91349">
        <ele>1161</ele>
        <time>2013-01-26T07:46:11Z</time>
      </trkpt>
      <trkpt lat="45.35712" lon="5.91344">
        <ele>1163</ele>
        <time>2013-01-26T07:46:16Z</time>
      </trkpt>
      <trkpt lat="45.35712" lon="5.9134">
        <ele>1163</ele>
        <time>2013-01-26T07:46:21Z</time>
      </trkpt>
      <trkpt lat="45.35712" lon="5.91336">
        <ele>1164</ele>
        <time>2013-01-26T07:46:26Z</time>
      </trkpt>
      <trkpt lat="45.35713" lon="5.91332">
        <ele>1166</ele>
        <time>2013-01-26T07:46:31Z</time>
      </trkpt>
      <trkpt lat="45.35713" lon="5.91328">
        <ele>1167</ele>
        <time>2013-01-26T07:46:36Z</time>
      </trkpt>
      <trkpt lat="45.35713" lon="5.91324">
        <ele>1169</ele>
        <time>2013-01-26T07:46:41Z</time>
      </trkpt>
      <trkpt lat="45.35713" lon="5.9132">
        <ele>1171</ele>
        <time>2013-01-26T07:46:46Z</time>
      </trkpt>
      <trkpt lat="45.35714" lon="5.91317">
        <ele>1172</ele>
        <time>2013-01-26T07:46:51Z</time>
      </trkpt>
      <trkpt lat="45.35714" lon="5.91313">
        <ele>1173</ele>
        <time>2013-01-26T07:46:56Z</time>
      </trkpt>
      <trkpt lat="45.35714" lon="5.9131">
        <ele>1173</ele>
        <time>2013-01-26T07:47:01Z</time>
      </trkpt>
      <trkpt lat="45.35714" lon="5.91307">
        <ele>1174</ele>
        <time>2013-01-26T07:47:06Z</time>
      </trkpt>
      <trkpt lat="45.35714" lon="5.91303">
        <ele>1175</ele>
        <time>2013-01-26T07:47:11Z</time>
      </trkpt>
      <trkpt lat="45.35715" lon="5.913">
        <ele>1176</ele>
        <time>2013-01-26T07:47:16Z</time>
      </trkpt>
      <trkpt lat="45.35715" lon="5.91296">
        <ele>1177</ele>
        <time>2013-01-26T07:47:21Z</time>
      </trkpt>
      <trkpt lat="45.35715" lon="5.91293">
        <ele>1178</ele>
        <time>2013-01-26T07:47:26Z</time>
      </trkpt>
      <trkpt lat="45.35715" lon="5.91289">
        <ele>1180</ele>
        <time>2013-01-26T07:47:31Z</time>
      </trkpt>
      <trkpt lat="45.35715" lon="5.91286">
        <ele>1181</ele>
        <time>2013-01-26T07:47:36Z</time>
      </trkpt>
      <trkpt lat="45.35715" lon="5.91282">
        <ele>1181</ele>
        <time>2013-01-26T07:47:41Z</time>
      </trkpt>
      <trkpt lat="45.35715" lon="5.91279">
        <ele>1182</ele>
        <time>2013-01-26T07:47:46Z</time>
      </trkpt>
      <trkpt lat="45.35716" lon="5.91275">
        <ele>1183</ele>
        <time>2013-01-26T07:47:51Z</time>
      </trkpt>
      <trkpt lat="45.35716" lon="5.91271">
        <ele>1184</ele>
        <time>2013-01-26T07:47:56Z</time>
      </trkpt>
      <trkpt lat="45.35717" lon="5.91268">
        <ele>1186</ele>
        <time>2013-01-26T07:48:01Z</time>
      </trkpt>
      <trkpt lat="45.35717" lon="5.91264">
        <ele>1187</ele>
        <time>2013-01-26T07:48:06Z</time>
      </trkpt>
      <trkpt lat="45.35717" lon="5.91261">
        <ele>1188</ele>
        <time>2013-01-26T07:48:11Z</time>
      </trkpt>
      <trkpt lat="45.35717" lon="5.91258">
        <ele>1188</ele>
        <time>2013-01-26T07:48:16Z</time>
      </trkpt>
      <trkpt lat="45.35718" lon="5.91254">
        <ele>1190</ele>
        <time>2013-01-26T07:48:21Z</time>
      </trkpt>
      <trkpt lat="45.35718" lon="5.9125">
        <ele>1190</ele>
        <time>2013-01-26T07:48:26Z</time>
      </trkpt>
      <trkpt lat="45.35718" lon="5.91246">
        <ele>1191</ele>
        <time>2013-01-26T07:48:31Z</time>
      </trkpt>
      <trkpt lat="45.35718" lon="5.91243">
        <ele>1192</ele>
        <time>2013-01-26T07:48:36Z</time>
      </trkpt>
      <trkpt lat="45.35719" lon="5.9124">
        <ele>1194</ele>
        <time>2013-01-26T07:48:41Z</time>
      </trkpt>
      <trkpt lat="45.35719" lon="5.91238">
        <ele>1196</ele>
        <time>2013-01-26T07:48:46Z</time>
      </trkpt>
      <trkpt lat="45.35719" lon="5.91234">
        <ele>1197</ele>
        <time>2013-01-26T07:48:51Z</time>
      </trkpt>
      <trkpt lat="45.35718" lon="5.9123">
        <ele>1198</ele>
        <time>2013-01-26T07:48:56Z</time>
      </trkpt>
      <trkpt lat="45.35719" lon="5.91226">
        <ele>1199</ele>
        <time>2013-01-26T07:49:01Z</time>
      </trkpt>
      <trkpt lat="45.35719" lon="5.91222">
        <ele>1199</ele>
        <time>2013-01-26T07:49:06Z</time>
      </trkpt>
      <trkpt lat="45.35719" lon="5.91218">
        <ele>1200</ele>
        <time>2013-01-26T07:49:11Z</time>
      </trkpt>
      <trkpt lat="45.35719" lon="5.91214">
        <ele>1201</ele>
        <time>2013-01-26T07:49:16Z</time>
      </trkpt>
      <trkpt lat="45.35719" lon="5.9121">
        <ele>1203</ele>
        <time>2013-01-26T07:49:21Z</time>
      </trkpt>
      <trkpt lat="45.35719" lon="5.91207">
        <ele>1204</ele>
        <time>2013-01-26T07:49:26Z</time>
      </trkpt>
      <trkpt lat="45.35719" lon="5.91203">
        <ele>1205</ele>
        <time>2013-01-26T07:49:31Z</time>
      </trkpt>
      <trkpt lat="45.35719" lon="5.91199">
        <ele>1206</ele>
        <time>2013-01-26T07:49:36Z</time>
      </trkpt>
      <trkpt lat="45.35719" lon="5.91195">
        <ele>1208</ele>
        <time>2013-01-26T07:49:41Z</time>
      </trkpt>
      <trkpt lat="45.3572" lon="5.91189">
        <ele>1194</ele>
        <time>2013-01-26T07:53:16Z</time>
      </trkpt>
      <trkpt lat="45.35719" lon="5.91188">
        <ele>1194</ele>
        <time>2013-01-26T07:53:21Z</time>
      </trkpt>
      <trkpt lat="45.35721" lon="5.91185">
        <ele>1194</ele>
        <time>2013-01-26T07:53:26Z</time>
      </trkpt>
      <trkpt lat="45.35723" lon="5.91183">
        <ele>1195</ele>
        <time>2013-01-26T07:53:31Z</time>
      </trkpt>
      <trkpt lat="45.35726" lon="5.9118">
        <ele>1195</ele>
        <time>2013-01-26T07:53:36Z</time>
      </trkpt>
      <trkpt lat="45.35728" lon="5.91176">
        <ele>1195</ele>
        <time>2013-01-26T07:53:41Z</time>
      </trkpt>
      <trkpt lat="45.3573" lon="5.91173">
        <ele>1196</ele>
        <time>2013-01-26T07:53:46Z</time>
      </trkpt>
      <trkpt lat="45.35732" lon="5.9117">
        <ele>1197</ele>
        <time>2013-01-26T07:53:51Z</time>
      </trkpt>
      <trkpt lat="45.35733" lon="5.91166">
        <ele>1197</ele>
        <time>2013-01-26T07:53:56Z</time>
      </trkpt>
      <trkpt lat="45.35734" lon="5.91163">
        <ele>1198</ele>
        <time>2013-01-26T07:54:01Z</time>
      </trkpt>
      <trkpt lat="45.35735" lon="5.91159">
        <ele>1200</ele>
        <time>2013-01-26T07:54:06Z</time>
      </trkpt>
      <trkpt lat="45.35736" lon="5.91157">
        <ele>1202</ele>
        <time>2013-01-26T07:54:11Z</time>
      </trkpt>
      <trkpt lat="45.35735" lon="5.91153">
        <ele>1202</ele>
        <time>2013-01-26T07:54:16Z</time>
      </trkpt>
      <trkpt lat="45.35734" lon="5.91151">
        <ele>1204</ele>
        <time>2013-01-26T07:54:21Z</time>
      </trkpt>
      <trkpt lat="45.35734" lon="5.91147">
        <ele>1206</ele>
        <time>2013-01-26T07:54:26Z</time>
      </trkpt>
      <trkpt lat="45.35734" lon="5.91143">
        <ele>1206</ele>
        <time>2013-01-26T07:54:31Z</time>
      </trkpt>
      <trkpt lat="45.35734" lon="5.9114">
        <ele>1206</ele>
        <time>2013-01-26T07:54:36Z</time>
      </trkpt>
      <trkpt lat="45.35733" lon="5.91136">
        <ele>1206</ele>
        <time>2013-01-26T07:54:41Z</time>
      </trkpt>
      <trkpt lat="45.35732" lon="5.91132">
        <ele>1209</ele>
        <time>2013-01-26T07:54:46Z</time>
      </trkpt>
      <trkpt lat="45.35731" lon="5.91128">
        <ele>1210</ele>
        <time>2013-01-26T07:54:51Z</time>
      </trkpt>
      <trkpt lat="45.35731" lon="5.91124">
        <ele>1211</ele>
        <time>2013-01-26T07:54:56Z</time>
      </trkpt>
      <trkpt lat="45.3573" lon="5.9112">
        <ele>1212</ele>
        <time>2013-01-26T07:55:01Z</time>
      </trkpt>
      <trkpt lat="45.35729" lon="5.91117">
        <ele>1213</ele>
        <time>2013-01-26T07:55:06Z</time>
      </trkpt>
      <trkpt lat="45.35728" lon="5.91114">
        <ele>1213</ele>
        <time>2013-01-26T07:55:11Z</time>
      </trkpt>
      <trkpt lat="45.35726" lon="5.91111">
        <ele>1215</ele>
        <time>2013-01-26T07:55:16Z</time>
      </trkpt>
      <trkpt lat="45.35725" lon="5.91108">
        <ele>1216</ele>
        <time>2013-01-26T07:55:21Z</time>
      </trkpt>
      <trkpt lat="45.35725" lon="5.91105">
        <ele>1218</ele>
        <time>2013-01-26T07:55:26Z</time>
      </trkpt>
      <trkpt lat="45.35725" lon="5.91102">
        <ele>1218</ele>
        <time>2013-01-26T07:55:31Z</time>
      </trkpt>
      <trkpt lat="45.35724" lon="5.91099">
        <ele>1219</ele>
        <time>2013-01-26T07:55:36Z</time>
      </trkpt>
      <trkpt lat="45.35722" lon="5.91096">
        <ele>1220</ele>
        <time>2013-01-26T07:55:41Z</time>
      </trkpt>
      <trkpt lat="45.3572" lon="5.91093">
        <ele>1223</ele>
        <time>2013-01-26T07:55:46Z</time>
      </trkpt>
      <trkpt lat="45.3572" lon="5.91089">
        <ele>1222</ele>
        <time>2013-01-26T07:55:51Z</time>
      </trkpt>
      <trkpt lat="45.35718" lon="5.91085">
        <ele>1224</ele>
        <time>2013-01-26T07:55:56Z</time>
      </trkpt>
      <trkpt lat="45.35718" lon="5.91081">
        <ele>1223</ele>
        <time>2013-01-26T07:56:01Z</time>
      </trkpt>
      <trkpt lat="45.35717" lon="5.91077">
        <ele>1225</ele>
        <time>2013-01-26T07:56:06Z</time>
      </trkpt>
      <trkpt lat="45.35716" lon="5.91073">
        <ele>1228</ele>
        <time>2013-01-26T07:56:11Z</time>
      </trkpt>
      <trkpt lat="45.35715" lon="5.91068">
        <ele>1227</ele>
        <time>2013-01-26T07:56:16Z</time>
      </trkpt>
      <trkpt lat="45.35715" lon="5.91064">
        <ele>1227</ele>
        <time>2013-01-26T07:56:21Z</time>
      </trkpt>
      <trkpt lat="45.35714" lon="5.91059">
        <ele>1225</ele>
        <time>2013-01-26T07:56:26Z</time>
      </trkpt>
      <trkpt lat="45.35714" lon="5.91055">
        <ele>1225</ele>
        <time>2013-01-26T07:56:31Z</time>
      </trkpt>
      <trkpt lat="45.35713" lon="5.91051">
        <ele>1224</ele>
        <time>2013-01-26T07:56:36Z</time>
      </trkpt>
      <trkpt lat="45.35712" lon="5.91047">
        <ele>1224</ele>
        <time>2013-01-26T07:56:41Z</time>
      </trkpt>
      <trkpt lat="45.35711" lon="5.91042">
        <ele>1226</ele>
        <time>2013-01-26T07:56:46Z</time>
      </trkpt>
      <trkpt lat="45.35709" lon="5.91039">
        <ele>1228</ele>
        <time>2013-01-26T07:56:51Z</time>
      </trkpt>
      <trkpt lat="45.35707" lon="5.91034">
        <ele>1229</ele>
        <time>2013-01-26T07:56:56Z</time>
      </trkpt>
      <trkpt lat="45.35706" lon="5.91029">
        <ele>1230</ele>
        <time>2013-01-26T07:57:01Z</time>
      </trkpt>
      <trkpt lat="45.35705" lon="5.91025">
        <ele>1231</ele>
        <time>2013-01-26T07:57:06Z</time>
      </trkpt>
      <trkpt lat="45.35705" lon="5.91021">
        <ele>1233</ele>
        <time>2013-01-26T07:57:11Z</time>
      </trkpt>
      <trkpt lat="45.35705" lon="5.91017">
        <ele>1234</ele>
        <time>2013-01-26T07:57:16Z</time>
      </trkpt>
      <trkpt lat="45.35704" lon="5.91013">
        <ele>1236</ele>
        <time>2013-01-26T07:57:21Z</time>
      </trkpt>
      <trkpt lat="45.35702" lon="5.91009">
        <ele>1237</ele>
        <time>2013-01-26T07:57:26Z</time>
      </trkpt>
      <trkpt lat="45.35702" lon="5.91006">
        <ele>1239</ele>
        <time>2013-01-26T07:57:31Z</time>
      </trkpt>
      <trkpt lat="45.35701" lon="5.91002">
        <ele>1239</ele>
        <time>2013-01-26T07:57:36Z</time>
      </trkpt>
      <trkpt lat="45.357" lon="5.90999">
        <ele>1241</ele>
        <time>2013-01-26T07:57:41Z</time>
      </trkpt>
      <trkpt lat="45.35699" lon="5.90995">
        <ele>1242</ele>
        <time>2013-01-26T07:57:46Z</time>
      </trkpt>
      <trkpt lat="45.357" lon="5.90995">
        <ele>1239</ele>
        <time>2013-01-26T07:57:51Z</time>
      </trkpt>
      <trkpt lat="45.357" lon="5.90994">
        <ele>1236</ele>
        <time>2013-01-26T07:57:56Z</time>
      </trkpt>
      <trkpt lat="45.357" lon="5.90994">
        <ele>1233</ele>
        <time>2013-01-26T07:58:01Z</time>
      </trkpt>
      <trkpt lat="45.357" lon="5.90992">
        <ele>1234</ele>
        <time>2013-01-26T07:58:06Z</time>
      </trkpt>
      <trkpt lat="45.35699" lon="5.90989">
        <ele>1235</ele>
        <time>2013-01-26T07:58:11Z</time>
      </trkpt>
      <trkpt lat="45.35699" lon="5.90985">
        <ele>1237</ele>
        <time>2013-01-26T07:58:16Z</time>
      </trkpt>
      <trkpt lat="45.35699" lon="5.90981">
        <ele>1238</ele>
        <time>2013-01-26T07:58:21Z</time>
      </trkpt>
      <trkpt lat="45.35699" lon="5.90978">
        <ele>1240</ele>
        <time>2013-01-26T07:58:26Z</time>
      </trkpt>
      <trkpt lat="45.35699" lon="5.90974">
        <ele>1242</ele>
        <time>2013-01-26T07:58:31Z</time>
      </trkpt>
      <trkpt lat="45.357" lon="5.90971">
        <ele>1243</ele>
        <time>2013-01-26T07:58:36Z</time>
      </trkpt>
      <trkpt lat="45.35701" lon="5.90967">
        <ele>1245</ele>
        <time>2013-01-26T07:58:41Z</time>
      </trkpt>
      <trkpt lat="45.357" lon="5.90963">
        <ele>1246</ele>
        <time>2013-01-26T07:58:46Z</time>
      </trkpt>
      <trkpt lat="45.357" lon="5.9096">
        <ele>1246</ele>
        <time>2013-01-26T07:58:51Z</time>
      </trkpt>
      <trkpt lat="45.35698" lon="5.90957">
        <ele>1246</ele>
        <time>2013-01-26T07:58:56Z</time>
      </trkpt>
      <trkpt lat="45.35698" lon="5.90953">
        <ele>1247</ele>
        <time>2013-01-26T07:59:01Z</time>
      </trkpt>
      <trkpt lat="45.35696" lon="5.9095">
        <ele>1248</ele>
        <time>2013-01-26T07:59:06Z</time>
      </trkpt>
      <trkpt lat="45.35695" lon="5.90946">
        <ele>1247</ele>
        <time>2013-01-26T07:59:11Z</time>
      </trkpt>
      <trkpt lat="45.35694" lon="5.90943">
        <ele>1248</ele>
        <time>2013-01-26T07:59:16Z</time>
      </trkpt>
      <trkpt lat="45.35692" lon="5.90939">
        <ele>1249</ele>
        <time>2013-01-26T07:59:21Z</time>
      </trkpt>
      <trkpt lat="45.3569" lon="5.90935">
        <ele>1249</ele>
        <time>2013-01-26T07:59:26Z</time>
      </trkpt>
      <trkpt lat="45.35689" lon="5.90932">
        <ele>1250</ele>
        <time>2013-01-26T07:59:31Z</time>
      </trkpt>
      <trkpt lat="45.35688" lon="5.90928">
        <ele>1250</ele>
        <time>2013-01-26T07:59:36Z</time>
      </trkpt>
      <trkpt lat="45.35687" lon="5.90925">
        <ele>1252</ele>
        <time>2013-01-26T07:59:41Z</time>
      </trkpt>
      <trkpt lat="45.35687" lon="5.90921">
        <ele>1253</ele>
        <time>2013-01-26T07:59:46Z</time>
      </trkpt>
      <trkpt lat="45.35687" lon="5.90918">
        <ele>1254</ele>
        <time>2013-01-26T07:59:51Z</time>
      </trkpt>
      <trkpt lat="45.35687" lon="5.90915">
        <ele>1255</ele>
        <time>2013-01-26T07:59:56Z</time>
      </trkpt>
      <trkpt lat="45.35688" lon="5.90911">
        <ele>1255</ele>
        <time>2013-01-26T08:00:01Z</time>
      </trkpt>
      <trkpt lat="45.35688" lon="5.90907">
        <ele>1256</ele>
        <time>2013-01-26T08:00:06Z</time>
      </trkpt>
      <trkpt lat="45.35689" lon="5.90904">
        <ele>1256</ele>
        <time>2013-01-26T08:00:11Z</time>
      </trkpt>
      <trkpt lat="45.3569" lon="5.90901">
        <ele>1257</ele>
        <time>2013-01-26T08:00:16Z</time>
      </trkpt>
      <trkpt lat="45.35693" lon="5.909">
        <ele>1260</ele>
        <time>2013-01-26T08:00:21Z</time>
      </trkpt>
      <trkpt lat="45.35695" lon="5.90898">
        <ele>1262</ele>
        <time>2013-01-26T08:00:26Z</time>
      </trkpt>
      <trkpt lat="45.35695" lon="5.90894">
        <ele>1260</ele>
        <time>2013-01-26T08:00:31Z</time>
      </trkpt>
      <trkpt lat="45.35698" lon="5.90893">
        <ele>1262</ele>
        <time>2013-01-26T08:00:36Z</time>
      </trkpt>
      <trkpt lat="45.35698" lon="5.9089">
        <ele>1262</ele>
        <time>2013-01-26T08:00:41Z</time>
      </trkpt>
      <trkpt lat="45.35701" lon="5.90888">
        <ele>1264</ele>
        <time>2013-01-26T08:00:46Z</time>
      </trkpt>
      <trkpt lat="45.35702" lon="5.90886">
        <ele>1266</ele>
        <time>2013-01-26T08:00:51Z</time>
      </trkpt>
      <trkpt lat="45.35702" lon="5.90882">
        <ele>1268</ele>
        <time>2013-01-26T08:00:56Z</time>
      </trkpt>
      <trkpt lat="45.35702" lon="5.90878">
        <ele>1268</ele>
        <time>2013-01-26T08:01:01Z</time>
      </trkpt>
      <trkpt lat="45.35704" lon="5.90874">
        <ele>1268</ele>
        <time>2013-01-26T08:01:06Z</time>
      </trkpt>
      <trkpt lat="45.35707" lon="5.90873">
        <ele>1269</ele>
        <time>2013-01-26T08:01:11Z</time>
      </trkpt>
      <trkpt lat="45.3571" lon="5.90873">
        <ele>1269</ele>
        <time>2013-01-26T08:01:16Z</time>
      </trkpt>
      <trkpt lat="45.35712" lon="5.90874">
        <ele>1271</ele>
        <time>2013-01-26T08:01:21Z</time>
      </trkpt>
      <trkpt lat="45.35714" lon="5.90874">
        <ele>1272</ele>
        <time>2013-01-26T08:01:26Z</time>
      </trkpt>
      <trkpt lat="45.35716" lon="5.90874">
        <ele>1274</ele>
        <time>2013-01-26T08:01:31Z</time>
      </trkpt>
      <trkpt lat="45.35718" lon="5.90874">
        <ele>1274</ele>
        <time>2013-01-26T08:01:36Z</time>
      </trkpt>
      <trkpt lat="45.35721" lon="5.90874">
        <ele>1276</ele>
        <time>2013-01-26T08:01:41Z</time>
      </trkpt>
      <trkpt lat="45.35723" lon="5.90875">
        <ele>1278</ele>
        <time>2013-01-26T08:01:46Z</time>
      </trkpt>
      <trkpt lat="45.35725" lon="5.90875">
        <ele>1280</ele>
        <time>2013-01-26T08:01:51Z</time>
      </trkpt>
      <trkpt lat="45.35727" lon="5.90875">
        <ele>1281</ele>
        <time>2013-01-26T08:01:56Z</time>
      </trkpt>
      <trkpt lat="45.35729" lon="5.90874">
        <ele>1279</ele>
        <time>2013-01-26T08:02:01Z</time>
      </trkpt>
      <trkpt lat="45.35731" lon="5.90875">
        <ele>1280</ele>
        <time>2013-01-26T08:02:06Z</time>
      </trkpt>
      <trkpt lat="45.35734" lon="5.90876">
        <ele>1283</ele>
        <time>2013-01-26T08:02:11Z</time>
      </trkpt>
      <trkpt lat="45.35736" lon="5.90876">
        <ele>1285</ele>
        <time>2013-01-26T08:02:16Z</time>
      </trkpt>
      <trkpt lat="45.35738" lon="5.90875">
        <ele>1285</ele>
        <time>2013-01-26T08:02:21Z</time>
      </trkpt>
      <trkpt lat="45.3574" lon="5.90875">
        <ele>1285</ele>
        <time>2013-01-26T08:02:26Z</time>
      </trkpt>
      <trkpt lat="45.35743" lon="5.90874">
        <ele>1286</ele>
        <time>2013-01-26T08:02:31Z</time>
      </trkpt>
      <trkpt lat="45.35746" lon="5.90876">
        <ele>1288</ele>
        <time>2013-01-26T08:02:36Z</time>
      </trkpt>
      <trkpt lat="45.35749" lon="5.90873">
        <ele>1291</ele>
        <time>2013-01-26T08:02:41Z</time>
      </trkpt>
      <trkpt lat="45.35751" lon="5.90873">
        <ele>1293</ele>
        <time>2013-01-26T08:02:46Z</time>
      </trkpt>
      <trkpt lat="45.35755" lon="5.90875">
        <ele>1294</ele>
        <time>2013-01-26T08:02:51Z</time>
      </trkpt>
      <trkpt lat="45.35759" lon="5.90877">
        <ele>1291</ele>
        <time>2013-01-26T08:02:56Z</time>
      </trkpt>
      <trkpt lat="45.35764" lon="5.9088">
        <ele>1291</ele>
        <time>2013-01-26T08:03:01Z</time>
      </trkpt>
      <trkpt lat="45.35766" lon="5.90882">
        <ele>1289</ele>
        <time>2013-01-26T08:03:06Z</time>
      </trkpt>
      <trkpt lat="45.35768" lon="5.90884">
        <ele>1290</ele>
        <time>2013-01-26T08:03:11Z</time>
      </trkpt>
      <trkpt lat="45.35769" lon="5.90886">
        <ele>1293</ele>
        <time>2013-01-26T08:03:16Z</time>
      </trkpt>
      <trkpt lat="45.35772" lon="5.90886">
        <ele>1294</ele>
        <time>2013-01-26T08:03:21Z</time>
      </trkpt>
      <trkpt lat="45.35775" lon="5.90887">
        <ele>1293</ele>
        <time>2013-01-26T08:03:26Z</time>
      </trkpt>
      <trkpt lat="45.35777" lon="5.90887">
        <ele>1293</ele>
        <time>2013-01-26T08:03:31Z</time>
      </trkpt>
      <trkpt lat="45.35777" lon="5.90885">
        <ele>1288</ele>
        <time>2013-01-26T08:03:36Z</time>
      </trkpt>
      <trkpt lat="45.35779" lon="5.90885">
        <ele>1291</ele>
        <time>2013-01-26T08:03:41Z</time>
      </trkpt>
      <trkpt lat="45.35781" lon="5.90885">
        <ele>1290</ele>
        <time>2013-01-26T08:03:46Z</time>
      </trkpt>
      <trkpt lat="45.35782" lon="5.90883">
        <ele>1286</ele>
        <time>2013-01-26T08:03:51Z</time>
      </trkpt>
      <trkpt lat="45.35782" lon="5.90882">
        <ele>1285</ele>
        <time>2013-01-26T08:03:56Z</time>
      </trkpt>
      <trkpt lat="45.35782" lon="5.90881">
        <ele>1285</ele>
        <time>2013-01-26T08:04:01Z</time>
      </trkpt>
      <trkpt lat="45.35781" lon="5.9088">
        <ele>1284</ele>
        <time>2013-01-26T08:04:06Z</time>
      </trkpt>
      <trkpt lat="45.35781" lon="5.90879">
        <ele>1284</ele>
        <time>2013-01-26T08:04:11Z</time>
      </trkpt>
      <trkpt lat="45.35782" lon="5.90879">
        <ele>1285</ele>
        <time>2013-01-26T08:04:16Z</time>
      </trkpt>
      <trkpt lat="45.35782" lon="5.90878">
        <ele>1285</ele>
        <time>2013-01-26T08:04:21Z</time>
      </trkpt>
      <trkpt lat="45.35782" lon="5.90878">
        <ele>1285</ele>
        <time>2013-01-26T08:04:26Z</time>
      </trkpt>
      <trkpt lat="45.35784" lon="5.90879">
        <ele>1286</ele>
        <time>2013-01-26T08:04:31Z</time>
      </trkpt>
      <trkpt lat="45.35787" lon="5.90882">
        <ele>1288</ele>
        <time>2013-01-26T08:04:36Z</time>
      </trkpt>
      <trkpt lat="45.3579" lon="5.90885">
        <ele>1288</ele>
        <time>2013-01-26T08:04:41Z</time>
      </trkpt>
      <trkpt lat="45.35793" lon="5.90888">
        <ele>1287</ele>
        <time>2013-01-26T08:04:46Z</time>
      </trkpt>
      <trkpt lat="45.35797" lon="5.90889">
        <ele>1286</ele>
        <time>2013-01-26T08:04:51Z</time>
      </trkpt>
      <trkpt lat="45.35801" lon="5.90892">
        <ele>1285</ele>
        <time>2013-01-26T08:04:56Z</time>
      </trkpt>
      <trkpt lat="45.35804" lon="5.90895">
        <ele>1288</ele>
        <time>2013-01-26T08:05:01Z</time>
      </trkpt>
      <trkpt lat="45.35806" lon="5.90893">
        <ele>1288</ele>
        <time>2013-01-26T08:05:06Z</time>
      </trkpt>
      <trkpt lat="45.35806" lon="5.90891">
        <ele>1291</ele>
        <time>2013-01-26T08:05:11Z</time>
      </trkpt>
      <trkpt lat="45.35806" lon="5.90888">
        <ele>1293</ele>
        <time>2013-01-26T08:05:16Z</time>
      </trkpt>
      <trkpt lat="45.35806" lon="5.90884">
        <ele>1294</ele>
        <time>2013-01-26T08:05:21Z</time>
      </trkpt>
      <trkpt lat="45.35805" lon="5.90881">
        <ele>1296</ele>
        <time>2013-01-26T08:05:26Z</time>
      </trkpt>
      <trkpt lat="45.35806" lon="5.90877">
        <ele>1301</ele>
        <time>2013-01-26T08:05:31Z</time>
      </trkpt>
      <trkpt lat="45.35806" lon="5.90874">
        <ele>1300</ele>
        <time>2013-01-26T08:05:36Z</time>
      </trkpt>
      <trkpt lat="45.35806" lon="5.90871">
        <ele>1301</ele>
        <time>2013-01-26T08:05:41Z</time>
      </trkpt>
      <trkpt lat="45.35805" lon="5.90868">
        <ele>1302</ele>
        <time>2013-01-26T08:05:46Z</time>
      </trkpt>
      <trkpt lat="45.35806" lon="5.90865">
        <ele>1302</ele>
        <time>2013-01-26T08:05:51Z</time>
      </trkpt>
      <trkpt lat="45.35806" lon="5.90862">
        <ele>1304</ele>
        <time>2013-01-26T08:05:56Z</time>
      </trkpt>
      <trkpt lat="45.35806" lon="5.90858">
        <ele>1304</ele>
        <time>2013-01-26T08:06:01Z</time>
      </trkpt>
      <trkpt lat="45.35806" lon="5.90854">
        <ele>1304</ele>
        <time>2013-01-26T08:06:06Z</time>
      </trkpt>
      <trkpt lat="45.35806" lon="5.90851">
        <ele>1304</ele>
        <time>2013-01-26T08:06:11Z</time>
      </trkpt>
      <trkpt lat="45.35807" lon="5.90847">
        <ele>1305</ele>
        <time>2013-01-26T08:06:16Z</time>
      </trkpt>
      <trkpt lat="45.35808" lon="5.90844">
        <ele>1305</ele>
        <time>2013-01-26T08:06:21Z</time>
      </trkpt>
      <trkpt lat="45.35808" lon="5.9084">
        <ele>1306</ele>
        <time>2013-01-26T08:06:26Z</time>
      </trkpt>
      <trkpt lat="45.35808" lon="5.90837">
        <ele>1306</ele>
        <time>2013-01-26T08:06:31Z</time>
      </trkpt>
      <trkpt lat="45.35808" lon="5.90833">
        <ele>1307</ele>
        <time>2013-01-26T08:06:36Z</time>
      </trkpt>
      <trkpt lat="45.35809" lon="5.9083">
        <ele>1307</ele>
        <time>2013-01-26T08:06:41Z</time>
      </trkpt>
      <trkpt lat="45.35809" lon="5.90827">
        <ele>1307</ele>
        <time>2013-01-26T08:06:46Z</time>
      </trkpt>
      <trkpt lat="45.35809" lon="5.90823">
        <ele>1307</ele>
        <time>2013-01-26T08:06:51Z</time>
      </trkpt>
      <trkpt lat="45.35809" lon="5.90819">
        <ele>1306</ele>
        <time>2013-01-26T08:06:56Z</time>
      </trkpt>
      <trkpt lat="45.35809" lon="5.90816">
        <ele>1306</ele>
        <time>2013-01-26T08:07:01Z</time>
      </trkpt>
      <trkpt lat="45.35809" lon="5.90812">
        <ele>1306</ele>
        <time>2013-01-26T08:07:06Z</time>
      </trkpt>
      <trkpt lat="45.35809" lon="5.90809">
        <ele>1307</ele>
        <time>2013-01-26T08:07:11Z</time>
      </trkpt>
      <trkpt lat="45.35809" lon="5.90805">
        <ele>1308</ele>
        <time>2013-01-26T08:07:16Z</time>
      </trkpt>
      <trkpt lat="45.35809" lon="5.90802">
        <ele>1309</ele>
        <time>2013-01-26T08:07:21Z</time>
      </trkpt>
      <trkpt lat="45.3581" lon="5.90799">
        <ele>1311</ele>
        <time>2013-01-26T08:07:26Z</time>
      </trkpt>
      <trkpt lat="45.3581" lon="5.90796">
        <ele>1312</ele>
        <time>2013-01-26T08:07:31Z</time>
      </trkpt>
      <trkpt lat="45.3581" lon="5.90794">
        <ele>1314</ele>
        <time>2013-01-26T08:07:36Z</time>
      </trkpt>
      <trkpt lat="45.35812" lon="5.90791">
        <ele>1316</ele>
        <time>2013-01-26T08:07:41Z</time>
      </trkpt>
      <trkpt lat="45.35812" lon="5.90788">
        <ele>1316</ele>
        <time>2013-01-26T08:07:46Z</time>
      </trkpt>
      <trkpt lat="45.35812" lon="5.90786">
        <ele>1318</ele>
        <time>2013-01-26T08:07:51Z</time>
      </trkpt>
      <trkpt lat="45.35811" lon="5.90784">
        <ele>1319</ele>
        <time>2013-01-26T08:07:56Z</time>
      </trkpt>
      <trkpt lat="45.35811" lon="5.90782">
        <ele>1320</ele>
        <time>2013-01-26T08:08:01Z</time>
      </trkpt>
      <trkpt lat="45.35809" lon="5.90779">
        <ele>1317</ele>
        <time>2013-01-26T08:08:06Z</time>
      </trkpt>
      <trkpt lat="45.35808" lon="5.90775">
        <ele>1318</ele>
        <time>2013-01-26T08:08:11Z</time>
      </trkpt>
      <trkpt lat="45.35806" lon="5.90772">
        <ele>1319</ele>
        <time>2013-01-26T08:08:16Z</time>
      </trkpt>
      <trkpt lat="45.35804" lon="5.90769">
        <ele>1321</ele>
        <time>2013-01-26T08:08:21Z</time>
      </trkpt>
      <trkpt lat="45.358" lon="5.90766">
        <ele>1321</ele>
        <time>2013-01-26T08:08:26Z</time>
      </trkpt>
      <trkpt lat="45.35796" lon="5.90764">
        <ele>1323</ele>
        <time>2013-01-26T08:08:31Z</time>
      </trkpt>
      <trkpt lat="45.35792" lon="5.90762">
        <ele>1325</ele>
        <time>2013-01-26T08:08:36Z</time>
      </trkpt>
      <trkpt lat="45.35788" lon="5.90759">
        <ele>1327</ele>
        <time>2013-01-26T08:08:41Z</time>
      </trkpt>
      <trkpt lat="45.35785" lon="5.90757">
        <ele>1328</ele>
        <time>2013-01-26T08:08:46Z</time>
      </trkpt>
      <trkpt lat="45.35782" lon="5.90753">
        <ele>1330</ele>
        <time>2013-01-26T08:08:51Z</time>
      </trkpt>
      <trkpt lat="45.35779" lon="5.9075">
        <ele>1331</ele>
        <time>2013-01-26T08:08:56Z</time>
      </trkpt>
      <trkpt lat="45.35775" lon="5.90747">
        <ele>1332</ele>
        <time>2013-01-26T08:09:01Z</time>
      </trkpt>
      <trkpt lat="45.35773" lon="5.90747">
        <ele>1334</ele>
        <time>2013-01-26T08:09:06Z</time>
      </trkpt>
      <trkpt lat="45.35772" lon="5.90745">
        <ele>1337</ele>
        <time>2013-01-26T08:09:11Z</time>
      </trkpt>
      <trkpt lat="45.3577" lon="5.90745">
        <ele>1339</ele>
        <time>2013-01-26T08:09:16Z</time>
      </trkpt>
      <trkpt lat="45.35768" lon="5.90743">
        <ele>1340</ele>
        <time>2013-01-26T08:09:21Z</time>
      </trkpt>
      <trkpt lat="45.35767" lon="5.9074">
        <ele>1342</ele>
        <time>2013-01-26T08:09:26Z</time>
      </trkpt>
      <trkpt lat="45.35764" lon="5.90737">
        <ele>1340</ele>
        <time>2013-01-26T08:09:31Z</time>
      </trkpt>
      <trkpt lat="45.35762" lon="5.90735">
        <ele>1339</ele>
        <time>2013-01-26T08:09:36Z</time>
      </trkpt>
      <trkpt lat="45.3576" lon="5.90731">
        <ele>1339</ele>
        <time>2013-01-26T08:09:41Z</time>
      </trkpt>
      <trkpt lat="45.35758" lon="5.90726">
        <ele>1339</ele>
        <time>2013-01-26T08:09:46Z</time>
      </trkpt>
      <trkpt lat="45.35757" lon="5.90723">
        <ele>1339</ele>
        <time>2013-01-26T08:09:51Z</time>
      </trkpt>
      <trkpt lat="45.35756" lon="5.90721">
        <ele>1342</ele>
        <time>2013-01-26T08:09:56Z</time>
      </trkpt>
      <trkpt lat="45.35755" lon="5.90718">
        <ele>1344</ele>
        <time>2013-01-26T08:10:01Z</time>
      </trkpt>
      <trkpt lat="45.35754" lon="5.90717">
        <ele>1345</ele>
        <time>2013-01-26T08:10:06Z</time>
      </trkpt>
      <trkpt lat="45.35752" lon="5.90716">
        <ele>1346</ele>
        <time>2013-01-26T08:10:11Z</time>
      </trkpt>
      <trkpt lat="45.35751" lon="5.90713">
        <ele>1348</ele>
        <time>2013-01-26T08:10:16Z</time>
      </trkpt>
      <trkpt lat="45.3575" lon="5.90707">
        <ele>1348</ele>
        <time>2013-01-26T08:10:21Z</time>
      </trkpt>
      <trkpt lat="45.35748" lon="5.90704">
        <ele>1350</ele>
        <time>2013-01-26T08:10:26Z</time>
      </trkpt>
      <trkpt lat="45.35746" lon="5.907">
        <ele>1350</ele>
        <time>2013-01-26T08:10:31Z</time>
      </trkpt>
      <trkpt lat="45.35744" lon="5.90697">
        <ele>1350</ele>
        <time>2013-01-26T08:10:36Z</time>
      </trkpt>
      <trkpt lat="45.35743" lon="5.90694">
        <ele>1350</ele>
        <time>2013-01-26T08:10:41Z</time>
      </trkpt>
      <trkpt lat="45.35742" lon="5.90689">
        <ele>1348</ele>
        <time>2013-01-26T08:10:46Z</time>
      </trkpt>
      <trkpt lat="45.35741" lon="5.90685">
        <ele>1346</ele>
        <time>2013-01-26T08:10:51Z</time>
      </trkpt>
      <trkpt lat="45.3574" lon="5.90681">
        <ele>1344</ele>
        <time>2013-01-26T08:10:56Z</time>
      </trkpt>
      <trkpt lat="45.35738" lon="5.90677">
        <ele>1342</ele>
        <time>2013-01-26T08:11:01Z</time>
      </trkpt>
      <trkpt lat="45.35737" lon="5.90674">
        <ele>1343</ele>
        <time>2013-01-26T08:11:06Z</time>
      </trkpt>
      <trkpt lat="45.35735" lon="5.9067">
        <ele>1342</ele>
        <time>2013-01-26T08:11:11Z</time>
      </trkpt>
      <trkpt lat="45.35734" lon="5.90667">
        <ele>1342</ele>
        <time>2013-01-26T08:11:16Z</time>
      </trkpt>
      <trkpt lat="45.35732" lon="5.90663">
        <ele>1344</ele>
        <time>2013-01-26T08:11:21Z</time>
      </trkpt>
      <trkpt lat="45.35731" lon="5.90659">
        <ele>1345</ele>
        <time>2013-01-26T08:11:26Z</time>
      </trkpt>
      <trkpt lat="45.35728" lon="5.90656">
        <ele>1346</ele>
        <time>2013-01-26T08:11:31Z</time>
      </trkpt>
      <trkpt lat="45.35726" lon="5.90651">
        <ele>1346</ele>
        <time>2013-01-26T08:11:36Z</time>
      </trkpt>
      <trkpt lat="45.35724" lon="5.90648">
        <ele>1348</ele>
        <time>2013-01-26T08:11:41Z</time>
      </trkpt>
      <trkpt lat="45.35723" lon="5.90645">
        <ele>1349</ele>
        <time>2013-01-26T08:11:46Z</time>
      </trkpt>
      <trkpt lat="45.35722" lon="5.90641">
        <ele>1352</ele>
        <time>2013-01-26T08:11:51Z</time>
      </trkpt>
      <trkpt lat="45.35721" lon="5.90637">
        <ele>1352</ele>
        <time>2013-01-26T08:11:56Z</time>
      </trkpt>
      <trkpt lat="45.35721" lon="5.90633">
        <ele>1351</ele>
        <time>2013-01-26T08:12:01Z</time>
      </trkpt>
      <trkpt lat="45.35719" lon="5.90629">
        <ele>1352</ele>
        <time>2013-01-26T08:12:06Z</time>
      </trkpt>
      <trkpt lat="45.35717" lon="5.90626">
        <ele>1355</ele>
        <time>2013-01-26T08:12:11Z</time>
      </trkpt>
      <trkpt lat="45.35716" lon="5.90621">
        <ele>1352</ele>
        <time>2013-01-26T08:12:16Z</time>
      </trkpt>
      <trkpt lat="45.35715" lon="5.90616">
        <ele>1350</ele>
        <time>2013-01-26T08:12:21Z</time>
      </trkpt>
      <trkpt lat="45.35714" lon="5.90611">
        <ele>1353</ele>
        <time>2013-01-26T08:12:26Z</time>
      </trkpt>
      <trkpt lat="45.35713" lon="5.90607">
        <ele>1355</ele>
        <time>2013-01-26T08:12:31Z</time>
      </trkpt>
      <trkpt lat="45.35712" lon="5.90604">
        <ele>1357</ele>
        <time>2013-01-26T08:12:36Z</time>
      </trkpt>
      <trkpt lat="45.35709" lon="5.90602">
        <ele>1358</ele>
        <time>2013-01-26T08:12:41Z</time>
      </trkpt>
      <trkpt lat="45.35705" lon="5.90602">
        <ele>1363</ele>
        <time>2013-01-26T08:12:46Z</time>
      </trkpt>
      <trkpt lat="45.35703" lon="5.906">
        <ele>1366</ele>
        <time>2013-01-26T08:12:51Z</time>
      </trkpt>
      <trkpt lat="45.35701" lon="5.90597">
        <ele>1365</ele>
        <time>2013-01-26T08:12:56Z</time>
      </trkpt>
      <trkpt lat="45.35698" lon="5.90594">
        <ele>1367</ele>
        <time>2013-01-26T08:13:01Z</time>
      </trkpt>
      <trkpt lat="45.35696" lon="5.90591">
        <ele>1368</ele>
        <time>2013-01-26T08:13:06Z</time>
      </trkpt>
      <trkpt lat="45.35694" lon="5.90588">
        <ele>1370</ele>
        <time>2013-01-26T08:13:11Z</time>
      </trkpt>
      <trkpt lat="45.35692" lon="5.90585">
        <ele>1368</ele>
        <time>2013-01-26T08:13:16Z</time>
      </trkpt>
      <trkpt lat="45.3569" lon="5.90583">
        <ele>1369</ele>
        <time>2013-01-26T08:13:21Z</time>
      </trkpt>
      <trkpt lat="45.35688" lon="5.90582">
        <ele>1372</ele>
        <time>2013-01-26T08:13:26Z</time>
      </trkpt>
      <trkpt lat="45.35687" lon="5.90578">
        <ele>1372</ele>
        <time>2013-01-26T08:13:31Z</time>
      </trkpt>
      <trkpt lat="45.35685" lon="5.90574">
        <ele>1371</ele>
        <time>2013-01-26T08:13:36Z</time>
      </trkpt>
      <trkpt lat="45.35683" lon="5.9057">
        <ele>1373</ele>
        <time>2013-01-26T08:13:41Z</time>
      </trkpt>
      <trkpt lat="45.35681" lon="5.90567">
        <ele>1374</ele>
        <time>2013-01-26T08:13:46Z</time>
      </trkpt>
      <trkpt lat="45.35679" lon="5.90564">
        <ele>1374</ele>
        <time>2013-01-26T08:13:51Z</time>
      </trkpt>
      <trkpt lat="45.35676" lon="5.90558">
        <ele>1373</ele>
        <time>2013-01-26T08:13:56Z</time>
      </trkpt>
      <trkpt lat="45.35674" lon="5.90555">
        <ele>1372</ele>
        <time>2013-01-26T08:14:01Z</time>
      </trkpt>
      <trkpt lat="45.35672" lon="5.90552">
        <ele>1372</ele>
        <time>2013-01-26T08:14:06Z</time>
      </trkpt>
      <trkpt lat="45.3567" lon="5.9055">
        <ele>1373</ele>
        <time>2013-01-26T08:14:11Z</time>
      </trkpt>
      <trkpt lat="45.35669" lon="5.90547">
        <ele>1373</ele>
        <time>2013-01-26T08:14:16Z</time>
      </trkpt>
      <trkpt lat="45.35668" lon="5.90545">
        <ele>1374</ele>
        <time>2013-01-26T08:14:21Z</time>
      </trkpt>
      <trkpt lat="45.35666" lon="5.90542">
        <ele>1374</ele>
        <time>2013-01-26T08:14:26Z</time>
      </trkpt>
      <trkpt lat="45.35665" lon="5.90539">
        <ele>1376</ele>
        <time>2013-01-26T08:14:31Z</time>
      </trkpt>
      <trkpt lat="45.35665" lon="5.90535">
        <ele>1377</ele>
        <time>2013-01-26T08:14:36Z</time>
      </trkpt>
      <trkpt lat="45.35663" lon="5.90532">
        <ele>1376</ele>
        <time>2013-01-26T08:14:41Z</time>
      </trkpt>
      <trkpt lat="45.35662" lon="5.90529">
        <ele>1376</ele>
        <time>2013-01-26T08:14:46Z</time>
      </trkpt>
      <trkpt lat="45.35661" lon="5.90525">
        <ele>1377</ele>
        <time>2013-01-26T08:14:51Z</time>
      </trkpt>
      <trkpt lat="45.35659" lon="5.90522">
        <ele>1377</ele>
        <time>2013-01-26T08:14:56Z</time>
      </trkpt>
      <trkpt lat="45.35658" lon="5.90519">
        <ele>1379</ele>
        <time>2013-01-26T08:15:01Z</time>
      </trkpt>
      <trkpt lat="45.35658" lon="5.90515">
        <ele>1378</ele>
        <time>2013-01-26T08:15:06Z</time>
      </trkpt>
      <trkpt lat="45.35657" lon="5.9051">
        <ele>1380</ele>
        <time>2013-01-26T08:15:11Z</time>
      </trkpt>
      <trkpt lat="45.35656" lon="5.90506">
        <ele>1381</ele>
        <time>2013-01-26T08:15:16Z</time>
      </trkpt>
      <trkpt lat="45.35655" lon="5.90502">
        <ele>1383</ele>
        <time>2013-01-26T08:15:21Z</time>
      </trkpt>
      <trkpt lat="45.35654" lon="5.90498">
        <ele>1384</ele>
        <time>2013-01-26T08:15:26Z</time>
      </trkpt>
      <trkpt lat="45.35653" lon="5.90493">
        <ele>1385</ele>
        <time>2013-01-26T08:15:31Z</time>
      </trkpt>
      <trkpt lat="45.35652" lon="5.90488">
        <ele>1384</ele>
        <time>2013-01-26T08:15:36Z</time>
      </trkpt>
      <trkpt lat="45.35651" lon="5.90482">
        <ele>1382</ele>
        <time>2013-01-26T08:15:41Z</time>
      </trkpt>
      <trkpt lat="45.3565" lon="5.90477">
        <ele>1383</ele>
        <time>2013-01-26T08:15:46Z</time>
      </trkpt>
      <trkpt lat="45.35649" lon="5.90473">
        <ele>1382</ele>
        <time>2013-01-26T08:15:51Z</time>
      </trkpt>
      <trkpt lat="45.35649" lon="5.90469">
        <ele>1384</ele>
        <time>2013-01-26T08:15:56Z</time>
      </trkpt>
      <trkpt lat="45.35648" lon="5.90467">
        <ele>1391</ele>
        <time>2013-01-26T08:16:01Z</time>
      </trkpt>
      <trkpt lat="45.35647" lon="5.90463">
        <ele>1389</ele>
        <time>2013-01-26T08:16:06Z</time>
      </trkpt>
      <trkpt lat="45.35644" lon="5.9046">
        <ele>1389</ele>
        <time>2013-01-26T08:16:11Z</time>
      </trkpt>
      <trkpt lat="45.35642" lon="5.90456">
        <ele>1391</ele>
        <time>2013-01-26T08:16:16Z</time>
      </trkpt>
      <trkpt lat="45.3564" lon="5.90454">
        <ele>1394</ele>
        <time>2013-01-26T08:16:21Z</time>
      </trkpt>
      <trkpt lat="45.3564" lon="5.90451">
        <ele>1397</ele>
        <time>2013-01-26T08:16:26Z</time>
      </trkpt>
      <trkpt lat="45.35638" lon="5.90447">
        <ele>1398</ele>
        <time>2013-01-26T08:16:31Z</time>
      </trkpt>
      <trkpt lat="45.35637" lon="5.90442">
        <ele>1396</ele>
        <time>2013-01-26T08:16:36Z</time>
      </trkpt>
      <trkpt lat="45.35635" lon="5.90438">
        <ele>1395</ele>
        <time>2013-01-26T08:16:41Z</time>
      </trkpt>
      <trkpt lat="45.35633" lon="5.90435">
        <ele>1397</ele>
        <time>2013-01-26T08:16:46Z</time>
      </trkpt>
      <trkpt lat="45.35634" lon="5.90432">
        <ele>1391</ele>
        <time>2013-01-26T08:16:51Z</time>
      </trkpt>
      <trkpt lat="45.35633" lon="5.90432">
        <ele>1386</ele>
        <time>2013-01-26T08:16:56Z</time>
      </trkpt>
      <trkpt lat="45.35633" lon="5.90431">
        <ele>1382</ele>
        <time>2013-01-26T08:17:01Z</time>
      </trkpt>
      <trkpt lat="45.35633" lon="5.90429">
        <ele>1378</ele>
        <time>2013-01-26T08:17:06Z</time>
      </trkpt>
      <trkpt lat="45.35634" lon="5.90428">
        <ele>1378</ele>
        <time>2013-01-26T08:17:11Z</time>
      </trkpt>
      <trkpt lat="45.35634" lon="5.90428">
        <ele>1379</ele>
        <time>2013-01-26T08:17:16Z</time>
      </trkpt>
      <trkpt lat="45.35632" lon="5.90429">
        <ele>1382</ele>
        <time>2013-01-26T08:17:21Z</time>
      </trkpt>
      <trkpt lat="45.35631" lon="5.90427">
        <ele>1382</ele>
        <time>2013-01-26T08:17:26Z</time>
      </trkpt>
      <trkpt lat="45.35631" lon="5.90427">
        <ele>1384</ele>
        <time>2013-01-26T08:17:31Z</time>
      </trkpt>
      <trkpt lat="45.35631" lon="5.90427">
        <ele>1387</ele>
        <time>2013-01-26T08:17:36Z</time>
      </trkpt>
      <trkpt lat="45.3563" lon="5.90427">
        <ele>1389</ele>
        <time>2013-01-26T08:17:41Z</time>
      </trkpt>
      <trkpt lat="45.3563" lon="5.90426">
        <ele>1389</ele>
        <time>2013-01-26T08:17:46Z</time>
      </trkpt>
      <trkpt lat="45.3563" lon="5.90427">
        <ele>1391</ele>
        <time>2013-01-26T08:17:51Z</time>
      </trkpt>
      <trkpt lat="45.35631" lon="5.90426">
        <ele>1388</ele>
        <time>2013-01-26T08:17:56Z</time>
      </trkpt>
      <trkpt lat="45.35631" lon="5.90426">
        <ele>1384</ele>
        <time>2013-01-26T08:18:01Z</time>
      </trkpt>
      <trkpt lat="45.35628" lon="5.9043">
        <ele>1402</ele>
        <time>2013-01-26T08:18:31Z</time>
      </trkpt>
      <trkpt lat="45.35628" lon="5.90429">
        <ele>1404</ele>
        <time>2013-01-26T08:18:36Z</time>
      </trkpt>
      <trkpt lat="45.35627" lon="5.90428">
        <ele>1409</ele>
        <time>2013-01-26T08:18:41Z</time>
      </trkpt>
      <trkpt lat="45.35625" lon="5.90424">
        <ele>1411</ele>
        <time>2013-01-26T08:18:46Z</time>
      </trkpt>
      <trkpt lat="45.35624" lon="5.90419">
        <ele>1411</ele>
        <time>2013-01-26T08:18:51Z</time>
      </trkpt>
      <trkpt lat="45.35622" lon="5.90415">
        <ele>1411</ele>
        <time>2013-01-26T08:18:56Z</time>
      </trkpt>
      <trkpt lat="45.35619" lon="5.9041">
        <ele>1411</ele>
        <time>2013-01-26T08:19:01Z</time>
      </trkpt>
      <trkpt lat="45.35616" lon="5.90406">
        <ele>1409</ele>
        <time>2013-01-26T08:19:06Z</time>
      </trkpt>
      <trkpt lat="45.35613" lon="5.90403">
        <ele>1411</ele>
        <time>2013-01-26T08:19:11Z</time>
      </trkpt>
      <trkpt lat="45.35609" lon="5.90397">
        <ele>1412</ele>
        <time>2013-01-26T08:19:16Z</time>
      </trkpt>
      <trkpt lat="45.35604" lon="5.90393">
        <ele>1413</ele>
        <time>2013-01-26T08:19:21Z</time>
      </trkpt>
      <trkpt lat="45.356" lon="5.90389">
        <ele>1413</ele>
        <time>2013-01-26T08:19:26Z</time>
      </trkpt>
      <trkpt lat="45.35597" lon="5.90387">
        <ele>1415</ele>
        <time>2013-01-26T08:19:31Z</time>
      </trkpt>
      <trkpt lat="45.35594" lon="5.90384">
        <ele>1417</ele>
        <time>2013-01-26T08:19:36Z</time>
      </trkpt>
      <trkpt lat="45.35592" lon="5.90381">
        <ele>1417</ele>
        <time>2013-01-26T08:19:41Z</time>
      </trkpt>
      <trkpt lat="45.35588" lon="5.9038">
        <ele>1418</ele>
        <time>2013-01-26T08:19:46Z</time>
      </trkpt>
      <trkpt lat="45.35585" lon="5.90377">
        <ele>1419</ele>
        <time>2013-01-26T08:19:51Z</time>
      </trkpt>
      <trkpt lat="45.35582" lon="5.90374">
        <ele>1420</ele>
        <time>2013-01-26T08:19:56Z</time>
      </trkpt>
      <trkpt lat="45.35578" lon="5.90371">
        <ele>1419</ele>
        <time>2013-01-26T08:20:01Z</time>
      </trkpt>
      <trkpt lat="45.35574" lon="5.90368">
        <ele>1420</ele>
        <time>2013-01-26T08:20:06Z</time>
      </trkpt>
      <trkpt lat="45.35571" lon="5.90365">
        <ele>1422</ele>
        <time>2013-01-26T08:20:11Z</time>
      </trkpt>
      <trkpt lat="45.35567" lon="5.90362">
        <ele>1424</ele>
        <time>2013-01-26T08:20:16Z</time>
      </trkpt>
      <trkpt lat="45.35565" lon="5.9036">
        <ele>1424</ele>
        <time>2013-01-26T08:20:21Z</time>
      </trkpt>
      <trkpt lat="45.35562" lon="5.90359">
        <ele>1424</ele>
        <time>2013-01-26T08:20:26Z</time>
      </trkpt>
      <trkpt lat="45.35559" lon="5.90357">
        <ele>1425</ele>
        <time>2013-01-26T08:20:31Z</time>
      </trkpt>
      <trkpt lat="45.35556" lon="5.90357">
        <ele>1427</ele>
        <time>2013-01-26T08:20:36Z</time>
      </trkpt>
      <trkpt lat="45.35553" lon="5.90356">
        <ele>1428</ele>
        <time>2013-01-26T08:20:41Z</time>
      </trkpt>
      <trkpt lat="45.35548" lon="5.90356">
        <ele>1430</ele>
        <time>2013-01-26T08:20:46Z</time>
      </trkpt>
      <trkpt lat="45.35545" lon="5.90355">
        <ele>1431</ele>
        <time>2013-01-26T08:20:51Z</time>
      </trkpt>
      <trkpt lat="45.35544" lon="5.90352">
        <ele>1431</ele>
        <time>2013-01-26T08:20:56Z</time>
      </trkpt>
      <trkpt lat="45.35541" lon="5.90348">
        <ele>1430</ele>
        <time>2013-01-26T08:21:01Z</time>
      </trkpt>
      <trkpt lat="45.35539" lon="5.90346">
        <ele>1431</ele>
        <time>2013-01-26T08:21:06Z</time>
      </trkpt>
      <trkpt lat="45.35537" lon="5.90345">
        <ele>1431</ele>
        <time>2013-01-26T08:21:11Z</time>
      </trkpt>
      <trkpt lat="45.35534" lon="5.90344">
        <ele>1432</ele>
        <time>2013-01-26T08:21:16Z</time>
      </trkpt>
      <trkpt lat="45.35531" lon="5.90342">
        <ele>1432</ele>
        <time>2013-01-26T08:21:21Z</time>
      </trkpt>
      <trkpt lat="45.35529" lon="5.90341">
        <ele>1430</ele>
        <time>2013-01-26T08:21:26Z</time>
      </trkpt>
      <trkpt lat="45.35525" lon="5.90339">
        <ele>1431</ele>
        <time>2013-01-26T08:21:31Z</time>
      </trkpt>
      <trkpt lat="45.35523" lon="5.90338">
        <ele>1433</ele>
        <time>2013-01-26T08:21:36Z</time>
      </trkpt>
      <trkpt lat="45.35519" lon="5.90336">
        <ele>1434</ele>
        <time>2013-01-26T08:21:41Z</time>
      </trkpt>
      <trkpt lat="45.35516" lon="5.90334">
        <ele>1435</ele>
        <time>2013-01-26T08:21:46Z</time>
      </trkpt>
      <trkpt lat="45.35516" lon="5.90331">
        <ele>1435</ele>
        <time>2013-01-26T08:21:51Z</time>
      </trkpt>
      <trkpt lat="45.35518" lon="5.9033">
        <ele>1437</ele>
        <time>2013-01-26T08:21:56Z</time>
      </trkpt>
      <trkpt lat="45.3552" lon="5.90327">
        <ele>1436</ele>
        <time>2013-01-26T08:22:01Z</time>
      </trkpt>
      <trkpt lat="45.35522" lon="5.90324">
        <ele>1438</ele>
        <time>2013-01-26T08:22:06Z</time>
      </trkpt>
      <trkpt lat="45.35524" lon="5.90321">
        <ele>1438</ele>
        <time>2013-01-26T08:22:11Z</time>
      </trkpt>
      <trkpt lat="45.35524" lon="5.90319">
        <ele>1437</ele>
        <time>2013-01-26T08:22:16Z</time>
      </trkpt>
      <trkpt lat="45.35521" lon="5.90317">
        <ele>1441</ele>
        <time>2013-01-26T08:22:21Z</time>
      </trkpt>
      <trkpt lat="45.35517" lon="5.90314">
        <ele>1440</ele>
        <time>2013-01-26T08:22:26Z</time>
      </trkpt>
      <trkpt lat="45.35514" lon="5.90313">
        <ele>1440</ele>
        <time>2013-01-26T08:22:31Z</time>
      </trkpt>
      <trkpt lat="45.35512" lon="5.90311">
        <ele>1440</ele>
        <time>2013-01-26T08:22:36Z</time>
      </trkpt>
      <trkpt lat="45.35512" lon="5.90308">
        <ele>1441</ele>
        <time>2013-01-26T08:22:41Z</time>
      </trkpt>
      <trkpt lat="45.35513" lon="5.90305">
        <ele>1440</ele>
        <time>2013-01-26T08:22:46Z</time>
      </trkpt>
      <trkpt lat="45.35514" lon="5.90301">
        <ele>1439</ele>
        <time>2013-01-26T08:22:51Z</time>
      </trkpt>
      <trkpt lat="45.35516" lon="5.90296">
        <ele>1440</ele>
        <time>2013-01-26T08:22:56Z</time>
      </trkpt>
      <trkpt lat="45.35517" lon="5.90292">
        <ele>1443</ele>
        <time>2013-01-26T08:23:01Z</time>
      </trkpt>
      <trkpt lat="45.35519" lon="5.90288">
        <ele>1445</ele>
        <time>2013-01-26T08:23:06Z</time>
      </trkpt>
      <trkpt lat="45.35519" lon="5.90284">
        <ele>1445</ele>
        <time>2013-01-26T08:23:11Z</time>
      </trkpt>
      <trkpt lat="45.3552" lon="5.90279">
        <ele>1448</ele>
        <time>2013-01-26T08:23:16Z</time>
      </trkpt>
      <trkpt lat="45.35522" lon="5.90275">
        <ele>1450</ele>
        <time>2013-01-26T08:23:21Z</time>
      </trkpt>
      <trkpt lat="45.35524" lon="5.90272">
        <ele>1450</ele>
        <time>2013-01-26T08:23:26Z</time>
      </trkpt>
      <trkpt lat="45.35526" lon="5.90269">
        <ele>1450</ele>
        <time>2013-01-26T08:23:31Z</time>
      </trkpt>
      <trkpt lat="45.35526" lon="5.90267">
        <ele>1452</ele>
        <time>2013-01-26T08:23:36Z</time>
      </trkpt>
      <trkpt lat="45.35523" lon="5.90264">
        <ele>1453</ele>
        <time>2013-01-26T08:23:41Z</time>
      </trkpt>
      <trkpt lat="45.35519" lon="5.90261">
        <ele>1455</ele>
        <time>2013-01-26T08:23:46Z</time>
      </trkpt>
      <trkpt lat="45.35517" lon="5.90258">
        <ele>1457</ele>
        <time>2013-01-26T08:23:51Z</time>
      </trkpt>
      <trkpt lat="45.35515" lon="5.90255">
        <ele>1458</ele>
        <time>2013-01-26T08:23:56Z</time>
      </trkpt>
      <trkpt lat="45.35513" lon="5.90251">
        <ele>1460</ele>
        <time>2013-01-26T08:24:01Z</time>
      </trkpt>
      <trkpt lat="45.35511" lon="5.90249">
        <ele>1461</ele>
        <time>2013-01-26T08:24:06Z</time>
      </trkpt>
      <trkpt lat="45.3551" lon="5.90248">
        <ele>1462</ele>
        <time>2013-01-26T08:24:11Z</time>
      </trkpt>
      <trkpt lat="45.35507" lon="5.90247">
        <ele>1463</ele>
        <time>2013-01-26T08:24:16Z</time>
      </trkpt>
      <trkpt lat="45.35505" lon="5.90245">
        <ele>1463</ele>
        <time>2013-01-26T08:24:21Z</time>
      </trkpt>
      <trkpt lat="45.35503" lon="5.90243">
        <ele>1464</ele>
        <time>2013-01-26T08:24:26Z</time>
      </trkpt>
      <trkpt lat="45.355" lon="5.90241">
        <ele>1466</ele>
        <time>2013-01-26T08:24:31Z</time>
      </trkpt>
      <trkpt lat="45.35497" lon="5.9024">
        <ele>1466</ele>
        <time>2013-01-26T08:24:36Z</time>
      </trkpt>
      <trkpt lat="45.35495" lon="5.90238">
        <ele>1467</ele>
        <time>2013-01-26T08:24:41Z</time>
      </trkpt>
      <trkpt lat="45.35492" lon="5.90237">
        <ele>1468</ele>
        <time>2013-01-26T08:24:46Z</time>
      </trkpt>
      <trkpt lat="45.3549" lon="5.90235">
        <ele>1469</ele>
        <time>2013-01-26T08:24:51Z</time>
      </trkpt>
      <trkpt lat="45.35487" lon="5.90234">
        <ele>1470</ele>
        <time>2013-01-26T08:24:56Z</time>
      </trkpt>
      <trkpt lat="45.35486" lon="5.90233">
        <ele>1470</ele>
        <time>2013-01-26T08:25:01Z</time>
      </trkpt>
      <trkpt lat="45.35485" lon="5.90231">
        <ele>1471</ele>
        <time>2013-01-26T08:25:06Z</time>
      </trkpt>
      <trkpt lat="45.35484" lon="5.9023">
        <ele>1472</ele>
        <time>2013-01-26T08:25:11Z</time>
      </trkpt>
      <trkpt lat="45.35484" lon="5.9023">
        <ele>1472</ele>
        <time>2013-01-26T08:25:16Z</time>
      </trkpt>
      <trkpt lat="45.35483" lon="5.9023">
        <ele>1474</ele>
        <time>2013-01-26T08:25:21Z</time>
      </trkpt>
      <trkpt lat="45.35483" lon="5.90229">
        <ele>1474</ele>
        <time>2013-01-26T08:25:26Z</time>
      </trkpt>
      <trkpt lat="45.35484" lon="5.90227">
        <ele>1473</ele>
        <time>2013-01-26T08:25:31Z</time>
      </trkpt>
      <trkpt lat="45.35486" lon="5.90223">
        <ele>1473</ele>
        <time>2013-01-26T08:25:36Z</time>
      </trkpt>
      <trkpt lat="45.35487" lon="5.90219">
        <ele>1473</ele>
        <time>2013-01-26T08:25:41Z</time>
      </trkpt>
      <trkpt lat="45.35488" lon="5.90215">
        <ele>1473</ele>
        <time>2013-01-26T08:25:46Z</time>
      </trkpt>
      <trkpt lat="45.35489" lon="5.90212">
        <ele>1473</ele>
        <time>2013-01-26T08:25:51Z</time>
      </trkpt>
      <trkpt lat="45.35489" lon="5.90208">
        <ele>1474</ele>
        <time>2013-01-26T08:25:56Z</time>
      </trkpt>
      <trkpt lat="45.35489" lon="5.90203">
        <ele>1475</ele>
        <time>2013-01-26T08:26:01Z</time>
      </trkpt>
      <trkpt lat="45.3549" lon="5.90199">
        <ele>1476</ele>
        <time>2013-01-26T08:26:06Z</time>
      </trkpt>
      <trkpt lat="45.35491" lon="5.90194">
        <ele>1477</ele>
        <time>2013-01-26T08:26:11Z</time>
      </trkpt>
      <trkpt lat="45.35492" lon="5.90189">
        <ele>1477</ele>
        <time>2013-01-26T08:26:16Z</time>
      </trkpt>
      <trkpt lat="45.35494" lon="5.90185">
        <ele>1478</ele>
        <time>2013-01-26T08:26:21Z</time>
      </trkpt>
      <trkpt lat="45.35496" lon="5.9018">
        <ele>1478</ele>
        <time>2013-01-26T08:26:26Z</time>
      </trkpt>
      <trkpt lat="45.35496" lon="5.90175">
        <ele>1478</ele>
        <time>2013-01-26T08:26:31Z</time>
      </trkpt>
      <trkpt lat="45.35495" lon="5.90172">
        <ele>1482</ele>
        <time>2013-01-26T08:31:46Z</time>
      </trkpt>
      <trkpt lat="45.35496" lon="5.90169">
        <ele>1482</ele>
        <time>2013-01-26T08:31:51Z</time>
      </trkpt>
      <trkpt lat="45.35497" lon="5.90166">
        <ele>1483</ele>
        <time>2013-01-26T08:31:56Z</time>
      </trkpt>
      <trkpt lat="45.355" lon="5.90162">
        <ele>1483</ele>
        <time>2013-01-26T08:32:01Z</time>
      </trkpt>
      <trkpt lat="45.35502" lon="5.9016">
        <ele>1483</ele>
        <time>2013-01-26T08:32:06Z</time>
      </trkpt>
      <trkpt lat="45.35506" lon="5.9016">
        <ele>1484</ele>
        <time>2013-01-26T08:32:11Z</time>
      </trkpt>
      <trkpt lat="45.35509" lon="5.9016">
        <ele>1485</ele>
        <time>2013-01-26T08:32:16Z</time>
      </trkpt>
      <trkpt lat="45.35513" lon="5.90159">
        <ele>1485</ele>
        <time>2013-01-26T08:32:21Z</time>
      </trkpt>
      <trkpt lat="45.35516" lon="5.9016">
        <ele>1485</ele>
        <time>2013-01-26T08:32:26Z</time>
      </trkpt>
      <trkpt lat="45.35519" lon="5.90161">
        <ele>1485</ele>
        <time>2013-01-26T08:32:31Z</time>
      </trkpt>
      <trkpt lat="45.35522" lon="5.90163">
        <ele>1487</ele>
        <time>2013-01-26T08:32:36Z</time>
      </trkpt>
      <trkpt lat="45.35525" lon="5.90164">
        <ele>1488</ele>
        <time>2013-01-26T08:32:41Z</time>
      </trkpt>
      <trkpt lat="45.35529" lon="5.90165">
        <ele>1488</ele>
        <time>2013-01-26T08:32:46Z</time>
      </trkpt>
      <trkpt lat="45.35532" lon="5.90165">
        <ele>1489</ele>
        <time>2013-01-26T08:32:51Z</time>
      </trkpt>
      <trkpt lat="45.35534" lon="5.90166">
        <ele>1490</ele>
        <time>2013-01-26T08:32:56Z</time>
      </trkpt>
      <trkpt lat="45.35537" lon="5.90166">
        <ele>1491</ele>
        <time>2013-01-26T08:33:01Z</time>
      </trkpt>
      <trkpt lat="45.3554" lon="5.90167">
        <ele>1492</ele>
        <time>2013-01-26T08:33:06Z</time>
      </trkpt>
      <trkpt lat="45.35542" lon="5.90167">
        <ele>1493</ele>
        <time>2013-01-26T08:33:11Z</time>
      </trkpt>
      <trkpt lat="45.35543" lon="5.90166">
        <ele>1495</ele>
        <time>2013-01-26T08:33:16Z</time>
      </trkpt>
      <trkpt lat="45.35545" lon="5.90166">
        <ele>1495</ele>
        <time>2013-01-26T08:33:21Z</time>
      </trkpt>
      <trkpt lat="45.35547" lon="5.90165">
        <ele>1495</ele>
        <time>2013-01-26T08:33:26Z</time>
      </trkpt>
      <trkpt lat="45.3555" lon="5.90166">
        <ele>1496</ele>
        <time>2013-01-26T08:33:31Z</time>
      </trkpt>
      <trkpt lat="45.35552" lon="5.90166">
        <ele>1497</ele>
        <time>2013-01-26T08:33:36Z</time>
      </trkpt>
      <trkpt lat="45.35554" lon="5.90166">
        <ele>1497</ele>
        <time>2013-01-26T08:33:41Z</time>
      </trkpt>
      <trkpt lat="45.35556" lon="5.90165">
        <ele>1498</ele>
        <time>2013-01-26T08:33:46Z</time>
      </trkpt>
      <trkpt lat="45.35558" lon="5.90165">
        <ele>1499</ele>
        <time>2013-01-26T08:33:51Z</time>
      </trkpt>
      <trkpt lat="45.35561" lon="5.90166">
        <ele>1503</ele>
        <time>2013-01-26T08:33:56Z</time>
      </trkpt>
      <trkpt lat="45.35564" lon="5.90164">
        <ele>1503</ele>
        <time>2013-01-26T08:34:01Z</time>
      </trkpt>
      <trkpt lat="45.35566" lon="5.90164">
        <ele>1504</ele>
        <time>2013-01-26T08:34:06Z</time>
      </trkpt>
      <trkpt lat="45.35569" lon="5.90165">
        <ele>1505</ele>
        <time>2013-01-26T08:34:11Z</time>
      </trkpt>
      <trkpt lat="45.35571" lon="5.90166">
        <ele>1506</ele>
        <time>2013-01-26T08:34:16Z</time>
      </trkpt>
      <trkpt lat="45.35574" lon="5.90167">
        <ele>1508</ele>
        <time>2013-01-26T08:34:21Z</time>
      </trkpt>
      <trkpt lat="45.35577" lon="5.90166">
        <ele>1508</ele>
        <time>2013-01-26T08:34:26Z</time>
      </trkpt>
      <trkpt lat="45.35579" lon="5.90166">
        <ele>1508</ele>
        <time>2013-01-26T08:34:31Z</time>
      </trkpt>
      <trkpt lat="45.35582" lon="5.90166">
        <ele>1508</ele>
        <time>2013-01-26T08:34:36Z</time>
      </trkpt>
      <trkpt lat="45.35584" lon="5.90166">
        <ele>1510</ele>
        <time>2013-01-26T08:34:41Z</time>
      </trkpt>
      <trkpt lat="45.35585" lon="5.90165">
        <ele>1513</ele>
        <time>2013-01-26T08:34:46Z</time>
      </trkpt>
      <trkpt lat="45.35588" lon="5.90165">
        <ele>1514</ele>
        <time>2013-01-26T08:34:51Z</time>
      </trkpt>
      <trkpt lat="45.3559" lon="5.90164">
        <ele>1514</ele>
        <time>2013-01-26T08:34:56Z</time>
      </trkpt>
      <trkpt lat="45.35593" lon="5.90163">
        <ele>1515</ele>
        <time>2013-01-26T08:35:01Z</time>
      </trkpt>
      <trkpt lat="45.35595" lon="5.90163">
        <ele>1516</ele>
        <time>2013-01-26T08:35:06Z</time>
      </trkpt>
      <trkpt lat="45.35598" lon="5.90164">
        <ele>1518</ele>
        <time>2013-01-26T08:35:11Z</time>
      </trkpt>
      <trkpt lat="45.356" lon="5.90162">
        <ele>1518</ele>
        <time>2013-01-26T08:35:16Z</time>
      </trkpt>
      <trkpt lat="45.35603" lon="5.90162">
        <ele>1519</ele>
        <time>2013-01-26T08:35:21Z</time>
      </trkpt>
      <trkpt lat="45.35606" lon="5.90162">
        <ele>1519</ele>
        <time>2013-01-26T08:35:26Z</time>
      </trkpt>
      <trkpt lat="45.35608" lon="5.90161">
        <ele>1520</ele>
        <time>2013-01-26T08:35:31Z</time>
      </trkpt>
      <trkpt lat="45.35611" lon="5.90161">
        <ele>1520</ele>
        <time>2013-01-26T08:35:36Z</time>
      </trkpt>
      <trkpt lat="45.35613" lon="5.90162">
        <ele>1520</ele>
        <time>2013-01-26T08:35:41Z</time>
      </trkpt>
      <trkpt lat="45.35615" lon="5.90162">
        <ele>1521</ele>
        <time>2013-01-26T08:35:46Z</time>
      </trkpt>
      <trkpt lat="45.35617" lon="5.90161">
        <ele>1522</ele>
        <time>2013-01-26T08:35:51Z</time>
      </trkpt>
      <trkpt lat="45.35619" lon="5.9016">
        <ele>1522</ele>
        <time>2013-01-26T08:35:56Z</time>
      </trkpt>
      <trkpt lat="45.35621" lon="5.90159">
        <ele>1523</ele>
        <time>2013-01-26T08:36:01Z</time>
      </trkpt>
      <trkpt lat="45.35623" lon="5.90158">
        <ele>1523</ele>
        <time>2013-01-26T08:36:06Z</time>
      </trkpt>
      <trkpt lat="45.35625" lon="5.90158">
        <ele>1524</ele>
        <time>2013-01-26T08:36:11Z</time>
      </trkpt>
      <trkpt lat="45.35627" lon="5.90157">
        <ele>1524</ele>
        <time>2013-01-26T08:36:16Z</time>
      </trkpt>
      <trkpt lat="45.3563" lon="5.90155">
        <ele>1522</ele>
        <time>2013-01-26T08:36:21Z</time>
      </trkpt>
      <trkpt lat="45.35633" lon="5.90154">
        <ele>1520</ele>
        <time>2013-01-26T08:36:26Z</time>
      </trkpt>
      <trkpt lat="45.35635" lon="5.90153">
        <ele>1517</ele>
        <time>2013-01-26T08:36:31Z</time>
      </trkpt>
      <trkpt lat="45.35637" lon="5.90153">
        <ele>1518</ele>
        <time>2013-01-26T08:36:36Z</time>
      </trkpt>
      <trkpt lat="45.3564" lon="5.90153">
        <ele>1519</ele>
        <time>2013-01-26T08:36:41Z</time>
      </trkpt>
      <trkpt lat="45.35643" lon="5.90154">
        <ele>1520</ele>
        <time>2013-01-26T08:36:46Z</time>
      </trkpt>
      <trkpt lat="45.35645" lon="5.90155">
        <ele>1521</ele>
        <time>2013-01-26T08:36:51Z</time>
      </trkpt>
      <trkpt lat="45.35647" lon="5.90154">
        <ele>1522</ele>
        <time>2013-01-26T08:36:56Z</time>
      </trkpt>
      <trkpt lat="45.3565" lon="5.90154">
        <ele>1523</ele>
        <time>2013-01-26T08:37:01Z</time>
      </trkpt>
      <trkpt lat="45.35652" lon="5.90154">
        <ele>1524</ele>
        <time>2013-01-26T08:37:06Z</time>
      </trkpt>
      <trkpt lat="45.35655" lon="5.90153">
        <ele>1524</ele>
        <time>2013-01-26T08:37:11Z</time>
      </trkpt>
      <trkpt lat="45.35656" lon="5.90152">
        <ele>1525</ele>
        <time>2013-01-26T08:37:16Z</time>
      </trkpt>
      <trkpt lat="45.35658" lon="5.90153">
        <ele>1527</ele>
        <time>2013-01-26T08:37:21Z</time>
      </trkpt>
      <trkpt lat="45.35661" lon="5.90154">
        <ele>1529</ele>
        <time>2013-01-26T08:37:26Z</time>
      </trkpt>
      <trkpt lat="45.35663" lon="5.90154">
        <ele>1529</ele>
        <time>2013-01-26T08:37:31Z</time>
      </trkpt>
      <trkpt lat="45.35664" lon="5.90155">
        <ele>1532</ele>
        <time>2013-01-26T08:37:36Z</time>
      </trkpt>
      <trkpt lat="45.35667" lon="5.90156">
        <ele>1533</ele>
        <time>2013-01-26T08:37:41Z</time>
      </trkpt>
      <trkpt lat="45.35669" lon="5.90156">
        <ele>1534</ele>
        <time>2013-01-26T08:37:46Z</time>
      </trkpt>
      <trkpt lat="45.35671" lon="5.90157">
        <ele>1535</ele>
        <time>2013-01-26T08:37:51Z</time>
      </trkpt>
      <trkpt lat="45.35673" lon="5.90156">
        <ele>1535</ele>
        <time>2013-01-26T08:37:56Z</time>
      </trkpt>
      <trkpt lat="45.35676" lon="5.90155">
        <ele>1536</ele>
        <time>2013-01-26T08:38:01Z</time>
      </trkpt>
      <trkpt lat="45.35677" lon="5.90152">
        <ele>1537</ele>
        <time>2013-01-26T08:38:06Z</time>
      </trkpt>
      <trkpt lat="45.35677" lon="5.90149">
        <ele>1538</ele>
        <time>2013-01-26T08:38:11Z</time>
      </trkpt>
      <trkpt lat="45.35676" lon="5.90146">
        <ele>1539</ele>
        <time>2013-01-26T08:38:16Z</time>
      </trkpt>
      <trkpt lat="45.35675" lon="5.90143">
        <ele>1540</ele>
        <time>2013-01-26T08:38:21Z</time>
      </trkpt>
      <trkpt lat="45.35673" lon="5.90141">
        <ele>1540</ele>
        <time>2013-01-26T08:38:26Z</time>
      </trkpt>
      <trkpt lat="45.35672" lon="5.90139">
        <ele>1541</ele>
        <time>2013-01-26T08:38:31Z</time>
      </trkpt>
      <trkpt lat="45.3567" lon="5.90137">
        <ele>1542</ele>
        <time>2013-01-26T08:38:36Z</time>
      </trkpt>
      <trkpt lat="45.35669" lon="5.90133">
        <ele>1542</ele>
        <time>2013-01-26T08:38:41Z</time>
      </trkpt>
      <trkpt lat="45.35668" lon="5.90131">
        <ele>1543</ele>
        <time>2013-01-26T08:38:46Z</time>
      </trkpt>
      <trkpt lat="45.35666" lon="5.90129">
        <ele>1544</ele>
        <time>2013-01-26T08:38:51Z</time>
      </trkpt>
      <trkpt lat="45.35666" lon="5.90127">
        <ele>1545</ele>
        <time>2013-01-26T08:38:56Z</time>
      </trkpt>
      <trkpt lat="45.35664" lon="5.90124">
        <ele>1545</ele>
        <time>2013-01-26T08:39:01Z</time>
      </trkpt>
      <trkpt lat="45.35663" lon="5.9012">
        <ele>1545</ele>
        <time>2013-01-26T08:39:06Z</time>
      </trkpt>
      <trkpt lat="45.35662" lon="5.90117">
        <ele>1545</ele>
        <time>2013-01-26T08:39:11Z</time>
      </trkpt>
      <trkpt lat="45.35661" lon="5.90115">
        <ele>1545</ele>
        <time>2013-01-26T08:39:16Z</time>
      </trkpt>
      <trkpt lat="45.35659" lon="5.90113">
        <ele>1546</ele>
        <time>2013-01-26T08:39:21Z</time>
      </trkpt>
      <trkpt lat="45.35658" lon="5.9011">
        <ele>1547</ele>
        <time>2013-01-26T08:39:26Z</time>
      </trkpt>
      <trkpt lat="45.35657" lon="5.90107">
        <ele>1547</ele>
        <time>2013-01-26T08:39:31Z</time>
      </trkpt>
      <trkpt lat="45.35656" lon="5.90105">
        <ele>1549</ele>
        <time>2013-01-26T08:39:36Z</time>
      </trkpt>
      <trkpt lat="45.35654" lon="5.90103">
        <ele>1550</ele>
        <time>2013-01-26T08:39:41Z</time>
      </trkpt>
      <trkpt lat="45.35652" lon="5.901">
        <ele>1551</ele>
        <time>2013-01-26T08:39:46Z</time>
      </trkpt>
      <trkpt lat="45.35651" lon="5.90097">
        <ele>1552</ele>
        <time>2013-01-26T08:39:51Z</time>
      </trkpt>
      <trkpt lat="45.3565" lon="5.90095">
        <ele>1554</ele>
        <time>2013-01-26T08:39:56Z</time>
      </trkpt>
      <trkpt lat="45.35648" lon="5.90092">
        <ele>1554</ele>
        <time>2013-01-26T08:40:01Z</time>
      </trkpt>
      <trkpt lat="45.35647" lon="5.90089">
        <ele>1555</ele>
        <time>2013-01-26T08:40:06Z</time>
      </trkpt>
      <trkpt lat="45.35644" lon="5.90087">
        <ele>1556</ele>
        <time>2013-01-26T08:40:11Z</time>
      </trkpt>
      <trkpt lat="45.35642" lon="5.90084">
        <ele>1557</ele>
        <time>2013-01-26T08:40:16Z</time>
      </trkpt>
      <trkpt lat="45.3564" lon="5.90082">
        <ele>1557</ele>
        <time>2013-01-26T08:40:21Z</time>
      </trkpt>
      <trkpt lat="45.35638" lon="5.9008">
        <ele>1558</ele>
        <time>2013-01-26T08:40:26Z</time>
      </trkpt>
      <trkpt lat="45.35637" lon="5.90077">
        <ele>1558</ele>
        <time>2013-01-26T08:40:31Z</time>
      </trkpt>
      <trkpt lat="45.35635" lon="5.90074">
        <ele>1559</ele>
        <time>2013-01-26T08:40:36Z</time>
      </trkpt>
      <trkpt lat="45.35633" lon="5.90071">
        <ele>1560</ele>
        <time>2013-01-26T08:40:41Z</time>
      </trkpt>
      <trkpt lat="45.35632" lon="5.90068">
        <ele>1560</ele>
        <time>2013-01-26T08:40:46Z</time>
      </trkpt>
      <trkpt lat="45.3563" lon="5.90065">
        <ele>1561</ele>
        <time>2013-01-26T08:40:51Z</time>
      </trkpt>
      <trkpt lat="45.35628" lon="5.90061">
        <ele>1561</ele>
        <time>2013-01-26T08:40:56Z</time>
      </trkpt>
      <trkpt lat="45.35627" lon="5.90058">
        <ele>1562</ele>
        <time>2013-01-26T08:41:01Z</time>
      </trkpt>
      <trkpt lat="45.35625" lon="5.90055">
        <ele>1562</ele>
        <time>2013-01-26T08:41:06Z</time>
      </trkpt>
      <trkpt lat="45.35624" lon="5.90052">
        <ele>1563</ele>
        <time>2013-01-26T08:41:11Z</time>
      </trkpt>
      <trkpt lat="45.35622" lon="5.90049">
        <ele>1564</ele>
        <time>2013-01-26T08:41:16Z</time>
      </trkpt>
      <trkpt lat="45.35621" lon="5.90045">
        <ele>1565</ele>
        <time>2013-01-26T08:41:21Z</time>
      </trkpt>
      <trkpt lat="45.35619" lon="5.90042">
        <ele>1566</ele>
        <time>2013-01-26T08:41:26Z</time>
      </trkpt>
      <trkpt lat="45.35618" lon="5.90039">
        <ele>1567</ele>
        <time>2013-01-26T08:41:31Z</time>
      </trkpt>
      <trkpt lat="45.35617" lon="5.90035">
        <ele>1568</ele>
        <time>2013-01-26T08:41:36Z</time>
      </trkpt>
      <trkpt lat="45.35617" lon="5.90031">
        <ele>1569</ele>
        <time>2013-01-26T08:41:41Z</time>
      </trkpt>
      <trkpt lat="45.35616" lon="5.90027">
        <ele>1570</ele>
        <time>2013-01-26T08:41:46Z</time>
      </trkpt>
      <trkpt lat="45.35615" lon="5.90023">
        <ele>1571</ele>
        <time>2013-01-26T08:41:51Z</time>
      </trkpt>
      <trkpt lat="45.35614" lon="5.90019">
        <ele>1572</ele>
        <time>2013-01-26T08:41:56Z</time>
      </trkpt>
      <trkpt lat="45.35614" lon="5.90015">
        <ele>1573</ele>
        <time>2013-01-26T08:42:01Z</time>
      </trkpt>
      <trkpt lat="45.35613" lon="5.90011">
        <ele>1573</ele>
        <time>2013-01-26T08:42:06Z</time>
      </trkpt>
      <trkpt lat="45.35613" lon="5.90007">
        <ele>1574</ele>
        <time>2013-01-26T08:42:11Z</time>
      </trkpt>
      <trkpt lat="45.35613" lon="5.90003">
        <ele>1574</ele>
        <time>2013-01-26T08:42:16Z</time>
      </trkpt>
      <trkpt lat="45.35611" lon="5.9">
        <ele>1576</ele>
        <time>2013-01-26T08:42:21Z</time>
      </trkpt>
      <trkpt lat="45.35611" lon="5.89995">
        <ele>1576</ele>
        <time>2013-01-26T08:42:26Z</time>
      </trkpt>
      <trkpt lat="45.35611" lon="5.89991">
        <ele>1577</ele>
        <time>2013-01-26T08:42:31Z</time>
      </trkpt>
      <trkpt lat="45.35611" lon="5.89988">
        <ele>1578</ele>
        <time>2013-01-26T08:42:36Z</time>
      </trkpt>
      <trkpt lat="45.35611" lon="5.89984">
        <ele>1578</ele>
        <time>2013-01-26T08:42:41Z</time>
      </trkpt>
      <trkpt lat="45.35612" lon="5.8998">
        <ele>1579</ele>
        <time>2013-01-26T08:42:46Z</time>
      </trkpt>
      <trkpt lat="45.35613" lon="5.89976">
        <ele>1580</ele>
        <time>2013-01-26T08:42:51Z</time>
      </trkpt>
      <trkpt lat="45.35613" lon="5.89973">
        <ele>1580</ele>
        <time>2013-01-26T08:42:56Z</time>
      </trkpt>
      <trkpt lat="45.35613" lon="5.8997">
        <ele>1581</ele>
        <time>2013-01-26T08:43:01Z</time>
      </trkpt>
      <trkpt lat="45.35614" lon="5.89967">
        <ele>1582</ele>
        <time>2013-01-26T08:43:06Z</time>
      </trkpt>
      <trkpt lat="45.35617" lon="5.89966">
        <ele>1583</ele>
        <time>2013-01-26T08:43:11Z</time>
      </trkpt>
      <trkpt lat="45.35619" lon="5.89966">
        <ele>1584</ele>
        <time>2013-01-26T08:43:16Z</time>
      </trkpt>
      <trkpt lat="45.35619" lon="5.89964">
        <ele>1586</ele>
        <time>2013-01-26T08:43:21Z</time>
      </trkpt>
      <trkpt lat="45.35619" lon="5.89961">
        <ele>1589</ele>
        <time>2013-01-26T08:43:26Z</time>
      </trkpt>
      <trkpt lat="45.35618" lon="5.89958">
        <ele>1591</ele>
        <time>2013-01-26T08:43:31Z</time>
      </trkpt>
      <trkpt lat="45.35618" lon="5.89955">
        <ele>1592</ele>
        <time>2013-01-26T08:43:36Z</time>
      </trkpt>
      <trkpt lat="45.35618" lon="5.89951">
        <ele>1592</ele>
        <time>2013-01-26T08:43:41Z</time>
      </trkpt>
      <trkpt lat="45.35617" lon="5.89949">
        <ele>1592</ele>
        <time>2013-01-26T08:43:46Z</time>
      </trkpt>
      <trkpt lat="45.35619" lon="5.89947">
        <ele>1592</ele>
        <time>2013-01-26T08:43:51Z</time>
      </trkpt>
      <trkpt lat="45.35622" lon="5.8995">
        <ele>1591</ele>
        <time>2013-01-26T08:43:56Z</time>
      </trkpt>
      <trkpt lat="45.35624" lon="5.89954">
        <ele>1591</ele>
        <time>2013-01-26T08:44:01Z</time>
      </trkpt>
      <trkpt lat="45.35624" lon="5.89953">
        <ele>1592</ele>
        <time>2013-01-26T08:44:06Z</time>
      </trkpt>
      <trkpt lat="45.35626" lon="5.89949">
        <ele>1592</ele>
        <time>2013-01-26T08:44:11Z</time>
      </trkpt>
      <trkpt lat="45.35625" lon="5.89944">
        <ele>1594</ele>
        <time>2013-01-26T08:44:16Z</time>
      </trkpt>
      <trkpt lat="45.35624" lon="5.89941">
        <ele>1596</ele>
        <time>2013-01-26T08:44:21Z</time>
      </trkpt>
      <trkpt lat="45.35624" lon="5.89937">
        <ele>1597</ele>
        <time>2013-01-26T08:44:26Z</time>
      </trkpt>
      <trkpt lat="45.35624" lon="5.89932">
        <ele>1595</ele>
        <time>2013-01-26T08:44:31Z</time>
      </trkpt>
      <trkpt lat="45.35625" lon="5.89929">
        <ele>1596</ele>
        <time>2013-01-26T08:44:36Z</time>
      </trkpt>
      <trkpt lat="45.35627" lon="5.89929">
        <ele>1598</ele>
        <time>2013-01-26T08:44:41Z</time>
      </trkpt>
      <trkpt lat="45.35628" lon="5.8993">
        <ele>1601</ele>
        <time>2013-01-26T08:44:46Z</time>
      </trkpt>
      <trkpt lat="45.35629" lon="5.8993">
        <ele>1601</ele>
        <time>2013-01-26T08:44:51Z</time>
      </trkpt>
      <trkpt lat="45.3563" lon="5.89926">
        <ele>1602</ele>
        <time>2013-01-26T08:44:56Z</time>
      </trkpt>
      <trkpt lat="45.3563" lon="5.89921">
        <ele>1602</ele>
        <time>2013-01-26T08:45:01Z</time>
      </trkpt>
      <trkpt lat="45.3563" lon="5.89917">
        <ele>1603</ele>
        <time>2013-01-26T08:45:06Z</time>
      </trkpt>
      <trkpt lat="45.3563" lon="5.89914">
        <ele>1603</ele>
        <time>2013-01-26T08:45:11Z</time>
      </trkpt>
      <trkpt lat="45.35631" lon="5.89909">
        <ele>1604</ele>
        <time>2013-01-26T08:45:16Z</time>
      </trkpt>
      <trkpt lat="45.35631" lon="5.89905">
        <ele>1605</ele>
        <time>2013-01-26T08:45:21Z</time>
      </trkpt>
      <trkpt lat="45.35632" lon="5.89901">
        <ele>1606</ele>
        <time>2013-01-26T08:45:26Z</time>
      </trkpt>
      <trkpt lat="45.35632" lon="5.89898">
        <ele>1606</ele>
        <time>2013-01-26T08:45:31Z</time>
      </trkpt>
      <trkpt lat="45.35632" lon="5.89894">
        <ele>1607</ele>
        <time>2013-01-26T08:45:36Z</time>
      </trkpt>
      <trkpt lat="45.35634" lon="5.89889">
        <ele>1607</ele>
        <time>2013-01-26T08:45:41Z</time>
      </trkpt>
      <trkpt lat="45.35634" lon="5.89884">
        <ele>1609</ele>
        <time>2013-01-26T08:45:46Z</time>
      </trkpt>
      <trkpt lat="45.35633" lon="5.8988">
        <ele>1610</ele>
        <time>2013-01-26T08:45:51Z</time>
      </trkpt>
      <trkpt lat="45.35633" lon="5.89878">
        <ele>1611</ele>
        <time>2013-01-26T08:45:56Z</time>
      </trkpt>
      <trkpt lat="45.35632" lon="5.89874">
        <ele>1612</ele>
        <time>2013-01-26T08:46:01Z</time>
      </trkpt>
      <trkpt lat="45.35631" lon="5.89871">
        <ele>1613</ele>
        <time>2013-01-26T08:46:06Z</time>
      </trkpt>
      <trkpt lat="45.3563" lon="5.89867">
        <ele>1614</ele>
        <time>2013-01-26T08:46:11Z</time>
      </trkpt>
      <trkpt lat="45.35629" lon="5.89864">
        <ele>1614</ele>
        <time>2013-01-26T08:46:16Z</time>
      </trkpt>
      <trkpt lat="45.35627" lon="5.8986">
        <ele>1614</ele>
        <time>2013-01-26T08:46:21Z</time>
      </trkpt>
      <trkpt lat="45.35626" lon="5.89856">
        <ele>1615</ele>
        <time>2013-01-26T08:46:26Z</time>
      </trkpt>
      <trkpt lat="45.35624" lon="5.89853">
        <ele>1616</ele>
        <time>2013-01-26T08:46:31Z</time>
      </trkpt>
      <trkpt lat="45.35623" lon="5.89849">
        <ele>1616</ele>
        <time>2013-01-26T08:46:36Z</time>
      </trkpt>
      <trkpt lat="45.35622" lon="5.89847">
        <ele>1616</ele>
        <time>2013-01-26T08:46:41Z</time>
      </trkpt>
      <trkpt lat="45.35622" lon="5.89847">
        <ele>1616</ele>
        <time>2013-01-26T08:46:46Z</time>
      </trkpt>
      <trkpt lat="45.35622" lon="5.89847">
        <ele>1616</ele>
        <time>2013-01-26T08:46:51Z</time>
      </trkpt>
      <trkpt lat="45.35622" lon="5.89847">
        <ele>1616</ele>
        <time>2013-01-26T08:46:56Z</time>
      </trkpt>
      <trkpt lat="45.35622" lon="5.89847">
        <ele>1616</ele>
        <time>2013-01-26T08:47:01Z</time>
      </trkpt>
      <trkpt lat="45.35622" lon="5.89847">
        <ele>1616</ele>
        <time>2013-01-26T08:47:06Z</time>
      </trkpt>
      <trkpt lat="45.35622" lon="5.89848">
        <ele>1616</ele>
        <time>2013-01-26T08:47:11Z</time>
      </trkpt>
      <trkpt lat="45.35622" lon="5.89847">
        <ele>1616</ele>
        <time>2013-01-26T08:47:16Z</time>
      </trkpt>
      <trkpt lat="45.35623" lon="5.89848">
        <ele>1617</ele>
        <time>2013-01-26T08:47:21Z</time>
      </trkpt>
      <trkpt lat="45.35624" lon="5.89848">
        <ele>1617</ele>
        <time>2013-01-26T08:47:26Z</time>
      </trkpt>
      <trkpt lat="45.35624" lon="5.89846">
        <ele>1617</ele>
        <time>2013-01-26T08:47:31Z</time>
      </trkpt>
      <trkpt lat="45.35622" lon="5.89842">
        <ele>1618</ele>
        <time>2013-01-26T08:47:36Z</time>
      </trkpt>
      <trkpt lat="45.35621" lon="5.89837">
        <ele>1618</ele>
        <time>2013-01-26T08:47:41Z</time>
      </trkpt>
      <trkpt lat="45.35623" lon="5.89835">
        <ele>1619</ele>
        <time>2013-01-26T08:47:46Z</time>
      </trkpt>
      <trkpt lat="45.35625" lon="5.89838">
        <ele>1620</ele>
        <time>2013-01-26T08:47:51Z</time>
      </trkpt>
      <trkpt lat="45.35627" lon="5.89841">
        <ele>1621</ele>
        <time>2013-01-26T08:47:56Z</time>
      </trkpt>
      <trkpt lat="45.3563" lon="5.89843">
        <ele>1621</ele>
        <time>2013-01-26T08:48:01Z</time>
      </trkpt>
      <trkpt lat="45.35633" lon="5.89844">
        <ele>1621</ele>
        <time>2013-01-26T08:48:06Z</time>
      </trkpt>
      <trkpt lat="45.35634" lon="5.89843">
        <ele>1623</ele>
        <time>2013-01-26T08:48:11Z</time>
      </trkpt>
      <trkpt lat="45.35633" lon="5.89839">
        <ele>1624</ele>
        <time>2013-01-26T08:48:16Z</time>
      </trkpt>
      <trkpt lat="45.35632" lon="5.89835">
        <ele>1625</ele>
        <time>2013-01-26T08:48:21Z</time>
      </trkpt>
      <trkpt lat="45.35631" lon="5.89833">
        <ele>1625</ele>
        <time>2013-01-26T08:48:26Z</time>
      </trkpt>
      <trkpt lat="45.35631" lon="5.8983">
        <ele>1627</ele>
        <time>2013-01-26T08:48:31Z</time>
      </trkpt>
      <trkpt lat="45.3563" lon="5.89827">
        <ele>1627</ele>
        <time>2013-01-26T08:48:36Z</time>
      </trkpt>
      <trkpt lat="45.35629" lon="5.89823">
        <ele>1628</ele>
        <time>2013-01-26T08:48:41Z</time>
      </trkpt>
      <trkpt lat="45.35627" lon="5.8982">
        <ele>1628</ele>
        <time>2013-01-26T08:48:46Z</time>
      </trkpt>
      <trkpt lat="45.35627" lon="5.89818">
        <ele>1629</ele>
        <time>2013-01-26T08:48:51Z</time>
      </trkpt>
      <trkpt lat="45.35627" lon="5.89816">
        <ele>1629</ele>
        <time>2013-01-26T08:48:56Z</time>
      </trkpt>
      <trkpt lat="45.35627" lon="5.89813">
        <ele>1630</ele>
        <time>2013-01-26T08:49:01Z</time>
      </trkpt>
      <trkpt lat="45.35626" lon="5.8981">
        <ele>1631</ele>
        <time>2013-01-26T08:49:06Z</time>
      </trkpt>
      <trkpt lat="45.35624" lon="5.89808">
        <ele>1632</ele>
        <time>2013-01-26T08:49:11Z</time>
      </trkpt>
      <trkpt lat="45.35622" lon="5.89805">
        <ele>1633</ele>
        <time>2013-01-26T08:49:16Z</time>
      </trkpt>
      <trkpt lat="45.35621" lon="5.89801">
        <ele>1634</ele>
        <time>2013-01-26T08:49:21Z</time>
      </trkpt>
      <trkpt lat="45.35619" lon="5.89799">
        <ele>1634</ele>
        <time>2013-01-26T08:49:26Z</time>
      </trkpt>
      <trkpt lat="45.35619" lon="5.89795">
        <ele>1635</ele>
        <time>2013-01-26T08:49:31Z</time>
      </trkpt>
      <trkpt lat="45.35618" lon="5.89792">
        <ele>1636</ele>
        <time>2013-01-26T08:49:36Z</time>
      </trkpt>
      <trkpt lat="45.35618" lon="5.89788">
        <ele>1636</ele>
        <time>2013-01-26T08:49:41Z</time>
      </trkpt>
      <trkpt lat="45.35617" lon="5.89784">
        <ele>1637</ele>
        <time>2013-01-26T08:49:46Z</time>
      </trkpt>
      <trkpt lat="45.35617" lon="5.89781">
        <ele>1638</ele>
        <time>2013-01-26T08:49:51Z</time>
      </trkpt>
      <trkpt lat="45.35617" lon="5.8978">
        <ele>1638</ele>
        <time>2013-01-26T08:49:56Z</time>
      </trkpt>
      <trkpt lat="45.35617" lon="5.8978">
        <ele>1638</ele>
        <time>2013-01-26T08:50:01Z</time>
      </trkpt>
      <trkpt lat="45.35617" lon="5.8978">
        <ele>1638</ele>
        <time>2013-01-26T08:50:06Z</time>
      </trkpt>
      <trkpt lat="45.35617" lon="5.89777">
        <ele>1638</ele>
        <time>2013-01-26T08:50:11Z</time>
      </trkpt>
      <trkpt lat="45.35617" lon="5.89775">
        <ele>1639</ele>
        <time>2013-01-26T08:50:16Z</time>
      </trkpt>
      <trkpt lat="45.35617" lon="5.89775">
        <ele>1639</ele>
        <time>2013-01-26T08:50:21Z</time>
      </trkpt>
      <trkpt lat="45.35617" lon="5.89775">
        <ele>1639</ele>
        <time>2013-01-26T08:50:26Z</time>
      </trkpt>
      <trkpt lat="45.35617" lon="5.89775">
        <ele>1639</ele>
        <time>2013-01-26T08:50:31Z</time>
      </trkpt>
      <trkpt lat="45.35617" lon="5.89775">
        <ele>1639</ele>
        <time>2013-01-26T08:50:36Z</time>
      </trkpt>
      <trkpt lat="45.35617" lon="5.89773">
        <ele>1639</ele>
        <time>2013-01-26T08:50:41Z</time>
      </trkpt>
      <trkpt lat="45.35617" lon="5.89769">
        <ele>1640</ele>
        <time>2013-01-26T08:50:46Z</time>
      </trkpt>
      <trkpt lat="45.35617" lon="5.89765">
        <ele>1641</ele>
        <time>2013-01-26T08:50:51Z</time>
      </trkpt>
      <trkpt lat="45.35616" lon="5.89762">
        <ele>1641</ele>
        <time>2013-01-26T08:50:56Z</time>
      </trkpt>
      <trkpt lat="45.35616" lon="5.89758">
        <ele>1642</ele>
        <time>2013-01-26T08:51:01Z</time>
      </trkpt>
      <trkpt lat="45.35616" lon="5.89755">
        <ele>1643</ele>
        <time>2013-01-26T08:51:06Z</time>
      </trkpt>
      <trkpt lat="45.35617" lon="5.89752">
        <ele>1644</ele>
        <time>2013-01-26T08:51:11Z</time>
      </trkpt>
      <trkpt lat="45.3562" lon="5.89753">
        <ele>1645</ele>
        <time>2013-01-26T08:51:16Z</time>
      </trkpt>
      <trkpt lat="45.35622" lon="5.89755">
        <ele>1645</ele>
        <time>2013-01-26T08:51:21Z</time>
      </trkpt>
      <trkpt lat="45.35624" lon="5.89757">
        <ele>1646</ele>
        <time>2013-01-26T08:51:26Z</time>
      </trkpt>
      <trkpt lat="45.35626" lon="5.89759">
        <ele>1647</ele>
        <time>2013-01-26T08:51:31Z</time>
      </trkpt>
      <trkpt lat="45.35627" lon="5.89761">
        <ele>1648</ele>
        <time>2013-01-26T08:51:36Z</time>
      </trkpt>
      <trkpt lat="45.35628" lon="5.89763">
        <ele>1649</ele>
        <time>2013-01-26T08:51:41Z</time>
      </trkpt>
      <trkpt lat="45.35629" lon="5.89762">
        <ele>1649</ele>
        <time>2013-01-26T08:51:46Z</time>
      </trkpt>
      <trkpt lat="45.35629" lon="5.89759">
        <ele>1650</ele>
        <time>2013-01-26T08:51:51Z</time>
      </trkpt>
      <trkpt lat="45.3563" lon="5.89756">
        <ele>1650</ele>
        <time>2013-01-26T08:51:56Z</time>
      </trkpt>
      <trkpt lat="45.3563" lon="5.89753">
        <ele>1651</ele>
        <time>2013-01-26T08:52:01Z</time>
      </trkpt>
      <trkpt lat="45.3563" lon="5.89751">
        <ele>1651</ele>
        <time>2013-01-26T08:52:06Z</time>
      </trkpt>
      <trkpt lat="45.35629" lon="5.89747">
        <ele>1651</ele>
        <time>2013-01-26T08:52:11Z</time>
      </trkpt>
      <trkpt lat="45.35629" lon="5.89746">
        <ele>1651</ele>
        <time>2013-01-26T08:52:16Z</time>
      </trkpt>
      <trkpt lat="45.35628" lon="5.89746">
        <ele>1652</ele>
        <time>2013-01-26T08:52:21Z</time>
      </trkpt>
      <trkpt lat="45.35628" lon="5.89745">
        <ele>1652</ele>
        <time>2013-01-26T08:52:26Z</time>
      </trkpt>
      <trkpt lat="45.35627" lon="5.89743">
        <ele>1652</ele>
        <time>2013-01-26T08:52:31Z</time>
      </trkpt>
      <trkpt lat="45.35625" lon="5.89739">
        <ele>1653</ele>
        <time>2013-01-26T08:52:36Z</time>
      </trkpt>
      <trkpt lat="45.35623" lon="5.89736">
        <ele>1653</ele>
        <time>2013-01-26T08:52:41Z</time>
      </trkpt>
      <trkpt lat="45.35622" lon="5.89733">
        <ele>1654</ele>
        <time>2013-01-26T08:52:46Z</time>
      </trkpt>
      <trkpt lat="45.35621" lon="5.89731">
        <ele>1655</ele>
        <time>2013-01-26T08:52:51Z</time>
      </trkpt>
      <trkpt lat="45.3562" lon="5.89727">
        <ele>1655</ele>
        <time>2013-01-26T08:52:56Z</time>
      </trkpt>
      <trkpt lat="45.35618" lon="5.89724">
        <ele>1656</ele>
        <time>2013-01-26T08:53:01Z</time>
      </trkpt>
      <trkpt lat="45.35617" lon="5.89721">
        <ele>1657</ele>
        <time>2013-01-26T08:53:06Z</time>
      </trkpt>
      <trkpt lat="45.35615" lon="5.89718">
        <ele>1657</ele>
        <time>2013-01-26T08:53:11Z</time>
      </trkpt>
      <trkpt lat="45.35616" lon="5.89717">
        <ele>1658</ele>
        <time>2013-01-26T08:53:16Z</time>
      </trkpt>
      <trkpt lat="45.35617" lon="5.89718">
        <ele>1659</ele>
        <time>2013-01-26T08:53:21Z</time>
      </trkpt>
      <trkpt lat="45.3562" lon="5.89718">
        <ele>1659</ele>
        <time>2013-01-26T08:53:26Z</time>
      </trkpt>
      <trkpt lat="45.35622" lon="5.89719">
        <ele>1660</ele>
        <time>2013-01-26T08:53:31Z</time>
      </trkpt>
      <trkpt lat="45.35624" lon="5.8972">
        <ele>1661</ele>
        <time>2013-01-26T08:53:36Z</time>
      </trkpt>
      <trkpt lat="45.35624" lon="5.89719">
        <ele>1661</ele>
        <time>2013-01-26T08:53:41Z</time>
      </trkpt>
      <trkpt lat="45.35623" lon="5.89718">
        <ele>1661</ele>
        <time>2013-01-26T08:53:46Z</time>
      </trkpt>
      <trkpt lat="45.35622" lon="5.89715">
        <ele>1662</ele>
        <time>2013-01-26T08:53:51Z</time>
      </trkpt>
      <trkpt lat="45.35621" lon="5.89712">
        <ele>1662</ele>
        <time>2013-01-26T08:53:56Z</time>
      </trkpt>
      <trkpt lat="45.3562" lon="5.89709">
        <ele>1663</ele>
        <time>2013-01-26T08:54:01Z</time>
      </trkpt>
      <trkpt lat="45.35619" lon="5.89706">
        <ele>1663</ele>
        <time>2013-01-26T08:54:06Z</time>
      </trkpt>
      <trkpt lat="45.35619" lon="5.89702">
        <ele>1664</ele>
        <time>2013-01-26T08:54:11Z</time>
      </trkpt>
      <trkpt lat="45.35618" lon="5.89699">
        <ele>1665</ele>
        <time>2013-01-26T08:54:16Z</time>
      </trkpt>
      <trkpt lat="45.35616" lon="5.89696">
        <ele>1665</ele>
        <time>2013-01-26T08:54:21Z</time>
      </trkpt>
      <trkpt lat="45.35614" lon="5.89693">
        <ele>1666</ele>
        <time>2013-01-26T08:54:26Z</time>
      </trkpt>
      <trkpt lat="45.35614" lon="5.89689">
        <ele>1666</ele>
        <time>2013-01-26T08:54:31Z</time>
      </trkpt>
      <trkpt lat="45.35613" lon="5.89685">
        <ele>1666</ele>
        <time>2013-01-26T08:54:36Z</time>
      </trkpt>
      <trkpt lat="45.35613" lon="5.89682">
        <ele>1667</ele>
        <time>2013-01-26T08:54:41Z</time>
      </trkpt>
      <trkpt lat="45.35613" lon="5.8968">
        <ele>1668</ele>
        <time>2013-01-26T08:54:46Z</time>
      </trkpt>
      <trkpt lat="45.35613" lon="5.89678">
        <ele>1668</ele>
        <time>2013-01-26T08:54:51Z</time>
      </trkpt>
      <trkpt lat="45.35614" lon="5.89678">
        <ele>1669</ele>
        <time>2013-01-26T08:54:56Z</time>
      </trkpt>
      <trkpt lat="45.35614" lon="5.89676">
        <ele>1670</ele>
        <time>2013-01-26T08:55:01Z</time>
      </trkpt>
      <trkpt lat="45.35616" lon="5.89673">
        <ele>1671</ele>
        <time>2013-01-26T08:55:06Z</time>
      </trkpt>
      <trkpt lat="45.35616" lon="5.8967">
        <ele>1672</ele>
        <time>2013-01-26T08:55:11Z</time>
      </trkpt>
      <trkpt lat="45.35615" lon="5.89667">
        <ele>1673</ele>
        <time>2013-01-26T08:55:16Z</time>
      </trkpt>
      <trkpt lat="45.35614" lon="5.89664">
        <ele>1674</ele>
        <time>2013-01-26T08:55:21Z</time>
      </trkpt>
      <trkpt lat="45.35614" lon="5.89661">
        <ele>1674</ele>
        <time>2013-01-26T08:55:26Z</time>
      </trkpt>
      <trkpt lat="45.35612" lon="5.89658">
        <ele>1675</ele>
        <time>2013-01-26T08:55:31Z</time>
      </trkpt>
      <trkpt lat="45.35611" lon="5.89656">
        <ele>1675</ele>
        <time>2013-01-26T08:55:36Z</time>
      </trkpt>
      <trkpt lat="45.35611" lon="5.89653">
        <ele>1675</ele>
        <time>2013-01-26T08:55:41Z</time>
      </trkpt>
      <trkpt lat="45.3561" lon="5.8965">
        <ele>1675</ele>
        <time>2013-01-26T08:55:46Z</time>
      </trkpt>
      <trkpt lat="45.3561" lon="5.89647">
        <ele>1676</ele>
        <time>2013-01-26T08:55:51Z</time>
      </trkpt>
      <trkpt lat="45.35608" lon="5.89645">
        <ele>1676</ele>
        <time>2013-01-26T08:55:56Z</time>
      </trkpt>
      <trkpt lat="45.3561" lon="5.89645">
        <ele>1676</ele>
        <time>2013-01-26T08:56:01Z</time>
      </trkpt>
      <trkpt lat="45.35612" lon="5.89645">
        <ele>1676</ele>
        <time>2013-01-26T08:56:06Z</time>
      </trkpt>
      <trkpt lat="45.35614" lon="5.89645">
        <ele>1677</ele>
        <time>2013-01-26T08:56:11Z</time>
      </trkpt>
      <trkpt lat="45.35616" lon="5.89644">
        <ele>1678</ele>
        <time>2013-01-26T08:56:16Z</time>
      </trkpt>
      <trkpt lat="45.35618" lon="5.89645">
        <ele>1679</ele>
        <time>2013-01-26T08:56:21Z</time>
      </trkpt>
      <trkpt lat="45.3562" lon="5.89646">
        <ele>1680</ele>
        <time>2013-01-26T08:56:26Z</time>
      </trkpt>
      <trkpt lat="45.35622" lon="5.89647">
        <ele>1680</ele>
        <time>2013-01-26T08:56:31Z</time>
      </trkpt>
      <trkpt lat="45.35624" lon="5.89649">
        <ele>1682</ele>
        <time>2013-01-26T08:56:36Z</time>
      </trkpt>
      <trkpt lat="45.35625" lon="5.89652">
        <ele>1684</ele>
        <time>2013-01-26T08:56:41Z</time>
      </trkpt>
      <trkpt lat="45.35627" lon="5.89655">
        <ele>1686</ele>
        <time>2013-01-26T08:56:46Z</time>
      </trkpt>
      <trkpt lat="45.35627" lon="5.89658">
        <ele>1687</ele>
        <time>2013-01-26T08:56:51Z</time>
      </trkpt>
      <trkpt lat="45.35629" lon="5.89659">
        <ele>1687</ele>
        <time>2013-01-26T08:56:56Z</time>
      </trkpt>
      <trkpt lat="45.35632" lon="5.89661">
        <ele>1688</ele>
        <time>2013-01-26T08:57:01Z</time>
      </trkpt>
      <trkpt lat="45.35634" lon="5.89661">
        <ele>1688</ele>
        <time>2013-01-26T08:57:06Z</time>
      </trkpt>
      <trkpt lat="45.35637" lon="5.89661">
        <ele>1689</ele>
        <time>2013-01-26T08:57:11Z</time>
      </trkpt>
      <trkpt lat="45.35639" lon="5.8966">
        <ele>1690</ele>
        <time>2013-01-26T08:57:16Z</time>
      </trkpt>
      <trkpt lat="45.35641" lon="5.8966">
        <ele>1691</ele>
        <time>2013-01-26T08:57:21Z</time>
      </trkpt>
      <trkpt lat="45.35643" lon="5.8966">
        <ele>1692</ele>
        <time>2013-01-26T08:57:26Z</time>
      </trkpt>
      <trkpt lat="45.35645" lon="5.89661">
        <ele>1692</ele>
        <time>2013-01-26T08:57:31Z</time>
      </trkpt>
      <trkpt lat="45.35646" lon="5.89662">
        <ele>1692</ele>
        <time>2013-01-26T08:57:36Z</time>
      </trkpt>
      <trkpt lat="45.35647" lon="5.89662">
        <ele>1692</ele>
        <time>2013-01-26T08:57:41Z</time>
      </trkpt>
      <trkpt lat="45.35648" lon="5.89664">
        <ele>1693</ele>
        <time>2013-01-26T08:57:46Z</time>
      </trkpt>
      <trkpt lat="45.3565" lon="5.89665">
        <ele>1694</ele>
        <time>2013-01-26T08:57:51Z</time>
      </trkpt>
      <trkpt lat="45.3565" lon="5.89665">
        <ele>1694</ele>
        <time>2013-01-26T08:57:56Z</time>
      </trkpt>
      <trkpt lat="45.3565" lon="5.89664">
        <ele>1694</ele>
        <time>2013-01-26T08:58:01Z</time>
      </trkpt>
      <trkpt lat="45.35649" lon="5.89659">
        <ele>1694</ele>
        <time>2013-01-26T08:58:06Z</time>
      </trkpt>
      <trkpt lat="45.35648" lon="5.89655">
        <ele>1694</ele>
        <time>2013-01-26T08:58:11Z</time>
      </trkpt>
      <trkpt lat="45.35647" lon="5.89652">
        <ele>1695</ele>
        <time>2013-01-26T08:58:16Z</time>
      </trkpt>
      <trkpt lat="45.35646" lon="5.89649">
        <ele>1695</ele>
        <time>2013-01-26T08:58:21Z</time>
      </trkpt>
      <trkpt lat="45.35645" lon="5.89646">
        <ele>1696</ele>
        <time>2013-01-26T08:58:26Z</time>
      </trkpt>
      <trkpt lat="45.35644" lon="5.89642">
        <ele>1696</ele>
        <time>2013-01-26T08:58:31Z</time>
      </trkpt>
      <trkpt lat="45.35643" lon="5.89639">
        <ele>1697</ele>
        <time>2013-01-26T08:58:36Z</time>
      </trkpt>
      <trkpt lat="45.35642" lon="5.89636">
        <ele>1697</ele>
        <time>2013-01-26T08:58:41Z</time>
      </trkpt>
      <trkpt lat="45.35641" lon="5.89633">
        <ele>1698</ele>
        <time>2013-01-26T08:58:46Z</time>
      </trkpt>
      <trkpt lat="45.35641" lon="5.89631">
        <ele>1698</ele>
        <time>2013-01-26T08:58:51Z</time>
      </trkpt>
      <trkpt lat="45.35642" lon="5.89631">
        <ele>1699</ele>
        <time>2013-01-26T08:58:56Z</time>
      </trkpt>
      <trkpt lat="45.35645" lon="5.89632">
        <ele>1700</ele>
        <time>2013-01-26T08:59:01Z</time>
      </trkpt>
      <trkpt lat="45.35647" lon="5.89633">
        <ele>1701</ele>
        <time>2013-01-26T08:59:06Z</time>
      </trkpt>
      <trkpt lat="45.35649" lon="5.89633">
        <ele>1701</ele>
        <time>2013-01-26T08:59:11Z</time>
      </trkpt>
      <trkpt lat="45.35651" lon="5.89633">
        <ele>1702</ele>
        <time>2013-01-26T08:59:16Z</time>
      </trkpt>
      <trkpt lat="45.35651" lon="5.8963">
        <ele>1703</ele>
        <time>2013-01-26T08:59:21Z</time>
      </trkpt>
      <trkpt lat="45.3565" lon="5.89627">
        <ele>1703</ele>
        <time>2013-01-26T08:59:26Z</time>
      </trkpt>
      <trkpt lat="45.3565" lon="5.89624">
        <ele>1703</ele>
        <time>2013-01-26T08:59:31Z</time>
      </trkpt>
      <trkpt lat="45.35648" lon="5.89622">
        <ele>1704</ele>
        <time>2013-01-26T08:59:36Z</time>
      </trkpt>
      <trkpt lat="45.35648" lon="5.8962">
        <ele>1705</ele>
        <time>2013-01-26T08:59:41Z</time>
      </trkpt>
      <trkpt lat="45.35648" lon="5.8962">
        <ele>1705</ele>
        <time>2013-01-26T08:59:46Z</time>
      </trkpt>
      <trkpt lat="45.35648" lon="5.89619">
        <ele>1705</ele>
        <time>2013-01-26T08:59:51Z</time>
      </trkpt>
      <trkpt lat="45.35648" lon="5.89619">
        <ele>1705</ele>
        <time>2013-01-26T08:59:56Z</time>
      </trkpt>
      <trkpt lat="45.35648" lon="5.89617">
        <ele>1705</ele>
        <time>2013-01-26T09:00:01Z</time>
      </trkpt>
      <trkpt lat="45.35647" lon="5.89614">
        <ele>1706</ele>
        <time>2013-01-26T09:00:06Z</time>
      </trkpt>
      <trkpt lat="45.35645" lon="5.89612">
        <ele>1709</ele>
        <time>2013-01-26T09:00:11Z</time>
      </trkpt>
      <trkpt lat="45.35643" lon="5.89608">
        <ele>1709</ele>
        <time>2013-01-26T09:00:16Z</time>
      </trkpt>
      <trkpt lat="45.35642" lon="5.89604">
        <ele>1710</ele>
        <time>2013-01-26T09:00:21Z</time>
      </trkpt>
      <trkpt lat="45.35641" lon="5.89601">
        <ele>1711</ele>
        <time>2013-01-26T09:00:26Z</time>
      </trkpt>
      <trkpt lat="45.3564" lon="5.89599">
        <ele>1712</ele>
        <time>2013-01-26T09:00:31Z</time>
      </trkpt>
      <trkpt lat="45.35638" lon="5.89597">
        <ele>1713</ele>
        <time>2013-01-26T09:00:36Z</time>
      </trkpt>
      <trkpt lat="45.35636" lon="5.89595">
        <ele>1714</ele>
        <time>2013-01-26T09:00:41Z</time>
      </trkpt>
      <trkpt lat="45.35635" lon="5.89595">
        <ele>1714</ele>
        <time>2013-01-26T09:00:46Z</time>
      </trkpt>
      <trkpt lat="45.35633" lon="5.89592">
        <ele>1715</ele>
        <time>2013-01-26T09:00:51Z</time>
      </trkpt>
      <trkpt lat="45.35631" lon="5.89589">
        <ele>1716</ele>
        <time>2013-01-26T09:00:56Z</time>
      </trkpt>
      <trkpt lat="45.3563" lon="5.89586">
        <ele>1717</ele>
        <time>2013-01-26T09:01:01Z</time>
      </trkpt>
      <trkpt lat="45.35629" lon="5.89583">
        <ele>1718</ele>
        <time>2013-01-26T09:01:06Z</time>
      </trkpt>
      <trkpt lat="45.35627" lon="5.8958">
        <ele>1719</ele>
        <time>2013-01-26T09:01:11Z</time>
      </trkpt>
      <trkpt lat="45.35628" lon="5.89579">
        <ele>1719</ele>
        <time>2013-01-26T09:01:16Z</time>
      </trkpt>
      <trkpt lat="45.3563" lon="5.89578">
        <ele>1720</ele>
        <time>2013-01-26T09:01:21Z</time>
      </trkpt>
      <trkpt lat="45.35632" lon="5.89578">
        <ele>1721</ele>
        <time>2013-01-26T09:01:26Z</time>
      </trkpt>
      <trkpt lat="45.35635" lon="5.89578">
        <ele>1722</ele>
        <time>2013-01-26T09:01:31Z</time>
      </trkpt>
      <trkpt lat="45.35637" lon="5.89578">
        <ele>1723</ele>
        <time>2013-01-26T09:01:36Z</time>
      </trkpt>
      <trkpt lat="45.35639" lon="5.89578">
        <ele>1724</ele>
        <time>2013-01-26T09:01:41Z</time>
      </trkpt>
      <trkpt lat="45.35642" lon="5.89578">
        <ele>1724</ele>
        <time>2013-01-26T09:01:46Z</time>
      </trkpt>
      <trkpt lat="45.35643" lon="5.89579">
        <ele>1725</ele>
        <time>2013-01-26T09:01:51Z</time>
      </trkpt>
      <trkpt lat="45.35644" lon="5.89579">
        <ele>1726</ele>
        <time>2013-01-26T09:01:56Z</time>
      </trkpt>
      <trkpt lat="45.35646" lon="5.8958">
        <ele>1726</ele>
        <time>2013-01-26T09:02:01Z</time>
      </trkpt>
      <trkpt lat="45.35648" lon="5.89581">
        <ele>1727</ele>
        <time>2013-01-26T09:02:06Z</time>
      </trkpt>
      <trkpt lat="45.35651" lon="5.89582">
        <ele>1728</ele>
        <time>2013-01-26T09:02:11Z</time>
      </trkpt>
      <trkpt lat="45.35653" lon="5.89582">
        <ele>1729</ele>
        <time>2013-01-26T09:02:16Z</time>
      </trkpt>
      <trkpt lat="45.35655" lon="5.89583">
        <ele>1730</ele>
        <time>2013-01-26T09:02:21Z</time>
      </trkpt>
      <trkpt lat="45.35657" lon="5.89582">
        <ele>1730</ele>
        <time>2013-01-26T09:02:26Z</time>
      </trkpt>
      <trkpt lat="45.35659" lon="5.89583">
        <ele>1731</ele>
        <time>2013-01-26T09:02:31Z</time>
      </trkpt>
      <trkpt lat="45.35659" lon="5.89582">
        <ele>1732</ele>
        <time>2013-01-26T09:02:36Z</time>
      </trkpt>
      <trkpt lat="45.35657" lon="5.89578">
        <ele>1732</ele>
        <time>2013-01-26T09:02:41Z</time>
      </trkpt>
      <trkpt lat="45.35656" lon="5.89576">
        <ele>1733</ele>
        <time>2013-01-26T09:02:46Z</time>
      </trkpt>
      <trkpt lat="45.35655" lon="5.89573">
        <ele>1734</ele>
        <time>2013-01-26T09:02:51Z</time>
      </trkpt>
      <trkpt lat="45.35653" lon="5.89573">
        <ele>1738</ele>
        <time>2013-01-26T09:02:56Z</time>
      </trkpt>
      <trkpt lat="45.35652" lon="5.89571">
        <ele>1739</ele>
        <time>2013-01-26T09:03:01Z</time>
      </trkpt>
      <trkpt lat="45.35651" lon="5.89568">
        <ele>1740</ele>
        <time>2013-01-26T09:03:06Z</time>
      </trkpt>
      <trkpt lat="45.3565" lon="5.89565">
        <ele>1740</ele>
        <time>2013-01-26T09:03:11Z</time>
      </trkpt>
      <trkpt lat="45.35649" lon="5.89562">
        <ele>1740</ele>
        <time>2013-01-26T09:03:16Z</time>
      </trkpt>
      <trkpt lat="45.35648" lon="5.8956">
        <ele>1741</ele>
        <time>2013-01-26T09:03:21Z</time>
      </trkpt>
      <trkpt lat="45.35647" lon="5.89557">
        <ele>1741</ele>
        <time>2013-01-26T09:03:26Z</time>
      </trkpt>
      <trkpt lat="45.35646" lon="5.89555">
        <ele>1742</ele>
        <time>2013-01-26T09:03:31Z</time>
      </trkpt>
      <trkpt lat="45.35647" lon="5.89554">
        <ele>1742</ele>
        <time>2013-01-26T09:03:36Z</time>
      </trkpt>
      <trkpt lat="45.3565" lon="5.89554">
        <ele>1742</ele>
        <time>2013-01-26T09:03:41Z</time>
      </trkpt>
      <trkpt lat="45.35653" lon="5.89555">
        <ele>1742</ele>
        <time>2013-01-26T09:03:46Z</time>
      </trkpt>
      <trkpt lat="45.35656" lon="5.89557">
        <ele>1743</ele>
        <time>2013-01-26T09:03:51Z</time>
      </trkpt>
      <trkpt lat="45.35659" lon="5.89558">
        <ele>1743</ele>
        <time>2013-01-26T09:03:56Z</time>
      </trkpt>
      <trkpt lat="45.35662" lon="5.89561">
        <ele>1744</ele>
        <time>2013-01-26T09:04:01Z</time>
      </trkpt>
      <trkpt lat="45.35664" lon="5.89562">
        <ele>1744</ele>
        <time>2013-01-26T09:04:06Z</time>
      </trkpt>
      <trkpt lat="45.35666" lon="5.89564">
        <ele>1745</ele>
        <time>2013-01-26T09:04:11Z</time>
      </trkpt>
      <trkpt lat="45.35668" lon="5.89564">
        <ele>1746</ele>
        <time>2013-01-26T09:04:16Z</time>
      </trkpt>
      <trkpt lat="45.35669" lon="5.89564">
        <ele>1746</ele>
        <time>2013-01-26T09:04:21Z</time>
      </trkpt>
      <trkpt lat="45.35669" lon="5.89565">
        <ele>1746</ele>
        <time>2013-01-26T09:04:26Z</time>
      </trkpt>
      <trkpt lat="45.35669" lon="5.89565">
        <ele>1746</ele>
        <time>2013-01-26T09:04:31Z</time>
      </trkpt>
      <trkpt lat="45.35669" lon="5.89565">
        <ele>1746</ele>
        <time>2013-01-26T09:04:36Z</time>
      </trkpt>
      <trkpt lat="45.35672" lon="5.89565">
        <ele>1749</ele>
        <time>2013-01-26T09:08:11Z</time>
      </trkpt>
      <trkpt lat="45.35674" lon="5.89567">
        <ele>1750</ele>
        <time>2013-01-26T09:08:16Z</time>
      </trkpt>
      <trkpt lat="45.35676" lon="5.8957">
        <ele>1752</ele>
        <time>2013-01-26T09:08:21Z</time>
      </trkpt>
      <trkpt lat="45.35677" lon="5.89573">
        <ele>1753</ele>
        <time>2013-01-26T09:08:26Z</time>
      </trkpt>
      <trkpt lat="45.35679" lon="5.89575">
        <ele>1754</ele>
        <time>2013-01-26T09:08:31Z</time>
      </trkpt>
      <trkpt lat="45.35681" lon="5.89576">
        <ele>1755</ele>
        <time>2013-01-26T09:08:36Z</time>
      </trkpt>
      <trkpt lat="45.35683" lon="5.89577">
        <ele>1756</ele>
        <time>2013-01-26T09:08:41Z</time>
      </trkpt>
      <trkpt lat="45.35683" lon="5.89576">
        <ele>1756</ele>
        <time>2013-01-26T09:08:46Z</time>
      </trkpt>
      <trkpt lat="45.35683" lon="5.89575">
        <ele>1759</ele>
        <time>2013-01-26T09:08:51Z</time>
      </trkpt>
      <trkpt lat="45.35682" lon="5.89572">
        <ele>1762</ele>
        <time>2013-01-26T09:08:56Z</time>
      </trkpt>
      <trkpt lat="45.35681" lon="5.89569">
        <ele>1763</ele>
        <time>2013-01-26T09:09:01Z</time>
      </trkpt>
      <trkpt lat="45.35681" lon="5.89566">
        <ele>1763</ele>
        <time>2013-01-26T09:09:06Z</time>
      </trkpt>
      <trkpt lat="45.35681" lon="5.89562">
        <ele>1762</ele>
        <time>2013-01-26T09:09:11Z</time>
      </trkpt>
      <trkpt lat="45.35682" lon="5.89564">
        <ele>1762</ele>
        <time>2013-01-26T09:09:16Z</time>
      </trkpt>
      <trkpt lat="45.35685" lon="5.89567">
        <ele>1762</ele>
        <time>2013-01-26T09:09:21Z</time>
      </trkpt>
      <trkpt lat="45.35687" lon="5.8957">
        <ele>1761</ele>
        <time>2013-01-26T09:09:26Z</time>
      </trkpt>
      <trkpt lat="45.3569" lon="5.89574">
        <ele>1762</ele>
        <time>2013-01-26T09:09:31Z</time>
      </trkpt>
      <trkpt lat="45.35692" lon="5.89577">
        <ele>1762</ele>
        <time>2013-01-26T09:09:36Z</time>
      </trkpt>
      <trkpt lat="45.35692" lon="5.89578">
        <ele>1763</ele>
        <time>2013-01-26T09:09:41Z</time>
      </trkpt>
      <trkpt lat="45.35692" lon="5.89575">
        <ele>1762</ele>
        <time>2013-01-26T09:09:46Z</time>
      </trkpt>
      <trkpt lat="45.35692" lon="5.89573">
        <ele>1763</ele>
        <time>2013-01-26T09:09:51Z</time>
      </trkpt>
      <trkpt lat="45.35692" lon="5.8957">
        <ele>1763</ele>
        <time>2013-01-26T09:09:56Z</time>
      </trkpt>
      <trkpt lat="45.3569" lon="5.89566">
        <ele>1763</ele>
        <time>2013-01-26T09:10:01Z</time>
      </trkpt>
      <trkpt lat="45.3569" lon="5.89561">
        <ele>1762</ele>
        <time>2013-01-26T09:10:06Z</time>
      </trkpt>
      <trkpt lat="45.35689" lon="5.89557">
        <ele>1761</ele>
        <time>2013-01-26T09:10:11Z</time>
      </trkpt>
      <trkpt lat="45.35688" lon="5.89553">
        <ele>1761</ele>
        <time>2013-01-26T09:10:16Z</time>
      </trkpt>
      <trkpt lat="45.35686" lon="5.8955">
        <ele>1762</ele>
        <time>2013-01-26T09:10:21Z</time>
      </trkpt>
      <trkpt lat="45.35685" lon="5.89547">
        <ele>1762</ele>
        <time>2013-01-26T09:10:26Z</time>
      </trkpt>
      <trkpt lat="45.35682" lon="5.89544">
        <ele>1763</ele>
        <time>2013-01-26T09:10:31Z</time>
      </trkpt>
      <trkpt lat="45.35682" lon="5.89542">
        <ele>1763</ele>
        <time>2013-01-26T09:10:36Z</time>
      </trkpt>
      <trkpt lat="45.35683" lon="5.89542">
        <ele>1764</ele>
        <time>2013-01-26T09:10:41Z</time>
      </trkpt>
      <trkpt lat="45.35685" lon="5.89542">
        <ele>1765</ele>
        <time>2013-01-26T09:10:46Z</time>
      </trkpt>
      <trkpt lat="45.35687" lon="5.89543">
        <ele>1766</ele>
        <time>2013-01-26T09:10:51Z</time>
      </trkpt>
      <trkpt lat="45.35689" lon="5.89544">
        <ele>1767</ele>
        <time>2013-01-26T09:10:56Z</time>
      </trkpt>
      <trkpt lat="45.35692" lon="5.89546">
        <ele>1768</ele>
        <time>2013-01-26T09:11:01Z</time>
      </trkpt>
      <trkpt lat="45.35693" lon="5.89547">
        <ele>1769</ele>
        <time>2013-01-26T09:11:06Z</time>
      </trkpt>
      <trkpt lat="45.35695" lon="5.8955">
        <ele>1770</ele>
        <time>2013-01-26T09:11:11Z</time>
      </trkpt>
      <trkpt lat="45.35696" lon="5.89553">
        <ele>1771</ele>
        <time>2013-01-26T09:11:16Z</time>
      </trkpt>
      <trkpt lat="45.35698" lon="5.89556">
        <ele>1774</ele>
        <time>2013-01-26T09:11:21Z</time>
      </trkpt>
      <trkpt lat="45.35698" lon="5.89559">
        <ele>1776</ele>
        <time>2013-01-26T09:11:26Z</time>
      </trkpt>
      <trkpt lat="45.357" lon="5.89562">
        <ele>1778</ele>
        <time>2013-01-26T09:11:31Z</time>
      </trkpt>
      <trkpt lat="45.35701" lon="5.89565">
        <ele>1782</ele>
        <time>2013-01-26T09:11:36Z</time>
      </trkpt>
      <trkpt lat="45.35702" lon="5.89569">
        <ele>1783</ele>
        <time>2013-01-26T09:11:41Z</time>
      </trkpt>
      <trkpt lat="45.35703" lon="5.89571">
        <ele>1785</ele>
        <time>2013-01-26T09:11:46Z</time>
      </trkpt>
      <trkpt lat="45.35705" lon="5.89574">
        <ele>1789</ele>
        <time>2013-01-26T09:11:51Z</time>
      </trkpt>
      <trkpt lat="45.35706" lon="5.89577">
        <ele>1791</ele>
        <time>2013-01-26T09:11:56Z</time>
      </trkpt>
      <trkpt lat="45.35708" lon="5.89574">
        <ele>1787</ele>
        <time>2013-01-26T09:12:01Z</time>
      </trkpt>
      <trkpt lat="45.35708" lon="5.89573">
        <ele>1786</ele>
        <time>2013-01-26T09:12:06Z</time>
      </trkpt>
      <trkpt lat="45.35707" lon="5.89574">
        <ele>1786</ele>
        <time>2013-01-26T09:12:11Z</time>
      </trkpt>
      <trkpt lat="45.35708" lon="5.89573">
        <ele>1785</ele>
        <time>2013-01-26T09:12:16Z</time>
      </trkpt>
      <trkpt lat="45.35709" lon="5.8957">
        <ele>1781</ele>
        <time>2013-01-26T09:12:21Z</time>
      </trkpt>
      <trkpt lat="45.35711" lon="5.89568">
        <ele>1779</ele>
        <time>2013-01-26T09:12:26Z</time>
      </trkpt>
      <trkpt lat="45.35712" lon="5.89567">
        <ele>1778</ele>
        <time>2013-01-26T09:12:31Z</time>
      </trkpt>
      <trkpt lat="45.35714" lon="5.89573">
        <ele>1815</ele>
        <time>2013-01-26T09:15:26Z</time>
      </trkpt>
      <trkpt lat="45.35714" lon="5.89576">
        <ele>1817</ele>
        <time>2013-01-26T09:15:31Z</time>
      </trkpt>
      <trkpt lat="45.35715" lon="5.89579">
        <ele>1820</ele>
        <time>2013-01-26T09:15:36Z</time>
      </trkpt>
      <trkpt lat="45.35715" lon="5.89581">
        <ele>1823</ele>
        <time>2013-01-26T09:15:41Z</time>
      </trkpt>
      <trkpt lat="45.35716" lon="5.89584">
        <ele>1826</ele>
        <time>2013-01-26T09:15:46Z</time>
      </trkpt>
      <trkpt lat="45.35717" lon="5.89587">
        <ele>1828</ele>
        <time>2013-01-26T09:15:51Z</time>
      </trkpt>
      <trkpt lat="45.35716" lon="5.89588">
        <ele>1829</ele>
        <time>2013-01-26T09:15:56Z</time>
      </trkpt>
      <trkpt lat="45.35716" lon="5.89589">
        <ele>1829</ele>
        <time>2013-01-26T09:16:01Z</time>
      </trkpt>
      <trkpt lat="45.35716" lon="5.89592">
        <ele>1832</ele>
        <time>2013-01-26T09:16:06Z</time>
      </trkpt>
      <trkpt lat="45.35716" lon="5.89595">
        <ele>1834</ele>
        <time>2013-01-26T09:16:11Z</time>
      </trkpt>
      <trkpt lat="45.35715" lon="5.89599">
        <ele>1836</ele>
        <time>2013-01-26T09:16:16Z</time>
      </trkpt>
      <trkpt lat="45.35715" lon="5.89603">
        <ele>1839</ele>
        <time>2013-01-26T09:16:21Z</time>
      </trkpt>
      <trkpt lat="45.35714" lon="5.89606">
        <ele>1840</ele>
        <time>2013-01-26T09:16:26Z</time>
      </trkpt>
      <trkpt lat="45.35715" lon="5.8961">
        <ele>1841</ele>
        <time>2013-01-26T09:16:31Z</time>
      </trkpt>
      <trkpt lat="45.35715" lon="5.89615">
        <ele>1842</ele>
        <time>2013-01-26T09:16:36Z</time>
      </trkpt>
      <trkpt lat="45.35713" lon="5.89618">
        <ele>1843</ele>
        <time>2013-01-26T09:16:41Z</time>
      </trkpt>
      <trkpt lat="45.35709" lon="5.8962">
        <ele>1846</ele>
        <time>2013-01-26T09:16:46Z</time>
      </trkpt>
      <trkpt lat="45.35708" lon="5.89624">
        <ele>1847</ele>
        <time>2013-01-26T09:16:51Z</time>
      </trkpt>
      <trkpt lat="45.35708" lon="5.89628">
        <ele>1847</ele>
        <time>2013-01-26T09:16:56Z</time>
      </trkpt>
      <trkpt lat="45.35707" lon="5.89632">
        <ele>1848</ele>
        <time>2013-01-26T09:17:01Z</time>
      </trkpt>
      <trkpt lat="45.35707" lon="5.89636">
        <ele>1849</ele>
        <time>2013-01-26T09:17:06Z</time>
      </trkpt>
      <trkpt lat="45.35708" lon="5.89641">
        <ele>1848</ele>
        <time>2013-01-26T09:17:11Z</time>
      </trkpt>
      <trkpt lat="45.35708" lon="5.89646">
        <ele>1848</ele>
        <time>2013-01-26T09:17:16Z</time>
      </trkpt>
      <trkpt lat="45.35711" lon="5.89651">
        <ele>1847</ele>
        <time>2013-01-26T09:17:21Z</time>
      </trkpt>
      <trkpt lat="45.35713" lon="5.89657">
        <ele>1845</ele>
        <time>2013-01-26T09:17:26Z</time>
      </trkpt>
      <trkpt lat="45.35716" lon="5.89662">
        <ele>1844</ele>
        <time>2013-01-26T09:17:31Z</time>
      </trkpt>
      <trkpt lat="45.3572" lon="5.89666">
        <ele>1841</ele>
        <time>2013-01-26T09:17:36Z</time>
      </trkpt>
      <trkpt lat="45.35722" lon="5.89671">
        <ele>1840</ele>
        <time>2013-01-26T09:17:41Z</time>
      </trkpt>
      <trkpt lat="45.35726" lon="5.89677">
        <ele>1836</ele>
        <time>2013-01-26T09:17:46Z</time>
      </trkpt>
      <trkpt lat="45.35731" lon="5.89683">
        <ele>1831</ele>
        <time>2013-01-26T09:17:51Z</time>
      </trkpt>
      <trkpt lat="45.35733" lon="5.89688">
        <ele>1828</ele>
        <time>2013-01-26T09:17:56Z</time>
      </trkpt>
      <trkpt lat="45.35734" lon="5.89693">
        <ele>1825</ele>
        <time>2013-01-26T09:18:01Z</time>
      </trkpt>
      <trkpt lat="45.35735" lon="5.89698">
        <ele>1824</ele>
        <time>2013-01-26T09:18:06Z</time>
      </trkpt>
      <trkpt lat="45.35735" lon="5.89703">
        <ele>1822</ele>
        <time>2013-01-26T09:18:11Z</time>
      </trkpt>
      <trkpt lat="45.35736" lon="5.89708">
        <ele>1821</ele>
        <time>2013-01-26T09:18:16Z</time>
      </trkpt>
      <trkpt lat="45.35737" lon="5.89712">
        <ele>1820</ele>
        <time>2013-01-26T09:18:21Z</time>
      </trkpt>
      <trkpt lat="45.35737" lon="5.89717">
        <ele>1820</ele>
        <time>2013-01-26T09:18:26Z</time>
      </trkpt>
      <trkpt lat="45.35737" lon="5.89723">
        <ele>1819</ele>
        <time>2013-01-26T09:18:31Z</time>
      </trkpt>
      <trkpt lat="45.35735" lon="5.89728">
        <ele>1818</ele>
        <time>2013-01-26T09:18:36Z</time>
      </trkpt>
      <trkpt lat="45.35736" lon="5.89734">
        <ele>1815</ele>
        <time>2013-01-26T09:18:41Z</time>
      </trkpt>
      <trkpt lat="45.35736" lon="5.89739">
        <ele>1815</ele>
        <time>2013-01-26T09:18:46Z</time>
      </trkpt>
      <trkpt lat="45.35735" lon="5.89744">
        <ele>1815</ele>
        <time>2013-01-26T09:18:51Z</time>
      </trkpt>
      <trkpt lat="45.35735" lon="5.89748">
        <ele>1816</ele>
        <time>2013-01-26T09:18:56Z</time>
      </trkpt>
      <trkpt lat="45.35734" lon="5.89754">
        <ele>1816</ele>
        <time>2013-01-26T09:19:01Z</time>
      </trkpt>
      <trkpt lat="45.35735" lon="5.89759">
        <ele>1816</ele>
        <time>2013-01-26T09:19:06Z</time>
      </trkpt>
      <trkpt lat="45.35736" lon="5.89763">
        <ele>1817</ele>
        <time>2013-01-26T09:19:11Z</time>
      </trkpt>
      <trkpt lat="45.35737" lon="5.89768">
        <ele>1817</ele>
        <time>2013-01-26T09:19:16Z</time>
      </trkpt>
      <trkpt lat="45.35738" lon="5.89774">
        <ele>1817</ele>
        <time>2013-01-26T09:19:21Z</time>
      </trkpt>
      <trkpt lat="45.35741" lon="5.89777">
        <ele>1817</ele>
        <time>2013-01-26T09:19:26Z</time>
      </trkpt>
      <trkpt lat="45.35743" lon="5.89779">
        <ele>1817</ele>
        <time>2013-01-26T09:19:31Z</time>
      </trkpt>
      <trkpt lat="45.35745" lon="5.89779">
        <ele>1818</ele>
        <time>2013-01-26T09:19:36Z</time>
      </trkpt>
      <trkpt lat="45.35748" lon="5.89779">
        <ele>1819</ele>
        <time>2013-01-26T09:19:41Z</time>
      </trkpt>
      <trkpt lat="45.3575" lon="5.8978">
        <ele>1820</ele>
        <time>2013-01-26T09:19:46Z</time>
      </trkpt>
      <trkpt lat="45.35753" lon="5.89783">
        <ele>1820</ele>
        <time>2013-01-26T09:19:51Z</time>
      </trkpt>
      <trkpt lat="45.35755" lon="5.89785">
        <ele>1821</ele>
        <time>2013-01-26T09:19:56Z</time>
      </trkpt>
      <trkpt lat="45.35757" lon="5.89788">
        <ele>1821</ele>
        <time>2013-01-26T09:20:01Z</time>
      </trkpt>
      <trkpt lat="45.35759" lon="5.89792">
        <ele>1821</ele>
        <time>2013-01-26T09:20:06Z</time>
      </trkpt>
      <trkpt lat="45.35762" lon="5.89798">
        <ele>1821</ele>
        <time>2013-01-26T09:20:11Z</time>
      </trkpt>
      <trkpt lat="45.35766" lon="5.89802">
        <ele>1821</ele>
        <time>2013-01-26T09:20:16Z</time>
      </trkpt>
      <trkpt lat="45.35769" lon="5.89803">
        <ele>1821</ele>
        <time>2013-01-26T09:20:21Z</time>
      </trkpt>
      <trkpt lat="45.3577" lon="5.89803">
        <ele>1821</ele>
        <time>2013-01-26T09:20:26Z</time>
      </trkpt>
      <trkpt lat="45.3577" lon="5.89803">
        <ele>1821</ele>
        <time>2013-01-26T09:20:31Z</time>
      </trkpt>
      <trkpt lat="45.3577" lon="5.89803">
        <ele>1821</ele>
        <time>2013-01-26T09:20:36Z</time>
      </trkpt>
      <trkpt lat="45.3577" lon="5.89803">
        <ele>1821</ele>
        <time>2013-01-26T09:20:41Z</time>
      </trkpt>
      <trkpt lat="45.3577" lon="5.89803">
        <ele>1821</ele>
        <time>2013-01-26T09:20:46Z</time>
      </trkpt>
      <trkpt lat="45.3577" lon="5.89803">
        <ele>1821</ele>
        <time>2013-01-26T09:20:51Z</time>
      </trkpt>
      <trkpt lat="45.3577" lon="5.89804">
        <ele>1821</ele>
        <time>2013-01-26T09:20:56Z</time>
      </trkpt>
      <trkpt lat="45.3577" lon="5.89804">
        <ele>1821</ele>
        <time>2013-01-26T09:21:01Z</time>
      </trkpt>
      <trkpt lat="45.3577" lon="5.89803">
        <ele>1821</ele>
        <time>2013-01-26T09:21:06Z</time>
      </trkpt>
      <trkpt lat="45.3577" lon="5.89803">
        <ele>1821</ele>
        <time>2013-01-26T09:21:11Z</time>
      </trkpt>
      <trkpt lat="45.35772" lon="5.89801">
        <ele>1821</ele>
        <time>2013-01-26T09:21:16Z</time>
      </trkpt>
      <trkpt lat="45.35775" lon="5.89798">
        <ele>1822</ele>
        <time>2013-01-26T09:21:21Z</time>
      </trkpt>
      <trkpt lat="45.35778" lon="5.89794">
        <ele>1824</ele>
        <time>2013-01-26T09:21:26Z</time>
      </trkpt>
      <trkpt lat="45.3578" lon="5.89791">
        <ele>1824</ele>
        <time>2013-01-26T09:21:31Z</time>
      </trkpt>
      <trkpt lat="45.35782" lon="5.89791">
        <ele>1824</ele>
        <time>2013-01-26T09:21:36Z</time>
      </trkpt>
      <trkpt lat="45.35783" lon="5.89789">
        <ele>1823</ele>
        <time>2013-01-26T09:21:41Z</time>
      </trkpt>
      <trkpt lat="45.35785" lon="5.89787">
        <ele>1823</ele>
        <time>2013-01-26T09:21:46Z</time>
      </trkpt>
      <trkpt lat="45.35786" lon="5.89788">
        <ele>1823</ele>
        <time>2013-01-26T09:21:51Z</time>
      </trkpt>
      <trkpt lat="45.35787" lon="5.89789">
        <ele>1823</ele>
        <time>2013-01-26T09:21:56Z</time>
      </trkpt>
      <trkpt lat="45.35787" lon="5.89789">
        <ele>1822</ele>
        <time>2013-01-26T09:22:01Z</time>
      </trkpt>
      <trkpt lat="45.35788" lon="5.89787">
        <ele>1818</ele>
        <time>2013-01-26T09:22:06Z</time>
      </trkpt>
      <trkpt lat="45.3579" lon="5.89787">
        <ele>1816</ele>
        <time>2013-01-26T09:22:11Z</time>
      </trkpt>
      <trkpt lat="45.35791" lon="5.89786">
        <ele>1816</ele>
        <time>2013-01-26T09:22:16Z</time>
      </trkpt>
      <trkpt lat="45.35793" lon="5.89782">
        <ele>1815</ele>
        <time>2013-01-26T09:22:21Z</time>
      </trkpt>
      <trkpt lat="45.35795" lon="5.89777">
        <ele>1815</ele>
        <time>2013-01-26T09:22:26Z</time>
      </trkpt>
      <trkpt lat="45.35796" lon="5.89774">
        <ele>1815</ele>
        <time>2013-01-26T09:22:31Z</time>
      </trkpt>
      <trkpt lat="45.358" lon="5.89771">
        <ele>1816</ele>
        <time>2013-01-26T09:22:36Z</time>
      </trkpt>
      <trkpt lat="45.35803" lon="5.8977">
        <ele>1818</ele>
        <time>2013-01-26T09:22:41Z</time>
      </trkpt>
      <trkpt lat="45.35804" lon="5.89766">
        <ele>1818</ele>
        <time>2013-01-26T09:22:46Z</time>
      </trkpt>
      <trkpt lat="45.35807" lon="5.89761">
        <ele>1820</ele>
        <time>2013-01-26T09:22:51Z</time>
      </trkpt>
      <trkpt lat="45.3581" lon="5.89756">
        <ele>1821</ele>
        <time>2013-01-26T09:22:56Z</time>
      </trkpt>
      <trkpt lat="45.35813" lon="5.89753">
        <ele>1823</ele>
        <time>2013-01-26T09:23:01Z</time>
      </trkpt>
      <trkpt lat="45.35817" lon="5.89749">
        <ele>1821</ele>
        <time>2013-01-26T09:23:06Z</time>
      </trkpt>
      <trkpt lat="45.35822" lon="5.89749">
        <ele>1820</ele>
        <time>2013-01-26T09:23:11Z</time>
      </trkpt>
      <trkpt lat="45.35825" lon="5.89752">
        <ele>1819</ele>
        <time>2013-01-26T09:23:16Z</time>
      </trkpt>
      <trkpt lat="45.35826" lon="5.89752">
        <ele>1818</ele>
        <time>2013-01-26T09:23:21Z</time>
      </trkpt>
      <trkpt lat="45.35825" lon="5.8975">
        <ele>1818</ele>
        <time>2013-01-26T09:23:26Z</time>
      </trkpt>
      <trkpt lat="45.35823" lon="5.8975">
        <ele>1818</ele>
        <time>2013-01-26T09:23:31Z</time>
      </trkpt>
      <trkpt lat="45.35822" lon="5.89749">
        <ele>1818</ele>
        <time>2013-01-26T09:23:36Z</time>
      </trkpt>
      <trkpt lat="45.35825" lon="5.89746">
        <ele>1819</ele>
        <time>2013-01-26T09:23:41Z</time>
      </trkpt>
      <trkpt lat="45.35823" lon="5.89743">
        <ele>1819</ele>
        <time>2013-01-26T09:23:46Z</time>
      </trkpt>
      <trkpt lat="45.35822" lon="5.89741">
        <ele>1820</ele>
        <time>2013-01-26T09:23:51Z</time>
      </trkpt>
      <trkpt lat="45.35822" lon="5.8974">
        <ele>1820</ele>
        <time>2013-01-26T09:23:56Z</time>
      </trkpt>
      <trkpt lat="45.35823" lon="5.8974">
        <ele>1821</ele>
        <time>2013-01-26T09:24:01Z</time>
      </trkpt>
      <trkpt lat="45.35825" lon="5.89741">
        <ele>1822</ele>
        <time>2013-01-26T09:24:06Z</time>
      </trkpt>
      <trkpt lat="45.35824" lon="5.89739">
        <ele>1822</ele>
        <time>2013-01-26T09:24:11Z</time>
      </trkpt>
      <trkpt lat="45.35823" lon="5.89736">
        <ele>1823</ele>
        <time>2013-01-26T09:24:16Z</time>
      </trkpt>
      <trkpt lat="45.3582" lon="5.89733">
        <ele>1823</ele>
        <time>2013-01-26T09:24:21Z</time>
      </trkpt>
      <trkpt lat="45.35817" lon="5.89732">
        <ele>1825</ele>
        <time>2013-01-26T09:24:26Z</time>
      </trkpt>
      <trkpt lat="45.35816" lon="5.8973">
        <ele>1826</ele>
        <time>2013-01-26T09:24:31Z</time>
      </trkpt>
      <trkpt lat="45.35812" lon="5.89731">
        <ele>1826</ele>
        <time>2013-01-26T09:24:36Z</time>
      </trkpt>
      <trkpt lat="45.35811" lon="5.89735">
        <ele>1827</ele>
        <time>2013-01-26T09:24:41Z</time>
      </trkpt>
      <trkpt lat="45.35809" lon="5.89737">
        <ele>1827</ele>
        <time>2013-01-26T09:24:46Z</time>
      </trkpt>
      <trkpt lat="45.35809" lon="5.89735">
        <ele>1828</ele>
        <time>2013-01-26T09:24:51Z</time>
      </trkpt>
      <trkpt lat="45.35809" lon="5.89731">
        <ele>1828</ele>
        <time>2013-01-26T09:24:56Z</time>
      </trkpt>
      <trkpt lat="45.35808" lon="5.89729">
        <ele>1829</ele>
        <time>2013-01-26T09:25:01Z</time>
      </trkpt>
      <trkpt lat="45.35808" lon="5.89727">
        <ele>1831</ele>
        <time>2013-01-26T09:25:06Z</time>
      </trkpt>
      <trkpt lat="45.35808" lon="5.89725">
        <ele>1832</ele>
        <time>2013-01-26T09:25:11Z</time>
      </trkpt>
      <trkpt lat="45.3581" lon="5.89724">
        <ele>1833</ele>
        <time>2013-01-26T09:25:16Z</time>
      </trkpt>
      <trkpt lat="45.35811" lon="5.89721">
        <ele>1833</ele>
        <time>2013-01-26T09:25:21Z</time>
      </trkpt>
      <trkpt lat="45.35811" lon="5.89718">
        <ele>1834</ele>
        <time>2013-01-26T09:25:26Z</time>
      </trkpt>
      <trkpt lat="45.35811" lon="5.89716">
        <ele>1834</ele>
        <time>2013-01-26T09:25:31Z</time>
      </trkpt>
      <trkpt lat="45.35812" lon="5.89716">
        <ele>1835</ele>
        <time>2013-01-26T09:25:36Z</time>
      </trkpt>
      <trkpt lat="45.35812" lon="5.89717">
        <ele>1835</ele>
        <time>2013-01-26T09:25:41Z</time>
      </trkpt>
      <trkpt lat="45.35812" lon="5.89717">
        <ele>1835</ele>
        <time>2013-01-26T09:25:46Z</time>
      </trkpt>
      <trkpt lat="45.35812" lon="5.89717">
        <ele>1835</ele>
        <time>2013-01-26T09:25:51Z</time>
      </trkpt>
      <trkpt lat="45.35812" lon="5.89717">
        <ele>1835</ele>
        <time>2013-01-26T09:25:56Z</time>
      </trkpt>
      <trkpt lat="45.35813" lon="5.89714">
        <ele>1835</ele>
        <time>2013-01-26T09:26:01Z</time>
      </trkpt>
      <trkpt lat="45.35813" lon="5.89709">
        <ele>1836</ele>
        <time>2013-01-26T09:26:06Z</time>
      </trkpt>
      <trkpt lat="45.35814" lon="5.89703">
        <ele>1837</ele>
        <time>2013-01-26T09:26:11Z</time>
      </trkpt>
      <trkpt lat="45.35814" lon="5.89697">
        <ele>1837</ele>
        <time>2013-01-26T09:26:16Z</time>
      </trkpt>
      <trkpt lat="45.35814" lon="5.89692">
        <ele>1838</ele>
        <time>2013-01-26T09:26:21Z</time>
      </trkpt>
      <trkpt lat="45.35816" lon="5.8969">
        <ele>1838</ele>
        <time>2013-01-26T09:26:26Z</time>
      </trkpt>
      <trkpt lat="45.35816" lon="5.89688">
        <ele>1839</ele>
        <time>2013-01-26T09:26:31Z</time>
      </trkpt>
      <trkpt lat="45.35815" lon="5.89687">
        <ele>1839</ele>
        <time>2013-01-26T09:26:36Z</time>
      </trkpt>
      <trkpt lat="45.35814" lon="5.89687">
        <ele>1838</ele>
        <time>2013-01-26T09:26:41Z</time>
      </trkpt>
      <trkpt lat="45.35816" lon="5.89689">
        <ele>1839</ele>
        <time>2013-01-26T09:26:46Z</time>
      </trkpt>
      <trkpt lat="45.35816" lon="5.89696">
        <ele>1840</ele>
        <time>2013-01-26T09:26:51Z</time>
      </trkpt>
      <trkpt lat="45.35819" lon="5.89701">
        <ele>1840</ele>
        <time>2013-01-26T09:26:56Z</time>
      </trkpt>
      <trkpt lat="45.35822" lon="5.89707">
        <ele>1840</ele>
        <time>2013-01-26T09:27:01Z</time>
      </trkpt>
      <trkpt lat="45.35826" lon="5.8971">
        <ele>1840</ele>
        <time>2013-01-26T09:27:06Z</time>
      </trkpt>
      <trkpt lat="45.35831" lon="5.89713">
        <ele>1840</ele>
        <time>2013-01-26T09:27:11Z</time>
      </trkpt>
      <trkpt lat="45.35833" lon="5.89718">
        <ele>1841</ele>
        <time>2013-01-26T09:27:16Z</time>
      </trkpt>
      <trkpt lat="45.35835" lon="5.89723">
        <ele>1842</ele>
        <time>2013-01-26T09:27:21Z</time>
      </trkpt>
      <trkpt lat="45.35837" lon="5.89728">
        <ele>1842</ele>
        <time>2013-01-26T09:27:26Z</time>
      </trkpt>
      <trkpt lat="45.3584" lon="5.89732">
        <ele>1843</ele>
        <time>2013-01-26T09:27:31Z</time>
      </trkpt>
      <trkpt lat="45.35841" lon="5.89733">
        <ele>1843</ele>
        <time>2013-01-26T09:27:36Z</time>
      </trkpt>
      <trkpt lat="45.35841" lon="5.89733">
        <ele>1843</ele>
        <time>2013-01-26T09:27:41Z</time>
      </trkpt>
      <trkpt lat="45.35841" lon="5.89733">
        <ele>1843</ele>
        <time>2013-01-26T09:27:46Z</time>
      </trkpt>
      <trkpt lat="45.35841" lon="5.89733">
        <ele>1843</ele>
        <time>2013-01-26T09:27:51Z</time>
      </trkpt>
      <trkpt lat="45.3584" lon="5.89733">
        <ele>1842</ele>
        <time>2013-01-26T09:27:56Z</time>
      </trkpt>
      <trkpt lat="45.35841" lon="5.89733">
        <ele>1842</ele>
        <time>2013-01-26T09:28:01Z</time>
      </trkpt>
      <trkpt lat="45.3584" lon="5.89732">
        <ele>1844</ele>
        <time>2013-01-26T09:40:46Z</time>
      </trkpt>
      <trkpt lat="45.3584" lon="5.89731">
        <ele>1844</ele>
        <time>2013-01-26T09:40:51Z</time>
      </trkpt>
      <trkpt lat="45.3584" lon="5.8973">
        <ele>1844</ele>
        <time>2013-01-26T09:40:56Z</time>
      </trkpt>
      <trkpt lat="45.35838" lon="5.89728">
        <ele>1843</ele>
        <time>2013-01-26T09:41:01Z</time>
      </trkpt>
      <trkpt lat="45.35832" lon="5.89715">
        <ele>1841</ele>
        <time>2013-01-26T09:41:06Z</time>
      </trkpt>
      <trkpt lat="45.3582" lon="5.89705">
        <ele>1840</ele>
        <time>2013-01-26T09:41:11Z</time>
      </trkpt>
      <trkpt lat="45.35817" lon="5.89702">
        <ele>1839</ele>
        <time>2013-01-26T09:41:16Z</time>
      </trkpt>
      <trkpt lat="45.35815" lon="5.89699">
        <ele>1839</ele>
        <time>2013-01-26T09:41:21Z</time>
      </trkpt>
      <trkpt lat="45.35814" lon="5.89697">
        <ele>1839</ele>
        <time>2013-01-26T09:41:26Z</time>
      </trkpt>
      <trkpt lat="45.35812" lon="5.89692">
        <ele>1838</ele>
        <time>2013-01-26T09:41:31Z</time>
      </trkpt>
      <trkpt lat="45.35811" lon="5.89689">
        <ele>1838</ele>
        <time>2013-01-26T09:41:36Z</time>
      </trkpt>
      <trkpt lat="45.35809" lon="5.89683">
        <ele>1837</ele>
        <time>2013-01-26T09:41:41Z</time>
      </trkpt>
      <trkpt lat="45.35807" lon="5.89677">
        <ele>1837</ele>
        <time>2013-01-26T09:41:46Z</time>
      </trkpt>
      <trkpt lat="45.35806" lon="5.89676">
        <ele>1837</ele>
        <time>2013-01-26T09:41:51Z</time>
      </trkpt>
      <trkpt lat="45.35806" lon="5.89675">
        <ele>1837</ele>
        <time>2013-01-26T09:41:56Z</time>
      </trkpt>
      <trkpt lat="45.35806" lon="5.89673">
        <ele>1836</ele>
        <time>2013-01-26T09:42:01Z</time>
      </trkpt>
      <trkpt lat="45.35806" lon="5.89673">
        <ele>1837</ele>
        <time>2013-01-26T09:42:06Z</time>
      </trkpt>
      <trkpt lat="45.35804" lon="5.89669">
        <ele>1835</ele>
        <time>2013-01-26T09:42:11Z</time>
      </trkpt>
      <trkpt lat="45.35798" lon="5.89649">
        <ele>1832</ele>
        <time>2013-01-26T09:42:16Z</time>
      </trkpt>
      <trkpt lat="45.35803" lon="5.8964">
        <ele>1829</ele>
        <time>2013-01-26T09:42:21Z</time>
      </trkpt>
      <trkpt lat="45.35812" lon="5.8962">
        <ele>1822</ele>
        <time>2013-01-26T09:42:26Z</time>
      </trkpt>
      <trkpt lat="45.35827" lon="5.89601">
        <ele>1813</ele>
        <time>2013-01-26T09:42:31Z</time>
      </trkpt>
      <trkpt lat="45.35835" lon="5.89569">
        <ele>1801</ele>
        <time>2013-01-26T09:42:36Z</time>
      </trkpt>
      <trkpt lat="45.35834" lon="5.8954">
        <ele>1790</ele>
        <time>2013-01-26T09:42:41Z</time>
      </trkpt>
      <trkpt lat="45.35845" lon="5.89506">
        <ele>1778</ele>
        <time>2013-01-26T09:42:46Z</time>
      </trkpt>
      <trkpt lat="45.35856" lon="5.89473">
        <ele>1765</ele>
        <time>2013-01-26T09:42:51Z</time>
      </trkpt>
      <trkpt lat="45.35866" lon="5.8944">
        <ele>1753</ele>
        <time>2013-01-26T09:42:56Z</time>
      </trkpt>
      <trkpt lat="45.35879" lon="5.89405">
        <ele>1743</ele>
        <time>2013-01-26T09:43:01Z</time>
      </trkpt>
      <trkpt lat="45.35894" lon="5.89369">
        <ele>1735</ele>
        <time>2013-01-26T09:43:06Z</time>
      </trkpt>
      <trkpt lat="45.35897" lon="5.8933">
        <ele>1727</ele>
        <time>2013-01-26T09:43:11Z</time>
      </trkpt>
      <trkpt lat="45.35909" lon="5.8929">
        <ele>1719</ele>
        <time>2013-01-26T09:43:16Z</time>
      </trkpt>
      <trkpt lat="45.35918" lon="5.89252">
        <ele>1713</ele>
        <time>2013-01-26T09:43:21Z</time>
      </trkpt>
      <trkpt lat="45.35923" lon="5.89222">
        <ele>1710</ele>
        <time>2013-01-26T09:43:26Z</time>
      </trkpt>
      <trkpt lat="45.35926" lon="5.89219">
        <ele>1710</ele>
        <time>2013-01-26T09:43:31Z</time>
      </trkpt>
      <trkpt lat="45.35927" lon="5.89217">
        <ele>1710</ele>
        <time>2013-01-26T09:43:36Z</time>
      </trkpt>
      <trkpt lat="45.35928" lon="5.89211">
        <ele>1709</ele>
        <time>2013-01-26T09:43:41Z</time>
      </trkpt>
      <trkpt lat="45.3593" lon="5.89197">
        <ele>1708</ele>
        <time>2013-01-26T09:43:46Z</time>
      </trkpt>
      <trkpt lat="45.35927" lon="5.89188">
        <ele>1707</ele>
        <time>2013-01-26T09:43:51Z</time>
      </trkpt>
      <trkpt lat="45.35928" lon="5.89189">
        <ele>1707</ele>
        <time>2013-01-26T09:43:56Z</time>
      </trkpt>
      <trkpt lat="45.35927" lon="5.89189">
        <ele>1708</ele>
        <time>2013-01-26T09:44:01Z</time>
      </trkpt>
      <trkpt lat="45.35928" lon="5.89189">
        <ele>1708</ele>
        <time>2013-01-26T09:44:06Z</time>
      </trkpt>
      <trkpt lat="45.35927" lon="5.89188">
        <ele>1708</ele>
        <time>2013-01-26T09:44:11Z</time>
      </trkpt>
      <trkpt lat="45.35927" lon="5.89188">
        <ele>1709</ele>
        <time>2013-01-26T09:44:16Z</time>
      </trkpt>
      <trkpt lat="45.35927" lon="5.89188">
        <ele>1709</ele>
        <time>2013-01-26T09:44:21Z</time>
      </trkpt>
      <trkpt lat="45.35927" lon="5.89188">
        <ele>1708</ele>
        <time>2013-01-26T09:44:26Z</time>
      </trkpt>
      <trkpt lat="45.35927" lon="5.89189">
        <ele>1709</ele>
        <time>2013-01-26T09:44:31Z</time>
      </trkpt>
      <trkpt lat="45.35927" lon="5.89188">
        <ele>1709</ele>
        <time>2013-01-26T09:44:36Z</time>
      </trkpt>
      <trkpt lat="45.35926" lon="5.89187">
        <ele>1709</ele>
        <time>2013-01-26T09:44:41Z</time>
      </trkpt>
      <trkpt lat="45.35925" lon="5.89187">
        <ele>1709</ele>
        <time>2013-01-26T09:44:46Z</time>
      </trkpt>
      <trkpt lat="45.35922" lon="5.89184">
        <ele>1709</ele>
        <time>2013-01-26T09:44:51Z</time>
      </trkpt>
      <trkpt lat="45.35918" lon="5.89176">
        <ele>1709</ele>
        <time>2013-01-26T09:44:56Z</time>
      </trkpt>
      <trkpt lat="45.35913" lon="5.89166">
        <ele>1709</ele>
        <time>2013-01-26T09:45:01Z</time>
      </trkpt>
      <trkpt lat="45.35908" lon="5.89156">
        <ele>1708</ele>
        <time>2013-01-26T09:45:06Z</time>
      </trkpt>
      <trkpt lat="45.35904" lon="5.89145">
        <ele>1707</ele>
        <time>2013-01-26T09:45:11Z</time>
      </trkpt>
      <trkpt lat="45.35898" lon="5.89133">
        <ele>1706</ele>
        <time>2013-01-26T09:45:16Z</time>
      </trkpt>
      <trkpt lat="45.35894" lon="5.89123">
        <ele>1705</ele>
        <time>2013-01-26T09:45:21Z</time>
      </trkpt>
      <trkpt lat="45.3589" lon="5.8911">
        <ele>1704</ele>
        <time>2013-01-26T09:45:26Z</time>
      </trkpt>
      <trkpt lat="45.35886" lon="5.89097">
        <ele>1703</ele>
        <time>2013-01-26T09:45:31Z</time>
      </trkpt>
      <trkpt lat="45.35884" lon="5.89086">
        <ele>1703</ele>
        <time>2013-01-26T09:45:36Z</time>
      </trkpt>
      <trkpt lat="45.35881" lon="5.89073">
        <ele>1702</ele>
        <time>2013-01-26T09:45:41Z</time>
      </trkpt>
      <trkpt lat="45.35875" lon="5.89052">
        <ele>1699</ele>
        <time>2013-01-26T09:45:46Z</time>
      </trkpt>
      <trkpt lat="45.35866" lon="5.89028">
        <ele>1698</ele>
        <time>2013-01-26T09:45:51Z</time>
      </trkpt>
      <trkpt lat="45.35865" lon="5.89011">
        <ele>1697</ele>
        <time>2013-01-26T09:45:56Z</time>
      </trkpt>
      <trkpt lat="45.35865" lon="5.89004">
        <ele>1697</ele>
        <time>2013-01-26T09:46:01Z</time>
      </trkpt>
      <trkpt lat="45.35864" lon="5.88995">
        <ele>1696</ele>
        <time>2013-01-26T09:46:06Z</time>
      </trkpt>
      <trkpt lat="45.35861" lon="5.88986">
        <ele>1696</ele>
        <time>2013-01-26T09:46:11Z</time>
      </trkpt>
      <trkpt lat="45.35858" lon="5.88977">
        <ele>1696</ele>
        <time>2013-01-26T09:46:16Z</time>
      </trkpt>
      <trkpt lat="45.35855" lon="5.88966">
        <ele>1696</ele>
        <time>2013-01-26T09:46:21Z</time>
      </trkpt>
      <trkpt lat="45.35854" lon="5.88959">
        <ele>1695</ele>
        <time>2013-01-26T09:46:26Z</time>
      </trkpt>
      <trkpt lat="45.35852" lon="5.88952">
        <ele>1695</ele>
        <time>2013-01-26T09:46:31Z</time>
      </trkpt>
      <trkpt lat="45.35851" lon="5.88947">
        <ele>1695</ele>
        <time>2013-01-26T09:46:36Z</time>
      </trkpt>
      <trkpt lat="45.35849" lon="5.88943">
        <ele>1695</ele>
        <time>2013-01-26T09:46:41Z</time>
      </trkpt>
      <trkpt lat="45.35849" lon="5.88943">
        <ele>1695</ele>
        <time>2013-01-26T09:46:46Z</time>
      </trkpt>
      <trkpt lat="45.35849" lon="5.88943">
        <ele>1695</ele>
        <time>2013-01-26T09:46:51Z</time>
      </trkpt>
      <trkpt lat="45.35849" lon="5.88942">
        <ele>1695</ele>
        <time>2013-01-26T09:46:56Z</time>
      </trkpt>
      <trkpt lat="45.35848" lon="5.88939">
        <ele>1700</ele>
        <time>2013-01-26T09:53:06Z</time>
      </trkpt>
      <trkpt lat="45.35848" lon="5.88939">
        <ele>1700</ele>
        <time>2013-01-26T09:53:11Z</time>
      </trkpt>
      <trkpt lat="45.35846" lon="5.88938">
        <ele>1701</ele>
        <time>2013-01-26T09:53:16Z</time>
      </trkpt>
      <trkpt lat="45.35844" lon="5.88936">
        <ele>1701</ele>
        <time>2013-01-26T09:53:21Z</time>
      </trkpt>
      <trkpt lat="45.35842" lon="5.88933">
        <ele>1700</ele>
        <time>2013-01-26T09:53:26Z</time>
      </trkpt>
      <trkpt lat="45.3584" lon="5.8893">
        <ele>1701</ele>
        <time>2013-01-26T09:53:31Z</time>
      </trkpt>
      <trkpt lat="45.35836" lon="5.88928">
        <ele>1701</ele>
        <time>2013-01-26T09:53:36Z</time>
      </trkpt>
      <trkpt lat="45.35833" lon="5.88926">
        <ele>1701</ele>
        <time>2013-01-26T09:53:41Z</time>
      </trkpt>
      <trkpt lat="45.3583" lon="5.88924">
        <ele>1701</ele>
        <time>2013-01-26T09:53:46Z</time>
      </trkpt>
      <trkpt lat="45.35827" lon="5.88922">
        <ele>1700</ele>
        <time>2013-01-26T09:53:51Z</time>
      </trkpt>
      <trkpt lat="45.35823" lon="5.88919">
        <ele>1700</ele>
        <time>2013-01-26T09:53:56Z</time>
      </trkpt>
      <trkpt lat="45.3582" lon="5.88917">
        <ele>1701</ele>
        <time>2013-01-26T09:54:01Z</time>
      </trkpt>
      <trkpt lat="45.35816" lon="5.88914">
        <ele>1701</ele>
        <time>2013-01-26T09:54:06Z</time>
      </trkpt>
      <trkpt lat="45.35812" lon="5.88911">
        <ele>1701</ele>
        <time>2013-01-26T09:54:11Z</time>
      </trkpt>
      <trkpt lat="45.35809" lon="5.88908">
        <ele>1702</ele>
        <time>2013-01-26T09:54:16Z</time>
      </trkpt>
      <trkpt lat="45.35806" lon="5.88906">
        <ele>1702</ele>
        <time>2013-01-26T09:54:21Z</time>
      </trkpt>
      <trkpt lat="45.35803" lon="5.88903">
        <ele>1702</ele>
        <time>2013-01-26T09:54:26Z</time>
      </trkpt>
      <trkpt lat="45.35798" lon="5.88899">
        <ele>1702</ele>
        <time>2013-01-26T09:54:31Z</time>
      </trkpt>
      <trkpt lat="45.35795" lon="5.88896">
        <ele>1702</ele>
        <time>2013-01-26T09:54:36Z</time>
      </trkpt>
      <trkpt lat="45.3579" lon="5.88892">
        <ele>1702</ele>
        <time>2013-01-26T09:54:41Z</time>
      </trkpt>
      <trkpt lat="45.35786" lon="5.88889">
        <ele>1702</ele>
        <time>2013-01-26T09:54:46Z</time>
      </trkpt>
      <trkpt lat="45.35782" lon="5.88885">
        <ele>1702</ele>
        <time>2013-01-26T09:54:51Z</time>
      </trkpt>
      <trkpt lat="45.35777" lon="5.88881">
        <ele>1703</ele>
        <time>2013-01-26T09:54:56Z</time>
      </trkpt>
      <trkpt lat="45.35773" lon="5.88877">
        <ele>1703</ele>
        <time>2013-01-26T09:55:01Z</time>
      </trkpt>
      <trkpt lat="45.35769" lon="5.88874">
        <ele>1703</ele>
        <time>2013-01-26T09:55:06Z</time>
      </trkpt>
      <trkpt lat="45.35764" lon="5.88871">
        <ele>1704</ele>
        <time>2013-01-26T09:55:11Z</time>
      </trkpt>
      <trkpt lat="45.35761" lon="5.88868">
        <ele>1704</ele>
        <time>2013-01-26T09:55:16Z</time>
      </trkpt>
      <trkpt lat="45.35756" lon="5.88865">
        <ele>1704</ele>
        <time>2013-01-26T09:55:21Z</time>
      </trkpt>
      <trkpt lat="45.35753" lon="5.88863">
        <ele>1704</ele>
        <time>2013-01-26T09:55:26Z</time>
      </trkpt>
      <trkpt lat="45.35748" lon="5.8886">
        <ele>1704</ele>
        <time>2013-01-26T09:55:31Z</time>
      </trkpt>
      <trkpt lat="45.35744" lon="5.88858">
        <ele>1704</ele>
        <time>2013-01-26T09:55:36Z</time>
      </trkpt>
      <trkpt lat="45.3574" lon="5.88855">
        <ele>1704</ele>
        <time>2013-01-26T09:55:41Z</time>
      </trkpt>
      <trkpt lat="45.35735" lon="5.88853">
        <ele>1704</ele>
        <time>2013-01-26T09:55:46Z</time>
      </trkpt>
      <trkpt lat="45.3573" lon="5.8885">
        <ele>1704</ele>
        <time>2013-01-26T09:55:51Z</time>
      </trkpt>
      <trkpt lat="45.35725" lon="5.88847">
        <ele>1703</ele>
        <time>2013-01-26T09:55:56Z</time>
      </trkpt>
      <trkpt lat="45.35721" lon="5.88844">
        <ele>1704</ele>
        <time>2013-01-26T09:56:01Z</time>
      </trkpt>
      <trkpt lat="45.35716" lon="5.88841">
        <ele>1705</ele>
        <time>2013-01-26T09:56:06Z</time>
      </trkpt>
      <trkpt lat="45.35712" lon="5.88838">
        <ele>1705</ele>
        <time>2013-01-26T09:56:11Z</time>
      </trkpt>
      <trkpt lat="45.35708" lon="5.88835">
        <ele>1705</ele>
        <time>2013-01-26T09:56:16Z</time>
      </trkpt>
      <trkpt lat="45.35704" lon="5.88832">
        <ele>1705</ele>
        <time>2013-01-26T09:56:21Z</time>
      </trkpt>
      <trkpt lat="45.35699" lon="5.88829">
        <ele>1706</ele>
        <time>2013-01-26T09:56:26Z</time>
      </trkpt>
      <trkpt lat="45.35695" lon="5.88827">
        <ele>1706</ele>
        <time>2013-01-26T09:56:31Z</time>
      </trkpt>
      <trkpt lat="45.35691" lon="5.88824">
        <ele>1706</ele>
        <time>2013-01-26T09:56:36Z</time>
      </trkpt>
      <trkpt lat="45.35687" lon="5.88823">
        <ele>1706</ele>
        <time>2013-01-26T09:56:41Z</time>
      </trkpt>
      <trkpt lat="45.35683" lon="5.88821">
        <ele>1706</ele>
        <time>2013-01-26T09:56:46Z</time>
      </trkpt>
      <trkpt lat="45.35677" lon="5.88819">
        <ele>1706</ele>
        <time>2013-01-26T09:56:51Z</time>
      </trkpt>
      <trkpt lat="45.35672" lon="5.88817">
        <ele>1706</ele>
        <time>2013-01-26T09:56:56Z</time>
      </trkpt>
      <trkpt lat="45.35668" lon="5.88815">
        <ele>1706</ele>
        <time>2013-01-26T09:57:01Z</time>
      </trkpt>
      <trkpt lat="45.35663" lon="5.88813">
        <ele>1706</ele>
        <time>2013-01-26T09:57:06Z</time>
      </trkpt>
      <trkpt lat="45.35658" lon="5.88811">
        <ele>1706</ele>
        <time>2013-01-26T09:57:11Z</time>
      </trkpt>
      <trkpt lat="45.35653" lon="5.88809">
        <ele>1706</ele>
        <time>2013-01-26T09:57:16Z</time>
      </trkpt>
      <trkpt lat="45.35647" lon="5.88807">
        <ele>1707</ele>
        <time>2013-01-26T09:57:21Z</time>
      </trkpt>
      <trkpt lat="45.35642" lon="5.88805">
        <ele>1707</ele>
        <time>2013-01-26T09:57:26Z</time>
      </trkpt>
      <trkpt lat="45.35637" lon="5.88803">
        <ele>1707</ele>
        <time>2013-01-26T09:57:31Z</time>
      </trkpt>
      <trkpt lat="45.35633" lon="5.88801">
        <ele>1707</ele>
        <time>2013-01-26T09:57:36Z</time>
      </trkpt>
      <trkpt lat="45.35631" lon="5.888">
        <ele>1707</ele>
        <time>2013-01-26T09:57:41Z</time>
      </trkpt>
      <trkpt lat="45.35631" lon="5.888">
        <ele>1707</ele>
        <time>2013-01-26T09:57:46Z</time>
      </trkpt>
      <trkpt lat="45.35629" lon="5.88799">
        <ele>1707</ele>
        <time>2013-01-26T09:57:51Z</time>
      </trkpt>
      <trkpt lat="45.35625" lon="5.88797">
        <ele>1707</ele>
        <time>2013-01-26T09:57:56Z</time>
      </trkpt>
      <trkpt lat="45.3562" lon="5.88794">
        <ele>1707</ele>
        <time>2013-01-26T09:58:01Z</time>
      </trkpt>
      <trkpt lat="45.35616" lon="5.88791">
        <ele>1707</ele>
        <time>2013-01-26T09:58:06Z</time>
      </trkpt>
      <trkpt lat="45.35611" lon="5.88788">
        <ele>1707</ele>
        <time>2013-01-26T09:58:11Z</time>
      </trkpt>
      <trkpt lat="45.35607" lon="5.88785">
        <ele>1707</ele>
        <time>2013-01-26T09:58:16Z</time>
      </trkpt>
      <trkpt lat="45.35602" lon="5.88781">
        <ele>1707</ele>
        <time>2013-01-26T09:58:21Z</time>
      </trkpt>
      <trkpt lat="45.35597" lon="5.88777">
        <ele>1707</ele>
        <time>2013-01-26T09:58:26Z</time>
      </trkpt>
      <trkpt lat="45.35593" lon="5.88774">
        <ele>1708</ele>
        <time>2013-01-26T09:58:31Z</time>
      </trkpt>
      <trkpt lat="45.35592" lon="5.88773">
        <ele>1708</ele>
        <time>2013-01-26T09:58:36Z</time>
      </trkpt>
      <trkpt lat="45.35588" lon="5.88771">
        <ele>1708</ele>
        <time>2013-01-26T09:58:41Z</time>
      </trkpt>
      <trkpt lat="45.35584" lon="5.88767">
        <ele>1709</ele>
        <time>2013-01-26T09:58:46Z</time>
      </trkpt>
      <trkpt lat="45.3558" lon="5.88764">
        <ele>1709</ele>
        <time>2013-01-26T09:58:51Z</time>
      </trkpt>
      <trkpt lat="45.35577" lon="5.88762">
        <ele>1709</ele>
        <time>2013-01-26T09:58:56Z</time>
      </trkpt>
      <trkpt lat="45.35573" lon="5.88757">
        <ele>1709</ele>
        <time>2013-01-26T09:59:01Z</time>
      </trkpt>
      <trkpt lat="45.3557" lon="5.88751">
        <ele>1709</ele>
        <time>2013-01-26T09:59:06Z</time>
      </trkpt>
      <trkpt lat="45.35568" lon="5.88746">
        <ele>1709</ele>
        <time>2013-01-26T09:59:11Z</time>
      </trkpt>
      <trkpt lat="45.35565" lon="5.88741">
        <ele>1709</ele>
        <time>2013-01-26T09:59:16Z</time>
      </trkpt>
      <trkpt lat="45.35562" lon="5.88736">
        <ele>1708</ele>
        <time>2013-01-26T09:59:21Z</time>
      </trkpt>
      <trkpt lat="45.35558" lon="5.8873">
        <ele>1708</ele>
        <time>2013-01-26T09:59:26Z</time>
      </trkpt>
      <trkpt lat="45.35555" lon="5.88724">
        <ele>1708</ele>
        <time>2013-01-26T09:59:31Z</time>
      </trkpt>
      <trkpt lat="45.35552" lon="5.88717">
        <ele>1708</ele>
        <time>2013-01-26T09:59:36Z</time>
      </trkpt>
      <trkpt lat="45.3555" lon="5.8871">
        <ele>1708</ele>
        <time>2013-01-26T09:59:41Z</time>
      </trkpt>
      <trkpt lat="45.35548" lon="5.88702">
        <ele>1707</ele>
        <time>2013-01-26T09:59:46Z</time>
      </trkpt>
      <trkpt lat="45.35545" lon="5.88694">
        <ele>1707</ele>
        <time>2013-01-26T09:59:51Z</time>
      </trkpt>
      <trkpt lat="45.35542" lon="5.88687">
        <ele>1707</ele>
        <time>2013-01-26T09:59:56Z</time>
      </trkpt>
      <trkpt lat="45.35538" lon="5.88679">
        <ele>1706</ele>
        <time>2013-01-26T10:00:01Z</time>
      </trkpt>
      <trkpt lat="45.35536" lon="5.88673">
        <ele>1707</ele>
        <time>2013-01-26T10:00:06Z</time>
      </trkpt>
      <trkpt lat="45.35534" lon="5.88667">
        <ele>1707</ele>
        <time>2013-01-26T10:00:11Z</time>
      </trkpt>
      <trkpt lat="45.35532" lon="5.8866">
        <ele>1707</ele>
        <time>2013-01-26T10:00:16Z</time>
      </trkpt>
      <trkpt lat="45.35529" lon="5.88652">
        <ele>1707</ele>
        <time>2013-01-26T10:00:21Z</time>
      </trkpt>
      <trkpt lat="45.35529" lon="5.88644">
        <ele>1707</ele>
        <time>2013-01-26T10:00:26Z</time>
      </trkpt>
      <trkpt lat="45.35526" lon="5.88636">
        <ele>1706</ele>
        <time>2013-01-26T10:00:31Z</time>
      </trkpt>
      <trkpt lat="45.35524" lon="5.88629">
        <ele>1706</ele>
        <time>2013-01-26T10:00:36Z</time>
      </trkpt>
      <trkpt lat="45.35522" lon="5.88621">
        <ele>1706</ele>
        <time>2013-01-26T10:00:41Z</time>
      </trkpt>
      <trkpt lat="45.3552" lon="5.88617">
        <ele>1707</ele>
        <time>2013-01-26T10:00:46Z</time>
      </trkpt>
      <trkpt lat="45.3552" lon="5.88616">
        <ele>1706</ele>
        <time>2013-01-26T10:00:51Z</time>
      </trkpt>
      <trkpt lat="45.35518" lon="5.88611">
        <ele>1706</ele>
        <time>2013-01-26T10:00:56Z</time>
      </trkpt>
      <trkpt lat="45.35514" lon="5.88606">
        <ele>1707</ele>
        <time>2013-01-26T10:01:01Z</time>
      </trkpt>
      <trkpt lat="45.35511" lon="5.88602">
        <ele>1707</ele>
        <time>2013-01-26T10:01:06Z</time>
      </trkpt>
      <trkpt lat="45.35507" lon="5.88597">
        <ele>1707</ele>
        <time>2013-01-26T10:01:11Z</time>
      </trkpt>
      <trkpt lat="45.35504" lon="5.88593">
        <ele>1708</ele>
        <time>2013-01-26T10:01:16Z</time>
      </trkpt>
      <trkpt lat="45.35502" lon="5.88592">
        <ele>1708</ele>
        <time>2013-01-26T10:01:21Z</time>
      </trkpt>
      <trkpt lat="45.35501" lon="5.88591">
        <ele>1708</ele>
        <time>2013-01-26T10:01:26Z</time>
      </trkpt>
      <trkpt lat="45.35501" lon="5.88591">
        <ele>1707</ele>
        <time>2013-01-26T10:01:31Z</time>
      </trkpt>
      <trkpt lat="45.35501" lon="5.88592">
        <ele>1707</ele>
        <time>2013-01-26T10:01:36Z</time>
      </trkpt>
      <trkpt lat="45.355" lon="5.88592">
        <ele>1708</ele>
        <time>2013-01-26T10:01:41Z</time>
      </trkpt>
      <trkpt lat="45.355" lon="5.88592">
        <ele>1708</ele>
        <time>2013-01-26T10:01:46Z</time>
      </trkpt>
      <trkpt lat="45.35501" lon="5.88591">
        <ele>1707</ele>
        <time>2013-01-26T10:01:51Z</time>
      </trkpt>
      <trkpt lat="45.35501" lon="5.88591">
        <ele>1707</ele>
        <time>2013-01-26T10:01:56Z</time>
      </trkpt>
      <trkpt lat="45.35502" lon="5.88591">
        <ele>1707</ele>
        <time>2013-01-26T10:02:01Z</time>
      </trkpt>
      <trkpt lat="45.35502" lon="5.88591">
        <ele>1706</ele>
        <time>2013-01-26T10:02:06Z</time>
      </trkpt>
      <trkpt lat="45.35502" lon="5.88591">
        <ele>1706</ele>
        <time>2013-01-26T10:02:11Z</time>
      </trkpt>
      <trkpt lat="45.35501" lon="5.8859">
        <ele>1706</ele>
        <time>2013-01-26T10:02:16Z</time>
      </trkpt>
      <trkpt lat="45.355" lon="5.88589">
        <ele>1707</ele>
        <time>2013-01-26T10:02:21Z</time>
      </trkpt>
      <trkpt lat="45.355" lon="5.88589">
        <ele>1707</ele>
        <time>2013-01-26T10:02:26Z</time>
      </trkpt>
      <trkpt lat="45.355" lon="5.88588">
        <ele>1707</ele>
        <time>2013-01-26T10:02:31Z</time>
      </trkpt>
      <trkpt lat="45.355" lon="5.88588">
        <ele>1707</ele>
        <time>2013-01-26T10:02:36Z</time>
      </trkpt>
      <trkpt lat="45.355" lon="5.88587">
        <ele>1707</ele>
        <time>2013-01-26T10:02:41Z</time>
      </trkpt>
      <trkpt lat="45.35499" lon="5.88584">
        <ele>1707</ele>
        <time>2013-01-26T10:02:46Z</time>
      </trkpt>
      <trkpt lat="45.35495" lon="5.88578">
        <ele>1707</ele>
        <time>2013-01-26T10:02:51Z</time>
      </trkpt>
      <trkpt lat="45.35493" lon="5.88573">
        <ele>1707</ele>
        <time>2013-01-26T10:02:56Z</time>
      </trkpt>
      <trkpt lat="45.35489" lon="5.88564">
        <ele>1706</ele>
        <time>2013-01-26T10:03:01Z</time>
      </trkpt>
      <trkpt lat="45.35485" lon="5.88556">
        <ele>1706</ele>
        <time>2013-01-26T10:03:06Z</time>
      </trkpt>
      <trkpt lat="45.35481" lon="5.88549">
        <ele>1705</ele>
        <time>2013-01-26T10:03:11Z</time>
      </trkpt>
      <trkpt lat="45.35476" lon="5.88543">
        <ele>1705</ele>
        <time>2013-01-26T10:03:16Z</time>
      </trkpt>
      <trkpt lat="45.3547" lon="5.88537">
        <ele>1705</ele>
        <time>2013-01-26T10:03:21Z</time>
      </trkpt>
      <trkpt lat="45.35466" lon="5.88531">
        <ele>1705</ele>
        <time>2013-01-26T10:03:26Z</time>
      </trkpt>
      <trkpt lat="45.35462" lon="5.88524">
        <ele>1705</ele>
        <time>2013-01-26T10:03:31Z</time>
      </trkpt>
      <trkpt lat="45.35458" lon="5.88518">
        <ele>1705</ele>
        <time>2013-01-26T10:03:36Z</time>
      </trkpt>
      <trkpt lat="45.35454" lon="5.8851">
        <ele>1705</ele>
        <time>2013-01-26T10:03:41Z</time>
      </trkpt>
      <trkpt lat="45.3545" lon="5.88503">
        <ele>1704</ele>
        <time>2013-01-26T10:03:46Z</time>
      </trkpt>
      <trkpt lat="45.35446" lon="5.88494">
        <ele>1703</ele>
        <time>2013-01-26T10:03:51Z</time>
      </trkpt>
      <trkpt lat="45.35442" lon="5.88486">
        <ele>1703</ele>
        <time>2013-01-26T10:03:56Z</time>
      </trkpt>
      <trkpt lat="45.35438" lon="5.88478">
        <ele>1703</ele>
        <time>2013-01-26T10:04:01Z</time>
      </trkpt>
      <trkpt lat="45.35435" lon="5.88471">
        <ele>1703</ele>
        <time>2013-01-26T10:04:06Z</time>
      </trkpt>
      <trkpt lat="45.35433" lon="5.88464">
        <ele>1703</ele>
        <time>2013-01-26T10:04:11Z</time>
      </trkpt>
      <trkpt lat="45.3543" lon="5.88458">
        <ele>1703</ele>
        <time>2013-01-26T10:04:16Z</time>
      </trkpt>
      <trkpt lat="45.35428" lon="5.88452">
        <ele>1703</ele>
        <time>2013-01-26T10:04:21Z</time>
      </trkpt>
      <trkpt lat="45.35425" lon="5.88445">
        <ele>1703</ele>
        <time>2013-01-26T10:04:26Z</time>
      </trkpt>
      <trkpt lat="45.35423" lon="5.88438">
        <ele>1703</ele>
        <time>2013-01-26T10:04:31Z</time>
      </trkpt>
      <trkpt lat="45.3542" lon="5.8843">
        <ele>1703</ele>
        <time>2013-01-26T10:04:36Z</time>
      </trkpt>
      <trkpt lat="45.35417" lon="5.88423">
        <ele>1703</ele>
        <time>2013-01-26T10:04:41Z</time>
      </trkpt>
      <trkpt lat="45.35415" lon="5.88417">
        <ele>1703</ele>
        <time>2013-01-26T10:04:46Z</time>
      </trkpt>
      <trkpt lat="45.35413" lon="5.88411">
        <ele>1704</ele>
        <time>2013-01-26T10:04:51Z</time>
      </trkpt>
      <trkpt lat="45.35412" lon="5.88405">
        <ele>1704</ele>
        <time>2013-01-26T10:04:56Z</time>
      </trkpt>
      <trkpt lat="45.3541" lon="5.88401">
        <ele>1705</ele>
        <time>2013-01-26T10:05:01Z</time>
      </trkpt>
      <trkpt lat="45.35408" lon="5.88396">
        <ele>1706</ele>
        <time>2013-01-26T10:05:06Z</time>
      </trkpt>
      <trkpt lat="45.35407" lon="5.88393">
        <ele>1707</ele>
        <time>2013-01-26T10:05:11Z</time>
      </trkpt>
      <trkpt lat="45.35404" lon="5.88389">
        <ele>1707</ele>
        <time>2013-01-26T10:05:16Z</time>
      </trkpt>
      <trkpt lat="45.35402" lon="5.88385">
        <ele>1708</ele>
        <time>2013-01-26T10:05:21Z</time>
      </trkpt>
      <trkpt lat="45.35399" lon="5.8838">
        <ele>1708</ele>
        <time>2013-01-26T10:05:26Z</time>
      </trkpt>
      <trkpt lat="45.35396" lon="5.88375">
        <ele>1708</ele>
        <time>2013-01-26T10:05:31Z</time>
      </trkpt>
      <trkpt lat="45.35393" lon="5.88368">
        <ele>1708</ele>
        <time>2013-01-26T10:05:36Z</time>
      </trkpt>
      <trkpt lat="45.35392" lon="5.88359">
        <ele>1707</ele>
        <time>2013-01-26T10:05:41Z</time>
      </trkpt>
      <trkpt lat="45.35391" lon="5.88351">
        <ele>1707</ele>
        <time>2013-01-26T10:05:46Z</time>
      </trkpt>
      <trkpt lat="45.35388" lon="5.88345">
        <ele>1707</ele>
        <time>2013-01-26T10:05:51Z</time>
      </trkpt>
      <trkpt lat="45.35385" lon="5.88339">
        <ele>1708</ele>
        <time>2013-01-26T10:05:56Z</time>
      </trkpt>
      <trkpt lat="45.35382" lon="5.88335">
        <ele>1708</ele>
        <time>2013-01-26T10:06:01Z</time>
      </trkpt>
      <trkpt lat="45.35378" lon="5.88329">
        <ele>1708</ele>
        <time>2013-01-26T10:06:06Z</time>
      </trkpt>
      <trkpt lat="45.35375" lon="5.88325">
        <ele>1708</ele>
        <time>2013-01-26T10:06:11Z</time>
      </trkpt>
      <trkpt lat="45.3537" lon="5.8832">
        <ele>1708</ele>
        <time>2013-01-26T10:06:16Z</time>
      </trkpt>
      <trkpt lat="45.35367" lon="5.88316">
        <ele>1709</ele>
        <time>2013-01-26T10:06:21Z</time>
      </trkpt>
      <trkpt lat="45.35363" lon="5.8831">
        <ele>1709</ele>
        <time>2013-01-26T10:06:26Z</time>
      </trkpt>
      <trkpt lat="45.3536" lon="5.88305">
        <ele>1709</ele>
        <time>2013-01-26T10:06:31Z</time>
      </trkpt>
      <trkpt lat="45.35355" lon="5.88299">
        <ele>1709</ele>
        <time>2013-01-26T10:06:36Z</time>
      </trkpt>
      <trkpt lat="45.35351" lon="5.88291">
        <ele>1708</ele>
        <time>2013-01-26T10:06:41Z</time>
      </trkpt>
      <trkpt lat="45.35346" lon="5.88283">
        <ele>1707</ele>
        <time>2013-01-26T10:06:46Z</time>
      </trkpt>
      <trkpt lat="45.35343" lon="5.88275">
        <ele>1706</ele>
        <time>2013-01-26T10:06:51Z</time>
      </trkpt>
      <trkpt lat="45.35341" lon="5.88269">
        <ele>1706</ele>
        <time>2013-01-26T10:06:56Z</time>
      </trkpt>
      <trkpt lat="45.35339" lon="5.88263">
        <ele>1706</ele>
        <time>2013-01-26T10:07:01Z</time>
      </trkpt>
      <trkpt lat="45.35337" lon="5.88259">
        <ele>1706</ele>
        <time>2013-01-26T10:07:06Z</time>
      </trkpt>
      <trkpt lat="45.35334" lon="5.88253">
        <ele>1707</ele>
        <time>2013-01-26T10:07:11Z</time>
      </trkpt>
      <trkpt lat="45.35331" lon="5.88248">
        <ele>1707</ele>
        <time>2013-01-26T10:07:16Z</time>
      </trkpt>
      <trkpt lat="45.35328" lon="5.88242">
        <ele>1707</ele>
        <time>2013-01-26T10:07:21Z</time>
      </trkpt>
      <trkpt lat="45.35326" lon="5.88237">
        <ele>1708</ele>
        <time>2013-01-26T10:07:26Z</time>
      </trkpt>
      <trkpt lat="45.35323" lon="5.88232">
        <ele>1708</ele>
        <time>2013-01-26T10:07:31Z</time>
      </trkpt>
      <trkpt lat="45.35319" lon="5.88226">
        <ele>1708</ele>
        <time>2013-01-26T10:07:36Z</time>
      </trkpt>
      <trkpt lat="45.35314" lon="5.88219">
        <ele>1707</ele>
        <time>2013-01-26T10:07:41Z</time>
      </trkpt>
      <trkpt lat="45.35309" lon="5.88212">
        <ele>1707</ele>
        <time>2013-01-26T10:07:46Z</time>
      </trkpt>
      <trkpt lat="45.35305" lon="5.88207">
        <ele>1706</ele>
        <time>2013-01-26T10:07:51Z</time>
      </trkpt>
      <trkpt lat="45.35299" lon="5.88203">
        <ele>1705</ele>
        <time>2013-01-26T10:07:56Z</time>
      </trkpt>
      <trkpt lat="45.35293" lon="5.882">
        <ele>1705</ele>
        <time>2013-01-26T10:08:01Z</time>
      </trkpt>
      <trkpt lat="45.35288" lon="5.88197">
        <ele>1705</ele>
        <time>2013-01-26T10:08:06Z</time>
      </trkpt>
      <trkpt lat="45.35284" lon="5.88193">
        <ele>1706</ele>
        <time>2013-01-26T10:08:11Z</time>
      </trkpt>
      <trkpt lat="45.35281" lon="5.88188">
        <ele>1706</ele>
        <time>2013-01-26T10:08:16Z</time>
      </trkpt>
      <trkpt lat="45.35278" lon="5.88182">
        <ele>1707</ele>
        <time>2013-01-26T10:08:21Z</time>
      </trkpt>
      <trkpt lat="45.35275" lon="5.88176">
        <ele>1707</ele>
        <time>2013-01-26T10:08:26Z</time>
      </trkpt>
      <trkpt lat="45.35272" lon="5.88172">
        <ele>1708</ele>
        <time>2013-01-26T10:08:31Z</time>
      </trkpt>
      <trkpt lat="45.3527" lon="5.88167">
        <ele>1708</ele>
        <time>2013-01-26T10:08:36Z</time>
      </trkpt>
      <trkpt lat="45.35267" lon="5.88163">
        <ele>1709</ele>
        <time>2013-01-26T10:08:41Z</time>
      </trkpt>
      <trkpt lat="45.35265" lon="5.8816">
        <ele>1709</ele>
        <time>2013-01-26T10:08:46Z</time>
      </trkpt>
      <trkpt lat="45.35261" lon="5.88156">
        <ele>1710</ele>
        <time>2013-01-26T10:08:51Z</time>
      </trkpt>
      <trkpt lat="45.35257" lon="5.88152">
        <ele>1710</ele>
        <time>2013-01-26T10:08:56Z</time>
      </trkpt>
      <trkpt lat="45.35254" lon="5.88151">
        <ele>1710</ele>
        <time>2013-01-26T10:09:01Z</time>
      </trkpt>
      <trkpt lat="45.35251" lon="5.88151">
        <ele>1711</ele>
        <time>2013-01-26T10:09:06Z</time>
      </trkpt>
      <trkpt lat="45.35248" lon="5.88151">
        <ele>1711</ele>
        <time>2013-01-26T10:09:11Z</time>
      </trkpt>
      <trkpt lat="45.35245" lon="5.8815">
        <ele>1712</ele>
        <time>2013-01-26T10:09:16Z</time>
      </trkpt>
      <trkpt lat="45.35242" lon="5.8815">
        <ele>1712</ele>
        <time>2013-01-26T10:09:21Z</time>
      </trkpt>
      <trkpt lat="45.35239" lon="5.88149">
        <ele>1712</ele>
        <time>2013-01-26T10:09:26Z</time>
      </trkpt>
      <trkpt lat="45.35235" lon="5.8815">
        <ele>1713</ele>
        <time>2013-01-26T10:09:31Z</time>
      </trkpt>
      <trkpt lat="45.35232" lon="5.8815">
        <ele>1714</ele>
        <time>2013-01-26T10:09:36Z</time>
      </trkpt>
      <trkpt lat="45.35229" lon="5.88151">
        <ele>1715</ele>
        <time>2013-01-26T10:09:41Z</time>
      </trkpt>
      <trkpt lat="45.35228" lon="5.88151">
        <ele>1715</ele>
        <time>2013-01-26T10:09:46Z</time>
      </trkpt>
      <trkpt lat="45.35228" lon="5.88151">
        <ele>1715</ele>
        <time>2013-01-26T10:09:51Z</time>
      </trkpt>
      <trkpt lat="45.35228" lon="5.88151">
        <ele>1715</ele>
        <time>2013-01-26T10:09:56Z</time>
      </trkpt>
      <trkpt lat="45.35228" lon="5.88151">
        <ele>1714</ele>
        <time>2013-01-26T10:10:01Z</time>
      </trkpt>
      <trkpt lat="45.35228" lon="5.88149">
        <ele>1713</ele>
        <time>2013-01-26T10:10:06Z</time>
      </trkpt>
      <trkpt lat="45.35228" lon="5.88149">
        <ele>1712</ele>
        <time>2013-01-26T10:10:11Z</time>
      </trkpt>
      <trkpt lat="45.35228" lon="5.88148">
        <ele>1711</ele>
        <time>2013-01-26T10:10:16Z</time>
      </trkpt>
      <trkpt lat="45.35228" lon="5.88148">
        <ele>1710</ele>
        <time>2013-01-26T10:10:21Z</time>
      </trkpt>
      <trkpt lat="45.35229" lon="5.88148">
        <ele>1710</ele>
        <time>2013-01-26T10:10:26Z</time>
      </trkpt>
      <trkpt lat="45.35229" lon="5.88149">
        <ele>1710</ele>
        <time>2013-01-26T10:10:31Z</time>
      </trkpt>
      <trkpt lat="45.35228" lon="5.88151">
        <ele>1711</ele>
        <time>2013-01-26T10:10:36Z</time>
      </trkpt>
      <trkpt lat="45.35228" lon="5.88155">
        <ele>1711</ele>
        <time>2013-01-26T10:10:41Z</time>
      </trkpt>
      <trkpt lat="45.35229" lon="5.88155">
        <ele>1710</ele>
        <time>2013-01-26T10:10:46Z</time>
      </trkpt>
      <trkpt lat="45.35229" lon="5.88155">
        <ele>1710</ele>
        <time>2013-01-26T10:10:51Z</time>
      </trkpt>
      <trkpt lat="45.35228" lon="5.88153">
        <ele>1710</ele>
        <time>2013-01-26T10:10:56Z</time>
      </trkpt>
      <trkpt lat="45.35228" lon="5.88152">
        <ele>1711</ele>
        <time>2013-01-26T10:11:01Z</time>
      </trkpt>
      <trkpt lat="45.35228" lon="5.88151">
        <ele>1711</ele>
        <time>2013-01-26T10:11:06Z</time>
      </trkpt>
      <trkpt lat="45.35229" lon="5.8815">
        <ele>1710</ele>
        <time>2013-01-26T10:11:11Z</time>
      </trkpt>
      <trkpt lat="45.35229" lon="5.8815">
        <ele>1711</ele>
        <time>2013-01-26T10:11:16Z</time>
      </trkpt>
      <trkpt lat="45.35229" lon="5.88151">
        <ele>1711</ele>
        <time>2013-01-26T10:11:21Z</time>
      </trkpt>
      <trkpt lat="45.35229" lon="5.88151">
        <ele>1711</ele>
        <time>2013-01-26T10:11:26Z</time>
      </trkpt>
      <trkpt lat="45.35229" lon="5.88151">
        <ele>1711</ele>
        <time>2013-01-26T10:11:31Z</time>
      </trkpt>
      <trkpt lat="45.35229" lon="5.88151">
        <ele>1711</ele>
        <time>2013-01-26T10:11:36Z</time>
      </trkpt>
      <trkpt lat="45.35229" lon="5.88151">
        <ele>1712</ele>
        <time>2013-01-26T10:11:41Z</time>
      </trkpt>
      <trkpt lat="45.35229" lon="5.88151">
        <ele>1712</ele>
        <time>2013-01-26T10:11:46Z</time>
      </trkpt>
      <trkpt lat="45.3523" lon="5.8815">
        <ele>1712</ele>
        <time>2013-01-26T10:11:51Z</time>
      </trkpt>
      <trkpt lat="45.35229" lon="5.8815">
        <ele>1712</ele>
        <time>2013-01-26T10:11:56Z</time>
      </trkpt>
      <trkpt lat="45.35229" lon="5.8815">
        <ele>1713</ele>
        <time>2013-01-26T10:12:01Z</time>
      </trkpt>
      <trkpt lat="45.35229" lon="5.8815">
        <ele>1713</ele>
        <time>2013-01-26T10:12:06Z</time>
      </trkpt>
      <trkpt lat="45.35227" lon="5.88151">
        <ele>1713</ele>
        <time>2013-01-26T10:12:11Z</time>
      </trkpt>
      <trkpt lat="45.35222" lon="5.88153">
        <ele>1713</ele>
        <time>2013-01-26T10:12:16Z</time>
      </trkpt>
      <trkpt lat="45.35217" lon="5.88154">
        <ele>1713</ele>
        <time>2013-01-26T10:12:21Z</time>
      </trkpt>
      <trkpt lat="45.35211" lon="5.88157">
        <ele>1713</ele>
        <time>2013-01-26T10:12:26Z</time>
      </trkpt>
      <trkpt lat="45.35207" lon="5.88159">
        <ele>1713</ele>
        <time>2013-01-26T10:12:31Z</time>
      </trkpt>
      <trkpt lat="45.35203" lon="5.88158">
        <ele>1716</ele>
        <time>2013-01-26T10:12:36Z</time>
      </trkpt>
      <trkpt lat="45.35199" lon="5.88159">
        <ele>1718</ele>
        <time>2013-01-26T10:12:41Z</time>
      </trkpt>
      <trkpt lat="45.35196" lon="5.88159">
        <ele>1718</ele>
        <time>2013-01-26T10:12:46Z</time>
      </trkpt>
      <trkpt lat="45.35192" lon="5.88159">
        <ele>1719</ele>
        <time>2013-01-26T10:12:51Z</time>
      </trkpt>
      <trkpt lat="45.35187" lon="5.88159">
        <ele>1719</ele>
        <time>2013-01-26T10:12:56Z</time>
      </trkpt>
      <trkpt lat="45.35184" lon="5.8816">
        <ele>1719</ele>
        <time>2013-01-26T10:13:01Z</time>
      </trkpt>
      <trkpt lat="45.35181" lon="5.88161">
        <ele>1720</ele>
        <time>2013-01-26T10:13:06Z</time>
      </trkpt>
      <trkpt lat="45.35177" lon="5.88162">
        <ele>1720</ele>
        <time>2013-01-26T10:13:11Z</time>
      </trkpt>
      <trkpt lat="45.35174" lon="5.88161">
        <ele>1719</ele>
        <time>2013-01-26T10:13:16Z</time>
      </trkpt>
      <trkpt lat="45.3517" lon="5.88161">
        <ele>1719</ele>
        <time>2013-01-26T10:13:21Z</time>
      </trkpt>
      <trkpt lat="45.35165" lon="5.8816">
        <ele>1719</ele>
        <time>2013-01-26T10:13:26Z</time>
      </trkpt>
      <trkpt lat="45.35161" lon="5.88159">
        <ele>1720</ele>
        <time>2013-01-26T10:13:31Z</time>
      </trkpt>
      <trkpt lat="45.35157" lon="5.88159">
        <ele>1721</ele>
        <time>2013-01-26T10:13:36Z</time>
      </trkpt>
      <trkpt lat="45.35153" lon="5.88157">
        <ele>1720</ele>
        <time>2013-01-26T10:13:41Z</time>
      </trkpt>
      <trkpt lat="45.35148" lon="5.88155">
        <ele>1720</ele>
        <time>2013-01-26T10:13:46Z</time>
      </trkpt>
      <trkpt lat="45.35144" lon="5.88152">
        <ele>1721</ele>
        <time>2013-01-26T10:13:51Z</time>
      </trkpt>
      <trkpt lat="45.3514" lon="5.88148">
        <ele>1722</ele>
        <time>2013-01-26T10:13:56Z</time>
      </trkpt>
      <trkpt lat="45.35137" lon="5.88143">
        <ele>1723</ele>
        <time>2013-01-26T10:14:01Z</time>
      </trkpt>
      <trkpt lat="45.35134" lon="5.88136">
        <ele>1723</ele>
        <time>2013-01-26T10:14:06Z</time>
      </trkpt>
      <trkpt lat="45.3513" lon="5.88134">
        <ele>1723</ele>
        <time>2013-01-26T10:14:11Z</time>
      </trkpt>
      <trkpt lat="45.35124" lon="5.8813">
        <ele>1724</ele>
        <time>2013-01-26T10:14:16Z</time>
      </trkpt>
      <trkpt lat="45.35118" lon="5.88127">
        <ele>1723</ele>
        <time>2013-01-26T10:14:21Z</time>
      </trkpt>
      <trkpt lat="45.35113" lon="5.88124">
        <ele>1723</ele>
        <time>2013-01-26T10:14:26Z</time>
      </trkpt>
      <trkpt lat="45.35109" lon="5.88123">
        <ele>1723</ele>
        <time>2013-01-26T10:14:31Z</time>
      </trkpt>
      <trkpt lat="45.35105" lon="5.88122">
        <ele>1723</ele>
        <time>2013-01-26T10:14:36Z</time>
      </trkpt>
      <trkpt lat="45.351" lon="5.88119">
        <ele>1723</ele>
        <time>2013-01-26T10:14:41Z</time>
      </trkpt>
      <trkpt lat="45.35092" lon="5.88115">
        <ele>1724</ele>
        <time>2013-01-26T10:14:46Z</time>
      </trkpt>
      <trkpt lat="45.35085" lon="5.88109">
        <ele>1724</ele>
        <time>2013-01-26T10:14:51Z</time>
      </trkpt>
      <trkpt lat="45.3508" lon="5.88105">
        <ele>1724</ele>
        <time>2013-01-26T10:14:56Z</time>
      </trkpt>
      <trkpt lat="45.35074" lon="5.88102">
        <ele>1725</ele>
        <time>2013-01-26T10:15:01Z</time>
      </trkpt>
      <trkpt lat="45.35069" lon="5.88105">
        <ele>1726</ele>
        <time>2013-01-26T10:15:06Z</time>
      </trkpt>
      <trkpt lat="45.35064" lon="5.88107">
        <ele>1726</ele>
        <time>2013-01-26T10:15:11Z</time>
      </trkpt>
      <trkpt lat="45.35058" lon="5.8811">
        <ele>1726</ele>
        <time>2013-01-26T10:15:16Z</time>
      </trkpt>
      <trkpt lat="45.35051" lon="5.88113">
        <ele>1725</ele>
        <time>2013-01-26T10:15:21Z</time>
      </trkpt>
      <trkpt lat="45.35044" lon="5.88117">
        <ele>1724</ele>
        <time>2013-01-26T10:15:26Z</time>
      </trkpt>
      <trkpt lat="45.35037" lon="5.8812">
        <ele>1724</ele>
        <time>2013-01-26T10:15:31Z</time>
      </trkpt>
      <trkpt lat="45.3503" lon="5.88122">
        <ele>1725</ele>
        <time>2013-01-26T10:15:36Z</time>
      </trkpt>
      <trkpt lat="45.35026" lon="5.88121">
        <ele>1725</ele>
        <time>2013-01-26T10:15:41Z</time>
      </trkpt>
      <trkpt lat="45.35021" lon="5.88119">
        <ele>1725</ele>
        <time>2013-01-26T10:15:46Z</time>
      </trkpt>
      <trkpt lat="45.35017" lon="5.88119">
        <ele>1725</ele>
        <time>2013-01-26T10:15:51Z</time>
      </trkpt>
      <trkpt lat="45.35011" lon="5.88121">
        <ele>1725</ele>
        <time>2013-01-26T10:15:56Z</time>
      </trkpt>
      <trkpt lat="45.35004" lon="5.8812">
        <ele>1723</ele>
        <time>2013-01-26T10:16:01Z</time>
      </trkpt>
      <trkpt lat="45.34995" lon="5.8812">
        <ele>1722</ele>
        <time>2013-01-26T10:16:06Z</time>
      </trkpt>
      <trkpt lat="45.34988" lon="5.88121">
        <ele>1721</ele>
        <time>2013-01-26T10:16:11Z</time>
      </trkpt>
      <trkpt lat="45.34981" lon="5.88118">
        <ele>1720</ele>
        <time>2013-01-26T10:16:16Z</time>
      </trkpt>
      <trkpt lat="45.34976" lon="5.88113">
        <ele>1718</ele>
        <time>2013-01-26T10:16:21Z</time>
      </trkpt>
      <trkpt lat="45.34972" lon="5.88109">
        <ele>1718</ele>
        <time>2013-01-26T10:16:26Z</time>
      </trkpt>
      <trkpt lat="45.34969" lon="5.88104">
        <ele>1718</ele>
        <time>2013-01-26T10:16:31Z</time>
      </trkpt>
      <trkpt lat="45.34963" lon="5.88101">
        <ele>1718</ele>
        <time>2013-01-26T10:16:36Z</time>
      </trkpt>
      <trkpt lat="45.34958" lon="5.88099">
        <ele>1719</ele>
        <time>2013-01-26T10:16:41Z</time>
      </trkpt>
      <trkpt lat="45.34953" lon="5.88096">
        <ele>1720</ele>
        <time>2013-01-26T10:16:46Z</time>
      </trkpt>
      <trkpt lat="45.34948" lon="5.88095">
        <ele>1720</ele>
        <time>2013-01-26T10:16:51Z</time>
      </trkpt>
      <trkpt lat="45.34943" lon="5.88093">
        <ele>1720</ele>
        <time>2013-01-26T10:16:56Z</time>
      </trkpt>
      <trkpt lat="45.3494" lon="5.88092">
        <ele>1721</ele>
        <time>2013-01-26T10:17:01Z</time>
      </trkpt>
      <trkpt lat="45.34941" lon="5.88093">
        <ele>1720</ele>
        <time>2013-01-26T10:17:06Z</time>
      </trkpt>
      <trkpt lat="45.34942" lon="5.88091">
        <ele>1719</ele>
        <time>2013-01-26T10:17:11Z</time>
      </trkpt>
      <trkpt lat="45.34942" lon="5.88091">
        <ele>1715</ele>
        <time>2013-01-26T10:17:16Z</time>
      </trkpt>
      <trkpt lat="45.34941" lon="5.88095">
        <ele>1714</ele>
        <time>2013-01-26T10:17:46Z</time>
      </trkpt>
      <trkpt lat="45.34941" lon="5.88095">
        <ele>1714</ele>
        <time>2013-01-26T10:17:51Z</time>
      </trkpt>
      <trkpt lat="45.34938" lon="5.88096">
        <ele>1715</ele>
        <time>2013-01-26T10:17:56Z</time>
      </trkpt>
      <trkpt lat="45.34932" lon="5.88093">
        <ele>1716</ele>
        <time>2013-01-26T10:18:01Z</time>
      </trkpt>
      <trkpt lat="45.34928" lon="5.88091">
        <ele>1717</ele>
        <time>2013-01-26T10:18:06Z</time>
      </trkpt>
      <trkpt lat="45.34923" lon="5.88089">
        <ele>1718</ele>
        <time>2013-01-26T10:18:11Z</time>
      </trkpt>
      <trkpt lat="45.34919" lon="5.88086">
        <ele>1718</ele>
        <time>2013-01-26T10:18:16Z</time>
      </trkpt>
      <trkpt lat="45.34914" lon="5.88084">
        <ele>1718</ele>
        <time>2013-01-26T10:18:21Z</time>
      </trkpt>
      <trkpt lat="45.3491" lon="5.88082">
        <ele>1719</ele>
        <time>2013-01-26T10:18:26Z</time>
      </trkpt>
      <trkpt lat="45.34906" lon="5.88079">
        <ele>1720</ele>
        <time>2013-01-26T10:18:31Z</time>
      </trkpt>
      <trkpt lat="45.34903" lon="5.88077">
        <ele>1720</ele>
        <time>2013-01-26T10:18:36Z</time>
      </trkpt>
      <trkpt lat="45.34899" lon="5.88073">
        <ele>1721</ele>
        <time>2013-01-26T10:18:41Z</time>
      </trkpt>
      <trkpt lat="45.34896" lon="5.88068">
        <ele>1722</ele>
        <time>2013-01-26T10:18:46Z</time>
      </trkpt>
      <trkpt lat="45.34894" lon="5.88063">
        <ele>1723</ele>
        <time>2013-01-26T10:18:51Z</time>
      </trkpt>
      <trkpt lat="45.34891" lon="5.88058">
        <ele>1724</ele>
        <time>2013-01-26T10:18:56Z</time>
      </trkpt>
      <trkpt lat="45.34888" lon="5.88054">
        <ele>1724</ele>
        <time>2013-01-26T10:19:01Z</time>
      </trkpt>
      <trkpt lat="45.34884" lon="5.8805">
        <ele>1725</ele>
        <time>2013-01-26T10:19:06Z</time>
      </trkpt>
      <trkpt lat="45.3488" lon="5.88047">
        <ele>1725</ele>
        <time>2013-01-26T10:19:11Z</time>
      </trkpt>
      <trkpt lat="45.34876" lon="5.88043">
        <ele>1726</ele>
        <time>2013-01-26T10:19:16Z</time>
      </trkpt>
      <trkpt lat="45.34872" lon="5.8804">
        <ele>1727</ele>
        <time>2013-01-26T10:19:21Z</time>
      </trkpt>
      <trkpt lat="45.34868" lon="5.88038">
        <ele>1729</ele>
        <time>2013-01-26T10:19:26Z</time>
      </trkpt>
      <trkpt lat="45.34864" lon="5.88036">
        <ele>1729</ele>
        <time>2013-01-26T10:19:31Z</time>
      </trkpt>
      <trkpt lat="45.34858" lon="5.88035">
        <ele>1730</ele>
        <time>2013-01-26T10:19:36Z</time>
      </trkpt>
      <trkpt lat="45.34853" lon="5.88033">
        <ele>1730</ele>
        <time>2013-01-26T10:19:41Z</time>
      </trkpt>
      <trkpt lat="45.3485" lon="5.88029">
        <ele>1731</ele>
        <time>2013-01-26T10:19:46Z</time>
      </trkpt>
      <trkpt lat="45.34846" lon="5.88025">
        <ele>1731</ele>
        <time>2013-01-26T10:19:51Z</time>
      </trkpt>
      <trkpt lat="45.34843" lon="5.8802">
        <ele>1731</ele>
        <time>2013-01-26T10:19:56Z</time>
      </trkpt>
      <trkpt lat="45.3484" lon="5.88015">
        <ele>1731</ele>
        <time>2013-01-26T10:20:01Z</time>
      </trkpt>
      <trkpt lat="45.34837" lon="5.88011">
        <ele>1732</ele>
        <time>2013-01-26T10:20:06Z</time>
      </trkpt>
      <trkpt lat="45.34834" lon="5.88008">
        <ele>1733</ele>
        <time>2013-01-26T10:20:11Z</time>
      </trkpt>
      <trkpt lat="45.34831" lon="5.88006">
        <ele>1734</ele>
        <time>2013-01-26T10:20:16Z</time>
      </trkpt>
      <trkpt lat="45.34827" lon="5.88004">
        <ele>1734</ele>
        <time>2013-01-26T10:20:21Z</time>
      </trkpt>
      <trkpt lat="45.34823" lon="5.88002">
        <ele>1735</ele>
        <time>2013-01-26T10:20:26Z</time>
      </trkpt>
      <trkpt lat="45.34819" lon="5.88">
        <ele>1736</ele>
        <time>2013-01-26T10:20:31Z</time>
      </trkpt>
      <trkpt lat="45.34815" lon="5.87998">
        <ele>1736</ele>
        <time>2013-01-26T10:20:36Z</time>
      </trkpt>
      <trkpt lat="45.34811" lon="5.87996">
        <ele>1737</ele>
        <time>2013-01-26T10:20:41Z</time>
      </trkpt>
      <trkpt lat="45.34807" lon="5.87993">
        <ele>1737</ele>
        <time>2013-01-26T10:20:46Z</time>
      </trkpt>
      <trkpt lat="45.34802" lon="5.87991">
        <ele>1738</ele>
        <time>2013-01-26T10:20:51Z</time>
      </trkpt>
      <trkpt lat="45.34797" lon="5.87989">
        <ele>1739</ele>
        <time>2013-01-26T10:20:56Z</time>
      </trkpt>
      <trkpt lat="45.34793" lon="5.87987">
        <ele>1740</ele>
        <time>2013-01-26T10:21:01Z</time>
      </trkpt>
      <trkpt lat="45.34789" lon="5.87986">
        <ele>1740</ele>
        <time>2013-01-26T10:21:06Z</time>
      </trkpt>
      <trkpt lat="45.34785" lon="5.87985">
        <ele>1741</ele>
        <time>2013-01-26T10:21:11Z</time>
      </trkpt>
      <trkpt lat="45.3478" lon="5.87983">
        <ele>1742</ele>
        <time>2013-01-26T10:21:16Z</time>
      </trkpt>
      <trkpt lat="45.34776" lon="5.87983">
        <ele>1743</ele>
        <time>2013-01-26T10:21:21Z</time>
      </trkpt>
      <trkpt lat="45.34771" lon="5.87982">
        <ele>1744</ele>
        <time>2013-01-26T10:21:26Z</time>
      </trkpt>
      <trkpt lat="45.34767" lon="5.87982">
        <ele>1745</ele>
        <time>2013-01-26T10:21:31Z</time>
      </trkpt>
      <trkpt lat="45.34762" lon="5.87981">
        <ele>1745</ele>
        <time>2013-01-26T10:21:36Z</time>
      </trkpt>
      <trkpt lat="45.34758" lon="5.87981">
        <ele>1745</ele>
        <time>2013-01-26T10:21:41Z</time>
      </trkpt>
      <trkpt lat="45.34758" lon="5.87981">
        <ele>1745</ele>
        <time>2013-01-26T10:21:46Z</time>
      </trkpt>
      <trkpt lat="45.34756" lon="5.87981">
        <ele>1746</ele>
        <time>2013-01-26T10:21:51Z</time>
      </trkpt>
      <trkpt lat="45.34755" lon="5.87985">
        <ele>1746</ele>
        <time>2013-01-26T10:21:56Z</time>
      </trkpt>
      <trkpt lat="45.34754" lon="5.8799">
        <ele>1747</ele>
        <time>2013-01-26T10:22:01Z</time>
      </trkpt>
      <trkpt lat="45.34752" lon="5.87994">
        <ele>1748</ele>
        <time>2013-01-26T10:22:06Z</time>
      </trkpt>
      <trkpt lat="45.34749" lon="5.87994">
        <ele>1749</ele>
        <time>2013-01-26T10:22:11Z</time>
      </trkpt>
      <trkpt lat="45.34745" lon="5.87992">
        <ele>1750</ele>
        <time>2013-01-26T10:22:16Z</time>
      </trkpt>
      <trkpt lat="45.34742" lon="5.8799">
        <ele>1751</ele>
        <time>2013-01-26T10:22:21Z</time>
      </trkpt>
      <trkpt lat="45.34738" lon="5.87988">
        <ele>1751</ele>
        <time>2013-01-26T10:22:26Z</time>
      </trkpt>
      <trkpt lat="45.34734" lon="5.87988">
        <ele>1752</ele>
        <time>2013-01-26T10:22:31Z</time>
      </trkpt>
      <trkpt lat="45.34731" lon="5.8799">
        <ele>1752</ele>
        <time>2013-01-26T10:22:36Z</time>
      </trkpt>
      <trkpt lat="45.34729" lon="5.87994">
        <ele>1752</ele>
        <time>2013-01-26T10:22:41Z</time>
      </trkpt>
      <trkpt lat="45.34727" lon="5.87997">
        <ele>1753</ele>
        <time>2013-01-26T10:22:46Z</time>
      </trkpt>
      <trkpt lat="45.34724" lon="5.88001">
        <ele>1754</ele>
        <time>2013-01-26T10:22:51Z</time>
      </trkpt>
      <trkpt lat="45.34721" lon="5.88002">
        <ele>1755</ele>
        <time>2013-01-26T10:22:56Z</time>
      </trkpt>
      <trkpt lat="45.34718" lon="5.88001">
        <ele>1755</ele>
        <time>2013-01-26T10:23:01Z</time>
      </trkpt>
      <trkpt lat="45.34714" lon="5.87999">
        <ele>1756</ele>
        <time>2013-01-26T10:23:06Z</time>
      </trkpt>
      <trkpt lat="45.34711" lon="5.87998">
        <ele>1757</ele>
        <time>2013-01-26T10:23:11Z</time>
      </trkpt>
      <trkpt lat="45.34707" lon="5.87997">
        <ele>1758</ele>
        <time>2013-01-26T10:23:16Z</time>
      </trkpt>
      <trkpt lat="45.34704" lon="5.87996">
        <ele>1759</ele>
        <time>2013-01-26T10:23:21Z</time>
      </trkpt>
      <trkpt lat="45.34701" lon="5.87994">
        <ele>1759</ele>
        <time>2013-01-26T10:23:26Z</time>
      </trkpt>
      <trkpt lat="45.34697" lon="5.87993">
        <ele>1759</ele>
        <time>2013-01-26T10:23:31Z</time>
      </trkpt>
      <trkpt lat="45.34694" lon="5.87991">
        <ele>1760</ele>
        <time>2013-01-26T10:23:36Z</time>
      </trkpt>
      <trkpt lat="45.3469" lon="5.87989">
        <ele>1760</ele>
        <time>2013-01-26T10:23:41Z</time>
      </trkpt>
      <trkpt lat="45.34686" lon="5.87988">
        <ele>1761</ele>
        <time>2013-01-26T10:23:46Z</time>
      </trkpt>
      <trkpt lat="45.34682" lon="5.87986">
        <ele>1761</ele>
        <time>2013-01-26T10:23:51Z</time>
      </trkpt>
      <trkpt lat="45.34678" lon="5.87985">
        <ele>1761</ele>
        <time>2013-01-26T10:23:56Z</time>
      </trkpt>
      <trkpt lat="45.34675" lon="5.87983">
        <ele>1762</ele>
        <time>2013-01-26T10:24:01Z</time>
      </trkpt>
      <trkpt lat="45.34671" lon="5.87981">
        <ele>1762</ele>
        <time>2013-01-26T10:24:06Z</time>
      </trkpt>
      <trkpt lat="45.34667" lon="5.8798">
        <ele>1762</ele>
        <time>2013-01-26T10:24:11Z</time>
      </trkpt>
      <trkpt lat="45.34663" lon="5.87978">
        <ele>1763</ele>
        <time>2013-01-26T10:24:16Z</time>
      </trkpt>
      <trkpt lat="45.3466" lon="5.87977">
        <ele>1763</ele>
        <time>2013-01-26T10:24:21Z</time>
      </trkpt>
      <trkpt lat="45.34657" lon="5.87975">
        <ele>1764</ele>
        <time>2013-01-26T10:24:26Z</time>
      </trkpt>
      <trkpt lat="45.34654" lon="5.87974">
        <ele>1764</ele>
        <time>2013-01-26T10:24:31Z</time>
      </trkpt>
      <trkpt lat="45.34652" lon="5.87973">
        <ele>1765</ele>
        <time>2013-01-26T10:24:36Z</time>
      </trkpt>
      <trkpt lat="45.34649" lon="5.8797">
        <ele>1765</ele>
        <time>2013-01-26T10:24:41Z</time>
      </trkpt>
      <trkpt lat="45.34646" lon="5.87968">
        <ele>1766</ele>
        <time>2013-01-26T10:24:46Z</time>
      </trkpt>
      <trkpt lat="45.34644" lon="5.87966">
        <ele>1767</ele>
        <time>2013-01-26T10:24:51Z</time>
      </trkpt>
      <trkpt lat="45.34641" lon="5.87963">
        <ele>1767</ele>
        <time>2013-01-26T10:24:56Z</time>
      </trkpt>
      <trkpt lat="45.34639" lon="5.87962">
        <ele>1767</ele>
        <time>2013-01-26T10:25:01Z</time>
      </trkpt>
      <trkpt lat="45.34636" lon="5.8796">
        <ele>1768</ele>
        <time>2013-01-26T10:25:06Z</time>
      </trkpt>
      <trkpt lat="45.34633" lon="5.87957">
        <ele>1768</ele>
        <time>2013-01-26T10:25:11Z</time>
      </trkpt>
      <trkpt lat="45.34629" lon="5.87954">
        <ele>1768</ele>
        <time>2013-01-26T10:25:16Z</time>
      </trkpt>
      <trkpt lat="45.34626" lon="5.87951">
        <ele>1768</ele>
        <time>2013-01-26T10:25:21Z</time>
      </trkpt>
      <trkpt lat="45.34623" lon="5.87948">
        <ele>1769</ele>
        <time>2013-01-26T10:25:26Z</time>
      </trkpt>
      <trkpt lat="45.3462" lon="5.87945">
        <ele>1769</ele>
        <time>2013-01-26T10:25:31Z</time>
      </trkpt>
      <trkpt lat="45.34616" lon="5.87943">
        <ele>1769</ele>
        <time>2013-01-26T10:25:36Z</time>
      </trkpt>
      <trkpt lat="45.34613" lon="5.8794">
        <ele>1770</ele>
        <time>2013-01-26T10:25:41Z</time>
      </trkpt>
      <trkpt lat="45.3461" lon="5.87937">
        <ele>1770</ele>
        <time>2013-01-26T10:25:46Z</time>
      </trkpt>
      <trkpt lat="45.34607" lon="5.87934">
        <ele>1771</ele>
        <time>2013-01-26T10:25:51Z</time>
      </trkpt>
      <trkpt lat="45.34604" lon="5.87932">
        <ele>1772</ele>
        <time>2013-01-26T10:25:56Z</time>
      </trkpt>
      <trkpt lat="45.34601" lon="5.87928">
        <ele>1773</ele>
        <time>2013-01-26T10:26:01Z</time>
      </trkpt>
      <trkpt lat="45.34598" lon="5.87925">
        <ele>1774</ele>
        <time>2013-01-26T10:26:06Z</time>
      </trkpt>
      <trkpt lat="45.34595" lon="5.87922">
        <ele>1775</ele>
        <time>2013-01-26T10:26:11Z</time>
      </trkpt>
      <trkpt lat="45.34593" lon="5.87919">
        <ele>1776</ele>
        <time>2013-01-26T10:26:16Z</time>
      </trkpt>
      <trkpt lat="45.3459" lon="5.87917">
        <ele>1777</ele>
        <time>2013-01-26T10:26:21Z</time>
      </trkpt>
      <trkpt lat="45.34587" lon="5.87914">
        <ele>1778</ele>
        <time>2013-01-26T10:26:26Z</time>
      </trkpt>
      <trkpt lat="45.34585" lon="5.87912">
        <ele>1779</ele>
        <time>2013-01-26T10:26:31Z</time>
      </trkpt>
      <trkpt lat="45.34581" lon="5.8791">
        <ele>1780</ele>
        <time>2013-01-26T10:26:36Z</time>
      </trkpt>
      <trkpt lat="45.34578" lon="5.87908">
        <ele>1781</ele>
        <time>2013-01-26T10:26:41Z</time>
      </trkpt>
      <trkpt lat="45.34576" lon="5.87905">
        <ele>1783</ele>
        <time>2013-01-26T10:26:46Z</time>
      </trkpt>
      <trkpt lat="45.34573" lon="5.87903">
        <ele>1784</ele>
        <time>2013-01-26T10:26:51Z</time>
      </trkpt>
      <trkpt lat="45.3457" lon="5.879">
        <ele>1785</ele>
        <time>2013-01-26T10:26:56Z</time>
      </trkpt>
      <trkpt lat="45.34568" lon="5.87898">
        <ele>1786</ele>
        <time>2013-01-26T10:27:01Z</time>
      </trkpt>
      <trkpt lat="45.34566" lon="5.87895">
        <ele>1787</ele>
        <time>2013-01-26T10:27:06Z</time>
      </trkpt>
      <trkpt lat="45.34565" lon="5.87891">
        <ele>1788</ele>
        <time>2013-01-26T10:27:11Z</time>
      </trkpt>
      <trkpt lat="45.34564" lon="5.87887">
        <ele>1789</ele>
        <time>2013-01-26T10:27:16Z</time>
      </trkpt>
      <trkpt lat="45.34563" lon="5.87883">
        <ele>1790</ele>
        <time>2013-01-26T10:27:21Z</time>
      </trkpt>
      <trkpt lat="45.34561" lon="5.8788">
        <ele>1790</ele>
        <time>2013-01-26T10:27:26Z</time>
      </trkpt>
      <trkpt lat="45.34559" lon="5.87876">
        <ele>1791</ele>
        <time>2013-01-26T10:27:31Z</time>
      </trkpt>
      <trkpt lat="45.34558" lon="5.87872">
        <ele>1791</ele>
        <time>2013-01-26T10:27:36Z</time>
      </trkpt>
      <trkpt lat="45.34557" lon="5.87868">
        <ele>1791</ele>
        <time>2013-01-26T10:27:41Z</time>
      </trkpt>
      <trkpt lat="45.34557" lon="5.87863">
        <ele>1791</ele>
        <time>2013-01-26T10:27:46Z</time>
      </trkpt>
      <trkpt lat="45.34557" lon="5.87862">
        <ele>1791</ele>
        <time>2013-01-26T10:27:51Z</time>
      </trkpt>
      <trkpt lat="45.34557" lon="5.8786">
        <ele>1792</ele>
        <time>2013-01-26T10:27:56Z</time>
      </trkpt>
      <trkpt lat="45.34557" lon="5.87855">
        <ele>1791</ele>
        <time>2013-01-26T10:28:01Z</time>
      </trkpt>
      <trkpt lat="45.34557" lon="5.87853">
        <ele>1791</ele>
        <time>2013-01-26T10:28:06Z</time>
      </trkpt>
      <trkpt lat="45.34556" lon="5.87853">
        <ele>1791</ele>
        <time>2013-01-26T10:28:11Z</time>
      </trkpt>
      <trkpt lat="45.34556" lon="5.87853">
        <ele>1791</ele>
        <time>2013-01-26T10:28:16Z</time>
      </trkpt>
      <trkpt lat="45.34556" lon="5.87854">
        <ele>1791</ele>
        <time>2013-01-26T10:28:21Z</time>
      </trkpt>
      <trkpt lat="45.34556" lon="5.87854">
        <ele>1791</ele>
        <time>2013-01-26T10:28:26Z</time>
      </trkpt>
      <trkpt lat="45.34556" lon="5.87854">
        <ele>1791</ele>
        <time>2013-01-26T10:28:31Z</time>
      </trkpt>
      <trkpt lat="45.34557" lon="5.87854">
        <ele>1791</ele>
        <time>2013-01-26T10:28:36Z</time>
      </trkpt>
      <trkpt lat="45.34557" lon="5.87854">
        <ele>1791</ele>
        <time>2013-01-26T10:28:41Z</time>
      </trkpt>
      <trkpt lat="45.34557" lon="5.87853">
        <ele>1791</ele>
        <time>2013-01-26T10:28:46Z</time>
      </trkpt>
      <trkpt lat="45.34557" lon="5.87853">
        <ele>1791</ele>
        <time>2013-01-26T10:28:51Z</time>
      </trkpt>
      <trkpt lat="45.34557" lon="5.87851">
        <ele>1791</ele>
        <time>2013-01-26T10:28:56Z</time>
      </trkpt>
      <trkpt lat="45.34556" lon="5.87844">
        <ele>1791</ele>
        <time>2013-01-26T10:29:01Z</time>
      </trkpt>
      <trkpt lat="45.34555" lon="5.87839">
        <ele>1791</ele>
        <time>2013-01-26T10:29:06Z</time>
      </trkpt>
      <trkpt lat="45.34554" lon="5.87833">
        <ele>1792</ele>
        <time>2013-01-26T10:29:11Z</time>
      </trkpt>
      <trkpt lat="45.34554" lon="5.87828">
        <ele>1792</ele>
        <time>2013-01-26T10:29:16Z</time>
      </trkpt>
      <trkpt lat="45.34553" lon="5.87823">
        <ele>1793</ele>
        <time>2013-01-26T10:29:21Z</time>
      </trkpt>
      <trkpt lat="45.34552" lon="5.87822">
        <ele>1793</ele>
        <time>2013-01-26T10:29:26Z</time>
      </trkpt>
      <trkpt lat="45.34551" lon="5.87816">
        <ele>1793</ele>
        <time>2013-01-26T10:29:31Z</time>
      </trkpt>
      <trkpt lat="45.34549" lon="5.8781">
        <ele>1794</ele>
        <time>2013-01-26T10:29:36Z</time>
      </trkpt>
      <trkpt lat="45.34548" lon="5.87805">
        <ele>1794</ele>
        <time>2013-01-26T10:29:41Z</time>
      </trkpt>
      <trkpt lat="45.34546" lon="5.87799">
        <ele>1794</ele>
        <time>2013-01-26T10:29:46Z</time>
      </trkpt>
      <trkpt lat="45.34544" lon="5.87793">
        <ele>1795</ele>
        <time>2013-01-26T10:29:51Z</time>
      </trkpt>
      <trkpt lat="45.34542" lon="5.87788">
        <ele>1795</ele>
        <time>2013-01-26T10:29:56Z</time>
      </trkpt>
      <trkpt lat="45.3454" lon="5.87783">
        <ele>1796</ele>
        <time>2013-01-26T10:30:01Z</time>
      </trkpt>
      <trkpt lat="45.34537" lon="5.87778">
        <ele>1796</ele>
        <time>2013-01-26T10:30:06Z</time>
      </trkpt>
      <trkpt lat="45.34535" lon="5.87774">
        <ele>1797</ele>
        <time>2013-01-26T10:30:11Z</time>
      </trkpt>
      <trkpt lat="45.34532" lon="5.87769">
        <ele>1797</ele>
        <time>2013-01-26T10:30:16Z</time>
      </trkpt>
      <trkpt lat="45.34529" lon="5.87766">
        <ele>1798</ele>
        <time>2013-01-26T10:30:21Z</time>
      </trkpt>
      <trkpt lat="45.34526" lon="5.87763">
        <ele>1798</ele>
        <time>2013-01-26T10:30:26Z</time>
      </trkpt>
      <trkpt lat="45.34523" lon="5.87759">
        <ele>1798</ele>
        <time>2013-01-26T10:30:31Z</time>
      </trkpt>
      <trkpt lat="45.3452" lon="5.87757">
        <ele>1799</ele>
        <time>2013-01-26T10:30:36Z</time>
      </trkpt>
      <trkpt lat="45.34518" lon="5.87752">
        <ele>1799</ele>
        <time>2013-01-26T10:30:41Z</time>
      </trkpt>
      <trkpt lat="45.34516" lon="5.87747">
        <ele>1799</ele>
        <time>2013-01-26T10:30:46Z</time>
      </trkpt>
      <trkpt lat="45.34514" lon="5.87743">
        <ele>1800</ele>
        <time>2013-01-26T10:30:51Z</time>
      </trkpt>
      <trkpt lat="45.34512" lon="5.8774">
        <ele>1800</ele>
        <time>2013-01-26T10:30:56Z</time>
      </trkpt>
      <trkpt lat="45.34511" lon="5.87736">
        <ele>1801</ele>
        <time>2013-01-26T10:31:01Z</time>
      </trkpt>
      <trkpt lat="45.34508" lon="5.87734">
        <ele>1801</ele>
        <time>2013-01-26T10:31:06Z</time>
      </trkpt>
      <trkpt lat="45.34506" lon="5.87731">
        <ele>1802</ele>
        <time>2013-01-26T10:31:11Z</time>
      </trkpt>
      <trkpt lat="45.34504" lon="5.87729">
        <ele>1802</ele>
        <time>2013-01-26T10:31:16Z</time>
      </trkpt>
      <trkpt lat="45.34502" lon="5.87727">
        <ele>1803</ele>
        <time>2013-01-26T10:31:21Z</time>
      </trkpt>
      <trkpt lat="45.34504" lon="5.87728">
        <ele>1810</ele>
        <time>2013-01-26T10:34:41Z</time>
      </trkpt>
      <trkpt lat="45.34505" lon="5.87726">
        <ele>1811</ele>
        <time>2013-01-26T10:34:46Z</time>
      </trkpt>
      <trkpt lat="45.34505" lon="5.87726">
        <ele>1811</ele>
        <time>2013-01-26T10:34:51Z</time>
      </trkpt>
      <trkpt lat="45.34505" lon="5.87726">
        <ele>1810</ele>
        <time>2013-01-26T10:34:56Z</time>
      </trkpt>
      <trkpt lat="45.34505" lon="5.87725">
        <ele>1808</ele>
        <time>2013-01-26T10:35:01Z</time>
      </trkpt>
      <trkpt lat="45.34505" lon="5.87721">
        <ele>1806</ele>
        <time>2013-01-26T10:35:06Z</time>
      </trkpt>
      <trkpt lat="45.34505" lon="5.87719">
        <ele>1806</ele>
        <time>2013-01-26T10:35:11Z</time>
      </trkpt>
      <trkpt lat="45.34505" lon="5.87717">
        <ele>1805</ele>
        <time>2013-01-26T10:35:16Z</time>
      </trkpt>
      <trkpt lat="45.34505" lon="5.87716">
        <ele>1804</ele>
        <time>2013-01-26T10:35:21Z</time>
      </trkpt>
      <trkpt lat="45.34506" lon="5.87715">
        <ele>1803</ele>
        <time>2013-01-26T10:35:26Z</time>
      </trkpt>
      <trkpt lat="45.34506" lon="5.87715">
        <ele>1803</ele>
        <time>2013-01-26T10:35:31Z</time>
      </trkpt>
      <trkpt lat="45.34506" lon="5.87715">
        <ele>1803</ele>
        <time>2013-01-26T10:35:36Z</time>
      </trkpt>
      <trkpt lat="45.34506" lon="5.87715">
        <ele>1802</ele>
        <time>2013-01-26T10:35:41Z</time>
      </trkpt>
      <trkpt lat="45.34507" lon="5.87715">
        <ele>1802</ele>
        <time>2013-01-26T10:35:46Z</time>
      </trkpt>
      <trkpt lat="45.34507" lon="5.87715">
        <ele>1802</ele>
        <time>2013-01-26T10:35:51Z</time>
      </trkpt>
      <trkpt lat="45.34507" lon="5.87715">
        <ele>1802</ele>
        <time>2013-01-26T10:35:56Z</time>
      </trkpt>
      <trkpt lat="45.34507" lon="5.87715">
        <ele>1802</ele>
        <time>2013-01-26T10:36:01Z</time>
      </trkpt>
      <trkpt lat="45.34507" lon="5.87715">
        <ele>1801</ele>
        <time>2013-01-26T10:36:06Z</time>
      </trkpt>
      <trkpt lat="45.34507" lon="5.87716">
        <ele>1801</ele>
        <time>2013-01-26T10:36:11Z</time>
      </trkpt>
      <trkpt lat="45.34507" lon="5.87716">
        <ele>1801</ele>
        <time>2013-01-26T10:36:16Z</time>
      </trkpt>
      <trkpt lat="45.34507" lon="5.87716">
        <ele>1801</ele>
        <time>2013-01-26T10:36:21Z</time>
      </trkpt>
      <trkpt lat="45.34507" lon="5.87716">
        <ele>1801</ele>
        <time>2013-01-26T10:36:26Z</time>
      </trkpt>
      <trkpt lat="45.34507" lon="5.87716">
        <ele>1801</ele>
        <time>2013-01-26T10:36:31Z</time>
      </trkpt>
      <trkpt lat="45.34507" lon="5.87716">
        <ele>1801</ele>
        <time>2013-01-26T10:36:36Z</time>
      </trkpt>
      <trkpt lat="45.34507" lon="5.87716">
        <ele>1801</ele>
        <time>2013-01-26T10:36:41Z</time>
      </trkpt>
      <trkpt lat="45.34508" lon="5.87716">
        <ele>1801</ele>
        <time>2013-01-26T10:36:46Z</time>
      </trkpt>
      <trkpt lat="45.34508" lon="5.87716">
        <ele>1801</ele>
        <time>2013-01-26T10:36:51Z</time>
      </trkpt>
      <trkpt lat="45.34508" lon="5.87716">
        <ele>1801</ele>
        <time>2013-01-26T10:36:56Z</time>
      </trkpt>
      <trkpt lat="45.34508" lon="5.87716">
        <ele>1801</ele>
        <time>2013-01-26T10:37:01Z</time>
      </trkpt>
      <trkpt lat="45.34507" lon="5.87716">
        <ele>1800</ele>
        <time>2013-01-26T10:37:06Z</time>
      </trkpt>
      <trkpt lat="45.34508" lon="5.87716">
        <ele>1801</ele>
        <time>2013-01-26T10:37:11Z</time>
      </trkpt>
      <trkpt lat="45.34509" lon="5.87715">
        <ele>1799</ele>
        <time>2013-01-26T10:37:16Z</time>
      </trkpt>
      <trkpt lat="45.34508" lon="5.87715">
        <ele>1800</ele>
        <time>2013-01-26T10:37:21Z</time>
      </trkpt>
      <trkpt lat="45.34509" lon="5.87714">
        <ele>1800</ele>
        <time>2013-01-26T10:37:26Z</time>
      </trkpt>
      <trkpt lat="45.34509" lon="5.87714">
        <ele>1799</ele>
        <time>2013-01-26T10:37:31Z</time>
      </trkpt>
      <trkpt lat="45.34512" lon="5.8771">
        <ele>1799</ele>
        <time>2013-01-26T10:37:36Z</time>
      </trkpt>
      <trkpt lat="45.34513" lon="5.87707">
        <ele>1800</ele>
        <time>2013-01-26T10:37:41Z</time>
      </trkpt>
      <trkpt lat="45.34515" lon="5.87705">
        <ele>1801</ele>
        <time>2013-01-26T10:37:46Z</time>
      </trkpt>
      <trkpt lat="45.34518" lon="5.87704">
        <ele>1803</ele>
        <time>2013-01-26T10:37:51Z</time>
      </trkpt>
      <trkpt lat="45.3452" lon="5.87703">
        <ele>1804</ele>
        <time>2013-01-26T10:37:56Z</time>
      </trkpt>
      <trkpt lat="45.34523" lon="5.87702">
        <ele>1805</ele>
        <time>2013-01-26T10:38:01Z</time>
      </trkpt>
      <trkpt lat="45.34525" lon="5.87701">
        <ele>1806</ele>
        <time>2013-01-26T10:38:06Z</time>
      </trkpt>
      <trkpt lat="45.34527" lon="5.87701">
        <ele>1807</ele>
        <time>2013-01-26T10:38:11Z</time>
      </trkpt>
      <trkpt lat="45.34529" lon="5.877">
        <ele>1808</ele>
        <time>2013-01-26T10:38:16Z</time>
      </trkpt>
      <trkpt lat="45.34531" lon="5.87699">
        <ele>1809</ele>
        <time>2013-01-26T10:38:21Z</time>
      </trkpt>
      <trkpt lat="45.34533" lon="5.87699">
        <ele>1810</ele>
        <time>2013-01-26T10:38:26Z</time>
      </trkpt>
      <trkpt lat="45.34535" lon="5.87698">
        <ele>1811</ele>
        <time>2013-01-26T10:38:31Z</time>
      </trkpt>
      <trkpt lat="45.34538" lon="5.87698">
        <ele>1812</ele>
        <time>2013-01-26T10:38:36Z</time>
      </trkpt>
      <trkpt lat="45.3454" lon="5.87697">
        <ele>1813</ele>
        <time>2013-01-26T10:38:41Z</time>
      </trkpt>
      <trkpt lat="45.34542" lon="5.87696">
        <ele>1814</ele>
        <time>2013-01-26T10:38:46Z</time>
      </trkpt>
      <trkpt lat="45.34544" lon="5.87695">
        <ele>1814</ele>
        <time>2013-01-26T10:38:51Z</time>
      </trkpt>
      <trkpt lat="45.34548" lon="5.87695">
        <ele>1815</ele>
        <time>2013-01-26T10:38:56Z</time>
      </trkpt>
      <trkpt lat="45.3455" lon="5.87694">
        <ele>1816</ele>
        <time>2013-01-26T10:39:01Z</time>
      </trkpt>
      <trkpt lat="45.34552" lon="5.87694">
        <ele>1817</ele>
        <time>2013-01-26T10:39:06Z</time>
      </trkpt>
      <trkpt lat="45.34554" lon="5.87694">
        <ele>1818</ele>
        <time>2013-01-26T10:39:11Z</time>
      </trkpt>
      <trkpt lat="45.34556" lon="5.87694">
        <ele>1819</ele>
        <time>2013-01-26T10:39:16Z</time>
      </trkpt>
      <trkpt lat="45.34559" lon="5.87694">
        <ele>1820</ele>
        <time>2013-01-26T10:39:21Z</time>
      </trkpt>
      <trkpt lat="45.34561" lon="5.87694">
        <ele>1821</ele>
        <time>2013-01-26T10:39:26Z</time>
      </trkpt>
      <trkpt lat="45.34563" lon="5.87695">
        <ele>1821</ele>
        <time>2013-01-26T10:39:31Z</time>
      </trkpt>
      <trkpt lat="45.34565" lon="5.87695">
        <ele>1822</ele>
        <time>2013-01-26T10:39:36Z</time>
      </trkpt>
      <trkpt lat="45.34567" lon="5.87695">
        <ele>1823</ele>
        <time>2013-01-26T10:39:41Z</time>
      </trkpt>
      <trkpt lat="45.34569" lon="5.87696">
        <ele>1823</ele>
        <time>2013-01-26T10:39:46Z</time>
      </trkpt>
      <trkpt lat="45.34569" lon="5.87695">
        <ele>1824</ele>
        <time>2013-01-26T10:39:51Z</time>
      </trkpt>
      <trkpt lat="45.34568" lon="5.87694">
        <ele>1824</ele>
        <time>2013-01-26T10:39:56Z</time>
      </trkpt>
      <trkpt lat="45.34567" lon="5.87691">
        <ele>1825</ele>
        <time>2013-01-26T10:40:01Z</time>
      </trkpt>
      <trkpt lat="45.34565" lon="5.87689">
        <ele>1826</ele>
        <time>2013-01-26T10:40:06Z</time>
      </trkpt>
      <trkpt lat="45.34565" lon="5.87688">
        <ele>1826</ele>
        <time>2013-01-26T10:40:11Z</time>
      </trkpt>
      <trkpt lat="45.34568" lon="5.87688">
        <ele>1826</ele>
        <time>2013-01-26T10:40:16Z</time>
      </trkpt>
      <trkpt lat="45.34568" lon="5.87689">
        <ele>1826</ele>
        <time>2013-01-26T10:40:21Z</time>
      </trkpt>
      <trkpt lat="45.34568" lon="5.87689">
        <ele>1826</ele>
        <time>2013-01-26T10:40:26Z</time>
      </trkpt>
      <trkpt lat="45.3457" lon="5.87688">
        <ele>1827</ele>
        <time>2013-01-26T10:40:31Z</time>
      </trkpt>
      <trkpt lat="45.34573" lon="5.87688">
        <ele>1828</ele>
        <time>2013-01-26T10:40:36Z</time>
      </trkpt>
      <trkpt lat="45.34576" lon="5.87688">
        <ele>1829</ele>
        <time>2013-01-26T10:40:41Z</time>
      </trkpt>
      <trkpt lat="45.34578" lon="5.87688">
        <ele>1829</ele>
        <time>2013-01-26T10:40:46Z</time>
      </trkpt>
      <trkpt lat="45.3458" lon="5.87688">
        <ele>1830</ele>
        <time>2013-01-26T10:40:51Z</time>
      </trkpt>
      <trkpt lat="45.34583" lon="5.87688">
        <ele>1830</ele>
        <time>2013-01-26T10:40:56Z</time>
      </trkpt>
      <trkpt lat="45.34585" lon="5.87688">
        <ele>1831</ele>
        <time>2013-01-26T10:41:01Z</time>
      </trkpt>
      <trkpt lat="45.34587" lon="5.87689">
        <ele>1832</ele>
        <time>2013-01-26T10:41:06Z</time>
      </trkpt>
      <trkpt lat="45.3459" lon="5.8769">
        <ele>1833</ele>
        <time>2013-01-26T10:41:11Z</time>
      </trkpt>
      <trkpt lat="45.34593" lon="5.8769">
        <ele>1833</ele>
        <time>2013-01-26T10:41:16Z</time>
      </trkpt>
      <trkpt lat="45.34595" lon="5.8769">
        <ele>1834</ele>
        <time>2013-01-26T10:41:21Z</time>
      </trkpt>
      <trkpt lat="45.34598" lon="5.87691">
        <ele>1835</ele>
        <time>2013-01-26T10:41:26Z</time>
      </trkpt>
      <trkpt lat="45.34601" lon="5.87691">
        <ele>1836</ele>
        <time>2013-01-26T10:41:31Z</time>
      </trkpt>
      <trkpt lat="45.34603" lon="5.87691">
        <ele>1836</ele>
        <time>2013-01-26T10:41:36Z</time>
      </trkpt>
      <trkpt lat="45.34606" lon="5.87691">
        <ele>1837</ele>
        <time>2013-01-26T10:41:41Z</time>
      </trkpt>
      <trkpt lat="45.34609" lon="5.87692">
        <ele>1838</ele>
        <time>2013-01-26T10:41:46Z</time>
      </trkpt>
      <trkpt lat="45.34612" lon="5.87692">
        <ele>1838</ele>
        <time>2013-01-26T10:41:51Z</time>
      </trkpt>
      <trkpt lat="45.34614" lon="5.87692">
        <ele>1839</ele>
        <time>2013-01-26T10:41:56Z</time>
      </trkpt>
      <trkpt lat="45.34617" lon="5.87692">
        <ele>1840</ele>
        <time>2013-01-26T10:42:01Z</time>
      </trkpt>
      <trkpt lat="45.3462" lon="5.87692">
        <ele>1840</ele>
        <time>2013-01-26T10:42:06Z</time>
      </trkpt>
      <trkpt lat="45.34622" lon="5.87692">
        <ele>1841</ele>
        <time>2013-01-26T10:42:11Z</time>
      </trkpt>
      <trkpt lat="45.34624" lon="5.87692">
        <ele>1841</ele>
        <time>2013-01-26T10:42:16Z</time>
      </trkpt>
      <trkpt lat="45.34626" lon="5.87692">
        <ele>1842</ele>
        <time>2013-01-26T10:42:21Z</time>
      </trkpt>
      <trkpt lat="45.34625" lon="5.8769">
        <ele>1842</ele>
        <time>2013-01-26T10:42:26Z</time>
      </trkpt>
      <trkpt lat="45.34623" lon="5.87687">
        <ele>1843</ele>
        <time>2013-01-26T10:42:31Z</time>
      </trkpt>
      <trkpt lat="45.34621" lon="5.87684">
        <ele>1844</ele>
        <time>2013-01-26T10:42:36Z</time>
      </trkpt>
      <trkpt lat="45.3462" lon="5.87682">
        <ele>1845</ele>
        <time>2013-01-26T10:42:41Z</time>
      </trkpt>
      <trkpt lat="45.3462" lon="5.87681">
        <ele>1845</ele>
        <time>2013-01-26T10:42:46Z</time>
      </trkpt>
      <trkpt lat="45.34623" lon="5.87681">
        <ele>1846</ele>
        <time>2013-01-26T10:42:51Z</time>
      </trkpt>
      <trkpt lat="45.34626" lon="5.87681">
        <ele>1846</ele>
        <time>2013-01-26T10:42:56Z</time>
      </trkpt>
      <trkpt lat="45.34629" lon="5.87681">
        <ele>1847</ele>
        <time>2013-01-26T10:43:01Z</time>
      </trkpt>
      <trkpt lat="45.34631" lon="5.8768">
        <ele>1848</ele>
        <time>2013-01-26T10:43:06Z</time>
      </trkpt>
      <trkpt lat="45.34634" lon="5.87679">
        <ele>1848</ele>
        <time>2013-01-26T10:43:11Z</time>
      </trkpt>
      <trkpt lat="45.34636" lon="5.87678">
        <ele>1849</ele>
        <time>2013-01-26T10:43:16Z</time>
      </trkpt>
      <trkpt lat="45.34638" lon="5.87678">
        <ele>1850</ele>
        <time>2013-01-26T10:43:21Z</time>
      </trkpt>
      <trkpt lat="45.34638" lon="5.87677">
        <ele>1850</ele>
        <time>2013-01-26T10:43:26Z</time>
      </trkpt>
      <trkpt lat="45.34639" lon="5.87676">
        <ele>1850</ele>
        <time>2013-01-26T10:43:31Z</time>
      </trkpt>
      <trkpt lat="45.34637" lon="5.87675">
        <ele>1851</ele>
        <time>2013-01-26T10:43:36Z</time>
      </trkpt>
      <trkpt lat="45.34636" lon="5.87673">
        <ele>1851</ele>
        <time>2013-01-26T10:43:41Z</time>
      </trkpt>
      <trkpt lat="45.34634" lon="5.8767">
        <ele>1852</ele>
        <time>2013-01-26T10:43:46Z</time>
      </trkpt>
      <trkpt lat="45.34633" lon="5.87668">
        <ele>1853</ele>
        <time>2013-01-26T10:43:51Z</time>
      </trkpt>
      <trkpt lat="45.34632" lon="5.87666">
        <ele>1854</ele>
        <time>2013-01-26T10:43:56Z</time>
      </trkpt>
      <trkpt lat="45.34631" lon="5.87663">
        <ele>1854</ele>
        <time>2013-01-26T10:44:01Z</time>
      </trkpt>
      <trkpt lat="45.34629" lon="5.8766">
        <ele>1855</ele>
        <time>2013-01-26T10:44:06Z</time>
      </trkpt>
      <trkpt lat="45.34628" lon="5.87657">
        <ele>1856</ele>
        <time>2013-01-26T10:44:11Z</time>
      </trkpt>
      <trkpt lat="45.34626" lon="5.87655">
        <ele>1856</ele>
        <time>2013-01-26T10:44:16Z</time>
      </trkpt>
      <trkpt lat="45.34625" lon="5.87652">
        <ele>1857</ele>
        <time>2013-01-26T10:44:21Z</time>
      </trkpt>
      <trkpt lat="45.34623" lon="5.87649">
        <ele>1858</ele>
        <time>2013-01-26T10:44:26Z</time>
      </trkpt>
      <trkpt lat="45.34622" lon="5.87646">
        <ele>1859</ele>
        <time>2013-01-26T10:44:31Z</time>
      </trkpt>
      <trkpt lat="45.3462" lon="5.87644">
        <ele>1859</ele>
        <time>2013-01-26T10:44:36Z</time>
      </trkpt>
      <trkpt lat="45.3462" lon="5.87643">
        <ele>1860</ele>
        <time>2013-01-26T10:44:41Z</time>
      </trkpt>
      <trkpt lat="45.3462" lon="5.87643">
        <ele>1860</ele>
        <time>2013-01-26T10:44:46Z</time>
      </trkpt>
      <trkpt lat="45.3462" lon="5.87643">
        <ele>1860</ele>
        <time>2013-01-26T10:44:51Z</time>
      </trkpt>
      <trkpt lat="45.34617" lon="5.87641">
        <ele>1860</ele>
        <time>2013-01-26T10:44:56Z</time>
      </trkpt>
      <trkpt lat="45.34615" lon="5.87639">
        <ele>1861</ele>
        <time>2013-01-26T10:45:01Z</time>
      </trkpt>
      <trkpt lat="45.34615" lon="5.87638">
        <ele>1861</ele>
        <time>2013-01-26T10:45:06Z</time>
      </trkpt>
      <trkpt lat="45.34614" lon="5.87635">
        <ele>1862</ele>
        <time>2013-01-26T10:45:11Z</time>
      </trkpt>
      <trkpt lat="45.34612" lon="5.87633">
        <ele>1862</ele>
        <time>2013-01-26T10:45:16Z</time>
      </trkpt>
      <trkpt lat="45.3461" lon="5.87631">
        <ele>1863</ele>
        <time>2013-01-26T10:45:21Z</time>
      </trkpt>
      <trkpt lat="45.34608" lon="5.87629">
        <ele>1864</ele>
        <time>2013-01-26T10:45:26Z</time>
      </trkpt>
      <trkpt lat="45.3461" lon="5.87629">
        <ele>1864</ele>
        <time>2013-01-26T10:45:31Z</time>
      </trkpt>
      <trkpt lat="45.34613" lon="5.87628">
        <ele>1864</ele>
        <time>2013-01-26T10:45:36Z</time>
      </trkpt>
      <trkpt lat="45.34616" lon="5.87628">
        <ele>1865</ele>
        <time>2013-01-26T10:45:41Z</time>
      </trkpt>
      <trkpt lat="45.34619" lon="5.87627">
        <ele>1866</ele>
        <time>2013-01-26T10:45:46Z</time>
      </trkpt>
      <trkpt lat="45.34621" lon="5.87626">
        <ele>1866</ele>
        <time>2013-01-26T10:45:51Z</time>
      </trkpt>
      <trkpt lat="45.34622" lon="5.87627">
        <ele>1866</ele>
        <time>2013-01-26T10:45:56Z</time>
      </trkpt>
      <trkpt lat="45.34622" lon="5.87626">
        <ele>1867</ele>
        <time>2013-01-26T10:46:01Z</time>
      </trkpt>
      <trkpt lat="45.34625" lon="5.87626">
        <ele>1868</ele>
        <time>2013-01-26T10:46:06Z</time>
      </trkpt>
      <trkpt lat="45.34628" lon="5.87625">
        <ele>1868</ele>
        <time>2013-01-26T10:46:11Z</time>
      </trkpt>
      <trkpt lat="45.34631" lon="5.87624">
        <ele>1869</ele>
        <time>2013-01-26T10:46:16Z</time>
      </trkpt>
      <trkpt lat="45.34633" lon="5.87624">
        <ele>1870</ele>
        <time>2013-01-26T10:46:21Z</time>
      </trkpt>
      <trkpt lat="45.34636" lon="5.87623">
        <ele>1870</ele>
        <time>2013-01-26T10:46:26Z</time>
      </trkpt>
      <trkpt lat="45.34639" lon="5.87623">
        <ele>1871</ele>
        <time>2013-01-26T10:46:31Z</time>
      </trkpt>
      <trkpt lat="45.34642" lon="5.87622">
        <ele>1872</ele>
        <time>2013-01-26T10:46:36Z</time>
      </trkpt>
      <trkpt lat="45.34645" lon="5.87622">
        <ele>1872</ele>
        <time>2013-01-26T10:46:41Z</time>
      </trkpt>
      <trkpt lat="45.34647" lon="5.87622">
        <ele>1873</ele>
        <time>2013-01-26T10:46:46Z</time>
      </trkpt>
      <trkpt lat="45.3465" lon="5.87621">
        <ele>1873</ele>
        <time>2013-01-26T10:46:51Z</time>
      </trkpt>
      <trkpt lat="45.34652" lon="5.87621">
        <ele>1874</ele>
        <time>2013-01-26T10:46:56Z</time>
      </trkpt>
      <trkpt lat="45.34655" lon="5.87621">
        <ele>1875</ele>
        <time>2013-01-26T10:47:01Z</time>
      </trkpt>
      <trkpt lat="45.34658" lon="5.87621">
        <ele>1875</ele>
        <time>2013-01-26T10:47:06Z</time>
      </trkpt>
      <trkpt lat="45.34661" lon="5.87622">
        <ele>1876</ele>
        <time>2013-01-26T10:47:11Z</time>
      </trkpt>
      <trkpt lat="45.34662" lon="5.87621">
        <ele>1876</ele>
        <time>2013-01-26T10:47:16Z</time>
      </trkpt>
      <trkpt lat="45.3466" lon="5.87619">
        <ele>1877</ele>
        <time>2013-01-26T10:47:21Z</time>
      </trkpt>
      <trkpt lat="45.34659" lon="5.87617">
        <ele>1878</ele>
        <time>2013-01-26T10:47:26Z</time>
      </trkpt>
      <trkpt lat="45.34657" lon="5.87614">
        <ele>1879</ele>
        <time>2013-01-26T10:47:31Z</time>
      </trkpt>
      <trkpt lat="45.34656" lon="5.87612">
        <ele>1880</ele>
        <time>2013-01-26T10:47:36Z</time>
      </trkpt>
      <trkpt lat="45.34654" lon="5.8761">
        <ele>1881</ele>
        <time>2013-01-26T10:47:41Z</time>
      </trkpt>
      <trkpt lat="45.34652" lon="5.87607">
        <ele>1881</ele>
        <time>2013-01-26T10:47:46Z</time>
      </trkpt>
      <trkpt lat="45.34651" lon="5.87605">
        <ele>1882</ele>
        <time>2013-01-26T10:47:51Z</time>
      </trkpt>
      <trkpt lat="45.34649" lon="5.87603">
        <ele>1883</ele>
        <time>2013-01-26T10:47:56Z</time>
      </trkpt>
      <trkpt lat="45.34647" lon="5.87601">
        <ele>1884</ele>
        <time>2013-01-26T10:48:01Z</time>
      </trkpt>
      <trkpt lat="45.34646" lon="5.87599">
        <ele>1885</ele>
        <time>2013-01-26T10:48:06Z</time>
      </trkpt>
      <trkpt lat="45.34644" lon="5.87597">
        <ele>1886</ele>
        <time>2013-01-26T10:48:11Z</time>
      </trkpt>
      <trkpt lat="45.34642" lon="5.87596">
        <ele>1887</ele>
        <time>2013-01-26T10:48:16Z</time>
      </trkpt>
      <trkpt lat="45.34641" lon="5.87594">
        <ele>1888</ele>
        <time>2013-01-26T10:48:21Z</time>
      </trkpt>
      <trkpt lat="45.34639" lon="5.87592">
        <ele>1888</ele>
        <time>2013-01-26T10:48:26Z</time>
      </trkpt>
      <trkpt lat="45.34637" lon="5.87592">
        <ele>1889</ele>
        <time>2013-01-26T10:48:31Z</time>
      </trkpt>
      <trkpt lat="45.34636" lon="5.8759">
        <ele>1889</ele>
        <time>2013-01-26T10:48:36Z</time>
      </trkpt>
      <trkpt lat="45.34633" lon="5.87589">
        <ele>1890</ele>
        <time>2013-01-26T10:48:41Z</time>
      </trkpt>
      <trkpt lat="45.34632" lon="5.87588">
        <ele>1890</ele>
        <time>2013-01-26T10:48:46Z</time>
      </trkpt>
      <trkpt lat="45.3463" lon="5.87586">
        <ele>1891</ele>
        <time>2013-01-26T10:48:51Z</time>
      </trkpt>
      <trkpt lat="45.34628" lon="5.87584">
        <ele>1892</ele>
        <time>2013-01-26T10:48:56Z</time>
      </trkpt>
      <trkpt lat="45.34626" lon="5.87583">
        <ele>1892</ele>
        <time>2013-01-26T10:49:01Z</time>
      </trkpt>
      <trkpt lat="45.34626" lon="5.87582">
        <ele>1892</ele>
        <time>2013-01-26T10:49:06Z</time>
      </trkpt>
      <trkpt lat="45.34627" lon="5.87581">
        <ele>1892</ele>
        <time>2013-01-26T10:49:11Z</time>
      </trkpt>
      <trkpt lat="45.3463" lon="5.8758">
        <ele>1893</ele>
        <time>2013-01-26T10:49:16Z</time>
      </trkpt>
      <trkpt lat="45.34632" lon="5.87579">
        <ele>1893</ele>
        <time>2013-01-26T10:49:21Z</time>
      </trkpt>
      <trkpt lat="45.34634" lon="5.87577">
        <ele>1894</ele>
        <time>2013-01-26T10:49:26Z</time>
      </trkpt>
      <trkpt lat="45.34637" lon="5.87576">
        <ele>1895</ele>
        <time>2013-01-26T10:49:31Z</time>
      </trkpt>
      <trkpt lat="45.34639" lon="5.87575">
        <ele>1895</ele>
        <time>2013-01-26T10:49:36Z</time>
      </trkpt>
      <trkpt lat="45.34642" lon="5.87574">
        <ele>1896</ele>
        <time>2013-01-26T10:49:41Z</time>
      </trkpt>
      <trkpt lat="45.34645" lon="5.87573">
        <ele>1896</ele>
        <time>2013-01-26T10:49:46Z</time>
      </trkpt>
      <trkpt lat="45.34647" lon="5.87572">
        <ele>1897</ele>
        <time>2013-01-26T10:49:51Z</time>
      </trkpt>
      <trkpt lat="45.3465" lon="5.87571">
        <ele>1898</ele>
        <time>2013-01-26T10:49:56Z</time>
      </trkpt>
      <trkpt lat="45.34652" lon="5.87571">
        <ele>1899</ele>
        <time>2013-01-26T10:50:01Z</time>
      </trkpt>
      <trkpt lat="45.34655" lon="5.8757">
        <ele>1900</ele>
        <time>2013-01-26T10:50:06Z</time>
      </trkpt>
      <trkpt lat="45.34659" lon="5.8757">
        <ele>1900</ele>
        <time>2013-01-26T10:50:11Z</time>
      </trkpt>
      <trkpt lat="45.34661" lon="5.8757">
        <ele>1901</ele>
        <time>2013-01-26T10:50:16Z</time>
      </trkpt>
      <trkpt lat="45.34664" lon="5.87571">
        <ele>1902</ele>
        <time>2013-01-26T10:50:21Z</time>
      </trkpt>
      <trkpt lat="45.34667" lon="5.87572">
        <ele>1902</ele>
        <time>2013-01-26T10:50:26Z</time>
      </trkpt>
      <trkpt lat="45.3467" lon="5.87573">
        <ele>1903</ele>
        <time>2013-01-26T10:50:31Z</time>
      </trkpt>
      <trkpt lat="45.34673" lon="5.87574">
        <ele>1903</ele>
        <time>2013-01-26T10:50:36Z</time>
      </trkpt>
      <trkpt lat="45.34675" lon="5.87575">
        <ele>1904</ele>
        <time>2013-01-26T10:50:41Z</time>
      </trkpt>
      <trkpt lat="45.34678" lon="5.87577">
        <ele>1905</ele>
        <time>2013-01-26T10:50:46Z</time>
      </trkpt>
      <trkpt lat="45.34681" lon="5.87578">
        <ele>1905</ele>
        <time>2013-01-26T10:50:51Z</time>
      </trkpt>
      <trkpt lat="45.34683" lon="5.87579">
        <ele>1906</ele>
        <time>2013-01-26T10:50:56Z</time>
      </trkpt>
      <trkpt lat="45.34684" lon="5.87581">
        <ele>1906</ele>
        <time>2013-01-26T10:51:01Z</time>
      </trkpt>
      <trkpt lat="45.34684" lon="5.87579">
        <ele>1906</ele>
        <time>2013-01-26T10:51:06Z</time>
      </trkpt>
      <trkpt lat="45.34684" lon="5.87577">
        <ele>1906</ele>
        <time>2013-01-26T10:51:11Z</time>
      </trkpt>
      <trkpt lat="45.34683" lon="5.87573">
        <ele>1906</ele>
        <time>2013-01-26T10:51:16Z</time>
      </trkpt>
      <trkpt lat="45.34683" lon="5.8757">
        <ele>1907</ele>
        <time>2013-01-26T10:51:21Z</time>
      </trkpt>
      <trkpt lat="45.34681" lon="5.87567">
        <ele>1907</ele>
        <time>2013-01-26T10:51:26Z</time>
      </trkpt>
      <trkpt lat="45.3468" lon="5.87564">
        <ele>1908</ele>
        <time>2013-01-26T10:51:31Z</time>
      </trkpt>
      <trkpt lat="45.34679" lon="5.87561">
        <ele>1909</ele>
        <time>2013-01-26T10:51:36Z</time>
      </trkpt>
      <trkpt lat="45.34678" lon="5.87559">
        <ele>1910</ele>
        <time>2013-01-26T10:51:41Z</time>
      </trkpt>
      <trkpt lat="45.34676" lon="5.87556">
        <ele>1911</ele>
        <time>2013-01-26T10:51:46Z</time>
      </trkpt>
      <trkpt lat="45.34675" lon="5.87554">
        <ele>1912</ele>
        <time>2013-01-26T10:51:51Z</time>
      </trkpt>
      <trkpt lat="45.34673" lon="5.87551">
        <ele>1913</ele>
        <time>2013-01-26T10:51:56Z</time>
      </trkpt>
      <trkpt lat="45.34671" lon="5.87549">
        <ele>1914</ele>
        <time>2013-01-26T10:52:01Z</time>
      </trkpt>
      <trkpt lat="45.34669" lon="5.87547">
        <ele>1915</ele>
        <time>2013-01-26T10:52:06Z</time>
      </trkpt>
      <trkpt lat="45.34668" lon="5.87545">
        <ele>1916</ele>
        <time>2013-01-26T10:52:11Z</time>
      </trkpt>
      <trkpt lat="45.34665" lon="5.87543">
        <ele>1917</ele>
        <time>2013-01-26T10:52:16Z</time>
      </trkpt>
      <trkpt lat="45.34664" lon="5.87541">
        <ele>1918</ele>
        <time>2013-01-26T10:52:21Z</time>
      </trkpt>
      <trkpt lat="45.34662" lon="5.87539">
        <ele>1919</ele>
        <time>2013-01-26T10:52:26Z</time>
      </trkpt>
      <trkpt lat="45.3466" lon="5.87538">
        <ele>1919</ele>
        <time>2013-01-26T10:52:31Z</time>
      </trkpt>
      <trkpt lat="45.34659" lon="5.87536">
        <ele>1920</ele>
        <time>2013-01-26T10:52:36Z</time>
      </trkpt>
      <trkpt lat="45.34656" lon="5.87534">
        <ele>1921</ele>
        <time>2013-01-26T10:52:41Z</time>
      </trkpt>
      <trkpt lat="45.34655" lon="5.87532">
        <ele>1922</ele>
        <time>2013-01-26T10:52:46Z</time>
      </trkpt>
      <trkpt lat="45.34653" lon="5.87531">
        <ele>1923</ele>
        <time>2013-01-26T10:52:51Z</time>
      </trkpt>
      <trkpt lat="45.34651" lon="5.87529">
        <ele>1924</ele>
        <time>2013-01-26T10:52:56Z</time>
      </trkpt>
      <trkpt lat="45.34649" lon="5.87527">
        <ele>1924</ele>
        <time>2013-01-26T10:53:01Z</time>
      </trkpt>
      <trkpt lat="45.34646" lon="5.87526">
        <ele>1925</ele>
        <time>2013-01-26T10:53:06Z</time>
      </trkpt>
      <trkpt lat="45.34644" lon="5.87525">
        <ele>1926</ele>
        <time>2013-01-26T10:53:11Z</time>
      </trkpt>
      <trkpt lat="45.34642" lon="5.87523">
        <ele>1926</ele>
        <time>2013-01-26T10:53:16Z</time>
      </trkpt>
      <trkpt lat="45.3464" lon="5.87522">
        <ele>1927</ele>
        <time>2013-01-26T10:53:21Z</time>
      </trkpt>
      <trkpt lat="45.34638" lon="5.87521">
        <ele>1928</ele>
        <time>2013-01-26T10:53:26Z</time>
      </trkpt>
      <trkpt lat="45.34636" lon="5.87519">
        <ele>1929</ele>
        <time>2013-01-26T10:53:31Z</time>
      </trkpt>
      <trkpt lat="45.34634" lon="5.87518">
        <ele>1930</ele>
        <time>2013-01-26T10:53:36Z</time>
      </trkpt>
      <trkpt lat="45.34633" lon="5.87518">
        <ele>1931</ele>
        <time>2013-01-26T10:53:41Z</time>
      </trkpt>
      <trkpt lat="45.34634" lon="5.87515">
        <ele>1929</ele>
        <time>2013-01-26T10:53:46Z</time>
      </trkpt>
      <trkpt lat="45.34634" lon="5.87515">
        <ele>1928</ele>
        <time>2013-01-26T10:53:51Z</time>
      </trkpt>
      <trkpt lat="45.34634" lon="5.87515">
        <ele>1928</ele>
        <time>2013-01-26T10:53:56Z</time>
      </trkpt>
      <trkpt lat="45.34634" lon="5.87515">
        <ele>1927</ele>
        <time>2013-01-26T10:54:01Z</time>
      </trkpt>
      <trkpt lat="45.34637" lon="5.87514">
        <ele>1927</ele>
        <time>2013-01-26T10:54:06Z</time>
      </trkpt>
      <trkpt lat="45.34639" lon="5.87512">
        <ele>1928</ele>
        <time>2013-01-26T10:54:11Z</time>
      </trkpt>
      <trkpt lat="45.34642" lon="5.87511">
        <ele>1928</ele>
        <time>2013-01-26T10:54:16Z</time>
      </trkpt>
      <trkpt lat="45.34644" lon="5.8751">
        <ele>1929</ele>
        <time>2013-01-26T10:54:21Z</time>
      </trkpt>
      <trkpt lat="45.34647" lon="5.87509">
        <ele>1930</ele>
        <time>2013-01-26T10:54:26Z</time>
      </trkpt>
      <trkpt lat="45.34649" lon="5.87508">
        <ele>1930</ele>
        <time>2013-01-26T10:54:31Z</time>
      </trkpt>
      <trkpt lat="45.34647" lon="5.87508">
        <ele>1931</ele>
        <time>2013-01-26T10:54:36Z</time>
      </trkpt>
      <trkpt lat="45.34645" lon="5.87508">
        <ele>1932</ele>
        <time>2013-01-26T10:54:41Z</time>
      </trkpt>
      <trkpt lat="45.34642" lon="5.87507">
        <ele>1932</ele>
        <time>2013-01-26T10:54:46Z</time>
      </trkpt>
      <trkpt lat="45.34639" lon="5.87506">
        <ele>1933</ele>
        <time>2013-01-26T10:54:51Z</time>
      </trkpt>
      <trkpt lat="45.34636" lon="5.87505">
        <ele>1934</ele>
        <time>2013-01-26T10:54:56Z</time>
      </trkpt>
      <trkpt lat="45.34634" lon="5.87504">
        <ele>1934</ele>
        <time>2013-01-26T10:55:01Z</time>
      </trkpt>
      <trkpt lat="45.34633" lon="5.87503">
        <ele>1935</ele>
        <time>2013-01-26T10:55:06Z</time>
      </trkpt>
      <trkpt lat="45.34634" lon="5.87502">
        <ele>1935</ele>
        <time>2013-01-26T10:55:11Z</time>
      </trkpt>
      <trkpt lat="45.34637" lon="5.875">
        <ele>1935</ele>
        <time>2013-01-26T10:55:16Z</time>
      </trkpt>
      <trkpt lat="45.34639" lon="5.87499">
        <ele>1936</ele>
        <time>2013-01-26T10:55:21Z</time>
      </trkpt>
      <trkpt lat="45.34642" lon="5.87498">
        <ele>1936</ele>
        <time>2013-01-26T10:55:26Z</time>
      </trkpt>
      <trkpt lat="45.34645" lon="5.87496">
        <ele>1937</ele>
        <time>2013-01-26T10:55:31Z</time>
      </trkpt>
      <trkpt lat="45.34648" lon="5.87496">
        <ele>1938</ele>
        <time>2013-01-26T10:55:36Z</time>
      </trkpt>
      <trkpt lat="45.3465" lon="5.87495">
        <ele>1939</ele>
        <time>2013-01-26T10:55:41Z</time>
      </trkpt>
      <trkpt lat="45.3465" lon="5.87494">
        <ele>1939</ele>
        <time>2013-01-26T10:55:46Z</time>
      </trkpt>
      <trkpt lat="45.34649" lon="5.87493">
        <ele>1940</ele>
        <time>2013-01-26T10:55:51Z</time>
      </trkpt>
      <trkpt lat="45.34646" lon="5.87492">
        <ele>1941</ele>
        <time>2013-01-26T10:55:56Z</time>
      </trkpt>
      <trkpt lat="45.34643" lon="5.87492">
        <ele>1941</ele>
        <time>2013-01-26T10:56:01Z</time>
      </trkpt>
      <trkpt lat="45.3464" lon="5.87491">
        <ele>1942</ele>
        <time>2013-01-26T10:56:06Z</time>
      </trkpt>
      <trkpt lat="45.34638" lon="5.87489">
        <ele>1943</ele>
        <time>2013-01-26T10:56:11Z</time>
      </trkpt>
      <trkpt lat="45.34635" lon="5.87488">
        <ele>1944</ele>
        <time>2013-01-26T10:56:16Z</time>
      </trkpt>
      <trkpt lat="45.34633" lon="5.87487">
        <ele>1944</ele>
        <time>2013-01-26T10:56:21Z</time>
      </trkpt>
      <trkpt lat="45.3463" lon="5.87486">
        <ele>1945</ele>
        <time>2013-01-26T10:56:26Z</time>
      </trkpt>
      <trkpt lat="45.34628" lon="5.87486">
        <ele>1946</ele>
        <time>2013-01-26T10:56:31Z</time>
      </trkpt>
      <trkpt lat="45.34627" lon="5.87486">
        <ele>1946</ele>
        <time>2013-01-26T10:56:36Z</time>
      </trkpt>
      <trkpt lat="45.34628" lon="5.87485">
        <ele>1946</ele>
        <time>2013-01-26T10:56:41Z</time>
      </trkpt>
      <trkpt lat="45.3463" lon="5.87484">
        <ele>1947</ele>
        <time>2013-01-26T10:56:46Z</time>
      </trkpt>
      <trkpt lat="45.34632" lon="5.87482">
        <ele>1947</ele>
        <time>2013-01-26T10:56:51Z</time>
      </trkpt>
      <trkpt lat="45.34634" lon="5.8748">
        <ele>1948</ele>
        <time>2013-01-26T10:56:56Z</time>
      </trkpt>
      <trkpt lat="45.34636" lon="5.87479">
        <ele>1949</ele>
        <time>2013-01-26T10:57:01Z</time>
      </trkpt>
      <trkpt lat="45.34639" lon="5.87477">
        <ele>1950</ele>
        <time>2013-01-26T10:57:06Z</time>
      </trkpt>
      <trkpt lat="45.34641" lon="5.87476">
        <ele>1951</ele>
        <time>2013-01-26T10:57:11Z</time>
      </trkpt>
      <trkpt lat="45.34644" lon="5.87474">
        <ele>1952</ele>
        <time>2013-01-26T10:57:16Z</time>
      </trkpt>
      <trkpt lat="45.34646" lon="5.87473">
        <ele>1952</ele>
        <time>2013-01-26T10:57:21Z</time>
      </trkpt>
      <trkpt lat="45.34648" lon="5.87472">
        <ele>1953</ele>
        <time>2013-01-26T10:57:26Z</time>
      </trkpt>
      <trkpt lat="45.34648" lon="5.87472">
        <ele>1954</ele>
        <time>2013-01-26T10:57:31Z</time>
      </trkpt>
      <trkpt lat="45.34646" lon="5.8747">
        <ele>1954</ele>
        <time>2013-01-26T10:57:36Z</time>
      </trkpt>
      <trkpt lat="45.34644" lon="5.87469">
        <ele>1955</ele>
        <time>2013-01-26T10:57:41Z</time>
      </trkpt>
      <trkpt lat="45.34641" lon="5.87469">
        <ele>1956</ele>
        <time>2013-01-26T10:57:46Z</time>
      </trkpt>
      <trkpt lat="45.34639" lon="5.87467">
        <ele>1956</ele>
        <time>2013-01-26T10:57:51Z</time>
      </trkpt>
      <trkpt lat="45.34638" lon="5.87466">
        <ele>1957</ele>
        <time>2013-01-26T10:57:56Z</time>
      </trkpt>
      <trkpt lat="45.34636" lon="5.87466">
        <ele>1958</ele>
        <time>2013-01-26T10:58:01Z</time>
      </trkpt>
      <trkpt lat="45.34635" lon="5.87465">
        <ele>1958</ele>
        <time>2013-01-26T10:58:06Z</time>
      </trkpt>
      <trkpt lat="45.34632" lon="5.87464">
        <ele>1959</ele>
        <time>2013-01-26T10:58:11Z</time>
      </trkpt>
      <trkpt lat="45.3463" lon="5.87463">
        <ele>1960</ele>
        <time>2013-01-26T10:58:16Z</time>
      </trkpt>
      <trkpt lat="45.34628" lon="5.87462">
        <ele>1960</ele>
        <time>2013-01-26T10:58:21Z</time>
      </trkpt>
      <trkpt lat="45.34625" lon="5.87461">
        <ele>1961</ele>
        <time>2013-01-26T10:58:26Z</time>
      </trkpt>
      <trkpt lat="45.34623" lon="5.8746">
        <ele>1961</ele>
        <time>2013-01-26T10:58:31Z</time>
      </trkpt>
      <trkpt lat="45.34622" lon="5.8746">
        <ele>1961</ele>
        <time>2013-01-26T10:58:36Z</time>
      </trkpt>
      <trkpt lat="45.34623" lon="5.87458">
        <ele>1961</ele>
        <time>2013-01-26T10:58:41Z</time>
      </trkpt>
      <trkpt lat="45.34624" lon="5.87456">
        <ele>1961</ele>
        <time>2013-01-26T10:58:46Z</time>
      </trkpt>
      <trkpt lat="45.34626" lon="5.87454">
        <ele>1962</ele>
        <time>2013-01-26T10:58:51Z</time>
      </trkpt>
      <trkpt lat="45.34629" lon="5.87453">
        <ele>1963</ele>
        <time>2013-01-26T10:58:56Z</time>
      </trkpt>
      <trkpt lat="45.34631" lon="5.87452">
        <ele>1964</ele>
        <time>2013-01-26T10:59:01Z</time>
      </trkpt>
      <trkpt lat="45.34633" lon="5.87451">
        <ele>1965</ele>
        <time>2013-01-26T10:59:06Z</time>
      </trkpt>
      <trkpt lat="45.34634" lon="5.87451">
        <ele>1965</ele>
        <time>2013-01-26T10:59:11Z</time>
      </trkpt>
      <trkpt lat="45.34633" lon="5.87451">
        <ele>1965</ele>
        <time>2013-01-26T10:59:16Z</time>
      </trkpt>
      <trkpt lat="45.34633" lon="5.87451">
        <ele>1966</ele>
        <time>2013-01-26T10:59:21Z</time>
      </trkpt>
      <trkpt lat="45.34631" lon="5.8745">
        <ele>1966</ele>
        <time>2013-01-26T10:59:26Z</time>
      </trkpt>
      <trkpt lat="45.34628" lon="5.8745">
        <ele>1966</ele>
        <time>2013-01-26T10:59:31Z</time>
      </trkpt>
      <trkpt lat="45.34625" lon="5.87449">
        <ele>1967</ele>
        <time>2013-01-26T10:59:36Z</time>
      </trkpt>
      <trkpt lat="45.34626" lon="5.87448">
        <ele>1967</ele>
        <time>2013-01-26T10:59:41Z</time>
      </trkpt>
      <trkpt lat="45.34626" lon="5.87448">
        <ele>1967</ele>
        <time>2013-01-26T10:59:46Z</time>
      </trkpt>
      <trkpt lat="45.34628" lon="5.87447">
        <ele>1967</ele>
        <time>2013-01-26T10:59:51Z</time>
      </trkpt>
      <trkpt lat="45.34629" lon="5.87447">
        <ele>1968</ele>
        <time>2013-01-26T10:59:56Z</time>
      </trkpt>
      <trkpt lat="45.3463" lon="5.87447">
        <ele>1968</ele>
        <time>2013-01-26T11:00:01Z</time>
      </trkpt>
      <trkpt lat="45.34629" lon="5.87446">
        <ele>1969</ele>
        <time>2013-01-26T11:00:06Z</time>
      </trkpt>
      <trkpt lat="45.34628" lon="5.87445">
        <ele>1969</ele>
        <time>2013-01-26T11:00:11Z</time>
      </trkpt>
      <trkpt lat="45.34626" lon="5.87444">
        <ele>1970</ele>
        <time>2013-01-26T11:00:16Z</time>
      </trkpt>
      <trkpt lat="45.34624" lon="5.87443">
        <ele>1971</ele>
        <time>2013-01-26T11:00:21Z</time>
      </trkpt>
      <trkpt lat="45.34622" lon="5.87441">
        <ele>1970</ele>
        <time>2013-01-26T11:00:26Z</time>
      </trkpt>
      <trkpt lat="45.3462" lon="5.8744">
        <ele>1970</ele>
        <time>2013-01-26T11:00:31Z</time>
      </trkpt>
      <trkpt lat="45.34617" lon="5.8744">
        <ele>1971</ele>
        <time>2013-01-26T11:00:36Z</time>
      </trkpt>
      <trkpt lat="45.34615" lon="5.87441">
        <ele>1971</ele>
        <time>2013-01-26T11:00:41Z</time>
      </trkpt>
      <trkpt lat="45.34613" lon="5.87442">
        <ele>1972</ele>
        <time>2013-01-26T11:00:46Z</time>
      </trkpt>
      <trkpt lat="45.34611" lon="5.87444">
        <ele>1972</ele>
        <time>2013-01-26T11:00:51Z</time>
      </trkpt>
      <trkpt lat="45.34611" lon="5.87443">
        <ele>1972</ele>
        <time>2013-01-26T11:00:56Z</time>
      </trkpt>
      <trkpt lat="45.34612" lon="5.8744">
        <ele>1973</ele>
        <time>2013-01-26T11:01:01Z</time>
      </trkpt>
      <trkpt lat="45.34614" lon="5.87437">
        <ele>1974</ele>
        <time>2013-01-26T11:01:06Z</time>
      </trkpt>
      <trkpt lat="45.34615" lon="5.87435">
        <ele>1974</ele>
        <time>2013-01-26T11:01:11Z</time>
      </trkpt>
      <trkpt lat="45.34617" lon="5.87432">
        <ele>1975</ele>
        <time>2013-01-26T11:01:16Z</time>
      </trkpt>
      <trkpt lat="45.34618" lon="5.8743">
        <ele>1975</ele>
        <time>2013-01-26T11:01:21Z</time>
      </trkpt>
      <trkpt lat="45.3462" lon="5.87428">
        <ele>1976</ele>
        <time>2013-01-26T11:01:26Z</time>
      </trkpt>
      <trkpt lat="45.34623" lon="5.87427">
        <ele>1976</ele>
        <time>2013-01-26T11:01:31Z</time>
      </trkpt>
      <trkpt lat="45.34625" lon="5.87426">
        <ele>1977</ele>
        <time>2013-01-26T11:01:36Z</time>
      </trkpt>
      <trkpt lat="45.34627" lon="5.87426">
        <ele>1977</ele>
        <time>2013-01-26T11:01:41Z</time>
      </trkpt>
      <trkpt lat="45.3463" lon="5.87426">
        <ele>1978</ele>
        <time>2013-01-26T11:01:46Z</time>
      </trkpt>
      <trkpt lat="45.34633" lon="5.87426">
        <ele>1979</ele>
        <time>2013-01-26T11:01:51Z</time>
      </trkpt>
      <trkpt lat="45.34636" lon="5.87426">
        <ele>1979</ele>
        <time>2013-01-26T11:01:56Z</time>
      </trkpt>
      <trkpt lat="45.34639" lon="5.87425">
        <ele>1980</ele>
        <time>2013-01-26T11:02:01Z</time>
      </trkpt>
      <trkpt lat="45.34641" lon="5.87425">
        <ele>1981</ele>
        <time>2013-01-26T11:02:06Z</time>
      </trkpt>
      <trkpt lat="45.3464" lon="5.87424">
        <ele>1981</ele>
        <time>2013-01-26T11:02:11Z</time>
      </trkpt>
      <trkpt lat="45.34638" lon="5.87423">
        <ele>1982</ele>
        <time>2013-01-26T11:02:16Z</time>
      </trkpt>
      <trkpt lat="45.34636" lon="5.87421">
        <ele>1983</ele>
        <time>2013-01-26T11:02:21Z</time>
      </trkpt>
      <trkpt lat="45.34634" lon="5.87419">
        <ele>1984</ele>
        <time>2013-01-26T11:02:26Z</time>
      </trkpt>
      <trkpt lat="45.34633" lon="5.87417">
        <ele>1985</ele>
        <time>2013-01-26T11:02:31Z</time>
      </trkpt>
      <trkpt lat="45.3463" lon="5.87415">
        <ele>1986</ele>
        <time>2013-01-26T11:02:36Z</time>
      </trkpt>
      <trkpt lat="45.34628" lon="5.87413">
        <ele>1986</ele>
        <time>2013-01-26T11:02:41Z</time>
      </trkpt>
      <trkpt lat="45.34626" lon="5.87411">
        <ele>1987</ele>
        <time>2013-01-26T11:02:46Z</time>
      </trkpt>
      <trkpt lat="45.34624" lon="5.87409">
        <ele>1987</ele>
        <time>2013-01-26T11:02:51Z</time>
      </trkpt>
      <trkpt lat="45.34622" lon="5.87408">
        <ele>1988</ele>
        <time>2013-01-26T11:02:56Z</time>
      </trkpt>
      <trkpt lat="45.34619" lon="5.87407">
        <ele>1989</ele>
        <time>2013-01-26T11:03:01Z</time>
      </trkpt>
      <trkpt lat="45.34616" lon="5.87408">
        <ele>1989</ele>
        <time>2013-01-26T11:03:06Z</time>
      </trkpt>
      <trkpt lat="45.34615" lon="5.87408">
        <ele>1990</ele>
        <time>2013-01-26T11:03:11Z</time>
      </trkpt>
      <trkpt lat="45.34615" lon="5.87407">
        <ele>1990</ele>
        <time>2013-01-26T11:03:16Z</time>
      </trkpt>
      <trkpt lat="45.34616" lon="5.87405">
        <ele>1991</ele>
        <time>2013-01-26T11:03:21Z</time>
      </trkpt>
      <trkpt lat="45.34618" lon="5.87403">
        <ele>1991</ele>
        <time>2013-01-26T11:03:26Z</time>
      </trkpt>
      <trkpt lat="45.34619" lon="5.87402">
        <ele>1991</ele>
        <time>2013-01-26T11:03:31Z</time>
      </trkpt>
      <trkpt lat="45.34619" lon="5.87402">
        <ele>1991</ele>
        <time>2013-01-26T11:03:36Z</time>
      </trkpt>
      <trkpt lat="45.3462" lon="5.87401">
        <ele>1991</ele>
        <time>2013-01-26T11:03:41Z</time>
      </trkpt>
      <trkpt lat="45.3462" lon="5.87401">
        <ele>1991</ele>
        <time>2013-01-26T11:03:46Z</time>
      </trkpt>
      <trkpt lat="45.34623" lon="5.87399">
        <ele>1992</ele>
        <time>2013-01-26T11:03:51Z</time>
      </trkpt>
      <trkpt lat="45.34625" lon="5.87398">
        <ele>1992</ele>
        <time>2013-01-26T11:03:56Z</time>
      </trkpt>
      <trkpt lat="45.34627" lon="5.87398">
        <ele>1993</ele>
        <time>2013-01-26T11:04:01Z</time>
      </trkpt>
      <trkpt lat="45.3463" lon="5.87397">
        <ele>1994</ele>
        <time>2013-01-26T11:04:06Z</time>
      </trkpt>
      <trkpt lat="45.34633" lon="5.87396">
        <ele>1995</ele>
        <time>2013-01-26T11:04:11Z</time>
      </trkpt>
      <trkpt lat="45.34634" lon="5.87395">
        <ele>1996</ele>
        <time>2013-01-26T11:04:16Z</time>
      </trkpt>
      <trkpt lat="45.34637" lon="5.87394">
        <ele>1997</ele>
        <time>2013-01-26T11:04:21Z</time>
      </trkpt>
      <trkpt lat="45.34639" lon="5.87394">
        <ele>1997</ele>
        <time>2013-01-26T11:04:26Z</time>
      </trkpt>
      <trkpt lat="45.34642" lon="5.87393">
        <ele>1998</ele>
        <time>2013-01-26T11:04:31Z</time>
      </trkpt>
      <trkpt lat="45.34645" lon="5.87393">
        <ele>1999</ele>
        <time>2013-01-26T11:04:36Z</time>
      </trkpt>
      <trkpt lat="45.34647" lon="5.87392">
        <ele>1999</ele>
        <time>2013-01-26T11:04:41Z</time>
      </trkpt>
      <trkpt lat="45.34651" lon="5.87391">
        <ele>2000</ele>
        <time>2013-01-26T11:04:46Z</time>
      </trkpt>
      <trkpt lat="45.34653" lon="5.8739">
        <ele>2001</ele>
        <time>2013-01-26T11:04:51Z</time>
      </trkpt>
      <trkpt lat="45.34655" lon="5.87389">
        <ele>2001</ele>
        <time>2013-01-26T11:04:56Z</time>
      </trkpt>
      <trkpt lat="45.34657" lon="5.87389">
        <ele>2002</ele>
        <time>2013-01-26T11:05:01Z</time>
      </trkpt>
      <trkpt lat="45.34656" lon="5.87388">
        <ele>2003</ele>
        <time>2013-01-26T11:05:06Z</time>
      </trkpt>
      <trkpt lat="45.34655" lon="5.87387">
        <ele>2003</ele>
        <time>2013-01-26T11:05:11Z</time>
      </trkpt>
      <trkpt lat="45.34652" lon="5.87386">
        <ele>2004</ele>
        <time>2013-01-26T11:05:16Z</time>
      </trkpt>
      <trkpt lat="45.34651" lon="5.87385">
        <ele>2005</ele>
        <time>2013-01-26T11:05:21Z</time>
      </trkpt>
      <trkpt lat="45.34649" lon="5.87384">
        <ele>2006</ele>
        <time>2013-01-26T11:05:26Z</time>
      </trkpt>
      <trkpt lat="45.34649" lon="5.87384">
        <ele>2006</ele>
        <time>2013-01-26T11:05:31Z</time>
      </trkpt>
      <trkpt lat="45.34649" lon="5.87384">
        <ele>2005</ele>
        <time>2013-01-26T11:05:36Z</time>
      </trkpt>
      <trkpt lat="45.34649" lon="5.87384">
        <ele>2005</ele>
        <time>2013-01-26T11:05:41Z</time>
      </trkpt>
      <trkpt lat="45.34649" lon="5.87384">
        <ele>2005</ele>
        <time>2013-01-26T11:05:46Z</time>
      </trkpt>
      <trkpt lat="45.34647" lon="5.87383">
        <ele>2005</ele>
        <time>2013-01-26T11:05:51Z</time>
      </trkpt>
      <trkpt lat="45.34645" lon="5.87381">
        <ele>2006</ele>
        <time>2013-01-26T11:05:56Z</time>
      </trkpt>
      <trkpt lat="45.34642" lon="5.87379">
        <ele>2007</ele>
        <time>2013-01-26T11:06:01Z</time>
      </trkpt>
      <trkpt lat="45.34639" lon="5.87377">
        <ele>2008</ele>
        <time>2013-01-26T11:06:06Z</time>
      </trkpt>
      <trkpt lat="45.34637" lon="5.87376">
        <ele>2008</ele>
        <time>2013-01-26T11:06:11Z</time>
      </trkpt>
      <trkpt lat="45.34635" lon="5.87375">
        <ele>2009</ele>
        <time>2013-01-26T11:06:16Z</time>
      </trkpt>
      <trkpt lat="45.34633" lon="5.87375">
        <ele>2010</ele>
        <time>2013-01-26T11:06:21Z</time>
      </trkpt>
      <trkpt lat="45.3463" lon="5.87374">
        <ele>2010</ele>
        <time>2013-01-26T11:06:26Z</time>
      </trkpt>
      <trkpt lat="45.34628" lon="5.87373">
        <ele>2012</ele>
        <time>2013-01-26T11:06:31Z</time>
      </trkpt>
      <trkpt lat="45.34627" lon="5.87372">
        <ele>2012</ele>
        <time>2013-01-26T11:06:36Z</time>
      </trkpt>
      <trkpt lat="45.34626" lon="5.87372">
        <ele>2013</ele>
        <time>2013-01-26T11:06:41Z</time>
      </trkpt>
      <trkpt lat="45.34626" lon="5.87371">
        <ele>2013</ele>
        <time>2013-01-26T11:06:46Z</time>
      </trkpt>
      <trkpt lat="45.34628" lon="5.8737">
        <ele>2013</ele>
        <time>2013-01-26T11:06:51Z</time>
      </trkpt>
      <trkpt lat="45.34628" lon="5.87369">
        <ele>2014</ele>
        <time>2013-01-26T11:06:56Z</time>
      </trkpt>
      <trkpt lat="45.34626" lon="5.87368">
        <ele>2014</ele>
        <time>2013-01-26T11:07:01Z</time>
      </trkpt>
      <trkpt lat="45.34624" lon="5.87366">
        <ele>2016</ele>
        <time>2013-01-26T11:07:06Z</time>
      </trkpt>
      <trkpt lat="45.34622" lon="5.87364">
        <ele>2016</ele>
        <time>2013-01-26T11:07:11Z</time>
      </trkpt>
      <trkpt lat="45.34621" lon="5.87361">
        <ele>2017</ele>
        <time>2013-01-26T11:07:16Z</time>
      </trkpt>
      <trkpt lat="45.3462" lon="5.87358">
        <ele>2018</ele>
        <time>2013-01-26T11:07:21Z</time>
      </trkpt>
      <trkpt lat="45.34618" lon="5.87356">
        <ele>2019</ele>
        <time>2013-01-26T11:07:26Z</time>
      </trkpt>
      <trkpt lat="45.34616" lon="5.87355">
        <ele>2019</ele>
        <time>2013-01-26T11:07:31Z</time>
      </trkpt>
      <trkpt lat="45.34614" lon="5.87354">
        <ele>2020</ele>
        <time>2013-01-26T11:07:36Z</time>
      </trkpt>
      <trkpt lat="45.34612" lon="5.87353">
        <ele>2020</ele>
        <time>2013-01-26T11:07:41Z</time>
      </trkpt>
      <trkpt lat="45.34612" lon="5.87354">
        <ele>2020</ele>
        <time>2013-01-26T11:07:46Z</time>
      </trkpt>
      <trkpt lat="45.34612" lon="5.87354">
        <ele>2020</ele>
        <time>2013-01-26T11:07:51Z</time>
      </trkpt>
      <trkpt lat="45.34612" lon="5.87354">
        <ele>2021</ele>
        <time>2013-01-26T11:07:56Z</time>
      </trkpt>
      <trkpt lat="45.34612" lon="5.87354">
        <ele>2021</ele>
        <time>2013-01-26T11:08:01Z</time>
      </trkpt>
      <trkpt lat="45.34612" lon="5.87353">
        <ele>2021</ele>
        <time>2013-01-26T11:08:06Z</time>
      </trkpt>
      <trkpt lat="45.34612" lon="5.8735">
        <ele>2022</ele>
        <time>2013-01-26T11:08:11Z</time>
      </trkpt>
      <trkpt lat="45.34614" lon="5.87348">
        <ele>2023</ele>
        <time>2013-01-26T11:08:16Z</time>
      </trkpt>
      <trkpt lat="45.34615" lon="5.87347">
        <ele>2023</ele>
        <time>2013-01-26T11:08:21Z</time>
      </trkpt>
      <trkpt lat="45.34615" lon="5.87344">
        <ele>2024</ele>
        <time>2013-01-26T11:08:26Z</time>
      </trkpt>
      <trkpt lat="45.34616" lon="5.87342">
        <ele>2025</ele>
        <time>2013-01-26T11:08:31Z</time>
      </trkpt>
      <trkpt lat="45.34616" lon="5.8734">
        <ele>2026</ele>
        <time>2013-01-26T11:08:36Z</time>
      </trkpt>
      <trkpt lat="45.34617" lon="5.87341">
        <ele>2026</ele>
        <time>2013-01-26T11:08:41Z</time>
      </trkpt>
      <trkpt lat="45.3462" lon="5.87342">
        <ele>2027</ele>
        <time>2013-01-26T11:08:46Z</time>
      </trkpt>
      <trkpt lat="45.34622" lon="5.87343">
        <ele>2028</ele>
        <time>2013-01-26T11:08:51Z</time>
      </trkpt>
      <trkpt lat="45.34624" lon="5.87343">
        <ele>2029</ele>
        <time>2013-01-26T11:08:56Z</time>
      </trkpt>
      <trkpt lat="45.34625" lon="5.87344">
        <ele>2029</ele>
        <time>2013-01-26T11:09:01Z</time>
      </trkpt>
      <trkpt lat="45.34625" lon="5.87343">
        <ele>2029</ele>
        <time>2013-01-26T11:09:06Z</time>
      </trkpt>
      <trkpt lat="45.34624" lon="5.87342">
        <ele>2029</ele>
        <time>2013-01-26T11:09:11Z</time>
      </trkpt>
      <trkpt lat="45.34624" lon="5.87342">
        <ele>2030</ele>
        <time>2013-01-26T11:09:16Z</time>
      </trkpt>
      <trkpt lat="45.34623" lon="5.87339">
        <ele>2030</ele>
        <time>2013-01-26T11:09:21Z</time>
      </trkpt>
      <trkpt lat="45.34623" lon="5.87336">
        <ele>2031</ele>
        <time>2013-01-26T11:09:26Z</time>
      </trkpt>
      <trkpt lat="45.34623" lon="5.87334">
        <ele>2032</ele>
        <time>2013-01-26T11:09:31Z</time>
      </trkpt>
      <trkpt lat="45.34625" lon="5.87335">
        <ele>2033</ele>
        <time>2013-01-26T11:09:36Z</time>
      </trkpt>
      <trkpt lat="45.34626" lon="5.87335">
        <ele>2033</ele>
        <time>2013-01-26T11:09:41Z</time>
      </trkpt>
      <trkpt lat="45.34628" lon="5.87336">
        <ele>2034</ele>
        <time>2013-01-26T11:09:46Z</time>
      </trkpt>
      <trkpt lat="45.34628" lon="5.87334">
        <ele>2034</ele>
        <time>2013-01-26T11:09:51Z</time>
      </trkpt>
      <trkpt lat="45.34627" lon="5.87331">
        <ele>2035</ele>
        <time>2013-01-26T11:09:56Z</time>
      </trkpt>
      <trkpt lat="45.34627" lon="5.87328">
        <ele>2036</ele>
        <time>2013-01-26T11:10:01Z</time>
      </trkpt>
      <trkpt lat="45.34626" lon="5.87325">
        <ele>2036</ele>
        <time>2013-01-26T11:10:06Z</time>
      </trkpt>
      <trkpt lat="45.34627" lon="5.87325">
        <ele>2037</ele>
        <time>2013-01-26T11:10:11Z</time>
      </trkpt>
      <trkpt lat="45.34629" lon="5.87326">
        <ele>2038</ele>
        <time>2013-01-26T11:10:16Z</time>
      </trkpt>
      <trkpt lat="45.34629" lon="5.87327">
        <ele>2038</ele>
        <time>2013-01-26T11:10:21Z</time>
      </trkpt>
      <trkpt lat="45.34629" lon="5.87324">
        <ele>2038</ele>
        <time>2013-01-26T11:10:26Z</time>
      </trkpt>
      <trkpt lat="45.34629" lon="5.87321">
        <ele>2039</ele>
        <time>2013-01-26T11:10:31Z</time>
      </trkpt>
      <trkpt lat="45.34629" lon="5.8732">
        <ele>2039</ele>
        <time>2013-01-26T11:10:36Z</time>
      </trkpt>
      <trkpt lat="45.3463" lon="5.87321">
        <ele>2040</ele>
        <time>2013-01-26T11:10:41Z</time>
      </trkpt>
      <trkpt lat="45.34631" lon="5.87322">
        <ele>2040</ele>
        <time>2013-01-26T11:10:46Z</time>
      </trkpt>
      <trkpt lat="45.34632" lon="5.87323">
        <ele>2041</ele>
        <time>2013-01-26T11:10:51Z</time>
      </trkpt>
      <trkpt lat="45.34632" lon="5.87324">
        <ele>2041</ele>
        <time>2013-01-26T11:10:56Z</time>
      </trkpt>
      <trkpt lat="45.34632" lon="5.87324">
        <ele>2041</ele>
        <time>2013-01-26T11:11:01Z</time>
      </trkpt>
      <trkpt lat="45.34632" lon="5.87324">
        <ele>2041</ele>
        <time>2013-01-26T11:11:06Z</time>
      </trkpt>
      <trkpt lat="45.34632" lon="5.87322">
        <ele>2042</ele>
        <time>2013-01-26T11:11:11Z</time>
      </trkpt>
      <trkpt lat="45.34632" lon="5.8732">
        <ele>2042</ele>
        <time>2013-01-26T11:11:16Z</time>
      </trkpt>
      <trkpt lat="45.34631" lon="5.87316">
        <ele>2043</ele>
        <time>2013-01-26T11:11:21Z</time>
      </trkpt>
      <trkpt lat="45.34629" lon="5.87313">
        <ele>2044</ele>
        <time>2013-01-26T11:11:26Z</time>
      </trkpt>
      <trkpt lat="45.34629" lon="5.87311">
        <ele>2044</ele>
        <time>2013-01-26T11:11:31Z</time>
      </trkpt>
      <trkpt lat="45.34629" lon="5.87311">
        <ele>2044</ele>
        <time>2013-01-26T11:11:36Z</time>
      </trkpt>
      <trkpt lat="45.34629" lon="5.87311">
        <ele>2044</ele>
        <time>2013-01-26T11:11:41Z</time>
      </trkpt>
      <trkpt lat="45.34628" lon="5.87311">
        <ele>2044</ele>
        <time>2013-01-26T11:11:46Z</time>
      </trkpt>
      <trkpt lat="45.34629" lon="5.87311">
        <ele>2044</ele>
        <time>2013-01-26T11:11:51Z</time>
      </trkpt>
      <trkpt lat="45.3463" lon="5.87311">
        <ele>2045</ele>
        <time>2013-01-26T11:11:56Z</time>
      </trkpt>
      <trkpt lat="45.34632" lon="5.87312">
        <ele>2046</ele>
        <time>2013-01-26T11:12:01Z</time>
      </trkpt>
      <trkpt lat="45.34634" lon="5.87313">
        <ele>2046</ele>
        <time>2013-01-26T11:12:06Z</time>
      </trkpt>
      <trkpt lat="45.34636" lon="5.87315">
        <ele>2047</ele>
        <time>2013-01-26T11:12:11Z</time>
      </trkpt>
      <trkpt lat="45.34638" lon="5.87316">
        <ele>2048</ele>
        <time>2013-01-26T11:12:16Z</time>
      </trkpt>
      <trkpt lat="45.3464" lon="5.87318">
        <ele>2048</ele>
        <time>2013-01-26T11:12:21Z</time>
      </trkpt>
      <trkpt lat="45.34641" lon="5.87318">
        <ele>2049</ele>
        <time>2013-01-26T11:12:26Z</time>
      </trkpt>
      <trkpt lat="45.34642" lon="5.87318">
        <ele>2049</ele>
        <time>2013-01-26T11:12:31Z</time>
      </trkpt>
      <trkpt lat="45.34641" lon="5.87316">
        <ele>2050</ele>
        <time>2013-01-26T11:12:36Z</time>
      </trkpt>
      <trkpt lat="45.34641" lon="5.87313">
        <ele>2050</ele>
        <time>2013-01-26T11:12:41Z</time>
      </trkpt>
      <trkpt lat="45.34642" lon="5.87313">
        <ele>2051</ele>
        <time>2013-01-26T11:12:46Z</time>
      </trkpt>
      <trkpt lat="45.34642" lon="5.87313">
        <ele>2051</ele>
        <time>2013-01-26T11:12:51Z</time>
      </trkpt>
      <trkpt lat="45.34643" lon="5.87313">
        <ele>2051</ele>
        <time>2013-01-26T11:12:56Z</time>
      </trkpt>
      <trkpt lat="45.34644" lon="5.87313">
        <ele>2051</ele>
        <time>2013-01-26T11:13:01Z</time>
      </trkpt>
      <trkpt lat="45.34645" lon="5.87313">
        <ele>2051</ele>
        <time>2013-01-26T11:13:06Z</time>
      </trkpt>
      <trkpt lat="45.34644" lon="5.87311">
        <ele>2052</ele>
        <time>2013-01-26T11:13:11Z</time>
      </trkpt>
      <trkpt lat="45.34642" lon="5.8731">
        <ele>2052</ele>
        <time>2013-01-26T11:13:16Z</time>
      </trkpt>
      <trkpt lat="45.34642" lon="5.8731">
        <ele>2052</ele>
        <time>2013-01-26T11:13:21Z</time>
      </trkpt>
      <trkpt lat="45.34642" lon="5.8731">
        <ele>2052</ele>
        <time>2013-01-26T11:13:26Z</time>
      </trkpt>
      <trkpt lat="45.34642" lon="5.8731">
        <ele>2052</ele>
        <time>2013-01-26T11:13:31Z</time>
      </trkpt>
      <trkpt lat="45.34642" lon="5.8731">
        <ele>2052</ele>
        <time>2013-01-26T11:13:36Z</time>
      </trkpt>
      <trkpt lat="45.34642" lon="5.8731">
        <ele>2052</ele>
        <time>2013-01-26T11:13:41Z</time>
      </trkpt>
      <trkpt lat="45.34642" lon="5.8731">
        <ele>2052</ele>
        <time>2013-01-26T11:13:46Z</time>
      </trkpt>
      <trkpt lat="45.34642" lon="5.8731">
        <ele>2052</ele>
        <time>2013-01-26T11:13:51Z</time>
      </trkpt>
      <trkpt lat="45.34642" lon="5.8731">
        <ele>2052</ele>
        <time>2013-01-26T11:13:56Z</time>
      </trkpt>
      <trkpt lat="45.34642" lon="5.8731">
        <ele>2052</ele>
        <time>2013-01-26T11:14:01Z</time>
      </trkpt>
      <trkpt lat="45.34642" lon="5.8731">
        <ele>2053</ele>
        <time>2013-01-26T11:14:06Z</time>
      </trkpt>
      <trkpt lat="45.34642" lon="5.8731">
        <ele>2053</ele>
        <time>2013-01-26T11:14:11Z</time>
      </trkpt>
      <trkpt lat="45.34642" lon="5.8731">
        <ele>2053</ele>
        <time>2013-01-26T11:14:16Z</time>
      </trkpt>
      <trkpt lat="45.34642" lon="5.8731">
        <ele>2053</ele>
        <time>2013-01-26T11:14:21Z</time>
      </trkpt>
      <trkpt lat="45.34642" lon="5.8731">
        <ele>2053</ele>
        <time>2013-01-26T11:14:26Z</time>
      </trkpt>
      <trkpt lat="45.34642" lon="5.87309">
        <ele>2053</ele>
        <time>2013-01-26T11:14:31Z</time>
      </trkpt>
      <trkpt lat="45.34642" lon="5.87309">
        <ele>2053</ele>
        <time>2013-01-26T11:14:36Z</time>
      </trkpt>
      <trkpt lat="45.34642" lon="5.87309">
        <ele>2053</ele>
        <time>2013-01-26T11:14:41Z</time>
      </trkpt>
      <trkpt lat="45.34642" lon="5.87309">
        <ele>2053</ele>
        <time>2013-01-26T11:14:46Z</time>
      </trkpt>
      <trkpt lat="45.34642" lon="5.87309">
        <ele>2053</ele>
        <time>2013-01-26T11:14:51Z</time>
      </trkpt>
      <trkpt lat="45.34642" lon="5.87309">
        <ele>2053</ele>
        <time>2013-01-26T11:14:56Z</time>
      </trkpt>
      <trkpt lat="45.34642" lon="5.87309">
        <ele>2053</ele>
        <time>2013-01-26T11:15:01Z</time>
      </trkpt>
      <trkpt lat="45.34642" lon="5.87309">
        <ele>2053</ele>
        <time>2013-01-26T11:15:06Z</time>
      </trkpt>
      <trkpt lat="45.34642" lon="5.87309">
        <ele>2053</ele>
        <time>2013-01-26T11:15:11Z</time>
      </trkpt>
      <trkpt lat="45.34642" lon="5.87309">
        <ele>2053</ele>
        <time>2013-01-26T11:15:16Z</time>
      </trkpt>
      <trkpt lat="45.34642" lon="5.87309">
        <ele>2053</ele>
        <time>2013-01-26T11:15:21Z</time>
      </trkpt>
      <trkpt lat="45.34642" lon="5.8731">
        <ele>2053</ele>
        <time>2013-01-26T11:15:26Z</time>
      </trkpt>
      <trkpt lat="45.34642" lon="5.8731">
        <ele>2053</ele>
        <time>2013-01-26T11:15:31Z</time>
      </trkpt>
      <trkpt lat="45.34642" lon="5.8731">
        <ele>2053</ele>
        <time>2013-01-26T11:15:36Z</time>
      </trkpt>
      <trkpt lat="45.34642" lon="5.8731">
        <ele>2054</ele>
        <time>2013-01-26T11:15:41Z</time>
      </trkpt>
      <trkpt lat="45.34642" lon="5.8731">
        <ele>2054</ele>
        <time>2013-01-26T11:15:46Z</time>
      </trkpt>
      <trkpt lat="45.34642" lon="5.87309">
        <ele>2054</ele>
        <time>2013-01-26T11:15:51Z</time>
      </trkpt>
      <trkpt lat="45.34642" lon="5.87309">
        <ele>2054</ele>
        <time>2013-01-26T11:15:56Z</time>
      </trkpt>
      <trkpt lat="45.34642" lon="5.8731">
        <ele>2053</ele>
        <time>2013-01-26T11:16:01Z</time>
      </trkpt>
      <trkpt lat="45.34642" lon="5.8731">
        <ele>2053</ele>
        <time>2013-01-26T11:16:06Z</time>
      </trkpt>
      <trkpt lat="45.34642" lon="5.8731">
        <ele>2053</ele>
        <time>2013-01-26T11:16:11Z</time>
      </trkpt>
      <trkpt lat="45.34642" lon="5.87311">
        <ele>2053</ele>
        <time>2013-01-26T11:16:16Z</time>
      </trkpt>
      <trkpt lat="45.34642" lon="5.87311">
        <ele>2053</ele>
        <time>2013-01-26T11:16:21Z</time>
      </trkpt>
      <trkpt lat="45.34642" lon="5.87311">
        <ele>2053</ele>
        <time>2013-01-26T11:16:26Z</time>
      </trkpt>
      <trkpt lat="45.34642" lon="5.87311">
        <ele>2053</ele>
        <time>2013-01-26T11:16:31Z</time>
      </trkpt>
      <trkpt lat="45.34642" lon="5.87311">
        <ele>2053</ele>
        <time>2013-01-26T11:16:36Z</time>
      </trkpt>
      <trkpt lat="45.34642" lon="5.87311">
        <ele>2053</ele>
        <time>2013-01-26T11:16:41Z</time>
      </trkpt>
      <trkpt lat="45.34642" lon="5.87311">
        <ele>2053</ele>
        <time>2013-01-26T11:16:46Z</time>
      </trkpt>
      <trkpt lat="45.34642" lon="5.87311">
        <ele>2054</ele>
        <time>2013-01-26T11:16:51Z</time>
      </trkpt>
      <trkpt lat="45.34642" lon="5.87311">
        <ele>2054</ele>
        <time>2013-01-26T11:16:56Z</time>
      </trkpt>
      <trkpt lat="45.34643" lon="5.87311">
        <ele>2053</ele>
        <time>2013-01-26T11:17:01Z</time>
      </trkpt>
      <trkpt lat="45.34645" lon="5.87313">
        <ele>2052</ele>
        <time>2013-01-26T11:17:06Z</time>
      </trkpt>
      <trkpt lat="45.34647" lon="5.87315">
        <ele>2052</ele>
        <time>2013-01-26T11:17:11Z</time>
      </trkpt>
      <trkpt lat="45.34651" lon="5.87316">
        <ele>2052</ele>
        <time>2013-01-26T11:17:16Z</time>
      </trkpt>
      <trkpt lat="45.34654" lon="5.87316">
        <ele>2052</ele>
        <time>2013-01-26T11:17:21Z</time>
      </trkpt>
      <trkpt lat="45.34657" lon="5.87316">
        <ele>2053</ele>
        <time>2013-01-26T11:17:26Z</time>
      </trkpt>
      <trkpt lat="45.34659" lon="5.87315">
        <ele>2053</ele>
        <time>2013-01-26T11:17:31Z</time>
      </trkpt>
      <trkpt lat="45.34663" lon="5.87316">
        <ele>2053</ele>
        <time>2013-01-26T11:17:36Z</time>
      </trkpt>
      <trkpt lat="45.34666" lon="5.87318">
        <ele>2053</ele>
        <time>2013-01-26T11:17:41Z</time>
      </trkpt>
      <trkpt lat="45.3467" lon="5.8732">
        <ele>2053</ele>
        <time>2013-01-26T11:17:46Z</time>
      </trkpt>
      <trkpt lat="45.34672" lon="5.8732">
        <ele>2054</ele>
        <time>2013-01-26T11:17:51Z</time>
      </trkpt>
      <trkpt lat="45.34675" lon="5.87321">
        <ele>2053</ele>
        <time>2013-01-26T11:17:56Z</time>
      </trkpt>
      <trkpt lat="45.34678" lon="5.87322">
        <ele>2054</ele>
        <time>2013-01-26T11:18:01Z</time>
      </trkpt>
      <trkpt lat="45.34681" lon="5.87322">
        <ele>2054</ele>
        <time>2013-01-26T11:18:06Z</time>
      </trkpt>
      <trkpt lat="45.34683" lon="5.87321">
        <ele>2055</ele>
        <time>2013-01-26T11:18:11Z</time>
      </trkpt>
      <trkpt lat="45.34686" lon="5.87322">
        <ele>2055</ele>
        <time>2013-01-26T11:18:16Z</time>
      </trkpt>
      <trkpt lat="45.34689" lon="5.87322">
        <ele>2055</ele>
        <time>2013-01-26T11:18:21Z</time>
      </trkpt>
      <trkpt lat="45.34691" lon="5.87323">
        <ele>2056</ele>
        <time>2013-01-26T11:18:26Z</time>
      </trkpt>
      <trkpt lat="45.34688" lon="5.87324">
        <ele>2049</ele>
        <time>2013-01-26T11:50:16Z</time>
      </trkpt>
      <trkpt lat="45.34691" lon="5.87326">
        <ele>2047</ele>
        <time>2013-01-26T11:53:26Z</time>
      </trkpt>
      <trkpt lat="45.34703" lon="5.87335">
        <ele>2042</ele>
        <time>2013-01-26T11:53:31Z</time>
      </trkpt>
      <trkpt lat="45.34729" lon="5.87349">
        <ele>2035</ele>
        <time>2013-01-26T11:53:36Z</time>
      </trkpt>
      <trkpt lat="45.34749" lon="5.87364">
        <ele>2030</ele>
        <time>2013-01-26T11:53:41Z</time>
      </trkpt>
      <trkpt lat="45.34766" lon="5.87379">
        <ele>2024</ele>
        <time>2013-01-26T11:53:46Z</time>
      </trkpt>
      <trkpt lat="45.34782" lon="5.87395">
        <ele>2018</ele>
        <time>2013-01-26T11:53:51Z</time>
      </trkpt>
      <trkpt lat="45.34779" lon="5.87403">
        <ele>2013</ele>
        <time>2013-01-26T11:53:56Z</time>
      </trkpt>
      <trkpt lat="45.34782" lon="5.87409">
        <ele>2010</ele>
        <time>2013-01-26T11:54:01Z</time>
      </trkpt>
      <trkpt lat="45.3479" lon="5.87417">
        <ele>2008</ele>
        <time>2013-01-26T11:54:06Z</time>
      </trkpt>
      <trkpt lat="45.34799" lon="5.87423">
        <ele>2007</ele>
        <time>2013-01-26T11:54:11Z</time>
      </trkpt>
      <trkpt lat="45.34807" lon="5.87425">
        <ele>2006</ele>
        <time>2013-01-26T11:54:16Z</time>
      </trkpt>
      <trkpt lat="45.34807" lon="5.87425">
        <ele>2006</ele>
        <time>2013-01-26T11:54:21Z</time>
      </trkpt>
      <trkpt lat="45.34807" lon="5.87425">
        <ele>2006</ele>
        <time>2013-01-26T11:54:26Z</time>
      </trkpt>
      <trkpt lat="45.34807" lon="5.87425">
        <ele>2005</ele>
        <time>2013-01-26T11:54:31Z</time>
      </trkpt>
      <trkpt lat="45.34806" lon="5.87425">
        <ele>2005</ele>
        <time>2013-01-26T11:54:36Z</time>
      </trkpt>
      <trkpt lat="45.34806" lon="5.87425">
        <ele>2005</ele>
        <time>2013-01-26T11:54:41Z</time>
      </trkpt>
      <trkpt lat="45.34806" lon="5.87425">
        <ele>2005</ele>
        <time>2013-01-26T11:54:46Z</time>
      </trkpt>
      <trkpt lat="45.34806" lon="5.87425">
        <ele>2005</ele>
        <time>2013-01-26T11:54:51Z</time>
      </trkpt>
      <trkpt lat="45.34806" lon="5.87425">
        <ele>2005</ele>
        <time>2013-01-26T11:54:56Z</time>
      </trkpt>
      <trkpt lat="45.34806" lon="5.87424">
        <ele>2005</ele>
        <time>2013-01-26T11:55:01Z</time>
      </trkpt>
      <trkpt lat="45.34806" lon="5.87424">
        <ele>2005</ele>
        <time>2013-01-26T11:55:06Z</time>
      </trkpt>
      <trkpt lat="45.34805" lon="5.87424">
        <ele>2005</ele>
        <time>2013-01-26T11:55:11Z</time>
      </trkpt>
      <trkpt lat="45.34805" lon="5.87424">
        <ele>2006</ele>
        <time>2013-01-26T11:55:16Z</time>
      </trkpt>
      <trkpt lat="45.34805" lon="5.87424">
        <ele>2006</ele>
        <time>2013-01-26T11:55:21Z</time>
      </trkpt>
      <trkpt lat="45.34805" lon="5.87424">
        <ele>2006</ele>
        <time>2013-01-26T11:55:26Z</time>
      </trkpt>
      <trkpt lat="45.34805" lon="5.87424">
        <ele>2006</ele>
        <time>2013-01-26T11:55:31Z</time>
      </trkpt>
      <trkpt lat="45.34805" lon="5.87424">
        <ele>2006</ele>
        <time>2013-01-26T11:55:36Z</time>
      </trkpt>
      <trkpt lat="45.34805" lon="5.87424">
        <ele>2006</ele>
        <time>2013-01-26T11:55:41Z</time>
      </trkpt>
      <trkpt lat="45.34811" lon="5.87428">
        <ele>2004</ele>
        <time>2013-01-26T11:55:46Z</time>
      </trkpt>
      <trkpt lat="45.34825" lon="5.87442">
        <ele>1997</ele>
        <time>2013-01-26T11:55:51Z</time>
      </trkpt>
      <trkpt lat="45.34821" lon="5.87453">
        <ele>1989</ele>
        <time>2013-01-26T11:55:56Z</time>
      </trkpt>
      <trkpt lat="45.34822" lon="5.87476">
        <ele>1976</ele>
        <time>2013-01-26T11:56:01Z</time>
      </trkpt>
      <trkpt lat="45.34831" lon="5.87497">
        <ele>1964</ele>
        <time>2013-01-26T11:56:06Z</time>
      </trkpt>
      <trkpt lat="45.3484" lon="5.8752">
        <ele>1950</ele>
        <time>2013-01-26T11:56:11Z</time>
      </trkpt>
      <trkpt lat="45.34857" lon="5.87533">
        <ele>1941</ele>
        <time>2013-01-26T11:56:16Z</time>
      </trkpt>
      <trkpt lat="45.34861" lon="5.87551">
        <ele>1931</ele>
        <time>2013-01-26T11:56:21Z</time>
      </trkpt>
      <trkpt lat="45.34867" lon="5.8757">
        <ele>1919</ele>
        <time>2013-01-26T11:56:26Z</time>
      </trkpt>
      <trkpt lat="45.34881" lon="5.87582">
        <ele>1912</ele>
        <time>2013-01-26T11:56:31Z</time>
      </trkpt>
      <trkpt lat="45.34887" lon="5.87598">
        <ele>1900</ele>
        <time>2013-01-26T11:56:36Z</time>
      </trkpt>
      <trkpt lat="45.34887" lon="5.87616">
        <ele>1891</ele>
        <time>2013-01-26T11:56:41Z</time>
      </trkpt>
      <trkpt lat="45.34892" lon="5.8764">
        <ele>1879</ele>
        <time>2013-01-26T11:56:46Z</time>
      </trkpt>
      <trkpt lat="45.34897" lon="5.87665">
        <ele>1865</ele>
        <time>2013-01-26T11:56:51Z</time>
      </trkpt>
      <trkpt lat="45.34901" lon="5.87694">
        <ele>1852</ele>
        <time>2013-01-26T11:56:56Z</time>
      </trkpt>
      <trkpt lat="45.34905" lon="5.8772">
        <ele>1838</ele>
        <time>2013-01-26T11:57:01Z</time>
      </trkpt>
      <trkpt lat="45.34906" lon="5.87749">
        <ele>1825</ele>
        <time>2013-01-26T11:57:06Z</time>
      </trkpt>
      <trkpt lat="45.34897" lon="5.87772">
        <ele>1813</ele>
        <time>2013-01-26T11:57:11Z</time>
      </trkpt>
      <trkpt lat="45.34894" lon="5.87775">
        <ele>1810</ele>
        <time>2013-01-26T11:57:16Z</time>
      </trkpt>
      <trkpt lat="45.34894" lon="5.87775">
        <ele>1810</ele>
        <time>2013-01-26T11:57:21Z</time>
      </trkpt>
      <trkpt lat="45.34893" lon="5.87775">
        <ele>1811</ele>
        <time>2013-01-26T11:57:26Z</time>
      </trkpt>
      <trkpt lat="45.34893" lon="5.87776">
        <ele>1811</ele>
        <time>2013-01-26T11:57:31Z</time>
      </trkpt>
      <trkpt lat="45.34893" lon="5.87776">
        <ele>1811</ele>
        <time>2013-01-26T11:57:36Z</time>
      </trkpt>
      <trkpt lat="45.34892" lon="5.87776">
        <ele>1811</ele>
        <time>2013-01-26T11:57:41Z</time>
      </trkpt>
      <trkpt lat="45.34892" lon="5.87776">
        <ele>1811</ele>
        <time>2013-01-26T11:57:46Z</time>
      </trkpt>
      <trkpt lat="45.34892" lon="5.87776">
        <ele>1811</ele>
        <time>2013-01-26T11:57:51Z</time>
      </trkpt>
      <trkpt lat="45.34892" lon="5.87776">
        <ele>1811</ele>
        <time>2013-01-26T11:57:56Z</time>
      </trkpt>
      <trkpt lat="45.34892" lon="5.87776">
        <ele>1811</ele>
        <time>2013-01-26T11:58:01Z</time>
      </trkpt>
      <trkpt lat="45.34892" lon="5.87776">
        <ele>1811</ele>
        <time>2013-01-26T11:58:06Z</time>
      </trkpt>
      <trkpt lat="45.34892" lon="5.87776">
        <ele>1811</ele>
        <time>2013-01-26T11:58:11Z</time>
      </trkpt>
      <trkpt lat="45.34892" lon="5.87776">
        <ele>1811</ele>
        <time>2013-01-26T11:58:16Z</time>
      </trkpt>
      <trkpt lat="45.34892" lon="5.87776">
        <ele>1811</ele>
        <time>2013-01-26T11:58:21Z</time>
      </trkpt>
      <trkpt lat="45.34892" lon="5.87775">
        <ele>1811</ele>
        <time>2013-01-26T11:58:26Z</time>
      </trkpt>
      <trkpt lat="45.34892" lon="5.87775">
        <ele>1811</ele>
        <time>2013-01-26T11:58:31Z</time>
      </trkpt>
      <trkpt lat="45.34892" lon="5.87775">
        <ele>1811</ele>
        <time>2013-01-26T11:58:36Z</time>
      </trkpt>
      <trkpt lat="45.34892" lon="5.87775">
        <ele>1811</ele>
        <time>2013-01-26T11:58:41Z</time>
      </trkpt>
      <trkpt lat="45.34892" lon="5.87775">
        <ele>1811</ele>
        <time>2013-01-26T11:58:46Z</time>
      </trkpt>
      <trkpt lat="45.34892" lon="5.87775">
        <ele>1811</ele>
        <time>2013-01-26T11:58:51Z</time>
      </trkpt>
      <trkpt lat="45.34892" lon="5.87775">
        <ele>1811</ele>
        <time>2013-01-26T11:58:56Z</time>
      </trkpt>
      <trkpt lat="45.34892" lon="5.87775">
        <ele>1811</ele>
        <time>2013-01-26T11:59:01Z</time>
      </trkpt>
      <trkpt lat="45.34891" lon="5.87776">
        <ele>1811</ele>
        <time>2013-01-26T11:59:06Z</time>
      </trkpt>
      <trkpt lat="45.34884" lon="5.87776">
        <ele>1809</ele>
        <time>2013-01-26T11:59:11Z</time>
      </trkpt>
      <trkpt lat="45.34884" lon="5.87795">
        <ele>1801</ele>
        <time>2013-01-26T11:59:16Z</time>
      </trkpt>
      <trkpt lat="45.34889" lon="5.87828">
        <ele>1786</ele>
        <time>2013-01-26T11:59:21Z</time>
      </trkpt>
      <trkpt lat="45.34893" lon="5.87861">
        <ele>1773</ele>
        <time>2013-01-26T11:59:26Z</time>
      </trkpt>
      <trkpt lat="45.34896" lon="5.87893">
        <ele>1763</ele>
        <time>2013-01-26T11:59:31Z</time>
      </trkpt>
      <trkpt lat="45.34891" lon="5.87925">
        <ele>1755</ele>
        <time>2013-01-26T11:59:36Z</time>
      </trkpt>
      <trkpt lat="45.34881" lon="5.87955">
        <ele>1747</ele>
        <time>2013-01-26T11:59:41Z</time>
      </trkpt>
      <trkpt lat="45.34888" lon="5.87984">
        <ele>1740</ele>
        <time>2013-01-26T11:59:46Z</time>
      </trkpt>
      <trkpt lat="45.34892" lon="5.8802">
        <ele>1727</ele>
        <time>2013-01-26T11:59:51Z</time>
      </trkpt>
      <trkpt lat="45.34895" lon="5.8806">
        <ele>1718</ele>
        <time>2013-01-26T11:59:56Z</time>
      </trkpt>
      <trkpt lat="45.34908" lon="5.88075">
        <ele>1715</ele>
        <time>2013-01-26T12:00:01Z</time>
      </trkpt>
      <trkpt lat="45.3491" lon="5.88081">
        <ele>1708</ele>
        <time>2013-01-26T12:12:11Z</time>
      </trkpt>
      <trkpt lat="45.3491" lon="5.88082">
        <ele>1710</ele>
        <time>2013-01-26T12:12:16Z</time>
      </trkpt>
      <trkpt lat="45.3491" lon="5.88081">
        <ele>1710</ele>
        <time>2013-01-26T12:12:21Z</time>
      </trkpt>
      <trkpt lat="45.3491" lon="5.88083">
        <ele>1710</ele>
        <time>2013-01-26T12:12:26Z</time>
      </trkpt>
      <trkpt lat="45.34913" lon="5.88088">
        <ele>1710</ele>
        <time>2013-01-26T12:12:31Z</time>
      </trkpt>
      <trkpt lat="45.34918" lon="5.88093">
        <ele>1709</ele>
        <time>2013-01-26T12:12:36Z</time>
      </trkpt>
      <trkpt lat="45.34922" lon="5.88098">
        <ele>1709</ele>
        <time>2013-01-26T12:12:41Z</time>
      </trkpt>
      <trkpt lat="45.34929" lon="5.88105">
        <ele>1709</ele>
        <time>2013-01-26T12:12:46Z</time>
      </trkpt>
      <trkpt lat="45.34935" lon="5.88112">
        <ele>1708</ele>
        <time>2013-01-26T12:12:51Z</time>
      </trkpt>
      <trkpt lat="45.3494" lon="5.88116">
        <ele>1708</ele>
        <time>2013-01-26T12:12:56Z</time>
      </trkpt>
      <trkpt lat="45.34945" lon="5.8812">
        <ele>1708</ele>
        <time>2013-01-26T12:13:01Z</time>
      </trkpt>
      <trkpt lat="45.3495" lon="5.88122">
        <ele>1708</ele>
        <time>2013-01-26T12:13:06Z</time>
      </trkpt>
      <trkpt lat="45.34952" lon="5.88123">
        <ele>1708</ele>
        <time>2013-01-26T12:13:11Z</time>
      </trkpt>
      <trkpt lat="45.34957" lon="5.88125">
        <ele>1708</ele>
        <time>2013-01-26T12:13:16Z</time>
      </trkpt>
      <trkpt lat="45.34965" lon="5.88127">
        <ele>1707</ele>
        <time>2013-01-26T12:13:21Z</time>
      </trkpt>
      <trkpt lat="45.34971" lon="5.88125">
        <ele>1708</ele>
        <time>2013-01-26T12:13:26Z</time>
      </trkpt>
      <trkpt lat="45.34976" lon="5.88123">
        <ele>1708</ele>
        <time>2013-01-26T12:13:31Z</time>
      </trkpt>
      <trkpt lat="45.34983" lon="5.88121">
        <ele>1708</ele>
        <time>2013-01-26T12:13:36Z</time>
      </trkpt>
      <trkpt lat="45.34985" lon="5.8812">
        <ele>1709</ele>
        <time>2013-01-26T12:13:41Z</time>
      </trkpt>
      <trkpt lat="45.34987" lon="5.88119">
        <ele>1709</ele>
        <time>2013-01-26T12:13:46Z</time>
      </trkpt>
      <trkpt lat="45.3499" lon="5.88118">
        <ele>1710</ele>
        <time>2013-01-26T12:13:51Z</time>
      </trkpt>
      <trkpt lat="45.34993" lon="5.88117">
        <ele>1710</ele>
        <time>2013-01-26T12:13:56Z</time>
      </trkpt>
      <trkpt lat="45.34996" lon="5.88115">
        <ele>1710</ele>
        <time>2013-01-26T12:14:01Z</time>
      </trkpt>
      <trkpt lat="45.35" lon="5.88113">
        <ele>1711</ele>
        <time>2013-01-26T12:14:06Z</time>
      </trkpt>
      <trkpt lat="45.35003" lon="5.88112">
        <ele>1711</ele>
        <time>2013-01-26T12:14:11Z</time>
      </trkpt>
      <trkpt lat="45.35006" lon="5.88111">
        <ele>1712</ele>
        <time>2013-01-26T12:14:16Z</time>
      </trkpt>
      <trkpt lat="45.35008" lon="5.88111">
        <ele>1713</ele>
        <time>2013-01-26T12:14:21Z</time>
      </trkpt>
      <trkpt lat="45.35011" lon="5.88111">
        <ele>1713</ele>
        <time>2013-01-26T12:14:26Z</time>
      </trkpt>
      <trkpt lat="45.35014" lon="5.88111">
        <ele>1714</ele>
        <time>2013-01-26T12:14:31Z</time>
      </trkpt>
      <trkpt lat="45.35017" lon="5.8811">
        <ele>1714</ele>
        <time>2013-01-26T12:14:36Z</time>
      </trkpt>
      <trkpt lat="45.35021" lon="5.88109">
        <ele>1715</ele>
        <time>2013-01-26T12:14:41Z</time>
      </trkpt>
      <trkpt lat="45.35025" lon="5.88109">
        <ele>1714</ele>
        <time>2013-01-26T12:14:46Z</time>
      </trkpt>
      <trkpt lat="45.3503" lon="5.88111">
        <ele>1714</ele>
        <time>2013-01-26T12:14:51Z</time>
      </trkpt>
      <trkpt lat="45.35035" lon="5.88111">
        <ele>1713</ele>
        <time>2013-01-26T12:14:56Z</time>
      </trkpt>
      <trkpt lat="45.3504" lon="5.88109">
        <ele>1714</ele>
        <time>2013-01-26T12:15:01Z</time>
      </trkpt>
      <trkpt lat="45.35043" lon="5.88108">
        <ele>1714</ele>
        <time>2013-01-26T12:15:06Z</time>
      </trkpt>
      <trkpt lat="45.35046" lon="5.88106">
        <ele>1714</ele>
        <time>2013-01-26T12:15:11Z</time>
      </trkpt>
      <trkpt lat="45.35049" lon="5.88103">
        <ele>1715</ele>
        <time>2013-01-26T12:15:16Z</time>
      </trkpt>
      <trkpt lat="45.35052" lon="5.88101">
        <ele>1716</ele>
        <time>2013-01-26T12:15:21Z</time>
      </trkpt>
      <trkpt lat="45.35056" lon="5.88099">
        <ele>1716</ele>
        <time>2013-01-26T12:15:26Z</time>
      </trkpt>
      <trkpt lat="45.35059" lon="5.88098">
        <ele>1717</ele>
        <time>2013-01-26T12:15:31Z</time>
      </trkpt>
      <trkpt lat="45.35063" lon="5.88097">
        <ele>1717</ele>
        <time>2013-01-26T12:15:36Z</time>
      </trkpt>
      <trkpt lat="45.35066" lon="5.88095">
        <ele>1717</ele>
        <time>2013-01-26T12:15:41Z</time>
      </trkpt>
      <trkpt lat="45.35071" lon="5.88094">
        <ele>1718</ele>
        <time>2013-01-26T12:15:46Z</time>
      </trkpt>
      <trkpt lat="45.35075" lon="5.88093">
        <ele>1717</ele>
        <time>2013-01-26T12:15:51Z</time>
      </trkpt>
      <trkpt lat="45.3508" lon="5.88094">
        <ele>1717</ele>
        <time>2013-01-26T12:15:56Z</time>
      </trkpt>
      <trkpt lat="45.35084" lon="5.88097">
        <ele>1717</ele>
        <time>2013-01-26T12:16:01Z</time>
      </trkpt>
      <trkpt lat="45.35088" lon="5.881">
        <ele>1717</ele>
        <time>2013-01-26T12:16:06Z</time>
      </trkpt>
      <trkpt lat="45.35091" lon="5.88104">
        <ele>1718</ele>
        <time>2013-01-26T12:16:11Z</time>
      </trkpt>
      <trkpt lat="45.35095" lon="5.88106">
        <ele>1718</ele>
        <time>2013-01-26T12:16:16Z</time>
      </trkpt>
      <trkpt lat="45.35098" lon="5.88108">
        <ele>1719</ele>
        <time>2013-01-26T12:16:21Z</time>
      </trkpt>
      <trkpt lat="45.35101" lon="5.8811">
        <ele>1719</ele>
        <time>2013-01-26T12:16:26Z</time>
      </trkpt>
      <trkpt lat="45.35101" lon="5.8811">
        <ele>1719</ele>
        <time>2013-01-26T12:16:31Z</time>
      </trkpt>
      <trkpt lat="45.35101" lon="5.8811">
        <ele>1719</ele>
        <time>2013-01-26T12:16:36Z</time>
      </trkpt>
      <trkpt lat="45.35103" lon="5.88112">
        <ele>1719</ele>
        <time>2013-01-26T12:16:41Z</time>
      </trkpt>
      <trkpt lat="45.35103" lon="5.88112">
        <ele>1719</ele>
        <time>2013-01-26T12:16:46Z</time>
      </trkpt>
      <trkpt lat="45.35103" lon="5.88111">
        <ele>1719</ele>
        <time>2013-01-26T12:16:51Z</time>
      </trkpt>
      <trkpt lat="45.35106" lon="5.88113">
        <ele>1718</ele>
        <time>2013-01-26T12:16:56Z</time>
      </trkpt>
      <trkpt lat="45.35109" lon="5.88116">
        <ele>1718</ele>
        <time>2013-01-26T12:17:01Z</time>
      </trkpt>
      <trkpt lat="45.35113" lon="5.88118">
        <ele>1718</ele>
        <time>2013-01-26T12:17:06Z</time>
      </trkpt>
      <trkpt lat="45.35117" lon="5.88123">
        <ele>1718</ele>
        <time>2013-01-26T12:17:11Z</time>
      </trkpt>
      <trkpt lat="45.35121" lon="5.88125">
        <ele>1718</ele>
        <time>2013-01-26T12:17:16Z</time>
      </trkpt>
      <trkpt lat="45.35125" lon="5.88127">
        <ele>1718</ele>
        <time>2013-01-26T12:17:21Z</time>
      </trkpt>
      <trkpt lat="45.35128" lon="5.88129">
        <ele>1719</ele>
        <time>2013-01-26T12:17:26Z</time>
      </trkpt>
      <trkpt lat="45.35133" lon="5.88132">
        <ele>1719</ele>
        <time>2013-01-26T12:17:31Z</time>
      </trkpt>
      <trkpt lat="45.35136" lon="5.88136">
        <ele>1719</ele>
        <time>2013-01-26T12:17:36Z</time>
      </trkpt>
      <trkpt lat="45.35139" lon="5.88142">
        <ele>1719</ele>
        <time>2013-01-26T12:17:41Z</time>
      </trkpt>
      <trkpt lat="45.35144" lon="5.88147">
        <ele>1718</ele>
        <time>2013-01-26T12:17:46Z</time>
      </trkpt>
      <trkpt lat="45.3515" lon="5.8815">
        <ele>1717</ele>
        <time>2013-01-26T12:17:51Z</time>
      </trkpt>
      <trkpt lat="45.35154" lon="5.88151">
        <ele>1718</ele>
        <time>2013-01-26T12:17:56Z</time>
      </trkpt>
      <trkpt lat="45.3516" lon="5.88152">
        <ele>1717</ele>
        <time>2013-01-26T12:18:01Z</time>
      </trkpt>
      <trkpt lat="45.35168" lon="5.88152">
        <ele>1716</ele>
        <time>2013-01-26T12:18:06Z</time>
      </trkpt>
      <trkpt lat="45.35172" lon="5.88152">
        <ele>1716</ele>
        <time>2013-01-26T12:18:11Z</time>
      </trkpt>
      <trkpt lat="45.35178" lon="5.88153">
        <ele>1715</ele>
        <time>2013-01-26T12:18:16Z</time>
      </trkpt>
      <trkpt lat="45.35188" lon="5.88154">
        <ele>1713</ele>
        <time>2013-01-26T12:18:21Z</time>
      </trkpt>
      <trkpt lat="45.35193" lon="5.88155">
        <ele>1713</ele>
        <time>2013-01-26T12:18:26Z</time>
      </trkpt>
      <trkpt lat="45.35199" lon="5.88155">
        <ele>1712</ele>
        <time>2013-01-26T12:18:31Z</time>
      </trkpt>
      <trkpt lat="45.35209" lon="5.88155">
        <ele>1710</ele>
        <time>2013-01-26T12:18:36Z</time>
      </trkpt>
      <trkpt lat="45.35211" lon="5.88155">
        <ele>1710</ele>
        <time>2013-01-26T12:18:41Z</time>
      </trkpt>
      <trkpt lat="45.35214" lon="5.88153">
        <ele>1710</ele>
        <time>2013-01-26T12:18:46Z</time>
      </trkpt>
      <trkpt lat="45.35218" lon="5.88151">
        <ele>1710</ele>
        <time>2013-01-26T12:18:51Z</time>
      </trkpt>
      <trkpt lat="45.35222" lon="5.8815">
        <ele>1710</ele>
        <time>2013-01-26T12:18:56Z</time>
      </trkpt>
      <trkpt lat="45.35227" lon="5.88149">
        <ele>1710</ele>
        <time>2013-01-26T12:19:01Z</time>
      </trkpt>
      <trkpt lat="45.35233" lon="5.88147">
        <ele>1710</ele>
        <time>2013-01-26T12:19:06Z</time>
      </trkpt>
      <trkpt lat="45.35243" lon="5.88146">
        <ele>1708</ele>
        <time>2013-01-26T12:19:11Z</time>
      </trkpt>
      <trkpt lat="45.35256" lon="5.88148">
        <ele>1705</ele>
        <time>2013-01-26T12:19:16Z</time>
      </trkpt>
      <trkpt lat="45.35265" lon="5.88154">
        <ele>1704</ele>
        <time>2013-01-26T12:19:21Z</time>
      </trkpt>
      <trkpt lat="45.35272" lon="5.88163">
        <ele>1702</ele>
        <time>2013-01-26T12:19:26Z</time>
      </trkpt>
      <trkpt lat="45.35277" lon="5.88173">
        <ele>1701</ele>
        <time>2013-01-26T12:19:31Z</time>
      </trkpt>
      <trkpt lat="45.35281" lon="5.88179">
        <ele>1700</ele>
        <time>2013-01-26T12:19:36Z</time>
      </trkpt>
      <trkpt lat="45.35284" lon="5.88185">
        <ele>1700</ele>
        <time>2013-01-26T12:19:41Z</time>
      </trkpt>
      <trkpt lat="45.35288" lon="5.88194">
        <ele>1699</ele>
        <time>2013-01-26T12:19:46Z</time>
      </trkpt>
      <trkpt lat="45.35294" lon="5.88197">
        <ele>1699</ele>
        <time>2013-01-26T12:19:51Z</time>
      </trkpt>
      <trkpt lat="45.35297" lon="5.88199">
        <ele>1699</ele>
        <time>2013-01-26T12:19:56Z</time>
      </trkpt>
      <trkpt lat="45.35301" lon="5.88201">
        <ele>1700</ele>
        <time>2013-01-26T12:20:01Z</time>
      </trkpt>
      <trkpt lat="45.35305" lon="5.88203">
        <ele>1700</ele>
        <time>2013-01-26T12:20:06Z</time>
      </trkpt>
      <trkpt lat="45.35309" lon="5.88206">
        <ele>1701</ele>
        <time>2013-01-26T12:20:11Z</time>
      </trkpt>
      <trkpt lat="45.35313" lon="5.88212">
        <ele>1701</ele>
        <time>2013-01-26T12:20:16Z</time>
      </trkpt>
      <trkpt lat="45.35317" lon="5.88217">
        <ele>1702</ele>
        <time>2013-01-26T12:20:21Z</time>
      </trkpt>
      <trkpt lat="45.3532" lon="5.88221">
        <ele>1703</ele>
        <time>2013-01-26T12:20:26Z</time>
      </trkpt>
      <trkpt lat="45.35323" lon="5.88226">
        <ele>1703</ele>
        <time>2013-01-26T12:20:31Z</time>
      </trkpt>
      <trkpt lat="45.35326" lon="5.88232">
        <ele>1703</ele>
        <time>2013-01-26T12:20:36Z</time>
      </trkpt>
      <trkpt lat="45.3533" lon="5.88238">
        <ele>1703</ele>
        <time>2013-01-26T12:20:41Z</time>
      </trkpt>
      <trkpt lat="45.35333" lon="5.88244">
        <ele>1702</ele>
        <time>2013-01-26T12:20:46Z</time>
      </trkpt>
      <trkpt lat="45.35336" lon="5.8825">
        <ele>1702</ele>
        <time>2013-01-26T12:20:51Z</time>
      </trkpt>
      <trkpt lat="45.3534" lon="5.88259">
        <ele>1701</ele>
        <time>2013-01-26T12:20:56Z</time>
      </trkpt>
      <trkpt lat="45.35342" lon="5.88266">
        <ele>1701</ele>
        <time>2013-01-26T12:21:01Z</time>
      </trkpt>
      <trkpt lat="45.35346" lon="5.88274">
        <ele>1701</ele>
        <time>2013-01-26T12:21:06Z</time>
      </trkpt>
      <trkpt lat="45.35347" lon="5.88279">
        <ele>1701</ele>
        <time>2013-01-26T12:21:11Z</time>
      </trkpt>
      <trkpt lat="45.3535" lon="5.88283">
        <ele>1701</ele>
        <time>2013-01-26T12:21:16Z</time>
      </trkpt>
      <trkpt lat="45.35352" lon="5.88287">
        <ele>1702</ele>
        <time>2013-01-26T12:21:21Z</time>
      </trkpt>
      <trkpt lat="45.35354" lon="5.88291">
        <ele>1702</ele>
        <time>2013-01-26T12:21:26Z</time>
      </trkpt>
      <trkpt lat="45.35356" lon="5.88295">
        <ele>1702</ele>
        <time>2013-01-26T12:21:31Z</time>
      </trkpt>
      <trkpt lat="45.35359" lon="5.88298">
        <ele>1703</ele>
        <time>2013-01-26T12:21:36Z</time>
      </trkpt>
      <trkpt lat="45.35362" lon="5.88303">
        <ele>1703</ele>
        <time>2013-01-26T12:21:41Z</time>
      </trkpt>
      <trkpt lat="45.35365" lon="5.88308">
        <ele>1703</ele>
        <time>2013-01-26T12:21:46Z</time>
      </trkpt>
      <trkpt lat="45.35368" lon="5.88313">
        <ele>1703</ele>
        <time>2013-01-26T12:21:51Z</time>
      </trkpt>
      <trkpt lat="45.3537" lon="5.88316">
        <ele>1703</ele>
        <time>2013-01-26T12:21:56Z</time>
      </trkpt>
      <trkpt lat="45.35373" lon="5.8832">
        <ele>1702</ele>
        <time>2013-01-26T12:22:01Z</time>
      </trkpt>
      <trkpt lat="45.35376" lon="5.88323">
        <ele>1702</ele>
        <time>2013-01-26T12:22:06Z</time>
      </trkpt>
      <trkpt lat="45.3538" lon="5.88329">
        <ele>1702</ele>
        <time>2013-01-26T12:22:11Z</time>
      </trkpt>
      <trkpt lat="45.35383" lon="5.88333">
        <ele>1702</ele>
        <time>2013-01-26T12:22:16Z</time>
      </trkpt>
      <trkpt lat="45.35386" lon="5.88338">
        <ele>1702</ele>
        <time>2013-01-26T12:22:21Z</time>
      </trkpt>
      <trkpt lat="45.35387" lon="5.88339">
        <ele>1702</ele>
        <time>2013-01-26T12:22:26Z</time>
      </trkpt>
      <trkpt lat="45.35387" lon="5.8834">
        <ele>1702</ele>
        <time>2013-01-26T12:22:31Z</time>
      </trkpt>
      <trkpt lat="45.35388" lon="5.88342">
        <ele>1702</ele>
        <time>2013-01-26T12:22:36Z</time>
      </trkpt>
      <trkpt lat="45.35388" lon="5.88342">
        <ele>1702</ele>
        <time>2013-01-26T12:22:41Z</time>
      </trkpt>
      <trkpt lat="45.3539" lon="5.88345">
        <ele>1702</ele>
        <time>2013-01-26T12:22:46Z</time>
      </trkpt>
      <trkpt lat="45.35392" lon="5.88351">
        <ele>1702</ele>
        <time>2013-01-26T12:22:51Z</time>
      </trkpt>
      <trkpt lat="45.35393" lon="5.88357">
        <ele>1702</ele>
        <time>2013-01-26T12:22:56Z</time>
      </trkpt>
      <trkpt lat="45.35394" lon="5.88363">
        <ele>1702</ele>
        <time>2013-01-26T12:23:01Z</time>
      </trkpt>
      <trkpt lat="45.35396" lon="5.88369">
        <ele>1702</ele>
        <time>2013-01-26T12:23:06Z</time>
      </trkpt>
      <trkpt lat="45.35397" lon="5.88374">
        <ele>1702</ele>
        <time>2013-01-26T12:23:11Z</time>
      </trkpt>
      <trkpt lat="45.354" lon="5.8838">
        <ele>1702</ele>
        <time>2013-01-26T12:23:16Z</time>
      </trkpt>
      <trkpt lat="45.35402" lon="5.88384">
        <ele>1702</ele>
        <time>2013-01-26T12:23:21Z</time>
      </trkpt>
      <trkpt lat="45.35402" lon="5.88385">
        <ele>1702</ele>
        <time>2013-01-26T12:23:26Z</time>
      </trkpt>
      <trkpt lat="45.35402" lon="5.88385">
        <ele>1702</ele>
        <time>2013-01-26T12:23:31Z</time>
      </trkpt>
      <trkpt lat="45.35403" lon="5.88385">
        <ele>1702</ele>
        <time>2013-01-26T12:23:36Z</time>
      </trkpt>
      <trkpt lat="45.35408" lon="5.88394">
        <ele>1701</ele>
        <time>2013-01-26T12:23:41Z</time>
      </trkpt>
      <trkpt lat="45.35415" lon="5.88412">
        <ele>1698</ele>
        <time>2013-01-26T12:23:46Z</time>
      </trkpt>
      <trkpt lat="45.35419" lon="5.88423">
        <ele>1697</ele>
        <time>2013-01-26T12:23:51Z</time>
      </trkpt>
      <trkpt lat="45.35421" lon="5.88429">
        <ele>1697</ele>
        <time>2013-01-26T12:23:56Z</time>
      </trkpt>
      <trkpt lat="45.35421" lon="5.8843">
        <ele>1697</ele>
        <time>2013-01-26T12:24:01Z</time>
      </trkpt>
      <trkpt lat="45.35423" lon="5.88435">
        <ele>1697</ele>
        <time>2013-01-26T12:24:06Z</time>
      </trkpt>
      <trkpt lat="45.35425" lon="5.8844">
        <ele>1698</ele>
        <time>2013-01-26T12:24:11Z</time>
      </trkpt>
      <trkpt lat="45.35427" lon="5.88447">
        <ele>1698</ele>
        <time>2013-01-26T12:24:16Z</time>
      </trkpt>
      <trkpt lat="45.35429" lon="5.88453">
        <ele>1698</ele>
        <time>2013-01-26T12:24:21Z</time>
      </trkpt>
      <trkpt lat="45.35432" lon="5.88459">
        <ele>1698</ele>
        <time>2013-01-26T12:24:26Z</time>
      </trkpt>
      <trkpt lat="45.35434" lon="5.88466">
        <ele>1697</ele>
        <time>2013-01-26T12:24:31Z</time>
      </trkpt>
      <trkpt lat="45.35437" lon="5.88472">
        <ele>1697</ele>
        <time>2013-01-26T12:24:36Z</time>
      </trkpt>
      <trkpt lat="45.35439" lon="5.88477">
        <ele>1697</ele>
        <time>2013-01-26T12:24:41Z</time>
      </trkpt>
      <trkpt lat="45.35442" lon="5.88482">
        <ele>1698</ele>
        <time>2013-01-26T12:24:46Z</time>
      </trkpt>
      <trkpt lat="45.35444" lon="5.88487">
        <ele>1698</ele>
        <time>2013-01-26T12:24:51Z</time>
      </trkpt>
      <trkpt lat="45.35447" lon="5.88492">
        <ele>1698</ele>
        <time>2013-01-26T12:24:56Z</time>
      </trkpt>
      <trkpt lat="45.35449" lon="5.88496">
        <ele>1699</ele>
        <time>2013-01-26T12:25:01Z</time>
      </trkpt>
      <trkpt lat="45.35451" lon="5.88501">
        <ele>1699</ele>
        <time>2013-01-26T12:25:06Z</time>
      </trkpt>
      <trkpt lat="45.35454" lon="5.88505">
        <ele>1699</ele>
        <time>2013-01-26T12:25:11Z</time>
      </trkpt>
      <trkpt lat="45.35456" lon="5.8851">
        <ele>1700</ele>
        <time>2013-01-26T12:25:16Z</time>
      </trkpt>
      <trkpt lat="45.35458" lon="5.88514">
        <ele>1700</ele>
        <time>2013-01-26T12:25:21Z</time>
      </trkpt>
      <trkpt lat="45.35461" lon="5.88518">
        <ele>1700</ele>
        <time>2013-01-26T12:25:26Z</time>
      </trkpt>
      <trkpt lat="45.35463" lon="5.88523">
        <ele>1700</ele>
        <time>2013-01-26T12:25:31Z</time>
      </trkpt>
      <trkpt lat="45.35466" lon="5.88527">
        <ele>1700</ele>
        <time>2013-01-26T12:25:36Z</time>
      </trkpt>
      <trkpt lat="45.35469" lon="5.88532">
        <ele>1700</ele>
        <time>2013-01-26T12:25:41Z</time>
      </trkpt>
      <trkpt lat="45.35472" lon="5.88536">
        <ele>1700</ele>
        <time>2013-01-26T12:25:46Z</time>
      </trkpt>
      <trkpt lat="45.35474" lon="5.8854">
        <ele>1700</ele>
        <time>2013-01-26T12:25:51Z</time>
      </trkpt>
      <trkpt lat="45.35477" lon="5.88543">
        <ele>1700</ele>
        <time>2013-01-26T12:25:56Z</time>
      </trkpt>
      <trkpt lat="45.3548" lon="5.88547">
        <ele>1701</ele>
        <time>2013-01-26T12:26:01Z</time>
      </trkpt>
      <trkpt lat="45.35483" lon="5.88551">
        <ele>1701</ele>
        <time>2013-01-26T12:26:06Z</time>
      </trkpt>
      <trkpt lat="45.35486" lon="5.88555">
        <ele>1701</ele>
        <time>2013-01-26T12:26:11Z</time>
      </trkpt>
      <trkpt lat="45.35489" lon="5.88559">
        <ele>1701</ele>
        <time>2013-01-26T12:26:16Z</time>
      </trkpt>
      <trkpt lat="45.35493" lon="5.88563">
        <ele>1701</ele>
        <time>2013-01-26T12:26:21Z</time>
      </trkpt>
      <trkpt lat="45.35495" lon="5.88566">
        <ele>1702</ele>
        <time>2013-01-26T12:26:26Z</time>
      </trkpt>
      <trkpt lat="45.35498" lon="5.8857">
        <ele>1702</ele>
        <time>2013-01-26T12:26:31Z</time>
      </trkpt>
      <trkpt lat="45.355" lon="5.88574">
        <ele>1703</ele>
        <time>2013-01-26T12:26:36Z</time>
      </trkpt>
      <trkpt lat="45.35502" lon="5.88579">
        <ele>1703</ele>
        <time>2013-01-26T12:26:41Z</time>
      </trkpt>
      <trkpt lat="45.35503" lon="5.88585">
        <ele>1703</ele>
        <time>2013-01-26T12:26:46Z</time>
      </trkpt>
      <trkpt lat="45.35505" lon="5.88592">
        <ele>1703</ele>
        <time>2013-01-26T12:26:51Z</time>
      </trkpt>
      <trkpt lat="45.35508" lon="5.88598">
        <ele>1703</ele>
        <time>2013-01-26T12:26:56Z</time>
      </trkpt>
      <trkpt lat="45.35513" lon="5.88603">
        <ele>1702</ele>
        <time>2013-01-26T12:27:01Z</time>
      </trkpt>
      <trkpt lat="45.35518" lon="5.88611">
        <ele>1702</ele>
        <time>2013-01-26T12:27:06Z</time>
      </trkpt>
      <trkpt lat="45.35521" lon="5.88617">
        <ele>1702</ele>
        <time>2013-01-26T12:27:11Z</time>
      </trkpt>
      <trkpt lat="45.35524" lon="5.88624">
        <ele>1701</ele>
        <time>2013-01-26T12:27:16Z</time>
      </trkpt>
      <trkpt lat="45.35526" lon="5.8863">
        <ele>1702</ele>
        <time>2013-01-26T12:27:21Z</time>
      </trkpt>
      <trkpt lat="45.35528" lon="5.88637">
        <ele>1702</ele>
        <time>2013-01-26T12:27:26Z</time>
      </trkpt>
      <trkpt lat="45.35529" lon="5.88642">
        <ele>1702</ele>
        <time>2013-01-26T12:27:31Z</time>
      </trkpt>
      <trkpt lat="45.35531" lon="5.88649">
        <ele>1702</ele>
        <time>2013-01-26T12:27:36Z</time>
      </trkpt>
      <trkpt lat="45.35532" lon="5.88656">
        <ele>1702</ele>
        <time>2013-01-26T12:27:41Z</time>
      </trkpt>
      <trkpt lat="45.35534" lon="5.88661">
        <ele>1703</ele>
        <time>2013-01-26T12:27:46Z</time>
      </trkpt>
      <trkpt lat="45.35536" lon="5.88669">
        <ele>1702</ele>
        <time>2013-01-26T12:27:51Z</time>
      </trkpt>
      <trkpt lat="45.3554" lon="5.88679">
        <ele>1701</ele>
        <time>2013-01-26T12:27:56Z</time>
      </trkpt>
      <trkpt lat="45.35542" lon="5.88683">
        <ele>1702</ele>
        <time>2013-01-26T12:28:01Z</time>
      </trkpt>
      <trkpt lat="45.35545" lon="5.88689">
        <ele>1702</ele>
        <time>2013-01-26T12:28:06Z</time>
      </trkpt>
      <trkpt lat="45.35547" lon="5.88694">
        <ele>1702</ele>
        <time>2013-01-26T12:28:11Z</time>
      </trkpt>
      <trkpt lat="45.35548" lon="5.88699">
        <ele>1703</ele>
        <time>2013-01-26T12:28:16Z</time>
      </trkpt>
      <trkpt lat="45.3555" lon="5.88704">
        <ele>1703</ele>
        <time>2013-01-26T12:28:21Z</time>
      </trkpt>
      <trkpt lat="45.35552" lon="5.88709">
        <ele>1703</ele>
        <time>2013-01-26T12:28:26Z</time>
      </trkpt>
      <trkpt lat="45.35554" lon="5.88715">
        <ele>1704</ele>
        <time>2013-01-26T12:28:31Z</time>
      </trkpt>
      <trkpt lat="45.35556" lon="5.88721">
        <ele>1704</ele>
        <time>2013-01-26T12:28:36Z</time>
      </trkpt>
      <trkpt lat="45.35558" lon="5.88726">
        <ele>1704</ele>
        <time>2013-01-26T12:28:41Z</time>
      </trkpt>
      <trkpt lat="45.3556" lon="5.88731">
        <ele>1704</ele>
        <time>2013-01-26T12:28:46Z</time>
      </trkpt>
      <trkpt lat="45.35563" lon="5.88736">
        <ele>1704</ele>
        <time>2013-01-26T12:28:51Z</time>
      </trkpt>
      <trkpt lat="45.35565" lon="5.8874">
        <ele>1705</ele>
        <time>2013-01-26T12:28:56Z</time>
      </trkpt>
      <trkpt lat="45.35568" lon="5.88745">
        <ele>1706</ele>
        <time>2013-01-26T12:29:01Z</time>
      </trkpt>
      <trkpt lat="45.35571" lon="5.88751">
        <ele>1705</ele>
        <time>2013-01-26T12:29:06Z</time>
      </trkpt>
      <trkpt lat="45.35574" lon="5.88757">
        <ele>1706</ele>
        <time>2013-01-26T12:29:11Z</time>
      </trkpt>
      <trkpt lat="45.35576" lon="5.88761">
        <ele>1706</ele>
        <time>2013-01-26T12:29:16Z</time>
      </trkpt>
      <trkpt lat="45.35578" lon="5.88766">
        <ele>1706</ele>
        <time>2013-01-26T12:29:21Z</time>
      </trkpt>
      <trkpt lat="45.35579" lon="5.88772">
        <ele>1706</ele>
        <time>2013-01-26T12:29:26Z</time>
      </trkpt>
      <trkpt lat="45.35582" lon="5.88781">
        <ele>1705</ele>
        <time>2013-01-26T12:29:31Z</time>
      </trkpt>
      <trkpt lat="45.35584" lon="5.88784">
        <ele>1705</ele>
        <time>2013-01-26T12:29:36Z</time>
      </trkpt>
      <trkpt lat="45.35585" lon="5.88785">
        <ele>1705</ele>
        <time>2013-01-26T12:29:41Z</time>
      </trkpt>
      <trkpt lat="45.35585" lon="5.88785">
        <ele>1705</ele>
        <time>2013-01-26T12:29:46Z</time>
      </trkpt>
      <trkpt lat="45.35585" lon="5.88785">
        <ele>1705</ele>
        <time>2013-01-26T12:29:51Z</time>
      </trkpt>
      <trkpt lat="45.35585" lon="5.88785">
        <ele>1705</ele>
        <time>2013-01-26T12:29:56Z</time>
      </trkpt>
      <trkpt lat="45.35585" lon="5.88785">
        <ele>1705</ele>
        <time>2013-01-26T12:30:01Z</time>
      </trkpt>
      <trkpt lat="45.35585" lon="5.88785">
        <ele>1705</ele>
        <time>2013-01-26T12:30:06Z</time>
      </trkpt>
      <trkpt lat="45.35585" lon="5.88784">
        <ele>1705</ele>
        <time>2013-01-26T12:30:11Z</time>
      </trkpt>
      <trkpt lat="45.35585" lon="5.88784">
        <ele>1705</ele>
        <time>2013-01-26T12:30:16Z</time>
      </trkpt>
      <trkpt lat="45.35585" lon="5.88784">
        <ele>1704</ele>
        <time>2013-01-26T12:30:21Z</time>
      </trkpt>
      <trkpt lat="45.35585" lon="5.88784">
        <ele>1704</ele>
        <time>2013-01-26T12:30:26Z</time>
      </trkpt>
      <trkpt lat="45.35585" lon="5.88784">
        <ele>1704</ele>
        <time>2013-01-26T12:30:31Z</time>
      </trkpt>
      <trkpt lat="45.35585" lon="5.88784">
        <ele>1704</ele>
        <time>2013-01-26T12:30:36Z</time>
      </trkpt>
      <trkpt lat="45.35585" lon="5.88784">
        <ele>1704</ele>
        <time>2013-01-26T12:30:41Z</time>
      </trkpt>
      <trkpt lat="45.35585" lon="5.88784">
        <ele>1704</ele>
        <time>2013-01-26T12:30:46Z</time>
      </trkpt>
      <trkpt lat="45.35585" lon="5.88784">
        <ele>1704</ele>
        <time>2013-01-26T12:30:51Z</time>
      </trkpt>
      <trkpt lat="45.35587" lon="5.88788">
        <ele>1704</ele>
        <time>2013-01-26T12:30:56Z</time>
      </trkpt>
      <trkpt lat="45.35588" lon="5.88791">
        <ele>1705</ele>
        <time>2013-01-26T12:31:01Z</time>
      </trkpt>
      <trkpt lat="45.35591" lon="5.88797">
        <ele>1705</ele>
        <time>2013-01-26T12:31:06Z</time>
      </trkpt>
      <trkpt lat="45.35594" lon="5.88802">
        <ele>1705</ele>
        <time>2013-01-26T12:31:11Z</time>
      </trkpt>
      <trkpt lat="45.35597" lon="5.88807">
        <ele>1705</ele>
        <time>2013-01-26T12:31:16Z</time>
      </trkpt>
      <trkpt lat="45.356" lon="5.88812">
        <ele>1706</ele>
        <time>2013-01-26T12:31:21Z</time>
      </trkpt>
      <trkpt lat="45.35602" lon="5.88817">
        <ele>1707</ele>
        <time>2013-01-26T12:31:26Z</time>
      </trkpt>
      <trkpt lat="45.35605" lon="5.88822">
        <ele>1707</ele>
        <time>2013-01-26T12:31:31Z</time>
      </trkpt>
      <trkpt lat="45.35608" lon="5.88827">
        <ele>1708</ele>
        <time>2013-01-26T12:31:36Z</time>
      </trkpt>
      <trkpt lat="45.35611" lon="5.88832">
        <ele>1708</ele>
        <time>2013-01-26T12:31:41Z</time>
      </trkpt>
      <trkpt lat="45.35613" lon="5.88837">
        <ele>1709</ele>
        <time>2013-01-26T12:31:46Z</time>
      </trkpt>
      <trkpt lat="45.35616" lon="5.88842">
        <ele>1709</ele>
        <time>2013-01-26T12:31:51Z</time>
      </trkpt>
      <trkpt lat="45.35618" lon="5.88848">
        <ele>1710</ele>
        <time>2013-01-26T12:31:56Z</time>
      </trkpt>
      <trkpt lat="45.3562" lon="5.88854">
        <ele>1710</ele>
        <time>2013-01-26T12:32:01Z</time>
      </trkpt>
      <trkpt lat="45.35622" lon="5.88859">
        <ele>1710</ele>
        <time>2013-01-26T12:32:06Z</time>
      </trkpt>
      <trkpt lat="45.35624" lon="5.88864">
        <ele>1711</ele>
        <time>2013-01-26T12:32:11Z</time>
      </trkpt>
      <trkpt lat="45.35626" lon="5.88869">
        <ele>1711</ele>
        <time>2013-01-26T12:32:16Z</time>
      </trkpt>
      <trkpt lat="45.35628" lon="5.88875">
        <ele>1712</ele>
        <time>2013-01-26T12:32:21Z</time>
      </trkpt>
      <trkpt lat="45.3563" lon="5.8888">
        <ele>1712</ele>
        <time>2013-01-26T12:32:26Z</time>
      </trkpt>
      <trkpt lat="45.35632" lon="5.88885">
        <ele>1713</ele>
        <time>2013-01-26T12:32:31Z</time>
      </trkpt>
      <trkpt lat="45.35635" lon="5.8889">
        <ele>1713</ele>
        <time>2013-01-26T12:32:36Z</time>
      </trkpt>
      <trkpt lat="45.35637" lon="5.88895">
        <ele>1714</ele>
        <time>2013-01-26T12:32:41Z</time>
      </trkpt>
      <trkpt lat="45.3564" lon="5.889">
        <ele>1715</ele>
        <time>2013-01-26T12:32:46Z</time>
      </trkpt>
      <trkpt lat="45.35643" lon="5.88904">
        <ele>1715</ele>
        <time>2013-01-26T12:32:51Z</time>
      </trkpt>
      <trkpt lat="45.35645" lon="5.88909">
        <ele>1716</ele>
        <time>2013-01-26T12:32:56Z</time>
      </trkpt>
      <trkpt lat="45.35648" lon="5.88913">
        <ele>1716</ele>
        <time>2013-01-26T12:33:01Z</time>
      </trkpt>
      <trkpt lat="45.35651" lon="5.88918">
        <ele>1717</ele>
        <time>2013-01-26T12:33:06Z</time>
      </trkpt>
      <trkpt lat="45.35653" lon="5.88923">
        <ele>1717</ele>
        <time>2013-01-26T12:33:11Z</time>
      </trkpt>
      <trkpt lat="45.35655" lon="5.88928">
        <ele>1718</ele>
        <time>2013-01-26T12:33:16Z</time>
      </trkpt>
      <trkpt lat="45.35657" lon="5.88933">
        <ele>1718</ele>
        <time>2013-01-26T12:33:21Z</time>
      </trkpt>
      <trkpt lat="45.35659" lon="5.88939">
        <ele>1719</ele>
        <time>2013-01-26T12:33:26Z</time>
      </trkpt>
      <trkpt lat="45.35661" lon="5.88944">
        <ele>1719</ele>
        <time>2013-01-26T12:33:31Z</time>
      </trkpt>
      <trkpt lat="45.35663" lon="5.88949">
        <ele>1719</ele>
        <time>2013-01-26T12:33:36Z</time>
      </trkpt>
      <trkpt lat="45.35665" lon="5.88954">
        <ele>1720</ele>
        <time>2013-01-26T12:33:41Z</time>
      </trkpt>
      <trkpt lat="45.35667" lon="5.88959">
        <ele>1720</ele>
        <time>2013-01-26T12:33:46Z</time>
      </trkpt>
      <trkpt lat="45.35669" lon="5.88963">
        <ele>1721</ele>
        <time>2013-01-26T12:33:51Z</time>
      </trkpt>
      <trkpt lat="45.3567" lon="5.88968">
        <ele>1721</ele>
        <time>2013-01-26T12:33:56Z</time>
      </trkpt>
      <trkpt lat="45.35672" lon="5.88972">
        <ele>1722</ele>
        <time>2013-01-26T12:34:01Z</time>
      </trkpt>
      <trkpt lat="45.35673" lon="5.88977">
        <ele>1722</ele>
        <time>2013-01-26T12:34:06Z</time>
      </trkpt>
      <trkpt lat="45.35675" lon="5.88981">
        <ele>1723</ele>
        <time>2013-01-26T12:34:11Z</time>
      </trkpt>
      <trkpt lat="45.35676" lon="5.88986">
        <ele>1723</ele>
        <time>2013-01-26T12:34:16Z</time>
      </trkpt>
      <trkpt lat="45.35677" lon="5.88991">
        <ele>1723</ele>
        <time>2013-01-26T12:34:21Z</time>
      </trkpt>
      <trkpt lat="45.35679" lon="5.88996">
        <ele>1724</ele>
        <time>2013-01-26T12:34:26Z</time>
      </trkpt>
      <trkpt lat="45.35679" lon="5.88996">
        <ele>1724</ele>
        <time>2013-01-26T12:34:31Z</time>
      </trkpt>
      <trkpt lat="45.35678" lon="5.88997">
        <ele>1724</ele>
        <time>2013-01-26T12:34:36Z</time>
      </trkpt>
      <trkpt lat="45.35678" lon="5.88997">
        <ele>1724</ele>
        <time>2013-01-26T12:34:41Z</time>
      </trkpt>
      <trkpt lat="45.35678" lon="5.88997">
        <ele>1724</ele>
        <time>2013-01-26T12:34:46Z</time>
      </trkpt>
      <trkpt lat="45.35678" lon="5.88997">
        <ele>1724</ele>
        <time>2013-01-26T12:34:51Z</time>
      </trkpt>
      <trkpt lat="45.35677" lon="5.88997">
        <ele>1724</ele>
        <time>2013-01-26T12:34:56Z</time>
      </trkpt>
      <trkpt lat="45.35677" lon="5.88997">
        <ele>1724</ele>
        <time>2013-01-26T12:35:01Z</time>
      </trkpt>
      <trkpt lat="45.35677" lon="5.88997">
        <ele>1724</ele>
        <time>2013-01-26T12:35:06Z</time>
      </trkpt>
      <trkpt lat="45.35677" lon="5.88997">
        <ele>1724</ele>
        <time>2013-01-26T12:35:11Z</time>
      </trkpt>
      <trkpt lat="45.35677" lon="5.88997">
        <ele>1724</ele>
        <time>2013-01-26T12:35:16Z</time>
      </trkpt>
      <trkpt lat="45.35677" lon="5.88996">
        <ele>1723</ele>
        <time>2013-01-26T12:35:21Z</time>
      </trkpt>
      <trkpt lat="45.35677" lon="5.88996">
        <ele>1723</ele>
        <time>2013-01-26T12:35:26Z</time>
      </trkpt>
      <trkpt lat="45.35677" lon="5.88996">
        <ele>1723</ele>
        <time>2013-01-26T12:35:31Z</time>
      </trkpt>
      <trkpt lat="45.35677" lon="5.88996">
        <ele>1723</ele>
        <time>2013-01-26T12:35:36Z</time>
      </trkpt>
      <trkpt lat="45.35677" lon="5.88996">
        <ele>1723</ele>
        <time>2013-01-26T12:35:41Z</time>
      </trkpt>
      <trkpt lat="45.35678" lon="5.88997">
        <ele>1723</ele>
        <time>2013-01-26T12:35:46Z</time>
      </trkpt>
      <trkpt lat="45.3568" lon="5.89002">
        <ele>1724</ele>
        <time>2013-01-26T12:35:51Z</time>
      </trkpt>
      <trkpt lat="45.35682" lon="5.89009">
        <ele>1724</ele>
        <time>2013-01-26T12:35:56Z</time>
      </trkpt>
      <trkpt lat="45.35683" lon="5.89014">
        <ele>1725</ele>
        <time>2013-01-26T12:36:01Z</time>
      </trkpt>
      <trkpt lat="45.35685" lon="5.8902">
        <ele>1725</ele>
        <time>2013-01-26T12:36:06Z</time>
      </trkpt>
      <trkpt lat="45.35686" lon="5.89026">
        <ele>1726</ele>
        <time>2013-01-26T12:36:11Z</time>
      </trkpt>
      <trkpt lat="45.35688" lon="5.8903">
        <ele>1727</ele>
        <time>2013-01-26T12:36:16Z</time>
      </trkpt>
      <trkpt lat="45.35689" lon="5.89036">
        <ele>1727</ele>
        <time>2013-01-26T12:36:21Z</time>
      </trkpt>
      <trkpt lat="45.35691" lon="5.89041">
        <ele>1728</ele>
        <time>2013-01-26T12:36:26Z</time>
      </trkpt>
      <trkpt lat="45.35692" lon="5.89047">
        <ele>1728</ele>
        <time>2013-01-26T12:36:31Z</time>
      </trkpt>
      <trkpt lat="45.35693" lon="5.89052">
        <ele>1729</ele>
        <time>2013-01-26T12:36:36Z</time>
      </trkpt>
      <trkpt lat="45.35695" lon="5.89057">
        <ele>1730</ele>
        <time>2013-01-26T12:36:41Z</time>
      </trkpt>
      <trkpt lat="45.35696" lon="5.89063">
        <ele>1730</ele>
        <time>2013-01-26T12:36:46Z</time>
      </trkpt>
      <trkpt lat="45.35697" lon="5.89068">
        <ele>1731</ele>
        <time>2013-01-26T12:36:51Z</time>
      </trkpt>
      <trkpt lat="45.35698" lon="5.89072">
        <ele>1731</ele>
        <time>2013-01-26T12:36:56Z</time>
      </trkpt>
      <trkpt lat="45.357" lon="5.89077">
        <ele>1732</ele>
        <time>2013-01-26T12:37:01Z</time>
      </trkpt>
      <trkpt lat="45.35701" lon="5.89082">
        <ele>1733</ele>
        <time>2013-01-26T12:37:06Z</time>
      </trkpt>
      <trkpt lat="45.35703" lon="5.89086">
        <ele>1733</ele>
        <time>2013-01-26T12:37:11Z</time>
      </trkpt>
      <trkpt lat="45.35705" lon="5.8909">
        <ele>1734</ele>
        <time>2013-01-26T12:37:16Z</time>
      </trkpt>
      <trkpt lat="45.35706" lon="5.89095">
        <ele>1734</ele>
        <time>2013-01-26T12:37:21Z</time>
      </trkpt>
      <trkpt lat="45.35708" lon="5.89099">
        <ele>1735</ele>
        <time>2013-01-26T12:37:26Z</time>
      </trkpt>
      <trkpt lat="45.3571" lon="5.89104">
        <ele>1735</ele>
        <time>2013-01-26T12:37:31Z</time>
      </trkpt>
      <trkpt lat="45.35712" lon="5.8911">
        <ele>1736</ele>
        <time>2013-01-26T12:37:36Z</time>
      </trkpt>
      <trkpt lat="45.35715" lon="5.89115">
        <ele>1736</ele>
        <time>2013-01-26T12:37:41Z</time>
      </trkpt>
      <trkpt lat="45.35717" lon="5.89121">
        <ele>1736</ele>
        <time>2013-01-26T12:37:46Z</time>
      </trkpt>
      <trkpt lat="45.35719" lon="5.89127">
        <ele>1737</ele>
        <time>2013-01-26T12:37:51Z</time>
      </trkpt>
      <trkpt lat="45.35721" lon="5.89132">
        <ele>1737</ele>
        <time>2013-01-26T12:37:56Z</time>
      </trkpt>
      <trkpt lat="45.35723" lon="5.89138">
        <ele>1737</ele>
        <time>2013-01-26T12:38:01Z</time>
      </trkpt>
      <trkpt lat="45.35725" lon="5.89142">
        <ele>1738</ele>
        <time>2013-01-26T12:38:06Z</time>
      </trkpt>
      <trkpt lat="45.35726" lon="5.89147">
        <ele>1739</ele>
        <time>2013-01-26T12:38:11Z</time>
      </trkpt>
      <trkpt lat="45.35728" lon="5.89152">
        <ele>1739</ele>
        <time>2013-01-26T12:38:16Z</time>
      </trkpt>
      <trkpt lat="45.3573" lon="5.89157">
        <ele>1739</ele>
        <time>2013-01-26T12:38:21Z</time>
      </trkpt>
      <trkpt lat="45.35732" lon="5.89163">
        <ele>1740</ele>
        <time>2013-01-26T12:38:26Z</time>
      </trkpt>
      <trkpt lat="45.35734" lon="5.89169">
        <ele>1740</ele>
        <time>2013-01-26T12:38:31Z</time>
      </trkpt>
      <trkpt lat="45.35735" lon="5.89175">
        <ele>1740</ele>
        <time>2013-01-26T12:38:36Z</time>
      </trkpt>
      <trkpt lat="45.35737" lon="5.89181">
        <ele>1740</ele>
        <time>2013-01-26T12:38:41Z</time>
      </trkpt>
      <trkpt lat="45.35738" lon="5.89187">
        <ele>1741</ele>
        <time>2013-01-26T12:38:46Z</time>
      </trkpt>
      <trkpt lat="45.3574" lon="5.89192">
        <ele>1741</ele>
        <time>2013-01-26T12:38:51Z</time>
      </trkpt>
      <trkpt lat="45.35742" lon="5.89197">
        <ele>1741</ele>
        <time>2013-01-26T12:38:56Z</time>
      </trkpt>
      <trkpt lat="45.35745" lon="5.89202">
        <ele>1742</ele>
        <time>2013-01-26T12:39:01Z</time>
      </trkpt>
      <trkpt lat="45.35747" lon="5.89208">
        <ele>1742</ele>
        <time>2013-01-26T12:39:06Z</time>
      </trkpt>
      <trkpt lat="45.35749" lon="5.89213">
        <ele>1743</ele>
        <time>2013-01-26T12:39:11Z</time>
      </trkpt>
      <trkpt lat="45.35751" lon="5.89219">
        <ele>1743</ele>
        <time>2013-01-26T12:39:16Z</time>
      </trkpt>
      <trkpt lat="45.35752" lon="5.89225">
        <ele>1743</ele>
        <time>2013-01-26T12:39:21Z</time>
      </trkpt>
      <trkpt lat="45.35753" lon="5.89232">
        <ele>1743</ele>
        <time>2013-01-26T12:39:26Z</time>
      </trkpt>
      <trkpt lat="45.35754" lon="5.89239">
        <ele>1743</ele>
        <time>2013-01-26T12:39:31Z</time>
      </trkpt>
      <trkpt lat="45.35756" lon="5.89243">
        <ele>1744</ele>
        <time>2013-01-26T12:39:36Z</time>
      </trkpt>
      <trkpt lat="45.35758" lon="5.89249">
        <ele>1744</ele>
        <time>2013-01-26T12:39:41Z</time>
      </trkpt>
      <trkpt lat="45.35759" lon="5.89254">
        <ele>1745</ele>
        <time>2013-01-26T12:39:46Z</time>
      </trkpt>
      <trkpt lat="45.35761" lon="5.8926">
        <ele>1745</ele>
        <time>2013-01-26T12:39:51Z</time>
      </trkpt>
      <trkpt lat="45.35762" lon="5.89265">
        <ele>1746</ele>
        <time>2013-01-26T12:39:56Z</time>
      </trkpt>
      <trkpt lat="45.35764" lon="5.8927">
        <ele>1746</ele>
        <time>2013-01-26T12:40:01Z</time>
      </trkpt>
      <trkpt lat="45.35766" lon="5.89275">
        <ele>1747</ele>
        <time>2013-01-26T12:40:06Z</time>
      </trkpt>
      <trkpt lat="45.35768" lon="5.8928">
        <ele>1747</ele>
        <time>2013-01-26T12:40:11Z</time>
      </trkpt>
      <trkpt lat="45.3577" lon="5.89284">
        <ele>1748</ele>
        <time>2013-01-26T12:40:16Z</time>
      </trkpt>
      <trkpt lat="45.35773" lon="5.89289">
        <ele>1748</ele>
        <time>2013-01-26T12:40:21Z</time>
      </trkpt>
      <trkpt lat="45.35775" lon="5.89293">
        <ele>1749</ele>
        <time>2013-01-26T12:40:26Z</time>
      </trkpt>
      <trkpt lat="45.35777" lon="5.89298">
        <ele>1749</ele>
        <time>2013-01-26T12:40:31Z</time>
      </trkpt>
      <trkpt lat="45.35779" lon="5.89302">
        <ele>1750</ele>
        <time>2013-01-26T12:40:36Z</time>
      </trkpt>
      <trkpt lat="45.3578" lon="5.89307">
        <ele>1750</ele>
        <time>2013-01-26T12:40:41Z</time>
      </trkpt>
      <trkpt lat="45.35782" lon="5.89312">
        <ele>1750</ele>
        <time>2013-01-26T12:40:46Z</time>
      </trkpt>
      <trkpt lat="45.35784" lon="5.89316">
        <ele>1751</ele>
        <time>2013-01-26T12:40:51Z</time>
      </trkpt>
      <trkpt lat="45.35786" lon="5.89321">
        <ele>1751</ele>
        <time>2013-01-26T12:40:56Z</time>
      </trkpt>
      <trkpt lat="45.35788" lon="5.89325">
        <ele>1752</ele>
        <time>2013-01-26T12:41:01Z</time>
      </trkpt>
      <trkpt lat="45.3579" lon="5.8933">
        <ele>1752</ele>
        <time>2013-01-26T12:41:06Z</time>
      </trkpt>
      <trkpt lat="45.35791" lon="5.89334">
        <ele>1753</ele>
        <time>2013-01-26T12:41:11Z</time>
      </trkpt>
      <trkpt lat="45.35793" lon="5.89338">
        <ele>1753</ele>
        <time>2013-01-26T12:41:16Z</time>
      </trkpt>
      <trkpt lat="45.35793" lon="5.89342">
        <ele>1754</ele>
        <time>2013-01-26T12:41:21Z</time>
      </trkpt>
      <trkpt lat="45.35795" lon="5.89346">
        <ele>1754</ele>
        <time>2013-01-26T12:41:26Z</time>
      </trkpt>
      <trkpt lat="45.35796" lon="5.8935">
        <ele>1754</ele>
        <time>2013-01-26T12:41:31Z</time>
      </trkpt>
      <trkpt lat="45.35797" lon="5.89355">
        <ele>1755</ele>
        <time>2013-01-26T12:41:36Z</time>
      </trkpt>
      <trkpt lat="45.35798" lon="5.89359">
        <ele>1755</ele>
        <time>2013-01-26T12:41:41Z</time>
      </trkpt>
      <trkpt lat="45.35799" lon="5.89363">
        <ele>1756</ele>
        <time>2013-01-26T12:41:46Z</time>
      </trkpt>
      <trkpt lat="45.35801" lon="5.89368">
        <ele>1756</ele>
        <time>2013-01-26T12:41:51Z</time>
      </trkpt>
      <trkpt lat="45.35801" lon="5.8937">
        <ele>1756</ele>
        <time>2013-01-26T12:41:56Z</time>
      </trkpt>
      <trkpt lat="45.35803" lon="5.89374">
        <ele>1757</ele>
        <time>2013-01-26T12:42:01Z</time>
      </trkpt>
      <trkpt lat="45.35804" lon="5.89378">
        <ele>1757</ele>
        <time>2013-01-26T12:42:06Z</time>
      </trkpt>
      <trkpt lat="45.35806" lon="5.89382">
        <ele>1758</ele>
        <time>2013-01-26T12:42:11Z</time>
      </trkpt>
      <trkpt lat="45.35807" lon="5.89386">
        <ele>1758</ele>
        <time>2013-01-26T12:42:16Z</time>
      </trkpt>
      <trkpt lat="45.35808" lon="5.8939">
        <ele>1758</ele>
        <time>2013-01-26T12:42:21Z</time>
      </trkpt>
      <trkpt lat="45.35809" lon="5.89394">
        <ele>1759</ele>
        <time>2013-01-26T12:42:26Z</time>
      </trkpt>
      <trkpt lat="45.3581" lon="5.89398">
        <ele>1759</ele>
        <time>2013-01-26T12:42:31Z</time>
      </trkpt>
      <trkpt lat="45.35811" lon="5.89402">
        <ele>1760</ele>
        <time>2013-01-26T12:42:36Z</time>
      </trkpt>
      <trkpt lat="45.35812" lon="5.89407">
        <ele>1760</ele>
        <time>2013-01-26T12:42:41Z</time>
      </trkpt>
      <trkpt lat="45.35813" lon="5.89412">
        <ele>1760</ele>
        <time>2013-01-26T12:42:46Z</time>
      </trkpt>
      <trkpt lat="45.35814" lon="5.89416">
        <ele>1761</ele>
        <time>2013-01-26T12:42:51Z</time>
      </trkpt>
      <trkpt lat="45.35814" lon="5.89417">
        <ele>1761</ele>
        <time>2013-01-26T12:42:56Z</time>
      </trkpt>
      <trkpt lat="45.35814" lon="5.89419">
        <ele>1761</ele>
        <time>2013-01-26T12:43:01Z</time>
      </trkpt>
      <trkpt lat="45.35814" lon="5.89419">
        <ele>1761</ele>
        <time>2013-01-26T12:43:06Z</time>
      </trkpt>
      <trkpt lat="45.35814" lon="5.89419">
        <ele>1761</ele>
        <time>2013-01-26T12:43:11Z</time>
      </trkpt>
      <trkpt lat="45.35814" lon="5.89419">
        <ele>1761</ele>
        <time>2013-01-26T12:43:16Z</time>
      </trkpt>
      <trkpt lat="45.35816" lon="5.89425">
        <ele>1761</ele>
        <time>2013-01-26T12:43:21Z</time>
      </trkpt>
      <trkpt lat="45.35817" lon="5.89429">
        <ele>1762</ele>
        <time>2013-01-26T12:43:26Z</time>
      </trkpt>
      <trkpt lat="45.35819" lon="5.89434">
        <ele>1762</ele>
        <time>2013-01-26T12:43:31Z</time>
      </trkpt>
      <trkpt lat="45.35819" lon="5.89438">
        <ele>1763</ele>
        <time>2013-01-26T12:43:36Z</time>
      </trkpt>
      <trkpt lat="45.35821" lon="5.89442">
        <ele>1763</ele>
        <time>2013-01-26T12:43:41Z</time>
      </trkpt>
      <trkpt lat="45.35822" lon="5.89446">
        <ele>1763</ele>
        <time>2013-01-26T12:43:46Z</time>
      </trkpt>
      <trkpt lat="45.35823" lon="5.8945">
        <ele>1764</ele>
        <time>2013-01-26T12:43:51Z</time>
      </trkpt>
      <trkpt lat="45.35825" lon="5.89454">
        <ele>1764</ele>
        <time>2013-01-26T12:43:56Z</time>
      </trkpt>
      <trkpt lat="45.35826" lon="5.89457">
        <ele>1765</ele>
        <time>2013-01-26T12:44:01Z</time>
      </trkpt>
      <trkpt lat="45.35828" lon="5.89461">
        <ele>1765</ele>
        <time>2013-01-26T12:44:06Z</time>
      </trkpt>
      <trkpt lat="45.35829" lon="5.89464">
        <ele>1766</ele>
        <time>2013-01-26T12:44:11Z</time>
      </trkpt>
      <trkpt lat="45.35831" lon="5.89468">
        <ele>1766</ele>
        <time>2013-01-26T12:44:16Z</time>
      </trkpt>
      <trkpt lat="45.35833" lon="5.89471">
        <ele>1767</ele>
        <time>2013-01-26T12:44:21Z</time>
      </trkpt>
      <trkpt lat="45.35835" lon="5.89474">
        <ele>1767</ele>
        <time>2013-01-26T12:44:26Z</time>
      </trkpt>
      <trkpt lat="45.35836" lon="5.89477">
        <ele>1767</ele>
        <time>2013-01-26T12:44:31Z</time>
      </trkpt>
      <trkpt lat="45.35838" lon="5.89481">
        <ele>1768</ele>
        <time>2013-01-26T12:44:36Z</time>
      </trkpt>
      <trkpt lat="45.35839" lon="5.89483">
        <ele>1768</ele>
        <time>2013-01-26T12:44:41Z</time>
      </trkpt>
      <trkpt lat="45.35839" lon="5.89483">
        <ele>1768</ele>
        <time>2013-01-26T12:44:46Z</time>
      </trkpt>
      <trkpt lat="45.3584" lon="5.89485">
        <ele>1768</ele>
        <time>2013-01-26T12:44:51Z</time>
      </trkpt>
      <trkpt lat="45.3584" lon="5.89488">
        <ele>1769</ele>
        <time>2013-01-26T12:44:56Z</time>
      </trkpt>
      <trkpt lat="45.35838" lon="5.89488">
        <ele>1769</ele>
        <time>2013-01-26T12:45:01Z</time>
      </trkpt>
      <trkpt lat="45.35835" lon="5.89488">
        <ele>1770</ele>
        <time>2013-01-26T12:45:06Z</time>
      </trkpt>
      <trkpt lat="45.35832" lon="5.89488">
        <ele>1771</ele>
        <time>2013-01-26T12:45:11Z</time>
      </trkpt>
      <trkpt lat="45.3583" lon="5.89487">
        <ele>1771</ele>
        <time>2013-01-26T12:45:16Z</time>
      </trkpt>
      <trkpt lat="45.35828" lon="5.89487">
        <ele>1772</ele>
        <time>2013-01-26T12:45:21Z</time>
      </trkpt>
      <trkpt lat="45.35827" lon="5.89487">
        <ele>1772</ele>
        <time>2013-01-26T12:45:26Z</time>
      </trkpt>
      <trkpt lat="45.35827" lon="5.89486">
        <ele>1772</ele>
        <time>2013-01-26T12:45:31Z</time>
      </trkpt>
      <trkpt lat="45.35827" lon="5.89486">
        <ele>1772</ele>
        <time>2013-01-26T12:45:36Z</time>
      </trkpt>
      <trkpt lat="45.35827" lon="5.89486">
        <ele>1772</ele>
        <time>2013-01-26T12:45:41Z</time>
      </trkpt>
      <trkpt lat="45.35827" lon="5.89486">
        <ele>1772</ele>
        <time>2013-01-26T12:45:46Z</time>
      </trkpt>
      <trkpt lat="45.35827" lon="5.89486">
        <ele>1772</ele>
        <time>2013-01-26T12:45:51Z</time>
      </trkpt>
      <trkpt lat="45.35826" lon="5.89486">
        <ele>1772</ele>
        <time>2013-01-26T12:45:56Z</time>
      </trkpt>
      <trkpt lat="45.35826" lon="5.89486">
        <ele>1772</ele>
        <time>2013-01-26T12:46:01Z</time>
      </trkpt>
      <trkpt lat="45.35826" lon="5.89486">
        <ele>1772</ele>
        <time>2013-01-26T12:46:06Z</time>
      </trkpt>
      <trkpt lat="45.35826" lon="5.89486">
        <ele>1772</ele>
        <time>2013-01-26T12:46:11Z</time>
      </trkpt>
      <trkpt lat="45.35826" lon="5.89486">
        <ele>1772</ele>
        <time>2013-01-26T12:46:16Z</time>
      </trkpt>
      <trkpt lat="45.35825" lon="5.89486">
        <ele>1772</ele>
        <time>2013-01-26T12:46:21Z</time>
      </trkpt>
      <trkpt lat="45.35825" lon="5.89486">
        <ele>1772</ele>
        <time>2013-01-26T12:46:26Z</time>
      </trkpt>
      <trkpt lat="45.35825" lon="5.89486">
        <ele>1772</ele>
        <time>2013-01-26T12:46:31Z</time>
      </trkpt>
      <trkpt lat="45.35825" lon="5.89486">
        <ele>1771</ele>
        <time>2013-01-26T12:46:36Z</time>
      </trkpt>
      <trkpt lat="45.35825" lon="5.89486">
        <ele>1771</ele>
        <time>2013-01-26T12:46:41Z</time>
      </trkpt>
      <trkpt lat="45.35825" lon="5.89486">
        <ele>1771</ele>
        <time>2013-01-26T12:46:46Z</time>
      </trkpt>
      <trkpt lat="45.35825" lon="5.89486">
        <ele>1771</ele>
        <time>2013-01-26T12:46:51Z</time>
      </trkpt>
      <trkpt lat="45.35825" lon="5.89486">
        <ele>1770</ele>
        <time>2013-01-26T12:46:56Z</time>
      </trkpt>
      <trkpt lat="45.35825" lon="5.89486">
        <ele>1770</ele>
        <time>2013-01-26T12:47:01Z</time>
      </trkpt>
      <trkpt lat="45.35825" lon="5.89486">
        <ele>1770</ele>
        <time>2013-01-26T12:47:06Z</time>
      </trkpt>
      <trkpt lat="45.35825" lon="5.89486">
        <ele>1770</ele>
        <time>2013-01-26T12:47:11Z</time>
      </trkpt>
      <trkpt lat="45.35825" lon="5.89486">
        <ele>1769</ele>
        <time>2013-01-26T12:47:16Z</time>
      </trkpt>
      <trkpt lat="45.35825" lon="5.89486">
        <ele>1769</ele>
        <time>2013-01-26T12:47:21Z</time>
      </trkpt>
      <trkpt lat="45.35825" lon="5.89486">
        <ele>1769</ele>
        <time>2013-01-26T12:47:26Z</time>
      </trkpt>
      <trkpt lat="45.35825" lon="5.89486">
        <ele>1769</ele>
        <time>2013-01-26T12:47:31Z</time>
      </trkpt>
      <trkpt lat="45.35824" lon="5.89486">
        <ele>1769</ele>
        <time>2013-01-26T12:47:36Z</time>
      </trkpt>
      <trkpt lat="45.35824" lon="5.89486">
        <ele>1769</ele>
        <time>2013-01-26T12:47:41Z</time>
      </trkpt>
      <trkpt lat="45.35824" lon="5.89486">
        <ele>1769</ele>
        <time>2013-01-26T12:47:46Z</time>
      </trkpt>
      <trkpt lat="45.35824" lon="5.89486">
        <ele>1769</ele>
        <time>2013-01-26T12:47:51Z</time>
      </trkpt>
      <trkpt lat="45.35824" lon="5.89486">
        <ele>1769</ele>
        <time>2013-01-26T12:47:56Z</time>
      </trkpt>
      <trkpt lat="45.35824" lon="5.89486">
        <ele>1768</ele>
        <time>2013-01-26T12:48:01Z</time>
      </trkpt>
      <trkpt lat="45.35824" lon="5.89486">
        <ele>1768</ele>
        <time>2013-01-26T12:48:06Z</time>
      </trkpt>
      <trkpt lat="45.35824" lon="5.89486">
        <ele>1768</ele>
        <time>2013-01-26T12:48:11Z</time>
      </trkpt>
      <trkpt lat="45.35824" lon="5.89486">
        <ele>1768</ele>
        <time>2013-01-26T12:48:16Z</time>
      </trkpt>
      <trkpt lat="45.35824" lon="5.89486">
        <ele>1768</ele>
        <time>2013-01-26T12:48:21Z</time>
      </trkpt>
      <trkpt lat="45.35824" lon="5.89486">
        <ele>1768</ele>
        <time>2013-01-26T12:48:26Z</time>
      </trkpt>
      <trkpt lat="45.35824" lon="5.89486">
        <ele>1768</ele>
        <time>2013-01-26T12:48:31Z</time>
      </trkpt>
      <trkpt lat="45.35824" lon="5.89486">
        <ele>1768</ele>
        <time>2013-01-26T12:48:36Z</time>
      </trkpt>
      <trkpt lat="45.35824" lon="5.89486">
        <ele>1768</ele>
        <time>2013-01-26T12:48:41Z</time>
      </trkpt>
      <trkpt lat="45.35824" lon="5.89486">
        <ele>1768</ele>
        <time>2013-01-26T12:48:46Z</time>
      </trkpt>
      <trkpt lat="45.35824" lon="5.89486">
        <ele>1768</ele>
        <time>2013-01-26T12:48:51Z</time>
      </trkpt>
      <trkpt lat="45.35823" lon="5.89487">
        <ele>1768</ele>
        <time>2013-01-26T12:48:56Z</time>
      </trkpt>
      <trkpt lat="45.35824" lon="5.89487">
        <ele>1768</ele>
        <time>2013-01-26T12:49:01Z</time>
      </trkpt>
      <trkpt lat="45.35824" lon="5.89488">
        <ele>1767</ele>
        <time>2013-01-26T12:49:06Z</time>
      </trkpt>
      <trkpt lat="45.35824" lon="5.89488">
        <ele>1767</ele>
        <time>2013-01-26T12:49:11Z</time>
      </trkpt>
      <trkpt lat="45.35824" lon="5.89488">
        <ele>1767</ele>
        <time>2013-01-26T12:49:16Z</time>
      </trkpt>
      <trkpt lat="45.35824" lon="5.89488">
        <ele>1767</ele>
        <time>2013-01-26T12:49:21Z</time>
      </trkpt>
      <trkpt lat="45.35824" lon="5.89488">
        <ele>1767</ele>
        <time>2013-01-26T12:49:26Z</time>
      </trkpt>
      <trkpt lat="45.35824" lon="5.89488">
        <ele>1767</ele>
        <time>2013-01-26T12:49:31Z</time>
      </trkpt>
      <trkpt lat="45.35824" lon="5.89488">
        <ele>1767</ele>
        <time>2013-01-26T12:49:36Z</time>
      </trkpt>
      <trkpt lat="45.35825" lon="5.89488">
        <ele>1767</ele>
        <time>2013-01-26T12:49:41Z</time>
      </trkpt>
      <trkpt lat="45.35825" lon="5.89488">
        <ele>1767</ele>
        <time>2013-01-26T12:49:46Z</time>
      </trkpt>
      <trkpt lat="45.35825" lon="5.89488">
        <ele>1767</ele>
        <time>2013-01-26T12:49:51Z</time>
      </trkpt>
      <trkpt lat="45.35825" lon="5.89488">
        <ele>1768</ele>
        <time>2013-01-26T12:49:56Z</time>
      </trkpt>
      <trkpt lat="45.35826" lon="5.89491">
        <ele>1768</ele>
        <time>2013-01-26T12:50:01Z</time>
      </trkpt>
      <trkpt lat="45.35828" lon="5.89494">
        <ele>1768</ele>
        <time>2013-01-26T12:50:06Z</time>
      </trkpt>
      <trkpt lat="45.35829" lon="5.89498">
        <ele>1769</ele>
        <time>2013-01-26T12:50:11Z</time>
      </trkpt>
      <trkpt lat="45.3583" lon="5.89501">
        <ele>1769</ele>
        <time>2013-01-26T12:50:16Z</time>
      </trkpt>
      <trkpt lat="45.35832" lon="5.89505">
        <ele>1770</ele>
        <time>2013-01-26T12:50:21Z</time>
      </trkpt>
      <trkpt lat="45.35834" lon="5.89509">
        <ele>1770</ele>
        <time>2013-01-26T12:50:26Z</time>
      </trkpt>
      <trkpt lat="45.35835" lon="5.89512">
        <ele>1771</ele>
        <time>2013-01-26T12:50:31Z</time>
      </trkpt>
      <trkpt lat="45.35836" lon="5.89516">
        <ele>1772</ele>
        <time>2013-01-26T12:50:36Z</time>
      </trkpt>
      <trkpt lat="45.35838" lon="5.89519">
        <ele>1772</ele>
        <time>2013-01-26T12:50:41Z</time>
      </trkpt>
      <trkpt lat="45.35839" lon="5.89522">
        <ele>1772</ele>
        <time>2013-01-26T12:50:46Z</time>
      </trkpt>
      <trkpt lat="45.3584" lon="5.89526">
        <ele>1773</ele>
        <time>2013-01-26T12:50:51Z</time>
      </trkpt>
      <trkpt lat="45.35841" lon="5.8953">
        <ele>1774</ele>
        <time>2013-01-26T12:50:56Z</time>
      </trkpt>
      <trkpt lat="45.35842" lon="5.89534">
        <ele>1774</ele>
        <time>2013-01-26T12:51:01Z</time>
      </trkpt>
      <trkpt lat="45.35843" lon="5.89537">
        <ele>1775</ele>
        <time>2013-01-26T12:51:06Z</time>
      </trkpt>
      <trkpt lat="45.35845" lon="5.89541">
        <ele>1775</ele>
        <time>2013-01-26T12:51:11Z</time>
      </trkpt>
      <trkpt lat="45.35845" lon="5.89544">
        <ele>1776</ele>
        <time>2013-01-26T12:51:16Z</time>
      </trkpt>
      <trkpt lat="45.35846" lon="5.89547">
        <ele>1777</ele>
        <time>2013-01-26T12:51:21Z</time>
      </trkpt>
      <trkpt lat="45.35846" lon="5.8955">
        <ele>1777</ele>
        <time>2013-01-26T12:51:26Z</time>
      </trkpt>
      <trkpt lat="45.35847" lon="5.89553">
        <ele>1778</ele>
        <time>2013-01-26T12:51:31Z</time>
      </trkpt>
      <trkpt lat="45.35848" lon="5.89556">
        <ele>1779</ele>
        <time>2013-01-26T12:51:36Z</time>
      </trkpt>
      <trkpt lat="45.35848" lon="5.89559">
        <ele>1780</ele>
        <time>2013-01-26T12:51:41Z</time>
      </trkpt>
      <trkpt lat="45.35848" lon="5.8956">
        <ele>1780</ele>
        <time>2013-01-26T12:51:46Z</time>
      </trkpt>
      <trkpt lat="45.35848" lon="5.8956">
        <ele>1780</ele>
        <time>2013-01-26T12:51:51Z</time>
      </trkpt>
      <trkpt lat="45.35848" lon="5.89561">
        <ele>1780</ele>
        <time>2013-01-26T12:51:56Z</time>
      </trkpt>
      <trkpt lat="45.35848" lon="5.89563">
        <ele>1780</ele>
        <time>2013-01-26T12:52:01Z</time>
      </trkpt>
      <trkpt lat="45.35845" lon="5.89562">
        <ele>1781</ele>
        <time>2013-01-26T12:52:06Z</time>
      </trkpt>
      <trkpt lat="45.35843" lon="5.89561">
        <ele>1782</ele>
        <time>2013-01-26T12:52:11Z</time>
      </trkpt>
      <trkpt lat="45.3584" lon="5.89559">
        <ele>1783</ele>
        <time>2013-01-26T12:52:16Z</time>
      </trkpt>
      <trkpt lat="45.35838" lon="5.89558">
        <ele>1783</ele>
        <time>2013-01-26T12:52:21Z</time>
      </trkpt>
      <trkpt lat="45.35836" lon="5.89557">
        <ele>1784</ele>
        <time>2013-01-26T12:52:26Z</time>
      </trkpt>
      <trkpt lat="45.35834" lon="5.89556">
        <ele>1785</ele>
        <time>2013-01-26T12:52:31Z</time>
      </trkpt>
      <trkpt lat="45.35832" lon="5.89554">
        <ele>1786</ele>
        <time>2013-01-26T12:52:36Z</time>
      </trkpt>
      <trkpt lat="45.35829" lon="5.89552">
        <ele>1786</ele>
        <time>2013-01-26T12:52:41Z</time>
      </trkpt>
      <trkpt lat="45.35827" lon="5.89551">
        <ele>1787</ele>
        <time>2013-01-26T12:52:46Z</time>
      </trkpt>
      <trkpt lat="45.35825" lon="5.8955">
        <ele>1788</ele>
        <time>2013-01-26T12:52:51Z</time>
      </trkpt>
      <trkpt lat="45.35822" lon="5.8955">
        <ele>1789</ele>
        <time>2013-01-26T12:52:56Z</time>
      </trkpt>
      <trkpt lat="45.35821" lon="5.89549">
        <ele>1789</ele>
        <time>2013-01-26T12:53:01Z</time>
      </trkpt>
      <trkpt lat="45.3582" lon="5.8955">
        <ele>1790</ele>
        <time>2013-01-26T12:53:06Z</time>
      </trkpt>
      <trkpt lat="45.35822" lon="5.89553">
        <ele>1791</ele>
        <time>2013-01-26T12:53:11Z</time>
      </trkpt>
      <trkpt lat="45.35824" lon="5.89557">
        <ele>1792</ele>
        <time>2013-01-26T12:53:16Z</time>
      </trkpt>
      <trkpt lat="45.35825" lon="5.8956">
        <ele>1793</ele>
        <time>2013-01-26T12:53:21Z</time>
      </trkpt>
      <trkpt lat="45.35826" lon="5.89563">
        <ele>1794</ele>
        <time>2013-01-26T12:53:26Z</time>
      </trkpt>
      <trkpt lat="45.35827" lon="5.89566">
        <ele>1794</ele>
        <time>2013-01-26T12:53:31Z</time>
      </trkpt>
      <trkpt lat="45.35828" lon="5.89569">
        <ele>1795</ele>
        <time>2013-01-26T12:53:36Z</time>
      </trkpt>
      <trkpt lat="45.3583" lon="5.89573">
        <ele>1796</ele>
        <time>2013-01-26T12:53:41Z</time>
      </trkpt>
      <trkpt lat="45.35831" lon="5.89576">
        <ele>1796</ele>
        <time>2013-01-26T12:53:46Z</time>
      </trkpt>
      <trkpt lat="45.35832" lon="5.89579">
        <ele>1797</ele>
        <time>2013-01-26T12:53:51Z</time>
      </trkpt>
      <trkpt lat="45.35833" lon="5.89582">
        <ele>1798</ele>
        <time>2013-01-26T12:53:56Z</time>
      </trkpt>
      <trkpt lat="45.35835" lon="5.89586">
        <ele>1798</ele>
        <time>2013-01-26T12:54:01Z</time>
      </trkpt>
      <trkpt lat="45.35836" lon="5.89589">
        <ele>1799</ele>
        <time>2013-01-26T12:54:06Z</time>
      </trkpt>
      <trkpt lat="45.35837" lon="5.89592">
        <ele>1799</ele>
        <time>2013-01-26T12:54:11Z</time>
      </trkpt>
      <trkpt lat="45.35838" lon="5.89595">
        <ele>1800</ele>
        <time>2013-01-26T12:54:16Z</time>
      </trkpt>
      <trkpt lat="45.35839" lon="5.89598">
        <ele>1800</ele>
        <time>2013-01-26T12:54:21Z</time>
      </trkpt>
      <trkpt lat="45.3584" lon="5.89602">
        <ele>1801</ele>
        <time>2013-01-26T12:54:26Z</time>
      </trkpt>
      <trkpt lat="45.35841" lon="5.89604">
        <ele>1801</ele>
        <time>2013-01-26T12:54:31Z</time>
      </trkpt>
      <trkpt lat="45.35842" lon="5.89607">
        <ele>1802</ele>
        <time>2013-01-26T12:54:36Z</time>
      </trkpt>
      <trkpt lat="45.35842" lon="5.8961">
        <ele>1803</ele>
        <time>2013-01-26T12:54:41Z</time>
      </trkpt>
      <trkpt lat="45.35843" lon="5.89612">
        <ele>1803</ele>
        <time>2013-01-26T12:54:46Z</time>
      </trkpt>
      <trkpt lat="45.35844" lon="5.89615">
        <ele>1804</ele>
        <time>2013-01-26T12:54:51Z</time>
      </trkpt>
      <trkpt lat="45.35845" lon="5.89617">
        <ele>1805</ele>
        <time>2013-01-26T12:54:56Z</time>
      </trkpt>
      <trkpt lat="45.35845" lon="5.89618">
        <ele>1805</ele>
        <time>2013-01-26T12:55:01Z</time>
      </trkpt>
      <trkpt lat="45.35845" lon="5.89619">
        <ele>1805</ele>
        <time>2013-01-26T12:55:06Z</time>
      </trkpt>
      <trkpt lat="45.35845" lon="5.89619">
        <ele>1805</ele>
        <time>2013-01-26T12:55:11Z</time>
      </trkpt>
      <trkpt lat="45.35845" lon="5.89619">
        <ele>1805</ele>
        <time>2013-01-26T12:55:16Z</time>
      </trkpt>
      <trkpt lat="45.35845" lon="5.89621">
        <ele>1806</ele>
        <time>2013-01-26T12:55:21Z</time>
      </trkpt>
      <trkpt lat="45.35846" lon="5.89623">
        <ele>1806</ele>
        <time>2013-01-26T12:55:26Z</time>
      </trkpt>
      <trkpt lat="45.35845" lon="5.89623">
        <ele>1806</ele>
        <time>2013-01-26T12:55:31Z</time>
      </trkpt>
      <trkpt lat="45.35843" lon="5.89622">
        <ele>1807</ele>
        <time>2013-01-26T12:55:36Z</time>
      </trkpt>
      <trkpt lat="45.3584" lon="5.89622">
        <ele>1809</ele>
        <time>2013-01-26T12:55:41Z</time>
      </trkpt>
      <trkpt lat="45.35837" lon="5.89621">
        <ele>1810</ele>
        <time>2013-01-26T12:55:46Z</time>
      </trkpt>
      <trkpt lat="45.35834" lon="5.8962">
        <ele>1811</ele>
        <time>2013-01-26T12:55:51Z</time>
      </trkpt>
      <trkpt lat="45.35832" lon="5.8962">
        <ele>1812</ele>
        <time>2013-01-26T12:55:56Z</time>
      </trkpt>
      <trkpt lat="45.35829" lon="5.89619">
        <ele>1812</ele>
        <time>2013-01-26T12:56:01Z</time>
      </trkpt>
      <trkpt lat="45.35826" lon="5.89618">
        <ele>1813</ele>
        <time>2013-01-26T12:56:06Z</time>
      </trkpt>
      <trkpt lat="45.35824" lon="5.89618">
        <ele>1814</ele>
        <time>2013-01-26T12:56:11Z</time>
      </trkpt>
      <trkpt lat="45.35821" lon="5.89617">
        <ele>1815</ele>
        <time>2013-01-26T12:56:16Z</time>
      </trkpt>
      <trkpt lat="45.35819" lon="5.89616">
        <ele>1815</ele>
        <time>2013-01-26T12:56:21Z</time>
      </trkpt>
      <trkpt lat="45.35816" lon="5.89615">
        <ele>1816</ele>
        <time>2013-01-26T12:56:26Z</time>
      </trkpt>
      <trkpt lat="45.35815" lon="5.89615">
        <ele>1817</ele>
        <time>2013-01-26T12:56:31Z</time>
      </trkpt>
      <trkpt lat="45.35812" lon="5.89615">
        <ele>1817</ele>
        <time>2013-01-26T12:56:36Z</time>
      </trkpt>
      <trkpt lat="45.35812" lon="5.89614">
        <ele>1818</ele>
        <time>2013-01-26T12:56:41Z</time>
      </trkpt>
      <trkpt lat="45.35812" lon="5.89614">
        <ele>1818</ele>
        <time>2013-01-26T12:56:46Z</time>
      </trkpt>
      <trkpt lat="45.35812" lon="5.89614">
        <ele>1818</ele>
        <time>2013-01-26T12:56:51Z</time>
      </trkpt>
      <trkpt lat="45.35809" lon="5.89613">
        <ele>1819</ele>
        <time>2013-01-26T12:56:56Z</time>
      </trkpt>
      <trkpt lat="45.35806" lon="5.89612">
        <ele>1820</ele>
        <time>2013-01-26T12:57:01Z</time>
      </trkpt>
      <trkpt lat="45.35804" lon="5.89611">
        <ele>1820</ele>
        <time>2013-01-26T12:57:06Z</time>
      </trkpt>
      <trkpt lat="45.35805" lon="5.89614">
        <ele>1821</ele>
        <time>2013-01-26T12:57:11Z</time>
      </trkpt>
      <trkpt lat="45.35806" lon="5.89618">
        <ele>1821</ele>
        <time>2013-01-26T12:57:16Z</time>
      </trkpt>
      <trkpt lat="45.35808" lon="5.89622">
        <ele>1822</ele>
        <time>2013-01-26T12:57:21Z</time>
      </trkpt>
      <trkpt lat="45.35809" lon="5.89625">
        <ele>1823</ele>
        <time>2013-01-26T12:57:26Z</time>
      </trkpt>
      <trkpt lat="45.3581" lon="5.89629">
        <ele>1823</ele>
        <time>2013-01-26T12:57:31Z</time>
      </trkpt>
      <trkpt lat="45.35811" lon="5.89632">
        <ele>1824</ele>
        <time>2013-01-26T12:57:36Z</time>
      </trkpt>
      <trkpt lat="45.35812" lon="5.89635">
        <ele>1824</ele>
        <time>2013-01-26T12:57:41Z</time>
      </trkpt>
      <trkpt lat="45.35813" lon="5.89639">
        <ele>1825</ele>
        <time>2013-01-26T12:57:46Z</time>
      </trkpt>
      <trkpt lat="45.35814" lon="5.89642">
        <ele>1825</ele>
        <time>2013-01-26T12:57:51Z</time>
      </trkpt>
      <trkpt lat="45.35815" lon="5.89646">
        <ele>1826</ele>
        <time>2013-01-26T12:57:56Z</time>
      </trkpt>
      <trkpt lat="45.35816" lon="5.89649">
        <ele>1826</ele>
        <time>2013-01-26T12:58:01Z</time>
      </trkpt>
      <trkpt lat="45.35817" lon="5.89652">
        <ele>1827</ele>
        <time>2013-01-26T12:58:06Z</time>
      </trkpt>
      <trkpt lat="45.35819" lon="5.89655">
        <ele>1828</ele>
        <time>2013-01-26T12:58:11Z</time>
      </trkpt>
      <trkpt lat="45.35819" lon="5.89659">
        <ele>1828</ele>
        <time>2013-01-26T12:58:16Z</time>
      </trkpt>
      <trkpt lat="45.35821" lon="5.89662">
        <ele>1829</ele>
        <time>2013-01-26T12:58:21Z</time>
      </trkpt>
      <trkpt lat="45.35822" lon="5.89665">
        <ele>1830</ele>
        <time>2013-01-26T12:58:26Z</time>
      </trkpt>
      <trkpt lat="45.35824" lon="5.89668">
        <ele>1830</ele>
        <time>2013-01-26T12:58:31Z</time>
      </trkpt>
      <trkpt lat="45.35825" lon="5.89671">
        <ele>1831</ele>
        <time>2013-01-26T12:58:36Z</time>
      </trkpt>
      <trkpt lat="45.35826" lon="5.89674">
        <ele>1831</ele>
        <time>2013-01-26T12:58:41Z</time>
      </trkpt>
      <trkpt lat="45.35827" lon="5.89677">
        <ele>1832</ele>
        <time>2013-01-26T12:58:46Z</time>
      </trkpt>
      <trkpt lat="45.35827" lon="5.8968">
        <ele>1833</ele>
        <time>2013-01-26T12:58:51Z</time>
      </trkpt>
      <trkpt lat="45.35827" lon="5.89683">
        <ele>1834</ele>
        <time>2013-01-26T12:58:56Z</time>
      </trkpt>
      <trkpt lat="45.35826" lon="5.89686">
        <ele>1835</ele>
        <time>2013-01-26T12:59:01Z</time>
      </trkpt>
      <trkpt lat="45.35826" lon="5.89688">
        <ele>1836</ele>
        <time>2013-01-26T12:59:06Z</time>
      </trkpt>
      <trkpt lat="45.35825" lon="5.89691">
        <ele>1837</ele>
        <time>2013-01-26T12:59:11Z</time>
      </trkpt>
      <trkpt lat="45.35825" lon="5.89694">
        <ele>1838</ele>
        <time>2013-01-26T12:59:16Z</time>
      </trkpt>
      <trkpt lat="45.35824" lon="5.89698">
        <ele>1839</ele>
        <time>2013-01-26T12:59:21Z</time>
      </trkpt>
      <trkpt lat="45.35824" lon="5.89702">
        <ele>1839</ele>
        <time>2013-01-26T12:59:26Z</time>
      </trkpt>
      <trkpt lat="45.35825" lon="5.89704">
        <ele>1840</ele>
        <time>2013-01-26T12:59:31Z</time>
      </trkpt>
      <trkpt lat="45.35826" lon="5.89708">
        <ele>1840</ele>
        <time>2013-01-26T12:59:36Z</time>
      </trkpt>
      <trkpt lat="45.35827" lon="5.89713">
        <ele>1840</ele>
        <time>2013-01-26T12:59:41Z</time>
      </trkpt>
      <trkpt lat="45.35826" lon="5.89715">
        <ele>1841</ele>
        <time>2013-01-26T12:59:46Z</time>
      </trkpt>
      <trkpt lat="45.35823" lon="5.8971">
        <ele>1841</ele>
        <time>2013-01-26T13:13:16Z</time>
      </trkpt>
      <trkpt lat="45.35823" lon="5.8971">
        <ele>1841</ele>
        <time>2013-01-26T13:13:21Z</time>
      </trkpt>
      <trkpt lat="45.35823" lon="5.8971">
        <ele>1841</ele>
        <time>2013-01-26T13:13:26Z</time>
      </trkpt>
      <trkpt lat="45.35824" lon="5.8971">
        <ele>1841</ele>
        <time>2013-01-26T13:13:31Z</time>
      </trkpt>
      <trkpt lat="45.35823" lon="5.8971">
        <ele>1841</ele>
        <time>2013-01-26T13:13:36Z</time>
      </trkpt>
      <trkpt lat="45.35823" lon="5.8971">
        <ele>1841</ele>
        <time>2013-01-26T13:13:41Z</time>
      </trkpt>
      <trkpt lat="45.35823" lon="5.8971">
        <ele>1841</ele>
        <time>2013-01-26T13:13:46Z</time>
      </trkpt>
      <trkpt lat="45.35823" lon="5.8971">
        <ele>1841</ele>
        <time>2013-01-26T13:13:51Z</time>
      </trkpt>
      <trkpt lat="45.35823" lon="5.8971">
        <ele>1841</ele>
        <time>2013-01-26T13:13:56Z</time>
      </trkpt>
      <trkpt lat="45.35823" lon="5.8971">
        <ele>1841</ele>
        <time>2013-01-26T13:14:01Z</time>
      </trkpt>
      <trkpt lat="45.35823" lon="5.8971">
        <ele>1841</ele>
        <time>2013-01-26T13:14:06Z</time>
      </trkpt>
      <trkpt lat="45.35823" lon="5.8971">
        <ele>1841</ele>
        <time>2013-01-26T13:14:11Z</time>
      </trkpt>
      <trkpt lat="45.35821" lon="5.89709">
        <ele>1841</ele>
        <time>2013-01-26T13:14:16Z</time>
      </trkpt>
      <trkpt lat="45.35817" lon="5.89705">
        <ele>1841</ele>
        <time>2013-01-26T13:14:21Z</time>
      </trkpt>
      <trkpt lat="45.35814" lon="5.897">
        <ele>1840</ele>
        <time>2013-01-26T13:14:26Z</time>
      </trkpt>
      <trkpt lat="45.35813" lon="5.89698">
        <ele>1840</ele>
        <time>2013-01-26T13:14:31Z</time>
      </trkpt>
      <trkpt lat="45.35811" lon="5.8969">
        <ele>1839</ele>
        <time>2013-01-26T13:14:36Z</time>
      </trkpt>
      <trkpt lat="45.35808" lon="5.89696">
        <ele>1836</ele>
        <time>2013-01-26T13:14:41Z</time>
      </trkpt>
      <trkpt lat="45.35806" lon="5.8971">
        <ele>1833</ele>
        <time>2013-01-26T13:14:46Z</time>
      </trkpt>
      <trkpt lat="45.35806" lon="5.89717">
        <ele>1832</ele>
        <time>2013-01-26T13:14:51Z</time>
      </trkpt>
      <trkpt lat="45.35807" lon="5.89719">
        <ele>1832</ele>
        <time>2013-01-26T13:14:56Z</time>
      </trkpt>
      <trkpt lat="45.35808" lon="5.8972">
        <ele>1831</ele>
        <time>2013-01-26T13:15:01Z</time>
      </trkpt>
      <trkpt lat="45.35808" lon="5.8972">
        <ele>1831</ele>
        <time>2013-01-26T13:15:06Z</time>
      </trkpt>
      <trkpt lat="45.35809" lon="5.8972">
        <ele>1831</ele>
        <time>2013-01-26T13:15:11Z</time>
      </trkpt>
      <trkpt lat="45.35809" lon="5.89722">
        <ele>1830</ele>
        <time>2013-01-26T13:15:16Z</time>
      </trkpt>
      <trkpt lat="45.35809" lon="5.89722">
        <ele>1831</ele>
        <time>2013-01-26T13:15:21Z</time>
      </trkpt>
      <trkpt lat="45.35809" lon="5.89723">
        <ele>1830</ele>
        <time>2013-01-26T13:15:26Z</time>
      </trkpt>
      <trkpt lat="45.35809" lon="5.89731">
        <ele>1826</ele>
        <time>2013-01-26T13:15:31Z</time>
      </trkpt>
      <trkpt lat="45.35812" lon="5.89732">
        <ele>1824</ele>
        <time>2013-01-26T13:15:36Z</time>
      </trkpt>
      <trkpt lat="45.35812" lon="5.89731">
        <ele>1824</ele>
        <time>2013-01-26T13:15:41Z</time>
      </trkpt>
      <trkpt lat="45.35812" lon="5.89731">
        <ele>1824</ele>
        <time>2013-01-26T13:15:46Z</time>
      </trkpt>
      <trkpt lat="45.35812" lon="5.89731">
        <ele>1824</ele>
        <time>2013-01-26T13:15:51Z</time>
      </trkpt>
      <trkpt lat="45.35816" lon="5.89734">
        <ele>1822</ele>
        <time>2013-01-26T13:15:56Z</time>
      </trkpt>
      <trkpt lat="45.35815" lon="5.89742">
        <ele>1818</ele>
        <time>2013-01-26T13:16:01Z</time>
      </trkpt>
      <trkpt lat="45.35814" lon="5.89748">
        <ele>1814</ele>
        <time>2013-01-26T13:16:06Z</time>
      </trkpt>
      <trkpt lat="45.35814" lon="5.89748">
        <ele>1813</ele>
        <time>2013-01-26T13:16:11Z</time>
      </trkpt>
      <trkpt lat="45.35811" lon="5.8975">
        <ele>1812</ele>
        <time>2013-01-26T13:16:16Z</time>
      </trkpt>
      <trkpt lat="45.35811" lon="5.8975">
        <ele>1811</ele>
        <time>2013-01-26T13:16:21Z</time>
      </trkpt>
      <trkpt lat="45.3581" lon="5.89751">
        <ele>1811</ele>
        <time>2013-01-26T13:16:26Z</time>
      </trkpt>
      <trkpt lat="45.3581" lon="5.89751">
        <ele>1811</ele>
        <time>2013-01-26T13:16:31Z</time>
      </trkpt>
      <trkpt lat="45.3581" lon="5.89751">
        <ele>1811</ele>
        <time>2013-01-26T13:16:36Z</time>
      </trkpt>
      <trkpt lat="45.35809" lon="5.89751">
        <ele>1811</ele>
        <time>2013-01-26T13:16:41Z</time>
      </trkpt>
      <trkpt lat="45.35809" lon="5.89751">
        <ele>1811</ele>
        <time>2013-01-26T13:16:46Z</time>
      </trkpt>
      <trkpt lat="45.35809" lon="5.89751">
        <ele>1811</ele>
        <time>2013-01-26T13:16:51Z</time>
      </trkpt>
      <trkpt lat="45.35809" lon="5.89751">
        <ele>1811</ele>
        <time>2013-01-26T13:16:56Z</time>
      </trkpt>
      <trkpt lat="45.3581" lon="5.8975">
        <ele>1810</ele>
        <time>2013-01-26T13:17:01Z</time>
      </trkpt>
      <trkpt lat="45.35812" lon="5.8975">
        <ele>1812</ele>
        <time>2013-01-26T13:17:06Z</time>
      </trkpt>
      <trkpt lat="45.35812" lon="5.8975">
        <ele>1813</ele>
        <time>2013-01-26T13:17:11Z</time>
      </trkpt>
      <trkpt lat="45.35813" lon="5.8975">
        <ele>1814</ele>
        <time>2013-01-26T13:17:16Z</time>
      </trkpt>
      <trkpt lat="45.35816" lon="5.89751">
        <ele>1817</ele>
        <time>2013-01-26T13:17:21Z</time>
      </trkpt>
      <trkpt lat="45.35818" lon="5.89752">
        <ele>1819</ele>
        <time>2013-01-26T13:17:26Z</time>
      </trkpt>
      <trkpt lat="45.35816" lon="5.89751">
        <ele>1818</ele>
        <time>2013-01-26T13:17:31Z</time>
      </trkpt>
      <trkpt lat="45.35815" lon="5.8975">
        <ele>1818</ele>
        <time>2013-01-26T13:17:36Z</time>
      </trkpt>
      <trkpt lat="45.35815" lon="5.89751">
        <ele>1818</ele>
        <time>2013-01-26T13:17:41Z</time>
      </trkpt>
      <trkpt lat="45.35815" lon="5.89751">
        <ele>1818</ele>
        <time>2013-01-26T13:17:46Z</time>
      </trkpt>
      <trkpt lat="45.35814" lon="5.89751">
        <ele>1817</ele>
        <time>2013-01-26T13:17:51Z</time>
      </trkpt>
      <trkpt lat="45.35813" lon="5.89755">
        <ele>1815</ele>
        <time>2013-01-26T13:17:56Z</time>
      </trkpt>
      <trkpt lat="45.35816" lon="5.89764">
        <ele>1809</ele>
        <time>2013-01-26T13:18:01Z</time>
      </trkpt>
      <trkpt lat="45.35825" lon="5.89768">
        <ele>1803</ele>
        <time>2013-01-26T13:18:06Z</time>
      </trkpt>
      <trkpt lat="45.35827" lon="5.8978">
        <ele>1794</ele>
        <time>2013-01-26T13:18:11Z</time>
      </trkpt>
      <trkpt lat="45.35826" lon="5.89786">
        <ele>1790</ele>
        <time>2013-01-26T13:18:16Z</time>
      </trkpt>
      <trkpt lat="45.35826" lon="5.8979">
        <ele>1787</ele>
        <time>2013-01-26T13:18:21Z</time>
      </trkpt>
      <trkpt lat="45.35826" lon="5.89798">
        <ele>1782</ele>
        <time>2013-01-26T13:18:26Z</time>
      </trkpt>
      <trkpt lat="45.35826" lon="5.898">
        <ele>1780</ele>
        <time>2013-01-26T13:18:31Z</time>
      </trkpt>
      <trkpt lat="45.35825" lon="5.89806">
        <ele>1776</ele>
        <time>2013-01-26T13:18:36Z</time>
      </trkpt>
      <trkpt lat="45.35827" lon="5.8981">
        <ele>1773</ele>
        <time>2013-01-26T13:18:41Z</time>
      </trkpt>
      <trkpt lat="45.35827" lon="5.89814">
        <ele>1771</ele>
        <time>2013-01-26T13:18:46Z</time>
      </trkpt>
      <trkpt lat="45.35822" lon="5.89821">
        <ele>1767</ele>
        <time>2013-01-26T13:18:51Z</time>
      </trkpt>
      <trkpt lat="45.35813" lon="5.89835">
        <ele>1762</ele>
        <time>2013-01-26T13:18:56Z</time>
      </trkpt>
      <trkpt lat="45.35811" lon="5.8984">
        <ele>1760</ele>
        <time>2013-01-26T13:19:01Z</time>
      </trkpt>
      <trkpt lat="45.35808" lon="5.89847">
        <ele>1757</ele>
        <time>2013-01-26T13:19:06Z</time>
      </trkpt>
      <trkpt lat="45.35814" lon="5.89852">
        <ele>1753</ele>
        <time>2013-01-26T13:19:11Z</time>
      </trkpt>
      <trkpt lat="45.35816" lon="5.89868">
        <ele>1746</ele>
        <time>2013-01-26T13:19:16Z</time>
      </trkpt>
      <trkpt lat="45.35825" lon="5.89874">
        <ele>1738</ele>
        <time>2013-01-26T13:19:21Z</time>
      </trkpt>
      <trkpt lat="45.35823" lon="5.89876">
        <ele>1737</ele>
        <time>2013-01-26T13:19:26Z</time>
      </trkpt>
      <trkpt lat="45.35823" lon="5.89876">
        <ele>1737</ele>
        <time>2013-01-26T13:19:31Z</time>
      </trkpt>
      <trkpt lat="45.35823" lon="5.89876">
        <ele>1736</ele>
        <time>2013-01-26T13:19:36Z</time>
      </trkpt>
      <trkpt lat="45.35823" lon="5.89876">
        <ele>1736</ele>
        <time>2013-01-26T13:19:41Z</time>
      </trkpt>
      <trkpt lat="45.35823" lon="5.89875">
        <ele>1736</ele>
        <time>2013-01-26T13:19:46Z</time>
      </trkpt>
      <trkpt lat="45.35823" lon="5.89875">
        <ele>1736</ele>
        <time>2013-01-26T13:19:51Z</time>
      </trkpt>
      <trkpt lat="45.35831" lon="5.89874">
        <ele>1733</ele>
        <time>2013-01-26T13:19:56Z</time>
      </trkpt>
      <trkpt lat="45.35838" lon="5.89877">
        <ele>1730</ele>
        <time>2013-01-26T13:20:01Z</time>
      </trkpt>
      <trkpt lat="45.35839" lon="5.8989">
        <ele>1722</ele>
        <time>2013-01-26T13:20:06Z</time>
      </trkpt>
      <trkpt lat="45.35822" lon="5.89907">
        <ele>1717</ele>
        <time>2013-01-26T13:20:11Z</time>
      </trkpt>
      <trkpt lat="45.35817" lon="5.89921">
        <ele>1712</ele>
        <time>2013-01-26T13:20:16Z</time>
      </trkpt>
      <trkpt lat="45.3583" lon="5.8992">
        <ele>1706</ele>
        <time>2013-01-26T13:20:21Z</time>
      </trkpt>
      <trkpt lat="45.35826" lon="5.89931">
        <ele>1701</ele>
        <time>2013-01-26T13:20:26Z</time>
      </trkpt>
      <trkpt lat="45.35831" lon="5.89934">
        <ele>1698</ele>
        <time>2013-01-26T13:20:31Z</time>
      </trkpt>
      <trkpt lat="45.35837" lon="5.89941">
        <ele>1693</ele>
        <time>2013-01-26T13:20:36Z</time>
      </trkpt>
      <trkpt lat="45.35836" lon="5.89942">
        <ele>1692</ele>
        <time>2013-01-26T13:20:41Z</time>
      </trkpt>
      <trkpt lat="45.35835" lon="5.89943">
        <ele>1691</ele>
        <time>2013-01-26T13:20:46Z</time>
      </trkpt>
      <trkpt lat="45.35835" lon="5.89945">
        <ele>1690</ele>
        <time>2013-01-26T13:20:51Z</time>
      </trkpt>
      <trkpt lat="45.35836" lon="5.89951">
        <ele>1687</ele>
        <time>2013-01-26T13:20:56Z</time>
      </trkpt>
      <trkpt lat="45.35835" lon="5.89953">
        <ele>1685</ele>
        <time>2013-01-26T13:21:01Z</time>
      </trkpt>
      <trkpt lat="45.35836" lon="5.89957">
        <ele>1682</ele>
        <time>2013-01-26T13:21:06Z</time>
      </trkpt>
      <trkpt lat="45.35844" lon="5.89963">
        <ele>1680</ele>
        <time>2013-01-26T13:21:11Z</time>
      </trkpt>
      <trkpt lat="45.35844" lon="5.89963">
        <ele>1680</ele>
        <time>2013-01-26T13:21:16Z</time>
      </trkpt>
      <trkpt lat="45.35844" lon="5.89963">
        <ele>1680</ele>
        <time>2013-01-26T13:21:21Z</time>
      </trkpt>
      <trkpt lat="45.35839" lon="5.89968">
        <ele>1677</ele>
        <time>2013-01-26T13:21:26Z</time>
      </trkpt>
      <trkpt lat="45.35828" lon="5.89976">
        <ele>1675</ele>
        <time>2013-01-26T13:21:31Z</time>
      </trkpt>
      <trkpt lat="45.35827" lon="5.89977">
        <ele>1675</ele>
        <time>2013-01-26T13:21:36Z</time>
      </trkpt>
      <trkpt lat="45.35825" lon="5.89983">
        <ele>1672</ele>
        <time>2013-01-26T13:21:41Z</time>
      </trkpt>
      <trkpt lat="45.35825" lon="5.89982">
        <ele>1672</ele>
        <time>2013-01-26T13:21:46Z</time>
      </trkpt>
      <trkpt lat="45.35824" lon="5.89987">
        <ele>1670</ele>
        <time>2013-01-26T13:21:51Z</time>
      </trkpt>
      <trkpt lat="45.35816" lon="5.89984">
        <ele>1668</ele>
        <time>2013-01-26T13:21:56Z</time>
      </trkpt>
      <trkpt lat="45.35811" lon="5.89988">
        <ele>1664</ele>
        <time>2013-01-26T13:22:01Z</time>
      </trkpt>
      <trkpt lat="45.35811" lon="5.89995">
        <ele>1660</ele>
        <time>2013-01-26T13:22:06Z</time>
      </trkpt>
      <trkpt lat="45.35811" lon="5.90005">
        <ele>1655</ele>
        <time>2013-01-26T13:22:11Z</time>
      </trkpt>
      <trkpt lat="45.35808" lon="5.90011">
        <ele>1650</ele>
        <time>2013-01-26T13:22:16Z</time>
      </trkpt>
      <trkpt lat="45.35808" lon="5.90017">
        <ele>1645</ele>
        <time>2013-01-26T13:22:21Z</time>
      </trkpt>
      <trkpt lat="45.35808" lon="5.90017">
        <ele>1644</ele>
        <time>2013-01-26T13:22:26Z</time>
      </trkpt>
      <trkpt lat="45.35808" lon="5.90017">
        <ele>1644</ele>
        <time>2013-01-26T13:22:31Z</time>
      </trkpt>
      <trkpt lat="45.35806" lon="5.90018">
        <ele>1643</ele>
        <time>2013-01-26T13:22:36Z</time>
      </trkpt>
      <trkpt lat="45.35806" lon="5.90017">
        <ele>1643</ele>
        <time>2013-01-26T13:22:41Z</time>
      </trkpt>
      <trkpt lat="45.35804" lon="5.90024">
        <ele>1640</ele>
        <time>2013-01-26T13:22:46Z</time>
      </trkpt>
      <trkpt lat="45.35801" lon="5.90034">
        <ele>1634</ele>
        <time>2013-01-26T13:22:51Z</time>
      </trkpt>
      <trkpt lat="45.35797" lon="5.90032">
        <ele>1631</ele>
        <time>2013-01-26T13:22:56Z</time>
      </trkpt>
      <trkpt lat="45.35797" lon="5.90032">
        <ele>1631</ele>
        <time>2013-01-26T13:23:01Z</time>
      </trkpt>
      <trkpt lat="45.35797" lon="5.90033">
        <ele>1632</ele>
        <time>2013-01-26T13:23:06Z</time>
      </trkpt>
      <trkpt lat="45.35792" lon="5.9003">
        <ele>1630</ele>
        <time>2013-01-26T13:23:11Z</time>
      </trkpt>
      <trkpt lat="45.35782" lon="5.9003">
        <ele>1627</ele>
        <time>2013-01-26T13:23:16Z</time>
      </trkpt>
      <trkpt lat="45.35772" lon="5.90031">
        <ele>1625</ele>
        <time>2013-01-26T13:23:21Z</time>
      </trkpt>
      <trkpt lat="45.35766" lon="5.90028">
        <ele>1625</ele>
        <time>2013-01-26T13:23:26Z</time>
      </trkpt>
      <trkpt lat="45.35763" lon="5.90033">
        <ele>1623</ele>
        <time>2013-01-26T13:23:31Z</time>
      </trkpt>
      <trkpt lat="45.35764" lon="5.90044">
        <ele>1621</ele>
        <time>2013-01-26T13:23:36Z</time>
      </trkpt>
      <trkpt lat="45.35754" lon="5.90051">
        <ele>1617</ele>
        <time>2013-01-26T13:23:41Z</time>
      </trkpt>
      <trkpt lat="45.35757" lon="5.90056">
        <ele>1616</ele>
        <time>2013-01-26T13:23:46Z</time>
      </trkpt>
      <trkpt lat="45.35756" lon="5.9006">
        <ele>1618</ele>
        <time>2013-01-26T13:23:51Z</time>
      </trkpt>
      <trkpt lat="45.3575" lon="5.90069">
        <ele>1619</ele>
        <time>2013-01-26T13:23:56Z</time>
      </trkpt>
      <trkpt lat="45.35743" lon="5.90069">
        <ele>1615</ele>
        <time>2013-01-26T13:24:01Z</time>
      </trkpt>
      <trkpt lat="45.35738" lon="5.90074">
        <ele>1600</ele>
        <time>2013-01-26T13:24:09Z</time>
      </trkpt>
      <trkpt lat="45.35736" lon="5.90079">
        <ele>1598</ele>
        <time>2013-01-26T13:24:14Z</time>
      </trkpt>
      <trkpt lat="45.35741" lon="5.90083">
        <ele>1597</ele>
        <time>2013-01-26T13:24:19Z</time>
      </trkpt>
      <trkpt lat="45.35747" lon="5.9009">
        <ele>1597</ele>
        <time>2013-01-26T13:24:24Z</time>
      </trkpt>
      <trkpt lat="45.35759" lon="5.90105">
        <ele>1595</ele>
        <time>2013-01-26T13:24:29Z</time>
      </trkpt>
      <trkpt lat="45.35754" lon="5.90102">
        <ele>1593</ele>
        <time>2013-01-26T13:24:34Z</time>
      </trkpt>
      <trkpt lat="45.35747" lon="5.90114">
        <ele>1591</ele>
        <time>2013-01-26T13:24:39Z</time>
      </trkpt>
      <trkpt lat="45.35748" lon="5.90116">
        <ele>1589</ele>
        <time>2013-01-26T13:24:44Z</time>
      </trkpt>
      <trkpt lat="45.35748" lon="5.90116">
        <ele>1589</ele>
        <time>2013-01-26T13:24:49Z</time>
      </trkpt>
      <trkpt lat="45.35748" lon="5.90116">
        <ele>1589</ele>
        <time>2013-01-26T13:24:54Z</time>
      </trkpt>
      <trkpt lat="45.35748" lon="5.90117">
        <ele>1589</ele>
        <time>2013-01-26T13:24:59Z</time>
      </trkpt>
      <trkpt lat="45.35747" lon="5.90117">
        <ele>1589</ele>
        <time>2013-01-26T13:25:04Z</time>
      </trkpt>
      <trkpt lat="45.35745" lon="5.90119">
        <ele>1591</ele>
        <time>2013-01-26T13:25:09Z</time>
      </trkpt>
      <trkpt lat="45.35743" lon="5.9012">
        <ele>1589</ele>
        <time>2013-01-26T13:25:14Z</time>
      </trkpt>
      <trkpt lat="45.35744" lon="5.90125">
        <ele>1588</ele>
        <time>2013-01-26T13:25:19Z</time>
      </trkpt>
      <trkpt lat="45.35741" lon="5.9013">
        <ele>1586</ele>
        <time>2013-01-26T13:25:24Z</time>
      </trkpt>
      <trkpt lat="45.3574" lon="5.90131">
        <ele>1583</ele>
        <time>2013-01-26T13:25:29Z</time>
      </trkpt>
      <trkpt lat="45.35737" lon="5.90131">
        <ele>1580</ele>
        <time>2013-01-26T13:25:34Z</time>
      </trkpt>
      <trkpt lat="45.35733" lon="5.9014">
        <ele>1575</ele>
        <time>2013-01-26T13:25:39Z</time>
      </trkpt>
      <trkpt lat="45.35736" lon="5.90147">
        <ele>1571</ele>
        <time>2013-01-26T13:25:44Z</time>
      </trkpt>
      <trkpt lat="45.3573" lon="5.90155">
        <ele>1567</ele>
        <time>2013-01-26T13:25:49Z</time>
      </trkpt>
      <trkpt lat="45.35718" lon="5.90161">
        <ele>1565</ele>
        <time>2013-01-26T13:25:54Z</time>
      </trkpt>
      <trkpt lat="45.35715" lon="5.90172">
        <ele>1562</ele>
        <time>2013-01-26T13:25:59Z</time>
      </trkpt>
      <trkpt lat="45.35708" lon="5.90173">
        <ele>1557</ele>
        <time>2013-01-26T13:26:04Z</time>
      </trkpt>
      <trkpt lat="45.35708" lon="5.90174">
        <ele>1553</ele>
        <time>2013-01-26T13:26:09Z</time>
      </trkpt>
      <trkpt lat="45.35706" lon="5.90182">
        <ele>1551</ele>
        <time>2013-01-26T13:26:14Z</time>
      </trkpt>
      <trkpt lat="45.35698" lon="5.90181">
        <ele>1547</ele>
        <time>2013-01-26T13:26:19Z</time>
      </trkpt>
      <trkpt lat="45.35693" lon="5.90183">
        <ele>1545</ele>
        <time>2013-01-26T13:26:24Z</time>
      </trkpt>
      <trkpt lat="45.35689" lon="5.90187">
        <ele>1545</ele>
        <time>2013-01-26T13:26:29Z</time>
      </trkpt>
      <trkpt lat="45.35685" lon="5.90192">
        <ele>1550</ele>
        <time>2013-01-26T13:26:34Z</time>
      </trkpt>
      <trkpt lat="45.35683" lon="5.90192">
        <ele>1547</ele>
        <time>2013-01-26T13:26:39Z</time>
      </trkpt>
      <trkpt lat="45.35684" lon="5.90192">
        <ele>1546</ele>
        <time>2013-01-26T13:26:44Z</time>
      </trkpt>
      <trkpt lat="45.35684" lon="5.90191">
        <ele>1544</ele>
        <time>2013-01-26T13:26:49Z</time>
      </trkpt>
      <trkpt lat="45.35684" lon="5.90192">
        <ele>1544</ele>
        <time>2013-01-26T13:26:54Z</time>
      </trkpt>
      <trkpt lat="45.35682" lon="5.90196">
        <ele>1542</ele>
        <time>2013-01-26T13:26:59Z</time>
      </trkpt>
      <trkpt lat="45.3568" lon="5.90205">
        <ele>1537</ele>
        <time>2013-01-26T13:27:04Z</time>
      </trkpt>
      <trkpt lat="45.35675" lon="5.9021">
        <ele>1529</ele>
        <time>2013-01-26T13:27:09Z</time>
      </trkpt>
      <trkpt lat="45.35678" lon="5.90223">
        <ele>1521</ele>
        <time>2013-01-26T13:27:14Z</time>
      </trkpt>
      <trkpt lat="45.35676" lon="5.90235">
        <ele>1514</ele>
        <time>2013-01-26T13:27:19Z</time>
      </trkpt>
      <trkpt lat="45.35673" lon="5.90241">
        <ele>1508</ele>
        <time>2013-01-26T13:27:24Z</time>
      </trkpt>
      <trkpt lat="45.35669" lon="5.90247">
        <ele>1503</ele>
        <time>2013-01-26T13:27:29Z</time>
      </trkpt>
      <trkpt lat="45.35666" lon="5.90249">
        <ele>1501</ele>
        <time>2013-01-26T13:27:34Z</time>
      </trkpt>
      <trkpt lat="45.35666" lon="5.90248">
        <ele>1499</ele>
        <time>2013-01-26T13:27:39Z</time>
      </trkpt>
      <trkpt lat="45.35668" lon="5.90248">
        <ele>1499</ele>
        <time>2013-01-26T13:27:44Z</time>
      </trkpt>
      <trkpt lat="45.35671" lon="5.90254">
        <ele>1498</ele>
        <time>2013-01-26T13:27:49Z</time>
      </trkpt>
      <trkpt lat="45.35672" lon="5.90257">
        <ele>1496</ele>
        <time>2013-01-26T13:27:54Z</time>
      </trkpt>
      <trkpt lat="45.35672" lon="5.90258">
        <ele>1496</ele>
        <time>2013-01-26T13:27:59Z</time>
      </trkpt>
      <trkpt lat="45.35675" lon="5.90263">
        <ele>1495</ele>
        <time>2013-01-26T13:28:04Z</time>
      </trkpt>
      <trkpt lat="45.35677" lon="5.90266">
        <ele>1494</ele>
        <time>2013-01-26T13:28:09Z</time>
      </trkpt>
      <trkpt lat="45.35679" lon="5.90272">
        <ele>1493</ele>
        <time>2013-01-26T13:28:14Z</time>
      </trkpt>
      <trkpt lat="45.35685" lon="5.90284">
        <ele>1492</ele>
        <time>2013-01-26T13:28:19Z</time>
      </trkpt>
      <trkpt lat="45.35688" lon="5.90291">
        <ele>1491</ele>
        <time>2013-01-26T13:28:24Z</time>
      </trkpt>
      <trkpt lat="45.35698" lon="5.90311">
        <ele>1491</ele>
        <time>2013-01-26T13:28:29Z</time>
      </trkpt>
      <trkpt lat="45.35701" lon="5.90317">
        <ele>1491</ele>
        <time>2013-01-26T13:28:34Z</time>
      </trkpt>
      <trkpt lat="45.35698" lon="5.90317">
        <ele>1489</ele>
        <time>2013-01-26T13:28:39Z</time>
      </trkpt>
      <trkpt lat="45.35694" lon="5.90317">
        <ele>1486</ele>
        <time>2013-01-26T13:28:44Z</time>
      </trkpt>
      <trkpt lat="45.35694" lon="5.90319">
        <ele>1484</ele>
        <time>2013-01-26T13:28:49Z</time>
      </trkpt>
      <trkpt lat="45.35696" lon="5.90327">
        <ele>1482</ele>
        <time>2013-01-26T13:28:54Z</time>
      </trkpt>
      <trkpt lat="45.35693" lon="5.90333">
        <ele>1478</ele>
        <time>2013-01-26T13:28:59Z</time>
      </trkpt>
      <trkpt lat="45.35688" lon="5.90338">
        <ele>1474</ele>
        <time>2013-01-26T13:29:04Z</time>
      </trkpt>
      <trkpt lat="45.35684" lon="5.90339">
        <ele>1473</ele>
        <time>2013-01-26T13:29:09Z</time>
      </trkpt>
      <trkpt lat="45.35684" lon="5.90341">
        <ele>1472</ele>
        <time>2013-01-26T13:29:14Z</time>
      </trkpt>
      <trkpt lat="45.35681" lon="5.90344">
        <ele>1470</ele>
        <time>2013-01-26T13:29:19Z</time>
      </trkpt>
      <trkpt lat="45.35674" lon="5.90343">
        <ele>1467</ele>
        <time>2013-01-26T13:29:24Z</time>
      </trkpt>
      <trkpt lat="45.35671" lon="5.90349">
        <ele>1466</ele>
        <time>2013-01-26T13:29:29Z</time>
      </trkpt>
      <trkpt lat="45.35673" lon="5.90358">
        <ele>1464</ele>
        <time>2013-01-26T13:29:34Z</time>
      </trkpt>
      <trkpt lat="45.35677" lon="5.90365">
        <ele>1463</ele>
        <time>2013-01-26T13:29:39Z</time>
      </trkpt>
      <trkpt lat="45.35676" lon="5.90369">
        <ele>1460</ele>
        <time>2013-01-26T13:29:44Z</time>
      </trkpt>
      <trkpt lat="45.35676" lon="5.90367">
        <ele>1457</ele>
        <time>2013-01-26T13:29:49Z</time>
      </trkpt>
      <trkpt lat="45.35676" lon="5.90367">
        <ele>1455</ele>
        <time>2013-01-26T13:29:54Z</time>
      </trkpt>
      <trkpt lat="45.35676" lon="5.90366">
        <ele>1453</ele>
        <time>2013-01-26T13:29:59Z</time>
      </trkpt>
      <trkpt lat="45.35677" lon="5.90365">
        <ele>1452</ele>
        <time>2013-01-26T13:30:04Z</time>
      </trkpt>
      <trkpt lat="45.35673" lon="5.90366">
        <ele>1451</ele>
        <time>2013-01-26T13:30:09Z</time>
      </trkpt>
      <trkpt lat="45.35666" lon="5.90363">
        <ele>1447</ele>
        <time>2013-01-26T13:30:14Z</time>
      </trkpt>
      <trkpt lat="45.35657" lon="5.90369">
        <ele>1444</ele>
        <time>2013-01-26T13:30:19Z</time>
      </trkpt>
      <trkpt lat="45.35657" lon="5.90374">
        <ele>1443</ele>
        <time>2013-01-26T13:30:24Z</time>
      </trkpt>
      <trkpt lat="45.35653" lon="5.9038">
        <ele>1439</ele>
        <time>2013-01-26T13:30:29Z</time>
      </trkpt>
      <trkpt lat="45.35643" lon="5.90384">
        <ele>1435</ele>
        <time>2013-01-26T13:30:34Z</time>
      </trkpt>
      <trkpt lat="45.35639" lon="5.90398">
        <ele>1432</ele>
        <time>2013-01-26T13:30:39Z</time>
      </trkpt>
      <trkpt lat="45.35634" lon="5.90408">
        <ele>1426</ele>
        <time>2013-01-26T13:30:44Z</time>
      </trkpt>
      <trkpt lat="45.35624" lon="5.90409">
        <ele>1419</ele>
        <time>2013-01-26T13:30:49Z</time>
      </trkpt>
      <trkpt lat="45.35619" lon="5.90407">
        <ele>1416</ele>
        <time>2013-01-26T13:30:54Z</time>
      </trkpt>
      <trkpt lat="45.35618" lon="5.90413">
        <ele>1414</ele>
        <time>2013-01-26T13:30:59Z</time>
      </trkpt>
      <trkpt lat="45.35628" lon="5.90429">
        <ele>1411</ele>
        <time>2013-01-26T13:31:04Z</time>
      </trkpt>
      <trkpt lat="45.35637" lon="5.90447">
        <ele>1410</ele>
        <time>2013-01-26T13:31:09Z</time>
      </trkpt>
      <trkpt lat="45.35645" lon="5.90466">
        <ele>1406</ele>
        <time>2013-01-26T13:31:14Z</time>
      </trkpt>
      <trkpt lat="45.35646" lon="5.90469">
        <ele>1404</ele>
        <time>2013-01-26T13:31:19Z</time>
      </trkpt>
      <trkpt lat="45.35647" lon="5.90467">
        <ele>1396</ele>
        <time>2013-01-26T13:35:19Z</time>
      </trkpt>
      <trkpt lat="45.3565" lon="5.90484">
        <ele>1395</ele>
        <time>2013-01-26T13:35:24Z</time>
      </trkpt>
      <trkpt lat="45.35653" lon="5.90496">
        <ele>1394</ele>
        <time>2013-01-26T13:35:29Z</time>
      </trkpt>
      <trkpt lat="45.35653" lon="5.90496">
        <ele>1394</ele>
        <time>2013-01-26T13:35:34Z</time>
      </trkpt>
      <trkpt lat="45.35652" lon="5.90497">
        <ele>1394</ele>
        <time>2013-01-26T13:35:39Z</time>
      </trkpt>
      <trkpt lat="45.35654" lon="5.90506">
        <ele>1394</ele>
        <time>2013-01-26T13:35:44Z</time>
      </trkpt>
      <trkpt lat="45.35662" lon="5.90532">
        <ele>1390</ele>
        <time>2013-01-26T13:35:49Z</time>
      </trkpt>
      <trkpt lat="45.35666" lon="5.90549">
        <ele>1388</ele>
        <time>2013-01-26T13:35:54Z</time>
      </trkpt>
      <trkpt lat="45.35678" lon="5.90569">
        <ele>1383</ele>
        <time>2013-01-26T13:35:59Z</time>
      </trkpt>
      <trkpt lat="45.35692" lon="5.90587">
        <ele>1380</ele>
        <time>2013-01-26T13:36:04Z</time>
      </trkpt>
      <trkpt lat="45.35703" lon="5.90602">
        <ele>1376</ele>
        <time>2013-01-26T13:36:09Z</time>
      </trkpt>
      <trkpt lat="45.35715" lon="5.90627">
        <ele>1371</ele>
        <time>2013-01-26T13:36:14Z</time>
      </trkpt>
      <trkpt lat="45.35724" lon="5.90658">
        <ele>1367</ele>
        <time>2013-01-26T13:36:19Z</time>
      </trkpt>
      <trkpt lat="45.35735" lon="5.90696">
        <ele>1361</ele>
        <time>2013-01-26T13:36:24Z</time>
      </trkpt>
      <trkpt lat="45.3574" lon="5.90706">
        <ele>1360</ele>
        <time>2013-01-26T13:36:29Z</time>
      </trkpt>
      <trkpt lat="45.35748" lon="5.90716">
        <ele>1358</ele>
        <time>2013-01-26T13:36:34Z</time>
      </trkpt>
      <trkpt lat="45.35752" lon="5.90725">
        <ele>1356</ele>
        <time>2013-01-26T13:36:39Z</time>
      </trkpt>
      <trkpt lat="45.35762" lon="5.90742">
        <ele>1352</ele>
        <time>2013-01-26T13:36:44Z</time>
      </trkpt>
      <trkpt lat="45.35782" lon="5.90761">
        <ele>1348</ele>
        <time>2013-01-26T13:36:49Z</time>
      </trkpt>
      <trkpt lat="45.35799" lon="5.90773">
        <ele>1343</ele>
        <time>2013-01-26T13:36:54Z</time>
      </trkpt>
      <trkpt lat="45.35812" lon="5.90786">
        <ele>1340</ele>
        <time>2013-01-26T13:36:59Z</time>
      </trkpt>
      <trkpt lat="45.35805" lon="5.90793">
        <ele>1335</ele>
        <time>2013-01-26T13:37:04Z</time>
      </trkpt>
      <trkpt lat="45.35802" lon="5.90804">
        <ele>1330</ele>
        <time>2013-01-26T13:37:09Z</time>
      </trkpt>
      <trkpt lat="45.35806" lon="5.90816">
        <ele>1326</ele>
        <time>2013-01-26T13:37:14Z</time>
      </trkpt>
      <trkpt lat="45.35804" lon="5.9083">
        <ele>1321</ele>
        <time>2013-01-26T13:37:19Z</time>
      </trkpt>
      <trkpt lat="45.35805" lon="5.90837">
        <ele>1318</ele>
        <time>2013-01-26T13:37:24Z</time>
      </trkpt>
      <trkpt lat="45.35803" lon="5.90849">
        <ele>1314</ele>
        <time>2013-01-26T13:37:29Z</time>
      </trkpt>
      <trkpt lat="45.35803" lon="5.90857">
        <ele>1312</ele>
        <time>2013-01-26T13:37:34Z</time>
      </trkpt>
      <trkpt lat="45.35804" lon="5.90858">
        <ele>1311</ele>
        <time>2013-01-26T13:37:39Z</time>
      </trkpt>
      <trkpt lat="45.35805" lon="5.90858">
        <ele>1311</ele>
        <time>2013-01-26T13:37:44Z</time>
      </trkpt>
      <trkpt lat="45.35803" lon="5.90858">
        <ele>1309</ele>
        <time>2013-01-26T13:37:49Z</time>
      </trkpt>
      <trkpt lat="45.35802" lon="5.90864">
        <ele>1310</ele>
        <time>2013-01-26T13:37:54Z</time>
      </trkpt>
      <trkpt lat="45.35804" lon="5.9088">
        <ele>1307</ele>
        <time>2013-01-26T13:37:59Z</time>
      </trkpt>
      <trkpt lat="45.35805" lon="5.90888">
        <ele>1303</ele>
        <time>2013-01-26T13:38:04Z</time>
      </trkpt>
      <trkpt lat="45.35787" lon="5.90882">
        <ele>1300</ele>
        <time>2013-01-26T13:38:09Z</time>
      </trkpt>
      <trkpt lat="45.35776" lon="5.90881">
        <ele>1298</ele>
        <time>2013-01-26T13:38:14Z</time>
      </trkpt>
      <trkpt lat="45.35756" lon="5.9087">
        <ele>1295</ele>
        <time>2013-01-26T13:38:19Z</time>
      </trkpt>
      <trkpt lat="45.35748" lon="5.9087">
        <ele>1293</ele>
        <time>2013-01-26T13:38:24Z</time>
      </trkpt>
      <trkpt lat="45.35739" lon="5.90872">
        <ele>1290</ele>
        <time>2013-01-26T13:38:29Z</time>
      </trkpt>
      <trkpt lat="45.35722" lon="5.90874">
        <ele>1286</ele>
        <time>2013-01-26T13:38:34Z</time>
      </trkpt>
      <trkpt lat="45.35703" lon="5.90879">
        <ele>1278</ele>
        <time>2013-01-26T13:38:39Z</time>
      </trkpt>
      <trkpt lat="45.35704" lon="5.90883">
        <ele>1276</ele>
        <time>2013-01-26T13:38:44Z</time>
      </trkpt>
      <trkpt lat="45.35704" lon="5.90883">
        <ele>1275</ele>
        <time>2013-01-26T13:38:49Z</time>
      </trkpt>
      <trkpt lat="45.35704" lon="5.90883">
        <ele>1274</ele>
        <time>2013-01-26T13:38:54Z</time>
      </trkpt>
      <trkpt lat="45.35705" lon="5.90885">
        <ele>1273</ele>
        <time>2013-01-26T13:38:59Z</time>
      </trkpt>
      <trkpt lat="45.35701" lon="5.90891">
        <ele>1272</ele>
        <time>2013-01-26T13:39:04Z</time>
      </trkpt>
      <trkpt lat="45.35702" lon="5.90913">
        <ele>1267</ele>
        <time>2013-01-26T13:39:09Z</time>
      </trkpt>
      <trkpt lat="45.35684" lon="5.90931">
        <ele>1262</ele>
        <time>2013-01-26T13:39:14Z</time>
      </trkpt>
      <trkpt lat="45.35682" lon="5.90959">
        <ele>1255</ele>
        <time>2013-01-26T13:39:19Z</time>
      </trkpt>
      <trkpt lat="45.35677" lon="5.90994">
        <ele>1248</ele>
        <time>2013-01-26T13:39:24Z</time>
      </trkpt>
      <trkpt lat="45.35689" lon="5.91029">
        <ele>1241</ele>
        <time>2013-01-26T13:39:29Z</time>
      </trkpt>
      <trkpt lat="45.35703" lon="5.91058">
        <ele>1235</ele>
        <time>2013-01-26T13:39:34Z</time>
      </trkpt>
      <trkpt lat="45.35711" lon="5.91087">
        <ele>1229</ele>
        <time>2013-01-26T13:39:39Z</time>
      </trkpt>
      <trkpt lat="45.35728" lon="5.91111">
        <ele>1224</ele>
        <time>2013-01-26T13:39:44Z</time>
      </trkpt>
      <trkpt lat="45.35727" lon="5.91111">
        <ele>1222</ele>
        <time>2013-01-26T13:39:49Z</time>
      </trkpt>
      <trkpt lat="45.35732" lon="5.91124">
        <ele>1219</ele>
        <time>2013-01-26T13:39:54Z</time>
      </trkpt>
      <trkpt lat="45.35733" lon="5.91125">
        <ele>1218</ele>
        <time>2013-01-26T13:39:59Z</time>
      </trkpt>
      <trkpt lat="45.35732" lon="5.91125">
        <ele>1218</ele>
        <time>2013-01-26T13:40:04Z</time>
      </trkpt>
      <trkpt lat="45.35732" lon="5.91125">
        <ele>1218</ele>
        <time>2013-01-26T13:40:09Z</time>
      </trkpt>
      <trkpt lat="45.35732" lon="5.91125">
        <ele>1218</ele>
        <time>2013-01-26T13:40:14Z</time>
      </trkpt>
      <trkpt lat="45.35732" lon="5.91124">
        <ele>1218</ele>
        <time>2013-01-26T13:40:19Z</time>
      </trkpt>
      <trkpt lat="45.35732" lon="5.91124">
        <ele>1218</ele>
        <time>2013-01-26T13:40:24Z</time>
      </trkpt>
      <trkpt lat="45.35731" lon="5.91124">
        <ele>1218</ele>
        <time>2013-01-26T13:40:29Z</time>
      </trkpt>
      <trkpt lat="45.35731" lon="5.91125">
        <ele>1220</ele>
        <time>2013-01-26T13:40:34Z</time>
      </trkpt>
      <trkpt lat="45.3573" lon="5.91125">
        <ele>1221</ele>
        <time>2013-01-26T13:40:39Z</time>
      </trkpt>
      <trkpt lat="45.3573" lon="5.91124">
        <ele>1220</ele>
        <time>2013-01-26T13:40:44Z</time>
      </trkpt>
      <trkpt lat="45.35731" lon="5.91124">
        <ele>1220</ele>
        <time>2013-01-26T13:40:49Z</time>
      </trkpt>
      <trkpt lat="45.35731" lon="5.91124">
        <ele>1220</ele>
        <time>2013-01-26T13:40:54Z</time>
      </trkpt>
      <trkpt lat="45.35731" lon="5.91125">
        <ele>1222</ele>
        <time>2013-01-26T13:40:59Z</time>
      </trkpt>
      <trkpt lat="45.3573" lon="5.91126">
        <ele>1224</ele>
        <time>2013-01-26T13:41:04Z</time>
      </trkpt>
      <trkpt lat="45.3573" lon="5.91127">
        <ele>1225</ele>
        <time>2013-01-26T13:41:09Z</time>
      </trkpt>
      <trkpt lat="45.3573" lon="5.91127">
        <ele>1225</ele>
        <time>2013-01-26T13:41:14Z</time>
      </trkpt>
      <trkpt lat="45.35725" lon="5.9114">
        <ele>1225</ele>
        <time>2013-01-26T13:41:19Z</time>
      </trkpt>
      <trkpt lat="45.35725" lon="5.91167">
        <ele>1217</ele>
        <time>2013-01-26T13:41:24Z</time>
      </trkpt>
      <trkpt lat="45.35726" lon="5.91201">
        <ele>1209</ele>
        <time>2013-01-26T13:41:29Z</time>
      </trkpt>
      <trkpt lat="45.35722" lon="5.9123">
        <ele>1201</ele>
        <time>2013-01-26T13:41:34Z</time>
      </trkpt>
      <trkpt lat="45.35734" lon="5.91265">
        <ele>1192</ele>
        <time>2013-01-26T13:41:39Z</time>
      </trkpt>
      <trkpt lat="45.35736" lon="5.91299">
        <ele>1182</ele>
        <time>2013-01-26T13:41:44Z</time>
      </trkpt>
      <trkpt lat="45.35722" lon="5.91331">
        <ele>1173</ele>
        <time>2013-01-26T13:41:49Z</time>
      </trkpt>
      <trkpt lat="45.35713" lon="5.91363">
        <ele>1167</ele>
        <time>2013-01-26T13:41:54Z</time>
      </trkpt>
      <trkpt lat="45.35721" lon="5.91399">
        <ele>1161</ele>
        <time>2013-01-26T13:41:59Z</time>
      </trkpt>
      <trkpt lat="45.35705" lon="5.91426">
        <ele>1155</ele>
        <time>2013-01-26T13:42:04Z</time>
      </trkpt>
      <trkpt lat="45.35696" lon="5.91457">
        <ele>1150</ele>
        <time>2013-01-26T13:42:09Z</time>
      </trkpt>
      <trkpt lat="45.35696" lon="5.9149">
        <ele>1144</ele>
        <time>2013-01-26T13:42:14Z</time>
      </trkpt>
      <trkpt lat="45.35687" lon="5.91524">
        <ele>1137</ele>
        <time>2013-01-26T13:42:19Z</time>
      </trkpt>
      <trkpt lat="45.35663" lon="5.91547">
        <ele>1130</ele>
        <time>2013-01-26T13:42:24Z</time>
      </trkpt>
      <trkpt lat="45.35661" lon="5.91586">
        <ele>1123</ele>
        <time>2013-01-26T13:42:29Z</time>
      </trkpt>
      <trkpt lat="45.35642" lon="5.91619">
        <ele>1115</ele>
        <time>2013-01-26T13:42:34Z</time>
      </trkpt>
      <trkpt lat="45.3564" lon="5.91653">
        <ele>1108</ele>
        <time>2013-01-26T13:42:39Z</time>
      </trkpt>
      <trkpt lat="45.35651" lon="5.91681">
        <ele>1100</ele>
        <time>2013-01-26T13:42:44Z</time>
      </trkpt>
      <trkpt lat="45.35638" lon="5.91705">
        <ele>1096</ele>
        <time>2013-01-26T13:42:49Z</time>
      </trkpt>
      <trkpt lat="45.35635" lon="5.91708">
        <ele>1097</ele>
        <time>2013-01-26T13:42:54Z</time>
      </trkpt>
      <trkpt lat="45.35635" lon="5.91707">
        <ele>1097</ele>
        <time>2013-01-26T13:42:59Z</time>
      </trkpt>
      <trkpt lat="45.35643" lon="5.91711">
        <ele>1096</ele>
        <time>2013-01-26T13:43:04Z</time>
      </trkpt>
      <trkpt lat="45.35659" lon="5.91721">
        <ele>1092</ele>
        <time>2013-01-26T13:43:09Z</time>
      </trkpt>
      <trkpt lat="45.35683" lon="5.91736">
        <ele>1084</ele>
        <time>2013-01-26T13:43:14Z</time>
      </trkpt>
      <trkpt lat="45.35692" lon="5.91773">
        <ele>1075</ele>
        <time>2013-01-26T13:43:19Z</time>
      </trkpt>
      <trkpt lat="45.35705" lon="5.91802">
        <ele>1070</ele>
        <time>2013-01-26T13:43:24Z</time>
      </trkpt>
      <trkpt lat="45.35695" lon="5.91816">
        <ele>1069</ele>
        <time>2013-01-26T13:43:29Z</time>
      </trkpt>
      <trkpt lat="45.35696" lon="5.91816">
        <ele>1069</ele>
        <time>2013-01-26T13:43:34Z</time>
      </trkpt>
      <trkpt lat="45.35695" lon="5.91815">
        <ele>1068</ele>
        <time>2013-01-26T13:43:39Z</time>
      </trkpt>
      <trkpt lat="45.35695" lon="5.91816">
        <ele>1068</ele>
        <time>2013-01-26T13:43:44Z</time>
      </trkpt>
      <trkpt lat="45.35696" lon="5.91815">
        <ele>1067</ele>
        <time>2013-01-26T13:43:49Z</time>
      </trkpt>
      <trkpt lat="45.35695" lon="5.91816">
        <ele>1067</ele>
        <time>2013-01-26T13:43:54Z</time>
      </trkpt>
      <trkpt lat="45.35695" lon="5.91817">
        <ele>1066</ele>
        <time>2013-01-26T13:43:59Z</time>
      </trkpt>
      <trkpt lat="45.3569" lon="5.9182">
        <ele>1067</ele>
        <time>2013-01-26T13:44:04Z</time>
      </trkpt>
      <trkpt lat="45.35687" lon="5.91824">
        <ele>1067</ele>
        <time>2013-01-26T13:44:09Z</time>
      </trkpt>
      <trkpt lat="45.35684" lon="5.91826">
        <ele>1067</ele>
        <time>2013-01-26T13:44:14Z</time>
      </trkpt>
      <trkpt lat="45.3568" lon="5.91829">
        <ele>1067</ele>
        <time>2013-01-26T13:44:19Z</time>
      </trkpt>
      <trkpt lat="45.35676" lon="5.91831">
        <ele>1068</ele>
        <time>2013-01-26T13:44:24Z</time>
      </trkpt>
      <trkpt lat="45.35672" lon="5.91833">
        <ele>1068</ele>
        <time>2013-01-26T13:44:29Z</time>
      </trkpt>
      <trkpt lat="45.35667" lon="5.91836">
        <ele>1069</ele>
        <time>2013-01-26T13:44:34Z</time>
      </trkpt>
      <trkpt lat="45.35662" lon="5.91839">
        <ele>1069</ele>
        <time>2013-01-26T13:44:39Z</time>
      </trkpt>
      <trkpt lat="45.35656" lon="5.91843">
        <ele>1070</ele>
        <time>2013-01-26T13:44:44Z</time>
      </trkpt>
      <trkpt lat="45.3565" lon="5.91845">
        <ele>1071</ele>
        <time>2013-01-26T13:44:49Z</time>
      </trkpt>
      <trkpt lat="45.35645" lon="5.91849">
        <ele>1071</ele>
        <time>2013-01-26T13:44:54Z</time>
      </trkpt>
      <trkpt lat="45.35639" lon="5.91853">
        <ele>1071</ele>
        <time>2013-01-26T13:44:59Z</time>
      </trkpt>
      <trkpt lat="45.35634" lon="5.91857">
        <ele>1072</ele>
        <time>2013-01-26T13:45:04Z</time>
      </trkpt>
      <trkpt lat="45.35629" lon="5.91859">
        <ele>1072</ele>
        <time>2013-01-26T13:45:09Z</time>
      </trkpt>
      <trkpt lat="45.35626" lon="5.91862">
        <ele>1072</ele>
        <time>2013-01-26T13:45:14Z</time>
      </trkpt>
      <trkpt lat="45.35622" lon="5.91864">
        <ele>1072</ele>
        <time>2013-01-26T13:45:19Z</time>
      </trkpt>
      <trkpt lat="45.35618" lon="5.91867">
        <ele>1071</ele>
        <time>2013-01-26T13:45:24Z</time>
      </trkpt>
      <trkpt lat="45.35614" lon="5.91868">
        <ele>1071</ele>
        <time>2013-01-26T13:45:29Z</time>
      </trkpt>
      <trkpt lat="45.35609" lon="5.91871">
        <ele>1071</ele>
        <time>2013-01-26T13:45:34Z</time>
      </trkpt>
      <trkpt lat="45.35604" lon="5.91873">
        <ele>1071</ele>
        <time>2013-01-26T13:45:39Z</time>
      </trkpt>
      <trkpt lat="45.35598" lon="5.91876">
        <ele>1071</ele>
        <time>2013-01-26T13:45:44Z</time>
      </trkpt>
      <trkpt lat="45.35593" lon="5.91877">
        <ele>1072</ele>
        <time>2013-01-26T13:45:49Z</time>
      </trkpt>
      <trkpt lat="45.35589" lon="5.91882">
        <ele>1073</ele>
        <time>2013-01-26T13:45:54Z</time>
      </trkpt>
      <trkpt lat="45.35589" lon="5.91888">
        <ele>1074</ele>
        <time>2013-01-26T13:45:59Z</time>
      </trkpt>
      <trkpt lat="45.35588" lon="5.91894">
        <ele>1074</ele>
        <time>2013-01-26T13:46:04Z</time>
      </trkpt>
      <trkpt lat="45.35589" lon="5.91895">
        <ele>1074</ele>
        <time>2013-01-26T13:46:09Z</time>
      </trkpt>
      <trkpt lat="45.35591" lon="5.91897">
        <ele>1074</ele>
        <time>2013-01-26T13:46:14Z</time>
      </trkpt>
      <trkpt lat="45.35594" lon="5.91899">
        <ele>1074</ele>
        <time>2013-01-26T13:46:19Z</time>
      </trkpt>
      <trkpt lat="45.35599" lon="5.91901">
        <ele>1074</ele>
        <time>2013-01-26T13:46:24Z</time>
      </trkpt>
      <trkpt lat="45.35603" lon="5.91903">
        <ele>1073</ele>
        <time>2013-01-26T13:46:29Z</time>
      </trkpt>
      <trkpt lat="45.35604" lon="5.91904">
        <ele>1072</ele>
        <time>2013-01-26T13:46:34Z</time>
      </trkpt>
    </trkseg>
  </trk>
</gpx>